<?xml version="1.0" encoding="UTF-8" standalone="no" ?>
<gpx xmlns="http://www.topografix.com/GPX/1/1" xmlns:xsi="http://www.w3.org/2001/XMLSchema-instance" xsi:schemaLocation="http://www.topografix.com/GPX/1/1 http://www.topografix.com/GPX/1/1/gpx.xsd" version="1.1" creator="VisuGPX - https://www.visugpx.com">
  <metadata>
    <name>Balade vélo départ lannion, via Pluzunet et La Roche Derrien-2</name>
    <desc><![CDATA[2ème tour de cette balade, avec du vent de travers au retour]]></desc>
  </metadata>
  <trk>
    <name><![CDATA[10 nov. 2015 14:01:19]]></name>
    <cmt><![CDATA[10 nov. 2015 14:01:19]]></cmt>
    <trkseg>
      <trkpt lat="48.73651" lon="-3.46307">
        <ele>49.9</ele>
        <time>2015-11-10T13:01:19Z</time>
      </trkpt>
      <trkpt lat="48.73648" lon="-3.46314">
        <ele>-6</ele>
        <time>2015-11-10T13:01:46Z</time>
      </trkpt>
      <trkpt lat="48.73641" lon="-3.46323">
        <ele>-6</ele>
        <time>2015-11-10T13:01:50Z</time>
      </trkpt>
      <trkpt lat="48.7363" lon="-3.4634">
        <ele>-5</ele>
        <time>2015-11-10T13:01:54Z</time>
      </trkpt>
      <trkpt lat="48.73622" lon="-3.4635">
        <ele>-5</ele>
        <time>2015-11-10T13:01:56Z</time>
      </trkpt>
      <trkpt lat="48.73616" lon="-3.46361">
        <ele>-4</ele>
        <time>2015-11-10T13:01:58Z</time>
      </trkpt>
      <trkpt lat="48.73609" lon="-3.46373">
        <ele>-4</ele>
        <time>2015-11-10T13:02:01Z</time>
      </trkpt>
      <trkpt lat="48.73604" lon="-3.46386">
        <ele>-3</ele>
        <time>2015-11-10T13:02:05Z</time>
      </trkpt>
      <trkpt lat="48.73612" lon="-3.464">
        <ele>-3</ele>
        <time>2015-11-10T13:02:09Z</time>
      </trkpt>
      <trkpt lat="48.73619" lon="-3.46413">
        <ele>-3</ele>
        <time>2015-11-10T13:02:12Z</time>
      </trkpt>
      <trkpt lat="48.73623" lon="-3.46439">
        <ele>-3</ele>
        <time>2015-11-10T13:02:17Z</time>
      </trkpt>
      <trkpt lat="48.73615" lon="-3.46455">
        <ele>-3</ele>
        <time>2015-11-10T13:02:23Z</time>
      </trkpt>
      <trkpt lat="48.73604" lon="-3.46458">
        <ele>-3</ele>
        <time>2015-11-10T13:02:26Z</time>
      </trkpt>
      <trkpt lat="48.73592" lon="-3.4646">
        <ele>-3</ele>
        <time>2015-11-10T13:02:29Z</time>
      </trkpt>
      <trkpt lat="48.7358" lon="-3.46462">
        <ele>-2</ele>
        <time>2015-11-10T13:02:32Z</time>
      </trkpt>
      <trkpt lat="48.73564" lon="-3.46466">
        <ele>-2</ele>
        <time>2015-11-10T13:02:36Z</time>
      </trkpt>
      <trkpt lat="48.73555" lon="-3.46468">
        <ele>-3</ele>
        <time>2015-11-10T13:02:38Z</time>
      </trkpt>
      <trkpt lat="48.73545" lon="-3.46471">
        <ele>-3</ele>
        <time>2015-11-10T13:02:40Z</time>
      </trkpt>
      <trkpt lat="48.73534" lon="-3.46475">
        <ele>-3</ele>
        <time>2015-11-10T13:02:42Z</time>
      </trkpt>
      <trkpt lat="48.73515" lon="-3.46481">
        <ele>-3</ele>
        <time>2015-11-10T13:02:45Z</time>
      </trkpt>
      <trkpt lat="48.73501" lon="-3.46485">
        <ele>-3</ele>
        <time>2015-11-10T13:02:47Z</time>
      </trkpt>
      <trkpt lat="48.73485" lon="-3.4649">
        <ele>-3</ele>
        <time>2015-11-10T13:02:49Z</time>
      </trkpt>
      <trkpt lat="48.73476" lon="-3.46492">
        <ele>-3</ele>
        <time>2015-11-10T13:02:50Z</time>
      </trkpt>
      <trkpt lat="48.73467" lon="-3.46494">
        <ele>-3</ele>
        <time>2015-11-10T13:02:51Z</time>
      </trkpt>
      <trkpt lat="48.73458" lon="-3.46495">
        <ele>-3</ele>
        <time>2015-11-10T13:02:52Z</time>
      </trkpt>
      <trkpt lat="48.73449" lon="-3.46495">
        <ele>-3</ele>
        <time>2015-11-10T13:02:53Z</time>
      </trkpt>
      <trkpt lat="48.7344" lon="-3.46494">
        <ele>-3</ele>
        <time>2015-11-10T13:02:54Z</time>
      </trkpt>
      <trkpt lat="48.73419" lon="-3.46493">
        <ele>-3</ele>
        <time>2015-11-10T13:02:57Z</time>
      </trkpt>
      <trkpt lat="48.73409" lon="-3.465">
        <ele>-3</ele>
        <time>2015-11-10T13:02:59Z</time>
      </trkpt>
      <trkpt lat="48.73406" lon="-3.46515">
        <ele>-3</ele>
        <time>2015-11-10T13:03:01Z</time>
      </trkpt>
      <trkpt lat="48.7341" lon="-3.46528">
        <ele>-3</ele>
        <time>2015-11-10T13:03:03Z</time>
      </trkpt>
      <trkpt lat="48.7342" lon="-3.46546">
        <ele>-3</ele>
        <time>2015-11-10T13:03:06Z</time>
      </trkpt>
      <trkpt lat="48.73431" lon="-3.46564">
        <ele>-3</ele>
        <time>2015-11-10T13:03:09Z</time>
      </trkpt>
      <trkpt lat="48.73438" lon="-3.46576">
        <ele>-4</ele>
        <time>2015-11-10T13:03:11Z</time>
      </trkpt>
      <trkpt lat="48.73438" lon="-3.46599">
        <ele>-4</ele>
        <time>2015-11-10T13:03:16Z</time>
      </trkpt>
      <trkpt lat="48.73429" lon="-3.46601">
        <ele>-5</ele>
        <time>2015-11-10T13:03:18Z</time>
      </trkpt>
      <trkpt lat="48.73411" lon="-3.46603">
        <ele>-5</ele>
        <time>2015-11-10T13:03:21Z</time>
      </trkpt>
      <trkpt lat="48.73392" lon="-3.46605">
        <ele>-5</ele>
        <time>2015-11-10T13:03:24Z</time>
      </trkpt>
      <trkpt lat="48.7337" lon="-3.46608">
        <ele>-6</ele>
        <time>2015-11-10T13:03:27Z</time>
      </trkpt>
      <trkpt lat="48.73356" lon="-3.46608">
        <ele>-6</ele>
        <time>2015-11-10T13:03:29Z</time>
      </trkpt>
      <trkpt lat="48.73341" lon="-3.46602">
        <ele>-7</ele>
        <time>2015-11-10T13:03:31Z</time>
      </trkpt>
      <trkpt lat="48.73328" lon="-3.4659">
        <ele>-7</ele>
        <time>2015-11-10T13:03:33Z</time>
      </trkpt>
      <trkpt lat="48.73316" lon="-3.46573">
        <ele>-7</ele>
        <time>2015-11-10T13:03:35Z</time>
      </trkpt>
      <trkpt lat="48.73295" lon="-3.46514">
        <ele>-7</ele>
        <time>2015-11-10T13:03:41Z</time>
      </trkpt>
      <trkpt lat="48.73291" lon="-3.4648">
        <ele>-8</ele>
        <time>2015-11-10T13:03:44Z</time>
      </trkpt>
      <trkpt lat="48.7329" lon="-3.46456">
        <ele>-9</ele>
        <time>2015-11-10T13:03:46Z</time>
      </trkpt>
      <trkpt lat="48.7329" lon="-3.46432">
        <ele>-9</ele>
        <time>2015-11-10T13:03:48Z</time>
      </trkpt>
      <trkpt lat="48.73284" lon="-3.46396">
        <ele>-10</ele>
        <time>2015-11-10T13:03:51Z</time>
      </trkpt>
      <trkpt lat="48.73284" lon="-3.4637">
        <ele>-10</ele>
        <time>2015-11-10T13:03:53Z</time>
      </trkpt>
      <trkpt lat="48.73285" lon="-3.46343">
        <ele>-11</ele>
        <time>2015-11-10T13:03:55Z</time>
      </trkpt>
      <trkpt lat="48.73285" lon="-3.46317">
        <ele>-11</ele>
        <time>2015-11-10T13:03:57Z</time>
      </trkpt>
      <trkpt lat="48.73278" lon="-3.46296">
        <ele>-12</ele>
        <time>2015-11-10T13:03:59Z</time>
      </trkpt>
      <trkpt lat="48.73266" lon="-3.46273">
        <ele>-13</ele>
        <time>2015-11-10T13:04:02Z</time>
      </trkpt>
      <trkpt lat="48.73249" lon="-3.46269">
        <ele>-14</ele>
        <time>2015-11-10T13:04:11Z</time>
      </trkpt>
      <trkpt lat="48.73238" lon="-3.4625">
        <ele>-15</ele>
        <time>2015-11-10T13:04:16Z</time>
      </trkpt>
      <trkpt lat="48.73229" lon="-3.46227">
        <ele>-16</ele>
        <time>2015-11-10T13:04:20Z</time>
      </trkpt>
      <trkpt lat="48.73215" lon="-3.46201">
        <ele>-17</ele>
        <time>2015-11-10T13:04:26Z</time>
      </trkpt>
      <trkpt lat="48.73198" lon="-3.46191">
        <ele>-18</ele>
        <time>2015-11-10T13:04:33Z</time>
      </trkpt>
      <trkpt lat="48.73183" lon="-3.46179">
        <ele>-19</ele>
        <time>2015-11-10T13:04:37Z</time>
      </trkpt>
      <trkpt lat="48.73165" lon="-3.4615">
        <ele>-20</ele>
        <time>2015-11-10T13:04:42Z</time>
      </trkpt>
      <trkpt lat="48.73154" lon="-3.46131">
        <ele>-20</ele>
        <time>2015-11-10T13:04:45Z</time>
      </trkpt>
      <trkpt lat="48.73142" lon="-3.46109">
        <ele>-21</ele>
        <time>2015-11-10T13:04:48Z</time>
      </trkpt>
      <trkpt lat="48.7313" lon="-3.46089">
        <ele>-22</ele>
        <time>2015-11-10T13:04:51Z</time>
      </trkpt>
      <trkpt lat="48.73118" lon="-3.46068">
        <ele>-22</ele>
        <time>2015-11-10T13:04:54Z</time>
      </trkpt>
      <trkpt lat="48.73109" lon="-3.46046">
        <ele>-23</ele>
        <time>2015-11-10T13:04:57Z</time>
      </trkpt>
      <trkpt lat="48.73101" lon="-3.46026">
        <ele>-24</ele>
        <time>2015-11-10T13:05:00Z</time>
      </trkpt>
      <trkpt lat="48.73094" lon="-3.46001">
        <ele>-25</ele>
        <time>2015-11-10T13:05:05Z</time>
      </trkpt>
      <trkpt lat="48.73078" lon="-3.46">
        <ele>-25</ele>
        <time>2015-11-10T13:05:10Z</time>
      </trkpt>
      <trkpt lat="48.73059" lon="-3.45989">
        <ele>-26</ele>
        <time>2015-11-10T13:05:15Z</time>
      </trkpt>
      <trkpt lat="48.73045" lon="-3.45977">
        <ele>-26</ele>
        <time>2015-11-10T13:05:18Z</time>
      </trkpt>
      <trkpt lat="48.7303" lon="-3.45963">
        <ele>-26</ele>
        <time>2015-11-10T13:05:21Z</time>
      </trkpt>
      <trkpt lat="48.73017" lon="-3.45949">
        <ele>-26</ele>
        <time>2015-11-10T13:05:24Z</time>
      </trkpt>
      <trkpt lat="48.72854" lon="-3.45813">
        <ele>-26</ele>
        <time>2015-11-10T13:05:57Z</time>
      </trkpt>
      <trkpt lat="48.72838" lon="-3.45802">
        <ele>-27</ele>
        <time>2015-11-10T13:06:00Z</time>
      </trkpt>
      <trkpt lat="48.72823" lon="-3.45791">
        <ele>-27</ele>
        <time>2015-11-10T13:06:03Z</time>
      </trkpt>
      <trkpt lat="48.72808" lon="-3.45783">
        <ele>-28</ele>
        <time>2015-11-10T13:06:06Z</time>
      </trkpt>
      <trkpt lat="48.72794" lon="-3.45773">
        <ele>-28</ele>
        <time>2015-11-10T13:06:09Z</time>
      </trkpt>
      <trkpt lat="48.72779" lon="-3.4576">
        <ele>-28</ele>
        <time>2015-11-10T13:06:12Z</time>
      </trkpt>
      <trkpt lat="48.72763" lon="-3.45747">
        <ele>-28</ele>
        <time>2015-11-10T13:06:15Z</time>
      </trkpt>
      <trkpt lat="48.72746" lon="-3.45732">
        <ele>-29</ele>
        <time>2015-11-10T13:06:18Z</time>
      </trkpt>
      <trkpt lat="48.72729" lon="-3.45717">
        <ele>-29</ele>
        <time>2015-11-10T13:06:21Z</time>
      </trkpt>
      <trkpt lat="48.72713" lon="-3.457">
        <ele>-29</ele>
        <time>2015-11-10T13:06:24Z</time>
      </trkpt>
      <trkpt lat="48.72699" lon="-3.45681">
        <ele>-29</ele>
        <time>2015-11-10T13:06:27Z</time>
      </trkpt>
      <trkpt lat="48.72685" lon="-3.45661">
        <ele>-30</ele>
        <time>2015-11-10T13:06:30Z</time>
      </trkpt>
      <trkpt lat="48.72672" lon="-3.45637">
        <ele>-30</ele>
        <time>2015-11-10T13:06:33Z</time>
      </trkpt>
      <trkpt lat="48.72659" lon="-3.45613">
        <ele>-30</ele>
        <time>2015-11-10T13:06:36Z</time>
      </trkpt>
      <trkpt lat="48.72652" lon="-3.45597">
        <ele>-30</ele>
        <time>2015-11-10T13:06:38Z</time>
      </trkpt>
      <trkpt lat="48.72634" lon="-3.45555">
        <ele>-31</ele>
        <time>2015-11-10T13:06:43Z</time>
      </trkpt>
      <trkpt lat="48.72625" lon="-3.45531">
        <ele>-31</ele>
        <time>2015-11-10T13:06:46Z</time>
      </trkpt>
      <trkpt lat="48.72618" lon="-3.45506">
        <ele>-31</ele>
        <time>2015-11-10T13:06:49Z</time>
      </trkpt>
      <trkpt lat="48.72611" lon="-3.45479">
        <ele>-32</ele>
        <time>2015-11-10T13:06:52Z</time>
      </trkpt>
      <trkpt lat="48.72606" lon="-3.45453">
        <ele>-32</ele>
        <time>2015-11-10T13:06:55Z</time>
      </trkpt>
      <trkpt lat="48.72601" lon="-3.45427">
        <ele>-32</ele>
        <time>2015-11-10T13:06:58Z</time>
      </trkpt>
      <trkpt lat="48.72598" lon="-3.45402">
        <ele>-33</ele>
        <time>2015-11-10T13:07:01Z</time>
      </trkpt>
      <trkpt lat="48.72596" lon="-3.45378">
        <ele>-33</ele>
        <time>2015-11-10T13:07:04Z</time>
      </trkpt>
      <trkpt lat="48.72595" lon="-3.45353">
        <ele>-33</ele>
        <time>2015-11-10T13:07:07Z</time>
      </trkpt>
      <trkpt lat="48.72595" lon="-3.45329">
        <ele>-33</ele>
        <time>2015-11-10T13:07:10Z</time>
      </trkpt>
      <trkpt lat="48.72596" lon="-3.45305">
        <ele>-33</ele>
        <time>2015-11-10T13:07:13Z</time>
      </trkpt>
      <trkpt lat="48.72597" lon="-3.45283">
        <ele>-34</ele>
        <time>2015-11-10T13:07:16Z</time>
      </trkpt>
      <trkpt lat="48.72598" lon="-3.45269">
        <ele>-34</ele>
        <time>2015-11-10T13:07:18Z</time>
      </trkpt>
      <trkpt lat="48.72599" lon="-3.45255">
        <ele>-34</ele>
        <time>2015-11-10T13:07:20Z</time>
      </trkpt>
      <trkpt lat="48.726" lon="-3.45241">
        <ele>-34</ele>
        <time>2015-11-10T13:07:22Z</time>
      </trkpt>
      <trkpt lat="48.72601" lon="-3.45229">
        <ele>-34</ele>
        <time>2015-11-10T13:07:24Z</time>
      </trkpt>
      <trkpt lat="48.72603" lon="-3.45204">
        <ele>-35</ele>
        <time>2015-11-10T13:07:28Z</time>
      </trkpt>
      <trkpt lat="48.72598" lon="-3.45183">
        <ele>-35</ele>
        <time>2015-11-10T13:07:32Z</time>
      </trkpt>
      <trkpt lat="48.72589" lon="-3.4518">
        <ele>-35</ele>
        <time>2015-11-10T13:07:34Z</time>
      </trkpt>
      <trkpt lat="48.7257" lon="-3.45178">
        <ele>-35</ele>
        <time>2015-11-10T13:07:37Z</time>
      </trkpt>
      <trkpt lat="48.72549" lon="-3.45169">
        <ele>-35</ele>
        <time>2015-11-10T13:07:40Z</time>
      </trkpt>
      <trkpt lat="48.72535" lon="-3.45161">
        <ele>-35</ele>
        <time>2015-11-10T13:07:42Z</time>
      </trkpt>
      <trkpt lat="48.72521" lon="-3.45151">
        <ele>-35</ele>
        <time>2015-11-10T13:07:44Z</time>
      </trkpt>
      <trkpt lat="48.725" lon="-3.45134">
        <ele>-35</ele>
        <time>2015-11-10T13:07:47Z</time>
      </trkpt>
      <trkpt lat="48.72487" lon="-3.45119">
        <ele>-35</ele>
        <time>2015-11-10T13:07:49Z</time>
      </trkpt>
      <trkpt lat="48.72476" lon="-3.45101">
        <ele>-35</ele>
        <time>2015-11-10T13:07:51Z</time>
      </trkpt>
      <trkpt lat="48.72467" lon="-3.45083">
        <ele>-35</ele>
        <time>2015-11-10T13:07:53Z</time>
      </trkpt>
      <trkpt lat="48.72455" lon="-3.45062">
        <ele>-35</ele>
        <time>2015-11-10T13:07:56Z</time>
      </trkpt>
      <trkpt lat="48.72447" lon="-3.45043">
        <ele>-35</ele>
        <time>2015-11-10T13:07:59Z</time>
      </trkpt>
      <trkpt lat="48.7244" lon="-3.45018">
        <ele>-35</ele>
        <time>2015-11-10T13:08:03Z</time>
      </trkpt>
      <trkpt lat="48.72431" lon="-3.44999">
        <ele>-35</ele>
        <time>2015-11-10T13:08:08Z</time>
      </trkpt>
      <trkpt lat="48.72418" lon="-3.44996">
        <ele>-36</ele>
        <time>2015-11-10T13:08:12Z</time>
      </trkpt>
      <trkpt lat="48.72408" lon="-3.44996">
        <ele>-36</ele>
        <time>2015-11-10T13:08:14Z</time>
      </trkpt>
      <trkpt lat="48.72391" lon="-3.45">
        <ele>-35</ele>
        <time>2015-11-10T13:08:17Z</time>
      </trkpt>
      <trkpt lat="48.72378" lon="-3.45006">
        <ele>-35</ele>
        <time>2015-11-10T13:08:20Z</time>
      </trkpt>
      <trkpt lat="48.7237" lon="-3.44995">
        <ele>-36</ele>
        <time>2015-11-10T13:08:25Z</time>
      </trkpt>
      <trkpt lat="48.72366" lon="-3.44972">
        <ele>-36</ele>
        <time>2015-11-10T13:08:32Z</time>
      </trkpt>
      <trkpt lat="48.72357" lon="-3.44947">
        <ele>-36</ele>
        <time>2015-11-10T13:08:37Z</time>
      </trkpt>
      <trkpt lat="48.72352" lon="-3.44937">
        <ele>-36</ele>
        <time>2015-11-10T13:08:39Z</time>
      </trkpt>
      <trkpt lat="48.72345" lon="-3.44922">
        <ele>-37</ele>
        <time>2015-11-10T13:08:42Z</time>
      </trkpt>
      <trkpt lat="48.72336" lon="-3.44899">
        <ele>-37</ele>
        <time>2015-11-10T13:08:47Z</time>
      </trkpt>
      <trkpt lat="48.72328" lon="-3.44873">
        <ele>-38</ele>
        <time>2015-11-10T13:08:52Z</time>
      </trkpt>
      <trkpt lat="48.72321" lon="-3.44845">
        <ele>-38</ele>
        <time>2015-11-10T13:08:58Z</time>
      </trkpt>
      <trkpt lat="48.72314" lon="-3.44818">
        <ele>-38</ele>
        <time>2015-11-10T13:09:03Z</time>
      </trkpt>
      <trkpt lat="48.72288" lon="-3.44674">
        <ele>-38</ele>
        <time>2015-11-10T13:09:25Z</time>
      </trkpt>
      <trkpt lat="48.72284" lon="-3.44647">
        <ele>-38</ele>
        <time>2015-11-10T13:09:30Z</time>
      </trkpt>
      <trkpt lat="48.7228" lon="-3.4461">
        <ele>-39</ele>
        <time>2015-11-10T13:09:40Z</time>
      </trkpt>
      <trkpt lat="48.72273" lon="-3.44574">
        <ele>-40</ele>
        <time>2015-11-10T13:09:48Z</time>
      </trkpt>
      <trkpt lat="48.72287" lon="-3.4456">
        <ele>-42</ele>
        <time>2015-11-10T13:09:55Z</time>
      </trkpt>
      <trkpt lat="48.723" lon="-3.44541">
        <ele>-44</ele>
        <time>2015-11-10T13:10:00Z</time>
      </trkpt>
      <trkpt lat="48.72302" lon="-3.44512">
        <ele>-45</ele>
        <time>2015-11-10T13:10:04Z</time>
      </trkpt>
      <trkpt lat="48.72301" lon="-3.44488">
        <ele>-46</ele>
        <time>2015-11-10T13:10:07Z</time>
      </trkpt>
      <trkpt lat="48.72291" lon="-3.44433">
        <ele>-47</ele>
        <time>2015-11-10T13:10:14Z</time>
      </trkpt>
      <trkpt lat="48.72256" lon="-3.4432">
        <ele>-48</ele>
        <time>2015-11-10T13:10:29Z</time>
      </trkpt>
      <trkpt lat="48.722" lon="-3.44156">
        <ele>13.4</ele>
        <time>2015-11-10T13:10:53Z</time>
      </trkpt>
      <trkpt lat="48.72123" lon="-3.44009">
        <ele>12</ele>
        <time>2015-11-10T13:11:22Z</time>
      </trkpt>
      <trkpt lat="48.72027" lon="-3.43845">
        <ele>7.1</ele>
        <time>2015-11-10T13:12:02Z</time>
      </trkpt>
      <trkpt lat="48.71943" lon="-3.43587">
        <ele>9.6</ele>
        <time>2015-11-10T13:12:36Z</time>
      </trkpt>
      <trkpt lat="48.7186" lon="-3.43352">
        <ele>8.9</ele>
        <time>2015-11-10T13:13:17Z</time>
      </trkpt>
      <trkpt lat="48.71839" lon="-3.43285">
        <ele>10.4</ele>
        <time>2015-11-10T13:13:27Z</time>
      </trkpt>
      <trkpt lat="48.71792" lon="-3.43065">
        <ele>14.9</ele>
        <time>2015-11-10T13:13:59Z</time>
      </trkpt>
      <trkpt lat="48.71754" lon="-3.42842">
        <ele>11.3</ele>
        <time>2015-11-10T13:14:31Z</time>
      </trkpt>
      <trkpt lat="48.71732" lon="-3.42782">
        <ele>11.8</ele>
        <time>2015-11-10T13:14:41Z</time>
      </trkpt>
      <trkpt lat="48.71704" lon="-3.42743">
        <ele>-40</ele>
        <time>2015-11-10T13:14:50Z</time>
      </trkpt>
      <trkpt lat="48.71642" lon="-3.42653">
        <ele>10.3</ele>
        <time>2015-11-10T13:15:06Z</time>
      </trkpt>
      <trkpt lat="48.71623" lon="-3.42594">
        <ele>12.7</ele>
        <time>2015-11-10T13:15:12Z</time>
      </trkpt>
      <trkpt lat="48.71539" lon="-3.42297">
        <ele>10</ele>
        <time>2015-11-10T13:15:50Z</time>
      </trkpt>
      <trkpt lat="48.71492" lon="-3.42234">
        <ele>8.3</ele>
        <time>2015-11-10T13:16:14Z</time>
      </trkpt>
      <trkpt lat="48.7145" lon="-3.42212">
        <ele>8.3</ele>
        <time>2015-11-10T13:16:26Z</time>
      </trkpt>
      <trkpt lat="48.71336" lon="-3.4212">
        <ele>9.6</ele>
        <time>2015-11-10T13:17:01Z</time>
      </trkpt>
      <trkpt lat="48.71278" lon="-3.42049">
        <ele>-32</ele>
        <time>2015-11-10T13:17:20Z</time>
      </trkpt>
      <trkpt lat="48.71295" lon="-3.42056">
        <ele>-18</ele>
        <time>2015-11-10T13:17:29Z</time>
      </trkpt>
      <trkpt lat="48.7131" lon="-3.42065">
        <ele>-15</ele>
        <time>2015-11-10T13:17:37Z</time>
      </trkpt>
      <trkpt lat="48.71324" lon="-3.42076">
        <ele>-11</ele>
        <time>2015-11-10T13:17:45Z</time>
      </trkpt>
      <trkpt lat="48.71332" lon="-3.42081">
        <ele>-10</ele>
        <time>2015-11-10T13:17:49Z</time>
      </trkpt>
      <trkpt lat="48.71348" lon="-3.42088">
        <ele>-9</ele>
        <time>2015-11-10T13:18:00Z</time>
      </trkpt>
      <trkpt lat="48.71363" lon="-3.42095">
        <ele>-10</ele>
        <time>2015-11-10T13:18:05Z</time>
      </trkpt>
      <trkpt lat="48.71379" lon="-3.42101">
        <ele>-12</ele>
        <time>2015-11-10T13:18:13Z</time>
      </trkpt>
      <trkpt lat="48.71396" lon="-3.42109">
        <ele>-14</ele>
        <time>2015-11-10T13:18:21Z</time>
      </trkpt>
      <trkpt lat="48.7141" lon="-3.42118">
        <ele>-16</ele>
        <time>2015-11-10T13:18:28Z</time>
      </trkpt>
      <trkpt lat="48.71425" lon="-3.42127">
        <ele>-18</ele>
        <time>2015-11-10T13:18:35Z</time>
      </trkpt>
      <trkpt lat="48.71453" lon="-3.4213">
        <ele>-18</ele>
        <time>2015-11-10T13:18:52Z</time>
      </trkpt>
      <trkpt lat="48.71469" lon="-3.4212">
        <ele>-20</ele>
        <time>2015-11-10T13:19:02Z</time>
      </trkpt>
      <trkpt lat="48.71481" lon="-3.42104">
        <ele>-21</ele>
        <time>2015-11-10T13:19:10Z</time>
      </trkpt>
      <trkpt lat="48.71492" lon="-3.42084">
        <ele>-23</ele>
        <time>2015-11-10T13:19:17Z</time>
      </trkpt>
      <trkpt lat="48.71502" lon="-3.42062">
        <ele>-24</ele>
        <time>2015-11-10T13:19:24Z</time>
      </trkpt>
      <trkpt lat="48.71509" lon="-3.42042">
        <ele>-24</ele>
        <time>2015-11-10T13:19:30Z</time>
      </trkpt>
      <trkpt lat="48.71517" lon="-3.4202">
        <ele>-25</ele>
        <time>2015-11-10T13:19:37Z</time>
      </trkpt>
      <trkpt lat="48.71526" lon="-3.41998">
        <ele>-25</ele>
        <time>2015-11-10T13:19:45Z</time>
      </trkpt>
      <trkpt lat="48.71533" lon="-3.41985">
        <ele>-25</ele>
        <time>2015-11-10T13:19:50Z</time>
      </trkpt>
      <trkpt lat="48.71545" lon="-3.41964">
        <ele>-24</ele>
        <time>2015-11-10T13:20:00Z</time>
      </trkpt>
      <trkpt lat="48.71556" lon="-3.41946">
        <ele>-24</ele>
        <time>2015-11-10T13:20:10Z</time>
      </trkpt>
      <trkpt lat="48.71568" lon="-3.41931">
        <ele>-23</ele>
        <time>2015-11-10T13:20:18Z</time>
      </trkpt>
      <trkpt lat="48.71583" lon="-3.41921">
        <ele>-23</ele>
        <time>2015-11-10T13:20:25Z</time>
      </trkpt>
      <trkpt lat="48.716" lon="-3.41918">
        <ele>-22</ele>
        <time>2015-11-10T13:20:32Z</time>
      </trkpt>
      <trkpt lat="48.71609" lon="-3.41919">
        <ele>-22</ele>
        <time>2015-11-10T13:20:36Z</time>
      </trkpt>
      <trkpt lat="48.7162" lon="-3.41921">
        <ele>-21</ele>
        <time>2015-11-10T13:20:41Z</time>
      </trkpt>
      <trkpt lat="48.71632" lon="-3.4192">
        <ele>-21</ele>
        <time>2015-11-10T13:20:46Z</time>
      </trkpt>
      <trkpt lat="48.71645" lon="-3.41917">
        <ele>-21</ele>
        <time>2015-11-10T13:20:52Z</time>
      </trkpt>
      <trkpt lat="48.71654" lon="-3.41914">
        <ele>-20</ele>
        <time>2015-11-10T13:20:56Z</time>
      </trkpt>
      <trkpt lat="48.71669" lon="-3.41906">
        <ele>-20</ele>
        <time>2015-11-10T13:21:03Z</time>
      </trkpt>
      <trkpt lat="48.71678" lon="-3.41901">
        <ele>-20</ele>
        <time>2015-11-10T13:21:07Z</time>
      </trkpt>
      <trkpt lat="48.71688" lon="-3.41893">
        <ele>-19</ele>
        <time>2015-11-10T13:21:11Z</time>
      </trkpt>
      <trkpt lat="48.71695" lon="-3.41886">
        <ele>-19</ele>
        <time>2015-11-10T13:21:14Z</time>
      </trkpt>
      <trkpt lat="48.71701" lon="-3.41877">
        <ele>-19</ele>
        <time>2015-11-10T13:21:17Z</time>
      </trkpt>
      <trkpt lat="48.71706" lon="-3.41867">
        <ele>-19</ele>
        <time>2015-11-10T13:21:20Z</time>
      </trkpt>
      <trkpt lat="48.71712" lon="-3.41854">
        <ele>-19</ele>
        <time>2015-11-10T13:21:24Z</time>
      </trkpt>
      <trkpt lat="48.71716" lon="-3.41841">
        <ele>-19</ele>
        <time>2015-11-10T13:21:28Z</time>
      </trkpt>
      <trkpt lat="48.71719" lon="-3.41828">
        <ele>-19</ele>
        <time>2015-11-10T13:21:32Z</time>
      </trkpt>
      <trkpt lat="48.7172" lon="-3.41814">
        <ele>-18</ele>
        <time>2015-11-10T13:21:36Z</time>
      </trkpt>
      <trkpt lat="48.71722" lon="-3.41795">
        <ele>-18</ele>
        <time>2015-11-10T13:21:42Z</time>
      </trkpt>
      <trkpt lat="48.71724" lon="-3.41783">
        <ele>-17</ele>
        <time>2015-11-10T13:21:46Z</time>
      </trkpt>
      <trkpt lat="48.71726" lon="-3.41771">
        <ele>-16</ele>
        <time>2015-11-10T13:21:50Z</time>
      </trkpt>
      <trkpt lat="48.71729" lon="-3.41758">
        <ele>-16</ele>
        <time>2015-11-10T13:21:54Z</time>
      </trkpt>
      <trkpt lat="48.71732" lon="-3.41745">
        <ele>-15</ele>
        <time>2015-11-10T13:21:58Z</time>
      </trkpt>
      <trkpt lat="48.71735" lon="-3.41731">
        <ele>-14</ele>
        <time>2015-11-10T13:22:02Z</time>
      </trkpt>
      <trkpt lat="48.71739" lon="-3.41714">
        <ele>-14</ele>
        <time>2015-11-10T13:22:07Z</time>
      </trkpt>
      <trkpt lat="48.71742" lon="-3.41703">
        <ele>-13</ele>
        <time>2015-11-10T13:22:11Z</time>
      </trkpt>
      <trkpt lat="48.71747" lon="-3.41692">
        <ele>-12</ele>
        <time>2015-11-10T13:22:15Z</time>
      </trkpt>
      <trkpt lat="48.71753" lon="-3.41683">
        <ele>-11</ele>
        <time>2015-11-10T13:22:19Z</time>
      </trkpt>
      <trkpt lat="48.7176" lon="-3.41673">
        <ele>-11</ele>
        <time>2015-11-10T13:22:24Z</time>
      </trkpt>
      <trkpt lat="48.71767" lon="-3.41665">
        <ele>-10</ele>
        <time>2015-11-10T13:22:28Z</time>
      </trkpt>
      <trkpt lat="48.71781" lon="-3.41649">
        <ele>-9</ele>
        <time>2015-11-10T13:22:36Z</time>
      </trkpt>
      <trkpt lat="48.71787" lon="-3.41639">
        <ele>-9</ele>
        <time>2015-11-10T13:22:40Z</time>
      </trkpt>
      <trkpt lat="48.71792" lon="-3.41628">
        <ele>-9</ele>
        <time>2015-11-10T13:22:44Z</time>
      </trkpt>
      <trkpt lat="48.71797" lon="-3.41616">
        <ele>-8</ele>
        <time>2015-11-10T13:22:48Z</time>
      </trkpt>
      <trkpt lat="48.718" lon="-3.41602">
        <ele>-7</ele>
        <time>2015-11-10T13:22:52Z</time>
      </trkpt>
      <trkpt lat="48.718" lon="-3.41585">
        <ele>-7</ele>
        <time>2015-11-10T13:22:57Z</time>
      </trkpt>
      <trkpt lat="48.71799" lon="-3.41568">
        <ele>-6</ele>
        <time>2015-11-10T13:23:02Z</time>
      </trkpt>
      <trkpt lat="48.71796" lon="-3.41546">
        <ele>-6</ele>
        <time>2015-11-10T13:23:10Z</time>
      </trkpt>
      <trkpt lat="48.71792" lon="-3.41521">
        <ele>-5</ele>
        <time>2015-11-10T13:23:20Z</time>
      </trkpt>
      <trkpt lat="48.7179" lon="-3.41498">
        <ele>-5</ele>
        <time>2015-11-10T13:23:28Z</time>
      </trkpt>
      <trkpt lat="48.71788" lon="-3.41474">
        <ele>-5</ele>
        <time>2015-11-10T13:23:36Z</time>
      </trkpt>
      <trkpt lat="48.71783" lon="-3.41448">
        <ele>-4</ele>
        <time>2015-11-10T13:23:44Z</time>
      </trkpt>
      <trkpt lat="48.7178" lon="-3.41434">
        <ele>-3</ele>
        <time>2015-11-10T13:23:48Z</time>
      </trkpt>
      <trkpt lat="48.71776" lon="-3.41414">
        <ele>-2</ele>
        <time>2015-11-10T13:23:54Z</time>
      </trkpt>
      <trkpt lat="48.71771" lon="-3.4139">
        <ele>-1</ele>
        <time>2015-11-10T13:24:01Z</time>
      </trkpt>
      <trkpt lat="48.71768" lon="-3.41365">
        <ele>62.8</ele>
        <time>2015-11-10T13:24:06Z</time>
      </trkpt>
      <trkpt lat="48.71766" lon="-3.41342">
        <ele>1</ele>
        <time>2015-11-10T13:24:12Z</time>
      </trkpt>
      <trkpt lat="48.71762" lon="-3.41335">
        <ele>4</ele>
        <time>2015-11-10T13:24:25Z</time>
      </trkpt>
      <trkpt lat="48.71763" lon="-3.4131">
        <ele>15</ele>
        <time>2015-11-10T13:26:36Z</time>
      </trkpt>
      <trkpt lat="48.71755" lon="-3.41287">
        <ele>15</ele>
        <time>2015-11-10T13:26:42Z</time>
      </trkpt>
      <trkpt lat="48.71746" lon="-3.41268">
        <ele>17</ele>
        <time>2015-11-10T13:26:47Z</time>
      </trkpt>
      <trkpt lat="48.71737" lon="-3.41246">
        <ele>18</ele>
        <time>2015-11-10T13:26:53Z</time>
      </trkpt>
      <trkpt lat="48.71731" lon="-3.41231">
        <ele>19</ele>
        <time>2015-11-10T13:26:57Z</time>
      </trkpt>
      <trkpt lat="48.71727" lon="-3.41221">
        <ele>20</ele>
        <time>2015-11-10T13:27:00Z</time>
      </trkpt>
      <trkpt lat="48.71719" lon="-3.41198">
        <ele>20</ele>
        <time>2015-11-10T13:27:06Z</time>
      </trkpt>
      <trkpt lat="48.71714" lon="-3.41175">
        <ele>21</ele>
        <time>2015-11-10T13:27:12Z</time>
      </trkpt>
      <trkpt lat="48.7171" lon="-3.41152">
        <ele>22</ele>
        <time>2015-11-10T13:27:18Z</time>
      </trkpt>
      <trkpt lat="48.71708" lon="-3.41132">
        <ele>22</ele>
        <time>2015-11-10T13:27:23Z</time>
      </trkpt>
      <trkpt lat="48.71705" lon="-3.41116">
        <ele>23</ele>
        <time>2015-11-10T13:27:27Z</time>
      </trkpt>
      <trkpt lat="48.71702" lon="-3.41093">
        <ele>24</ele>
        <time>2015-11-10T13:27:33Z</time>
      </trkpt>
      <trkpt lat="48.71695" lon="-3.4108">
        <ele>24</ele>
        <time>2015-11-10T13:27:37Z</time>
      </trkpt>
      <trkpt lat="48.71681" lon="-3.41069">
        <ele>25</ele>
        <time>2015-11-10T13:27:42Z</time>
      </trkpt>
      <trkpt lat="48.71668" lon="-3.41058">
        <ele>25</ele>
        <time>2015-11-10T13:27:46Z</time>
      </trkpt>
      <trkpt lat="48.71655" lon="-3.41044">
        <ele>26</ele>
        <time>2015-11-10T13:27:50Z</time>
      </trkpt>
      <trkpt lat="48.71647" lon="-3.41032">
        <ele>26</ele>
        <time>2015-11-10T13:27:53Z</time>
      </trkpt>
      <trkpt lat="48.71638" lon="-3.41022">
        <ele>27</ele>
        <time>2015-11-10T13:27:56Z</time>
      </trkpt>
      <trkpt lat="48.71627" lon="-3.41015">
        <ele>27</ele>
        <time>2015-11-10T13:27:59Z</time>
      </trkpt>
      <trkpt lat="48.71617" lon="-3.41008">
        <ele>28</ele>
        <time>2015-11-10T13:28:02Z</time>
      </trkpt>
      <trkpt lat="48.71609" lon="-3.41002">
        <ele>28</ele>
        <time>2015-11-10T13:28:04Z</time>
      </trkpt>
      <trkpt lat="48.71601" lon="-3.40995">
        <ele>29</ele>
        <time>2015-11-10T13:28:06Z</time>
      </trkpt>
      <trkpt lat="48.71594" lon="-3.40987">
        <ele>29</ele>
        <time>2015-11-10T13:28:08Z</time>
      </trkpt>
      <trkpt lat="48.71587" lon="-3.40978">
        <ele>29</ele>
        <time>2015-11-10T13:28:10Z</time>
      </trkpt>
      <trkpt lat="48.7158" lon="-3.40968">
        <ele>30</ele>
        <time>2015-11-10T13:28:12Z</time>
      </trkpt>
      <trkpt lat="48.7157" lon="-3.40952">
        <ele>30</ele>
        <time>2015-11-10T13:28:15Z</time>
      </trkpt>
      <trkpt lat="48.71564" lon="-3.40942">
        <ele>31</ele>
        <time>2015-11-10T13:28:17Z</time>
      </trkpt>
      <trkpt lat="48.71551" lon="-3.40921">
        <ele>31</ele>
        <time>2015-11-10T13:28:21Z</time>
      </trkpt>
      <trkpt lat="48.71539" lon="-3.40897">
        <ele>31</ele>
        <time>2015-11-10T13:28:25Z</time>
      </trkpt>
      <trkpt lat="48.7153" lon="-3.40877">
        <ele>31</ele>
        <time>2015-11-10T13:28:28Z</time>
      </trkpt>
      <trkpt lat="48.71524" lon="-3.40863">
        <ele>31</ele>
        <time>2015-11-10T13:28:30Z</time>
      </trkpt>
      <trkpt lat="48.71513" lon="-3.40841">
        <ele>32</ele>
        <time>2015-11-10T13:28:33Z</time>
      </trkpt>
      <trkpt lat="48.71505" lon="-3.40826">
        <ele>32</ele>
        <time>2015-11-10T13:28:35Z</time>
      </trkpt>
      <trkpt lat="48.71497" lon="-3.40813">
        <ele>32</ele>
        <time>2015-11-10T13:28:37Z</time>
      </trkpt>
      <trkpt lat="48.71488" lon="-3.408">
        <ele>32</ele>
        <time>2015-11-10T13:28:39Z</time>
      </trkpt>
      <trkpt lat="48.71478" lon="-3.40785">
        <ele>33</ele>
        <time>2015-11-10T13:28:41Z</time>
      </trkpt>
      <trkpt lat="48.71467" lon="-3.40758">
        <ele>33</ele>
        <time>2015-11-10T13:28:44Z</time>
      </trkpt>
      <trkpt lat="48.71459" lon="-3.40728">
        <ele>33</ele>
        <time>2015-11-10T13:28:47Z</time>
      </trkpt>
      <trkpt lat="48.71455" lon="-3.40707">
        <ele>33</ele>
        <time>2015-11-10T13:28:49Z</time>
      </trkpt>
      <trkpt lat="48.71449" lon="-3.40675">
        <ele>33</ele>
        <time>2015-11-10T13:28:52Z</time>
      </trkpt>
      <trkpt lat="48.71445" lon="-3.40652">
        <ele>33</ele>
        <time>2015-11-10T13:28:54Z</time>
      </trkpt>
      <trkpt lat="48.71441" lon="-3.40629">
        <ele>33</ele>
        <time>2015-11-10T13:28:56Z</time>
      </trkpt>
      <trkpt lat="48.71437" lon="-3.40606">
        <ele>34</ele>
        <time>2015-11-10T13:28:58Z</time>
      </trkpt>
      <trkpt lat="48.71433" lon="-3.40583">
        <ele>34</ele>
        <time>2015-11-10T13:29:00Z</time>
      </trkpt>
      <trkpt lat="48.7143" lon="-3.40559">
        <ele>34</ele>
        <time>2015-11-10T13:29:02Z</time>
      </trkpt>
      <trkpt lat="48.71428" lon="-3.40535">
        <ele>34</ele>
        <time>2015-11-10T13:29:04Z</time>
      </trkpt>
      <trkpt lat="48.71426" lon="-3.40511">
        <ele>34</ele>
        <time>2015-11-10T13:29:06Z</time>
      </trkpt>
      <trkpt lat="48.71424" lon="-3.40488">
        <ele>34</ele>
        <time>2015-11-10T13:29:08Z</time>
      </trkpt>
      <trkpt lat="48.71423" lon="-3.40466">
        <ele>34</ele>
        <time>2015-11-10T13:29:10Z</time>
      </trkpt>
      <trkpt lat="48.71421" lon="-3.40444">
        <ele>34</ele>
        <time>2015-11-10T13:29:12Z</time>
      </trkpt>
      <trkpt lat="48.71416" lon="-3.40412">
        <ele>34</ele>
        <time>2015-11-10T13:29:15Z</time>
      </trkpt>
      <trkpt lat="48.71405" lon="-3.40386">
        <ele>34</ele>
        <time>2015-11-10T13:29:18Z</time>
      </trkpt>
      <trkpt lat="48.71391" lon="-3.40367">
        <ele>34</ele>
        <time>2015-11-10T13:29:21Z</time>
      </trkpt>
      <trkpt lat="48.7138" lon="-3.40358">
        <ele>35</ele>
        <time>2015-11-10T13:29:23Z</time>
      </trkpt>
      <trkpt lat="48.71365" lon="-3.40346">
        <ele>35</ele>
        <time>2015-11-10T13:29:26Z</time>
      </trkpt>
      <trkpt lat="48.71356" lon="-3.40338">
        <ele>35</ele>
        <time>2015-11-10T13:29:28Z</time>
      </trkpt>
      <trkpt lat="48.71347" lon="-3.4033">
        <ele>35</ele>
        <time>2015-11-10T13:29:30Z</time>
      </trkpt>
      <trkpt lat="48.71333" lon="-3.40319">
        <ele>35</ele>
        <time>2015-11-10T13:29:33Z</time>
      </trkpt>
      <trkpt lat="48.71324" lon="-3.40312">
        <ele>35</ele>
        <time>2015-11-10T13:29:35Z</time>
      </trkpt>
      <trkpt lat="48.71316" lon="-3.40306">
        <ele>35</ele>
        <time>2015-11-10T13:29:37Z</time>
      </trkpt>
      <trkpt lat="48.71307" lon="-3.403">
        <ele>35</ele>
        <time>2015-11-10T13:29:39Z</time>
      </trkpt>
      <trkpt lat="48.71299" lon="-3.40295">
        <ele>35</ele>
        <time>2015-11-10T13:29:41Z</time>
      </trkpt>
      <trkpt lat="48.71291" lon="-3.4029">
        <ele>35</ele>
        <time>2015-11-10T13:29:43Z</time>
      </trkpt>
      <trkpt lat="48.71275" lon="-3.40283">
        <ele>36</ele>
        <time>2015-11-10T13:29:47Z</time>
      </trkpt>
      <trkpt lat="48.71264" lon="-3.40279">
        <ele>36</ele>
        <time>2015-11-10T13:29:50Z</time>
      </trkpt>
      <trkpt lat="48.71254" lon="-3.40275">
        <ele>36</ele>
        <time>2015-11-10T13:29:53Z</time>
      </trkpt>
      <trkpt lat="48.71244" lon="-3.40274">
        <ele>36</ele>
        <time>2015-11-10T13:29:56Z</time>
      </trkpt>
      <trkpt lat="48.71234" lon="-3.40272">
        <ele>37</ele>
        <time>2015-11-10T13:29:59Z</time>
      </trkpt>
      <trkpt lat="48.71225" lon="-3.40271">
        <ele>37</ele>
        <time>2015-11-10T13:30:02Z</time>
      </trkpt>
      <trkpt lat="48.71216" lon="-3.40269">
        <ele>37</ele>
        <time>2015-11-10T13:30:05Z</time>
      </trkpt>
      <trkpt lat="48.71207" lon="-3.40268">
        <ele>37</ele>
        <time>2015-11-10T13:30:08Z</time>
      </trkpt>
      <trkpt lat="48.71198" lon="-3.40266">
        <ele>37</ele>
        <time>2015-11-10T13:30:11Z</time>
      </trkpt>
      <trkpt lat="48.71189" lon="-3.40265">
        <ele>37</ele>
        <time>2015-11-10T13:30:14Z</time>
      </trkpt>
      <trkpt lat="48.7118" lon="-3.40263">
        <ele>38</ele>
        <time>2015-11-10T13:30:17Z</time>
      </trkpt>
      <trkpt lat="48.71171" lon="-3.40262">
        <ele>38</ele>
        <time>2015-11-10T13:30:20Z</time>
      </trkpt>
      <trkpt lat="48.71161" lon="-3.4026">
        <ele>38</ele>
        <time>2015-11-10T13:30:23Z</time>
      </trkpt>
      <trkpt lat="48.71152" lon="-3.40258">
        <ele>38</ele>
        <time>2015-11-10T13:30:26Z</time>
      </trkpt>
      <trkpt lat="48.71144" lon="-3.40255">
        <ele>38</ele>
        <time>2015-11-10T13:30:29Z</time>
      </trkpt>
      <trkpt lat="48.71128" lon="-3.40244">
        <ele>38</ele>
        <time>2015-11-10T13:30:35Z</time>
      </trkpt>
      <trkpt lat="48.71121" lon="-3.40233">
        <ele>39</ele>
        <time>2015-11-10T13:30:39Z</time>
      </trkpt>
      <trkpt lat="48.71115" lon="-3.40222">
        <ele>39</ele>
        <time>2015-11-10T13:30:43Z</time>
      </trkpt>
      <trkpt lat="48.7111" lon="-3.40213">
        <ele>39</ele>
        <time>2015-11-10T13:30:47Z</time>
      </trkpt>
      <trkpt lat="48.71103" lon="-3.40196">
        <ele>39</ele>
        <time>2015-11-10T13:30:55Z</time>
      </trkpt>
      <trkpt lat="48.71094" lon="-3.40203">
        <ele>39</ele>
        <time>2015-11-10T13:31:01Z</time>
      </trkpt>
      <trkpt lat="48.71085" lon="-3.40213">
        <ele>40</ele>
        <time>2015-11-10T13:31:05Z</time>
      </trkpt>
      <trkpt lat="48.71078" lon="-3.40221">
        <ele>40</ele>
        <time>2015-11-10T13:31:08Z</time>
      </trkpt>
      <trkpt lat="48.71071" lon="-3.40229">
        <ele>40</ele>
        <time>2015-11-10T13:31:11Z</time>
      </trkpt>
      <trkpt lat="48.71063" lon="-3.40236">
        <ele>41</ele>
        <time>2015-11-10T13:31:14Z</time>
      </trkpt>
      <trkpt lat="48.71054" lon="-3.40242">
        <ele>41</ele>
        <time>2015-11-10T13:31:17Z</time>
      </trkpt>
      <trkpt lat="48.71046" lon="-3.40248">
        <ele>41</ele>
        <time>2015-11-10T13:31:20Z</time>
      </trkpt>
      <trkpt lat="48.71037" lon="-3.40252">
        <ele>42</ele>
        <time>2015-11-10T13:31:23Z</time>
      </trkpt>
      <trkpt lat="48.71028" lon="-3.40255">
        <ele>42</ele>
        <time>2015-11-10T13:31:26Z</time>
      </trkpt>
      <trkpt lat="48.7102" lon="-3.40258">
        <ele>42</ele>
        <time>2015-11-10T13:31:29Z</time>
      </trkpt>
      <trkpt lat="48.71011" lon="-3.4026">
        <ele>42</ele>
        <time>2015-11-10T13:31:32Z</time>
      </trkpt>
      <trkpt lat="48.71003" lon="-3.40262">
        <ele>42</ele>
        <time>2015-11-10T13:31:35Z</time>
      </trkpt>
      <trkpt lat="48.70992" lon="-3.40263">
        <ele>43</ele>
        <time>2015-11-10T13:31:39Z</time>
      </trkpt>
      <trkpt lat="48.70982" lon="-3.40264">
        <ele>43</ele>
        <time>2015-11-10T13:31:43Z</time>
      </trkpt>
      <trkpt lat="48.70971" lon="-3.40264">
        <ele>43</ele>
        <time>2015-11-10T13:31:47Z</time>
      </trkpt>
      <trkpt lat="48.70961" lon="-3.40264">
        <ele>43</ele>
        <time>2015-11-10T13:31:51Z</time>
      </trkpt>
      <trkpt lat="48.70951" lon="-3.40263">
        <ele>44</ele>
        <time>2015-11-10T13:31:55Z</time>
      </trkpt>
      <trkpt lat="48.70942" lon="-3.40263">
        <ele>44</ele>
        <time>2015-11-10T13:31:58Z</time>
      </trkpt>
      <trkpt lat="48.70932" lon="-3.40262">
        <ele>44</ele>
        <time>2015-11-10T13:32:01Z</time>
      </trkpt>
      <trkpt lat="48.70922" lon="-3.40261">
        <ele>44</ele>
        <time>2015-11-10T13:32:04Z</time>
      </trkpt>
      <trkpt lat="48.70912" lon="-3.4026">
        <ele>44</ele>
        <time>2015-11-10T13:32:07Z</time>
      </trkpt>
      <trkpt lat="48.70902" lon="-3.40259">
        <ele>44</ele>
        <time>2015-11-10T13:32:10Z</time>
      </trkpt>
      <trkpt lat="48.7089" lon="-3.40257">
        <ele>44</ele>
        <time>2015-11-10T13:32:13Z</time>
      </trkpt>
      <trkpt lat="48.70879" lon="-3.40256">
        <ele>44</ele>
        <time>2015-11-10T13:32:16Z</time>
      </trkpt>
      <trkpt lat="48.70868" lon="-3.40254">
        <ele>44</ele>
        <time>2015-11-10T13:32:19Z</time>
      </trkpt>
      <trkpt lat="48.70857" lon="-3.40252">
        <ele>44</ele>
        <time>2015-11-10T13:32:22Z</time>
      </trkpt>
      <trkpt lat="48.70846" lon="-3.40251">
        <ele>44</ele>
        <time>2015-11-10T13:32:25Z</time>
      </trkpt>
      <trkpt lat="48.70836" lon="-3.40249">
        <ele>44</ele>
        <time>2015-11-10T13:32:28Z</time>
      </trkpt>
      <trkpt lat="48.70825" lon="-3.40247">
        <ele>44</ele>
        <time>2015-11-10T13:32:31Z</time>
      </trkpt>
      <trkpt lat="48.70815" lon="-3.40245">
        <ele>44</ele>
        <time>2015-11-10T13:32:34Z</time>
      </trkpt>
      <trkpt lat="48.70805" lon="-3.40243">
        <ele>45</ele>
        <time>2015-11-10T13:32:37Z</time>
      </trkpt>
      <trkpt lat="48.70796" lon="-3.40242">
        <ele>45</ele>
        <time>2015-11-10T13:32:40Z</time>
      </trkpt>
      <trkpt lat="48.70787" lon="-3.4024">
        <ele>45</ele>
        <time>2015-11-10T13:32:43Z</time>
      </trkpt>
      <trkpt lat="48.70777" lon="-3.40239">
        <ele>45</ele>
        <time>2015-11-10T13:32:46Z</time>
      </trkpt>
      <trkpt lat="48.70765" lon="-3.40238">
        <ele>45</ele>
        <time>2015-11-10T13:32:49Z</time>
      </trkpt>
      <trkpt lat="48.70756" lon="-3.40236">
        <ele>46</ele>
        <time>2015-11-10T13:32:51Z</time>
      </trkpt>
      <trkpt lat="48.70747" lon="-3.40235">
        <ele>46</ele>
        <time>2015-11-10T13:32:53Z</time>
      </trkpt>
      <trkpt lat="48.70738" lon="-3.40233">
        <ele>46</ele>
        <time>2015-11-10T13:32:55Z</time>
      </trkpt>
      <trkpt lat="48.70729" lon="-3.4023">
        <ele>46</ele>
        <time>2015-11-10T13:32:57Z</time>
      </trkpt>
      <trkpt lat="48.70719" lon="-3.40226">
        <ele>46</ele>
        <time>2015-11-10T13:32:59Z</time>
      </trkpt>
      <trkpt lat="48.7071" lon="-3.40223">
        <ele>47</ele>
        <time>2015-11-10T13:33:01Z</time>
      </trkpt>
      <trkpt lat="48.70701" lon="-3.40219">
        <ele>47</ele>
        <time>2015-11-10T13:33:03Z</time>
      </trkpt>
      <trkpt lat="48.70692" lon="-3.40216">
        <ele>47</ele>
        <time>2015-11-10T13:33:05Z</time>
      </trkpt>
      <trkpt lat="48.70683" lon="-3.40212">
        <ele>47</ele>
        <time>2015-11-10T13:33:07Z</time>
      </trkpt>
      <trkpt lat="48.70664" lon="-3.40208">
        <ele>48</ele>
        <time>2015-11-10T13:33:11Z</time>
      </trkpt>
      <trkpt lat="48.7065" lon="-3.40208">
        <ele>48</ele>
        <time>2015-11-10T13:33:14Z</time>
      </trkpt>
      <trkpt lat="48.7064" lon="-3.40209">
        <ele>48</ele>
        <time>2015-11-10T13:33:16Z</time>
      </trkpt>
      <trkpt lat="48.7063" lon="-3.4021">
        <ele>48</ele>
        <time>2015-11-10T13:33:18Z</time>
      </trkpt>
      <trkpt lat="48.70621" lon="-3.40211">
        <ele>48</ele>
        <time>2015-11-10T13:33:20Z</time>
      </trkpt>
      <trkpt lat="48.706" lon="-3.40213">
        <ele>48</ele>
        <time>2015-11-10T13:33:24Z</time>
      </trkpt>
      <trkpt lat="48.70581" lon="-3.40216">
        <ele>48</ele>
        <time>2015-11-10T13:33:27Z</time>
      </trkpt>
      <trkpt lat="48.70561" lon="-3.40221">
        <ele>48</ele>
        <time>2015-11-10T13:33:30Z</time>
      </trkpt>
      <trkpt lat="48.70539" lon="-3.4023">
        <ele>48</ele>
        <time>2015-11-10T13:33:34Z</time>
      </trkpt>
      <trkpt lat="48.7052" lon="-3.40237">
        <ele>48</ele>
        <time>2015-11-10T13:33:37Z</time>
      </trkpt>
      <trkpt lat="48.70502" lon="-3.40246">
        <ele>48</ele>
        <time>2015-11-10T13:33:40Z</time>
      </trkpt>
      <trkpt lat="48.70484" lon="-3.40254">
        <ele>48</ele>
        <time>2015-11-10T13:33:43Z</time>
      </trkpt>
      <trkpt lat="48.70466" lon="-3.40262">
        <ele>48</ele>
        <time>2015-11-10T13:33:46Z</time>
      </trkpt>
      <trkpt lat="48.70448" lon="-3.4027">
        <ele>48</ele>
        <time>2015-11-10T13:33:49Z</time>
      </trkpt>
      <trkpt lat="48.70435" lon="-3.40274">
        <ele>48</ele>
        <time>2015-11-10T13:33:51Z</time>
      </trkpt>
      <trkpt lat="48.70423" lon="-3.40277">
        <ele>48</ele>
        <time>2015-11-10T13:33:53Z</time>
      </trkpt>
      <trkpt lat="48.7041" lon="-3.40279">
        <ele>48</ele>
        <time>2015-11-10T13:33:55Z</time>
      </trkpt>
      <trkpt lat="48.70398" lon="-3.4028">
        <ele>48</ele>
        <time>2015-11-10T13:33:57Z</time>
      </trkpt>
      <trkpt lat="48.70385" lon="-3.40281">
        <ele>48</ele>
        <time>2015-11-10T13:33:59Z</time>
      </trkpt>
      <trkpt lat="48.70373" lon="-3.40281">
        <ele>48</ele>
        <time>2015-11-10T13:34:01Z</time>
      </trkpt>
      <trkpt lat="48.7036" lon="-3.40281">
        <ele>48</ele>
        <time>2015-11-10T13:34:03Z</time>
      </trkpt>
      <trkpt lat="48.70348" lon="-3.4028">
        <ele>48</ele>
        <time>2015-11-10T13:34:05Z</time>
      </trkpt>
      <trkpt lat="48.70335" lon="-3.4028">
        <ele>48</ele>
        <time>2015-11-10T13:34:07Z</time>
      </trkpt>
      <trkpt lat="48.70322" lon="-3.40279">
        <ele>48</ele>
        <time>2015-11-10T13:34:09Z</time>
      </trkpt>
      <trkpt lat="48.70309" lon="-3.40278">
        <ele>48</ele>
        <time>2015-11-10T13:34:11Z</time>
      </trkpt>
      <trkpt lat="48.70296" lon="-3.40277">
        <ele>48</ele>
        <time>2015-11-10T13:34:13Z</time>
      </trkpt>
      <trkpt lat="48.70284" lon="-3.40277">
        <ele>48</ele>
        <time>2015-11-10T13:34:15Z</time>
      </trkpt>
      <trkpt lat="48.70266" lon="-3.40279">
        <ele>48</ele>
        <time>2015-11-10T13:34:18Z</time>
      </trkpt>
      <trkpt lat="48.70255" lon="-3.40283">
        <ele>48</ele>
        <time>2015-11-10T13:34:20Z</time>
      </trkpt>
      <trkpt lat="48.70246" lon="-3.40287">
        <ele>48</ele>
        <time>2015-11-10T13:34:22Z</time>
      </trkpt>
      <trkpt lat="48.70237" lon="-3.4029">
        <ele>48</ele>
        <time>2015-11-10T13:34:24Z</time>
      </trkpt>
      <trkpt lat="48.70227" lon="-3.40295">
        <ele>48</ele>
        <time>2015-11-10T13:34:27Z</time>
      </trkpt>
      <trkpt lat="48.70218" lon="-3.40298">
        <ele>48</ele>
        <time>2015-11-10T13:34:30Z</time>
      </trkpt>
      <trkpt lat="48.70201" lon="-3.40305">
        <ele>48</ele>
        <time>2015-11-10T13:34:36Z</time>
      </trkpt>
      <trkpt lat="48.70185" lon="-3.4031">
        <ele>48</ele>
        <time>2015-11-10T13:34:42Z</time>
      </trkpt>
      <trkpt lat="48.70174" lon="-3.40313">
        <ele>49</ele>
        <time>2015-11-10T13:34:46Z</time>
      </trkpt>
      <trkpt lat="48.70166" lon="-3.40314">
        <ele>49</ele>
        <time>2015-11-10T13:34:49Z</time>
      </trkpt>
      <trkpt lat="48.70158" lon="-3.40316">
        <ele>49</ele>
        <time>2015-11-10T13:34:52Z</time>
      </trkpt>
      <trkpt lat="48.70149" lon="-3.40317">
        <ele>49</ele>
        <time>2015-11-10T13:34:55Z</time>
      </trkpt>
      <trkpt lat="48.70141" lon="-3.40318">
        <ele>49</ele>
        <time>2015-11-10T13:34:58Z</time>
      </trkpt>
      <trkpt lat="48.70123" lon="-3.40319">
        <ele>49</ele>
        <time>2015-11-10T13:35:04Z</time>
      </trkpt>
      <trkpt lat="48.70114" lon="-3.4032">
        <ele>49</ele>
        <time>2015-11-10T13:35:07Z</time>
      </trkpt>
      <trkpt lat="48.70102" lon="-3.40321">
        <ele>49</ele>
        <time>2015-11-10T13:35:11Z</time>
      </trkpt>
      <trkpt lat="48.70087" lon="-3.40322">
        <ele>49</ele>
        <time>2015-11-10T13:35:15Z</time>
      </trkpt>
      <trkpt lat="48.70075" lon="-3.40323">
        <ele>50</ele>
        <time>2015-11-10T13:35:18Z</time>
      </trkpt>
      <trkpt lat="48.70063" lon="-3.40325">
        <ele>50</ele>
        <time>2015-11-10T13:35:21Z</time>
      </trkpt>
      <trkpt lat="48.70047" lon="-3.40327">
        <ele>50</ele>
        <time>2015-11-10T13:35:25Z</time>
      </trkpt>
      <trkpt lat="48.70031" lon="-3.40329">
        <ele>50</ele>
        <time>2015-11-10T13:35:29Z</time>
      </trkpt>
      <trkpt lat="48.70015" lon="-3.40331">
        <ele>50</ele>
        <time>2015-11-10T13:35:33Z</time>
      </trkpt>
      <trkpt lat="48.69996" lon="-3.40332">
        <ele>50</ele>
        <time>2015-11-10T13:35:38Z</time>
      </trkpt>
      <trkpt lat="48.69981" lon="-3.40333">
        <ele>50</ele>
        <time>2015-11-10T13:35:42Z</time>
      </trkpt>
      <trkpt lat="48.69963" lon="-3.40335">
        <ele>51</ele>
        <time>2015-11-10T13:35:46Z</time>
      </trkpt>
      <trkpt lat="48.6995" lon="-3.40337">
        <ele>51</ele>
        <time>2015-11-10T13:35:49Z</time>
      </trkpt>
      <trkpt lat="48.69932" lon="-3.4034">
        <ele>51</ele>
        <time>2015-11-10T13:35:53Z</time>
      </trkpt>
      <trkpt lat="48.69923" lon="-3.40341">
        <ele>51</ele>
        <time>2015-11-10T13:35:55Z</time>
      </trkpt>
      <trkpt lat="48.69909" lon="-3.40342">
        <ele>51</ele>
        <time>2015-11-10T13:35:58Z</time>
      </trkpt>
      <trkpt lat="48.69891" lon="-3.40344">
        <ele>52</ele>
        <time>2015-11-10T13:36:02Z</time>
      </trkpt>
      <trkpt lat="48.69881" lon="-3.40345">
        <ele>52</ele>
        <time>2015-11-10T13:36:04Z</time>
      </trkpt>
      <trkpt lat="48.69872" lon="-3.40347">
        <ele>52</ele>
        <time>2015-11-10T13:36:06Z</time>
      </trkpt>
      <trkpt lat="48.69862" lon="-3.4035">
        <ele>52</ele>
        <time>2015-11-10T13:36:08Z</time>
      </trkpt>
      <trkpt lat="48.69853" lon="-3.40354">
        <ele>52</ele>
        <time>2015-11-10T13:36:10Z</time>
      </trkpt>
      <trkpt lat="48.69834" lon="-3.40364">
        <ele>52</ele>
        <time>2015-11-10T13:36:14Z</time>
      </trkpt>
      <trkpt lat="48.69825" lon="-3.4037">
        <ele>53</ele>
        <time>2015-11-10T13:36:16Z</time>
      </trkpt>
      <trkpt lat="48.69809" lon="-3.40381">
        <ele>53</ele>
        <time>2015-11-10T13:36:20Z</time>
      </trkpt>
      <trkpt lat="48.698" lon="-3.40386">
        <ele>53</ele>
        <time>2015-11-10T13:36:23Z</time>
      </trkpt>
      <trkpt lat="48.69781" lon="-3.40393">
        <ele>53</ele>
        <time>2015-11-10T13:36:42Z</time>
      </trkpt>
      <trkpt lat="48.69762" lon="-3.40398">
        <ele>53</ele>
        <time>2015-11-10T13:36:46Z</time>
      </trkpt>
      <trkpt lat="48.69746" lon="-3.40401">
        <ele>53</ele>
        <time>2015-11-10T13:36:49Z</time>
      </trkpt>
      <trkpt lat="48.69734" lon="-3.40403">
        <ele>53</ele>
        <time>2015-11-10T13:36:51Z</time>
      </trkpt>
      <trkpt lat="48.69715" lon="-3.40403">
        <ele>53</ele>
        <time>2015-11-10T13:36:54Z</time>
      </trkpt>
      <trkpt lat="48.69695" lon="-3.40402">
        <ele>53</ele>
        <time>2015-11-10T13:36:57Z</time>
      </trkpt>
      <trkpt lat="48.69682" lon="-3.40401">
        <ele>53</ele>
        <time>2015-11-10T13:36:59Z</time>
      </trkpt>
      <trkpt lat="48.69662" lon="-3.40403">
        <ele>52</ele>
        <time>2015-11-10T13:37:02Z</time>
      </trkpt>
      <trkpt lat="48.69641" lon="-3.40407">
        <ele>52</ele>
        <time>2015-11-10T13:37:05Z</time>
      </trkpt>
      <trkpt lat="48.69627" lon="-3.40409">
        <ele>52</ele>
        <time>2015-11-10T13:37:07Z</time>
      </trkpt>
      <trkpt lat="48.69607" lon="-3.40409">
        <ele>52</ele>
        <time>2015-11-10T13:37:10Z</time>
      </trkpt>
      <trkpt lat="48.69586" lon="-3.40405">
        <ele>52</ele>
        <time>2015-11-10T13:37:13Z</time>
      </trkpt>
      <trkpt lat="48.69572" lon="-3.40401">
        <ele>52</ele>
        <time>2015-11-10T13:37:15Z</time>
      </trkpt>
      <trkpt lat="48.69558" lon="-3.40397">
        <ele>52</ele>
        <time>2015-11-10T13:37:17Z</time>
      </trkpt>
      <trkpt lat="48.69544" lon="-3.40392">
        <ele>52</ele>
        <time>2015-11-10T13:37:19Z</time>
      </trkpt>
      <trkpt lat="48.69523" lon="-3.40385">
        <ele>51</ele>
        <time>2015-11-10T13:37:22Z</time>
      </trkpt>
      <trkpt lat="48.69508" lon="-3.40382">
        <ele>51</ele>
        <time>2015-11-10T13:37:24Z</time>
      </trkpt>
      <trkpt lat="48.69486" lon="-3.40378">
        <ele>51</ele>
        <time>2015-11-10T13:37:27Z</time>
      </trkpt>
      <trkpt lat="48.69465" lon="-3.40375">
        <ele>51</ele>
        <time>2015-11-10T13:37:30Z</time>
      </trkpt>
      <trkpt lat="48.69445" lon="-3.40375">
        <ele>50</ele>
        <time>2015-11-10T13:37:33Z</time>
      </trkpt>
      <trkpt lat="48.69432" lon="-3.40375">
        <ele>50</ele>
        <time>2015-11-10T13:37:35Z</time>
      </trkpt>
      <trkpt lat="48.6942" lon="-3.40374">
        <ele>50</ele>
        <time>2015-11-10T13:37:37Z</time>
      </trkpt>
      <trkpt lat="48.69407" lon="-3.40373">
        <ele>50</ele>
        <time>2015-11-10T13:37:39Z</time>
      </trkpt>
      <trkpt lat="48.69389" lon="-3.4037">
        <ele>50</ele>
        <time>2015-11-10T13:37:42Z</time>
      </trkpt>
      <trkpt lat="48.6937" lon="-3.40364">
        <ele>49</ele>
        <time>2015-11-10T13:37:45Z</time>
      </trkpt>
      <trkpt lat="48.69351" lon="-3.40355">
        <ele>49</ele>
        <time>2015-11-10T13:37:48Z</time>
      </trkpt>
      <trkpt lat="48.69332" lon="-3.40343">
        <ele>49</ele>
        <time>2015-11-10T13:37:51Z</time>
      </trkpt>
      <trkpt lat="48.69319" lon="-3.40335">
        <ele>49</ele>
        <time>2015-11-10T13:37:53Z</time>
      </trkpt>
      <trkpt lat="48.69306" lon="-3.40327">
        <ele>49</ele>
        <time>2015-11-10T13:37:55Z</time>
      </trkpt>
      <trkpt lat="48.69287" lon="-3.40311">
        <ele>49</ele>
        <time>2015-11-10T13:37:58Z</time>
      </trkpt>
      <trkpt lat="48.69268" lon="-3.40292">
        <ele>49</ele>
        <time>2015-11-10T13:38:01Z</time>
      </trkpt>
      <trkpt lat="48.6925" lon="-3.40272">
        <ele>49</ele>
        <time>2015-11-10T13:38:04Z</time>
      </trkpt>
      <trkpt lat="48.69232" lon="-3.40252">
        <ele>48</ele>
        <time>2015-11-10T13:38:07Z</time>
      </trkpt>
      <trkpt lat="48.69214" lon="-3.40233">
        <ele>48</ele>
        <time>2015-11-10T13:38:10Z</time>
      </trkpt>
      <trkpt lat="48.69201" lon="-3.4022">
        <ele>48</ele>
        <time>2015-11-10T13:38:12Z</time>
      </trkpt>
      <trkpt lat="48.69187" lon="-3.40208">
        <ele>48</ele>
        <time>2015-11-10T13:38:14Z</time>
      </trkpt>
      <trkpt lat="48.69173" lon="-3.40197">
        <ele>48</ele>
        <time>2015-11-10T13:38:16Z</time>
      </trkpt>
      <trkpt lat="48.69159" lon="-3.40187">
        <ele>48</ele>
        <time>2015-11-10T13:38:18Z</time>
      </trkpt>
      <trkpt lat="48.69145" lon="-3.40176">
        <ele>48</ele>
        <time>2015-11-10T13:38:20Z</time>
      </trkpt>
      <trkpt lat="48.69131" lon="-3.40166">
        <ele>48</ele>
        <time>2015-11-10T13:38:22Z</time>
      </trkpt>
      <trkpt lat="48.69117" lon="-3.40155">
        <ele>47</ele>
        <time>2015-11-10T13:38:24Z</time>
      </trkpt>
      <trkpt lat="48.69104" lon="-3.40143">
        <ele>47</ele>
        <time>2015-11-10T13:38:26Z</time>
      </trkpt>
      <trkpt lat="48.69085" lon="-3.40125">
        <ele>47</ele>
        <time>2015-11-10T13:38:29Z</time>
      </trkpt>
      <trkpt lat="48.69072" lon="-3.40113">
        <ele>47</ele>
        <time>2015-11-10T13:38:31Z</time>
      </trkpt>
      <trkpt lat="48.69059" lon="-3.40102">
        <ele>46</ele>
        <time>2015-11-10T13:38:33Z</time>
      </trkpt>
      <trkpt lat="48.6904" lon="-3.40084">
        <ele>46</ele>
        <time>2015-11-10T13:38:36Z</time>
      </trkpt>
      <trkpt lat="48.6902" lon="-3.40068">
        <ele>45</ele>
        <time>2015-11-10T13:38:39Z</time>
      </trkpt>
      <trkpt lat="48.69005" lon="-3.40059">
        <ele>45</ele>
        <time>2015-11-10T13:38:41Z</time>
      </trkpt>
      <trkpt lat="48.68991" lon="-3.40052">
        <ele>44</ele>
        <time>2015-11-10T13:38:43Z</time>
      </trkpt>
      <trkpt lat="48.68976" lon="-3.40047">
        <ele>44</ele>
        <time>2015-11-10T13:38:45Z</time>
      </trkpt>
      <trkpt lat="48.68956" lon="-3.40039">
        <ele>44</ele>
        <time>2015-11-10T13:38:48Z</time>
      </trkpt>
      <trkpt lat="48.68943" lon="-3.40034">
        <ele>43</ele>
        <time>2015-11-10T13:38:50Z</time>
      </trkpt>
      <trkpt lat="48.6893" lon="-3.4003">
        <ele>43</ele>
        <time>2015-11-10T13:38:52Z</time>
      </trkpt>
      <trkpt lat="48.68917" lon="-3.40027">
        <ele>43</ele>
        <time>2015-11-10T13:38:54Z</time>
      </trkpt>
      <trkpt lat="48.68904" lon="-3.40025">
        <ele>42</ele>
        <time>2015-11-10T13:38:56Z</time>
      </trkpt>
      <trkpt lat="48.68885" lon="-3.40022">
        <ele>42</ele>
        <time>2015-11-10T13:38:59Z</time>
      </trkpt>
      <trkpt lat="48.68867" lon="-3.4002">
        <ele>42</ele>
        <time>2015-11-10T13:39:02Z</time>
      </trkpt>
      <trkpt lat="48.68851" lon="-3.40018">
        <ele>42</ele>
        <time>2015-11-10T13:39:05Z</time>
      </trkpt>
      <trkpt lat="48.68835" lon="-3.40013">
        <ele>41</ele>
        <time>2015-11-10T13:39:08Z</time>
      </trkpt>
      <trkpt lat="48.68824" lon="-3.4001">
        <ele>41</ele>
        <time>2015-11-10T13:39:10Z</time>
      </trkpt>
      <trkpt lat="48.68808" lon="-3.40006">
        <ele>41</ele>
        <time>2015-11-10T13:39:13Z</time>
      </trkpt>
      <trkpt lat="48.68793" lon="-3.4">
        <ele>41</ele>
        <time>2015-11-10T13:39:16Z</time>
      </trkpt>
      <trkpt lat="48.68777" lon="-3.39994">
        <ele>40</ele>
        <time>2015-11-10T13:39:19Z</time>
      </trkpt>
      <trkpt lat="48.68762" lon="-3.39989">
        <ele>40</ele>
        <time>2015-11-10T13:39:22Z</time>
      </trkpt>
      <trkpt lat="48.68746" lon="-3.39984">
        <ele>40</ele>
        <time>2015-11-10T13:39:25Z</time>
      </trkpt>
      <trkpt lat="48.6873" lon="-3.3998">
        <ele>39</ele>
        <time>2015-11-10T13:39:28Z</time>
      </trkpt>
      <trkpt lat="48.68713" lon="-3.39975">
        <ele>39</ele>
        <time>2015-11-10T13:39:31Z</time>
      </trkpt>
      <trkpt lat="48.68697" lon="-3.3997">
        <ele>39</ele>
        <time>2015-11-10T13:39:34Z</time>
      </trkpt>
      <trkpt lat="48.68681" lon="-3.39965">
        <ele>38</ele>
        <time>2015-11-10T13:39:37Z</time>
      </trkpt>
      <trkpt lat="48.68665" lon="-3.39959">
        <ele>38</ele>
        <time>2015-11-10T13:39:40Z</time>
      </trkpt>
      <trkpt lat="48.68648" lon="-3.39954">
        <ele>38</ele>
        <time>2015-11-10T13:39:43Z</time>
      </trkpt>
      <trkpt lat="48.68631" lon="-3.3995">
        <ele>37</ele>
        <time>2015-11-10T13:39:46Z</time>
      </trkpt>
      <trkpt lat="48.68615" lon="-3.39946">
        <ele>37</ele>
        <time>2015-11-10T13:39:49Z</time>
      </trkpt>
      <trkpt lat="48.68595" lon="-3.39945">
        <ele>37</ele>
        <time>2015-11-10T13:39:53Z</time>
      </trkpt>
      <trkpt lat="48.68577" lon="-3.39947">
        <ele>36</ele>
        <time>2015-11-10T13:39:57Z</time>
      </trkpt>
      <trkpt lat="48.68561" lon="-3.39951">
        <ele>36</ele>
        <time>2015-11-10T13:40:00Z</time>
      </trkpt>
      <trkpt lat="48.68545" lon="-3.39955">
        <ele>36</ele>
        <time>2015-11-10T13:40:03Z</time>
      </trkpt>
      <trkpt lat="48.68535" lon="-3.39959">
        <ele>36</ele>
        <time>2015-11-10T13:40:05Z</time>
      </trkpt>
      <trkpt lat="48.68516" lon="-3.39965">
        <ele>35</ele>
        <time>2015-11-10T13:40:09Z</time>
      </trkpt>
      <trkpt lat="48.68501" lon="-3.39969">
        <ele>35</ele>
        <time>2015-11-10T13:40:12Z</time>
      </trkpt>
      <trkpt lat="48.68481" lon="-3.3997">
        <ele>35</ele>
        <time>2015-11-10T13:40:16Z</time>
      </trkpt>
      <trkpt lat="48.68466" lon="-3.39965">
        <ele>35</ele>
        <time>2015-11-10T13:40:19Z</time>
      </trkpt>
      <trkpt lat="48.68452" lon="-3.39957">
        <ele>35</ele>
        <time>2015-11-10T13:40:22Z</time>
      </trkpt>
      <trkpt lat="48.68443" lon="-3.39949">
        <ele>34</ele>
        <time>2015-11-10T13:40:24Z</time>
      </trkpt>
      <trkpt lat="48.68434" lon="-3.39941">
        <ele>34</ele>
        <time>2015-11-10T13:40:26Z</time>
      </trkpt>
      <trkpt lat="48.68425" lon="-3.39933">
        <ele>34</ele>
        <time>2015-11-10T13:40:28Z</time>
      </trkpt>
      <trkpt lat="48.68416" lon="-3.39925">
        <ele>34</ele>
        <time>2015-11-10T13:40:30Z</time>
      </trkpt>
      <trkpt lat="48.68407" lon="-3.39919">
        <ele>34</ele>
        <time>2015-11-10T13:40:32Z</time>
      </trkpt>
      <trkpt lat="48.68399" lon="-3.39914">
        <ele>34</ele>
        <time>2015-11-10T13:40:34Z</time>
      </trkpt>
      <trkpt lat="48.68389" lon="-3.39908">
        <ele>34</ele>
        <time>2015-11-10T13:40:36Z</time>
      </trkpt>
      <trkpt lat="48.68379" lon="-3.39904">
        <ele>34</ele>
        <time>2015-11-10T13:40:38Z</time>
      </trkpt>
      <trkpt lat="48.68368" lon="-3.39899">
        <ele>34</ele>
        <time>2015-11-10T13:40:40Z</time>
      </trkpt>
      <trkpt lat="48.6835" lon="-3.39893">
        <ele>34</ele>
        <time>2015-11-10T13:40:43Z</time>
      </trkpt>
      <trkpt lat="48.68338" lon="-3.39889">
        <ele>34</ele>
        <time>2015-11-10T13:40:45Z</time>
      </trkpt>
      <trkpt lat="48.68325" lon="-3.39884">
        <ele>34</ele>
        <time>2015-11-10T13:40:47Z</time>
      </trkpt>
      <trkpt lat="48.68311" lon="-3.39878">
        <ele>34</ele>
        <time>2015-11-10T13:40:49Z</time>
      </trkpt>
      <trkpt lat="48.68298" lon="-3.39873">
        <ele>35</ele>
        <time>2015-11-10T13:40:51Z</time>
      </trkpt>
      <trkpt lat="48.68278" lon="-3.39866">
        <ele>35</ele>
        <time>2015-11-10T13:40:54Z</time>
      </trkpt>
      <trkpt lat="48.68266" lon="-3.39861">
        <ele>35</ele>
        <time>2015-11-10T13:40:56Z</time>
      </trkpt>
      <trkpt lat="48.68253" lon="-3.39855">
        <ele>35</ele>
        <time>2015-11-10T13:40:58Z</time>
      </trkpt>
      <trkpt lat="48.68241" lon="-3.39847">
        <ele>35</ele>
        <time>2015-11-10T13:41:00Z</time>
      </trkpt>
      <trkpt lat="48.68218" lon="-3.39829">
        <ele>36</ele>
        <time>2015-11-10T13:41:04Z</time>
      </trkpt>
      <trkpt lat="48.68198" lon="-3.39805">
        <ele>36</ele>
        <time>2015-11-10T13:41:08Z</time>
      </trkpt>
      <trkpt lat="48.68179" lon="-3.39781">
        <ele>36</ele>
        <time>2015-11-10T13:41:12Z</time>
      </trkpt>
      <trkpt lat="48.6817" lon="-3.3977">
        <ele>36</ele>
        <time>2015-11-10T13:41:14Z</time>
      </trkpt>
      <trkpt lat="48.68161" lon="-3.3976">
        <ele>36</ele>
        <time>2015-11-10T13:41:16Z</time>
      </trkpt>
      <trkpt lat="48.68141" lon="-3.39741">
        <ele>36</ele>
        <time>2015-11-10T13:41:20Z</time>
      </trkpt>
      <trkpt lat="48.68126" lon="-3.39727">
        <ele>36</ele>
        <time>2015-11-10T13:41:23Z</time>
      </trkpt>
      <trkpt lat="48.68106" lon="-3.3971">
        <ele>36</ele>
        <time>2015-11-10T13:41:27Z</time>
      </trkpt>
      <trkpt lat="48.68096" lon="-3.39702">
        <ele>37</ele>
        <time>2015-11-10T13:41:29Z</time>
      </trkpt>
      <trkpt lat="48.68087" lon="-3.39694">
        <ele>37</ele>
        <time>2015-11-10T13:41:31Z</time>
      </trkpt>
      <trkpt lat="48.68077" lon="-3.39686">
        <ele>37</ele>
        <time>2015-11-10T13:41:33Z</time>
      </trkpt>
      <trkpt lat="48.68068" lon="-3.39678">
        <ele>37</ele>
        <time>2015-11-10T13:41:35Z</time>
      </trkpt>
      <trkpt lat="48.6805" lon="-3.39664">
        <ele>37</ele>
        <time>2015-11-10T13:41:39Z</time>
      </trkpt>
      <trkpt lat="48.68042" lon="-3.39657">
        <ele>37</ele>
        <time>2015-11-10T13:41:41Z</time>
      </trkpt>
      <trkpt lat="48.6803" lon="-3.39646">
        <ele>37</ele>
        <time>2015-11-10T13:41:44Z</time>
      </trkpt>
      <trkpt lat="48.68023" lon="-3.39639">
        <ele>37</ele>
        <time>2015-11-10T13:41:46Z</time>
      </trkpt>
      <trkpt lat="48.68015" lon="-3.39633">
        <ele>38</ele>
        <time>2015-11-10T13:41:48Z</time>
      </trkpt>
      <trkpt lat="48.68007" lon="-3.39626">
        <ele>38</ele>
        <time>2015-11-10T13:41:50Z</time>
      </trkpt>
      <trkpt lat="48.68" lon="-3.3962">
        <ele>38</ele>
        <time>2015-11-10T13:41:52Z</time>
      </trkpt>
      <trkpt lat="48.67987" lon="-3.39608">
        <ele>38</ele>
        <time>2015-11-10T13:41:56Z</time>
      </trkpt>
      <trkpt lat="48.67978" lon="-3.39601">
        <ele>38</ele>
        <time>2015-11-10T13:41:59Z</time>
      </trkpt>
      <trkpt lat="48.67968" lon="-3.39596">
        <ele>38</ele>
        <time>2015-11-10T13:42:02Z</time>
      </trkpt>
      <trkpt lat="48.67958" lon="-3.39592">
        <ele>39</ele>
        <time>2015-11-10T13:42:05Z</time>
      </trkpt>
      <trkpt lat="48.67949" lon="-3.3959">
        <ele>39</ele>
        <time>2015-11-10T13:42:08Z</time>
      </trkpt>
      <trkpt lat="48.67941" lon="-3.39589">
        <ele>39</ele>
        <time>2015-11-10T13:42:11Z</time>
      </trkpt>
      <trkpt lat="48.67932" lon="-3.39587">
        <ele>40</ele>
        <time>2015-11-10T13:42:14Z</time>
      </trkpt>
      <trkpt lat="48.67924" lon="-3.39586">
        <ele>40</ele>
        <time>2015-11-10T13:42:17Z</time>
      </trkpt>
      <trkpt lat="48.67907" lon="-3.39584">
        <ele>41</ele>
        <time>2015-11-10T13:42:22Z</time>
      </trkpt>
      <trkpt lat="48.67899" lon="-3.39583">
        <ele>41</ele>
        <time>2015-11-10T13:42:24Z</time>
      </trkpt>
      <trkpt lat="48.67885" lon="-3.3958">
        <ele>41</ele>
        <time>2015-11-10T13:42:27Z</time>
      </trkpt>
      <trkpt lat="48.67875" lon="-3.39579">
        <ele>41</ele>
        <time>2015-11-10T13:42:29Z</time>
      </trkpt>
      <trkpt lat="48.67865" lon="-3.39578">
        <ele>41</ele>
        <time>2015-11-10T13:42:31Z</time>
      </trkpt>
      <trkpt lat="48.67855" lon="-3.39579">
        <ele>41</ele>
        <time>2015-11-10T13:42:33Z</time>
      </trkpt>
      <trkpt lat="48.67845" lon="-3.39579">
        <ele>41</ele>
        <time>2015-11-10T13:42:35Z</time>
      </trkpt>
      <trkpt lat="48.67836" lon="-3.3958">
        <ele>42</ele>
        <time>2015-11-10T13:42:37Z</time>
      </trkpt>
      <trkpt lat="48.67826" lon="-3.39581">
        <ele>42</ele>
        <time>2015-11-10T13:42:39Z</time>
      </trkpt>
      <trkpt lat="48.67816" lon="-3.39582">
        <ele>42</ele>
        <time>2015-11-10T13:42:41Z</time>
      </trkpt>
      <trkpt lat="48.67807" lon="-3.39581">
        <ele>42</ele>
        <time>2015-11-10T13:42:43Z</time>
      </trkpt>
      <trkpt lat="48.67798" lon="-3.39577">
        <ele>43</ele>
        <time>2015-11-10T13:42:45Z</time>
      </trkpt>
      <trkpt lat="48.6778" lon="-3.3957">
        <ele>43</ele>
        <time>2015-11-10T13:42:49Z</time>
      </trkpt>
      <trkpt lat="48.67763" lon="-3.39562">
        <ele>43</ele>
        <time>2015-11-10T13:42:53Z</time>
      </trkpt>
      <trkpt lat="48.67751" lon="-3.39556">
        <ele>43</ele>
        <time>2015-11-10T13:42:56Z</time>
      </trkpt>
      <trkpt lat="48.67738" lon="-3.39551">
        <ele>43</ele>
        <time>2015-11-10T13:42:59Z</time>
      </trkpt>
      <trkpt lat="48.6773" lon="-3.39549">
        <ele>43</ele>
        <time>2015-11-10T13:43:01Z</time>
      </trkpt>
      <trkpt lat="48.67714" lon="-3.39545">
        <ele>43</ele>
        <time>2015-11-10T13:43:05Z</time>
      </trkpt>
      <trkpt lat="48.67702" lon="-3.39542">
        <ele>43</ele>
        <time>2015-11-10T13:43:08Z</time>
      </trkpt>
      <trkpt lat="48.67687" lon="-3.39537">
        <ele>43</ele>
        <time>2015-11-10T13:43:12Z</time>
      </trkpt>
      <trkpt lat="48.67675" lon="-3.39532">
        <ele>43</ele>
        <time>2015-11-10T13:43:15Z</time>
      </trkpt>
      <trkpt lat="48.67661" lon="-3.39524">
        <ele>44</ele>
        <time>2015-11-10T13:43:19Z</time>
      </trkpt>
      <trkpt lat="48.67651" lon="-3.39516">
        <ele>44</ele>
        <time>2015-11-10T13:43:22Z</time>
      </trkpt>
      <trkpt lat="48.6764" lon="-3.39508">
        <ele>44</ele>
        <time>2015-11-10T13:43:25Z</time>
      </trkpt>
      <trkpt lat="48.67624" lon="-3.39498">
        <ele>44</ele>
        <time>2015-11-10T13:43:29Z</time>
      </trkpt>
      <trkpt lat="48.67607" lon="-3.39487">
        <ele>44</ele>
        <time>2015-11-10T13:43:33Z</time>
      </trkpt>
      <trkpt lat="48.67597" lon="-3.39482">
        <ele>44</ele>
        <time>2015-11-10T13:43:35Z</time>
      </trkpt>
      <trkpt lat="48.67587" lon="-3.39477">
        <ele>44</ele>
        <time>2015-11-10T13:43:37Z</time>
      </trkpt>
      <trkpt lat="48.67572" lon="-3.3947">
        <ele>44</ele>
        <time>2015-11-10T13:43:40Z</time>
      </trkpt>
      <trkpt lat="48.67562" lon="-3.39466">
        <ele>44</ele>
        <time>2015-11-10T13:43:42Z</time>
      </trkpt>
      <trkpt lat="48.67552" lon="-3.39462">
        <ele>44</ele>
        <time>2015-11-10T13:43:44Z</time>
      </trkpt>
      <trkpt lat="48.67542" lon="-3.3946">
        <ele>44</ele>
        <time>2015-11-10T13:43:46Z</time>
      </trkpt>
      <trkpt lat="48.67532" lon="-3.39457">
        <ele>44</ele>
        <time>2015-11-10T13:43:48Z</time>
      </trkpt>
      <trkpt lat="48.67523" lon="-3.39456">
        <ele>44</ele>
        <time>2015-11-10T13:43:50Z</time>
      </trkpt>
      <trkpt lat="48.6751" lon="-3.39452">
        <ele>45</ele>
        <time>2015-11-10T13:43:53Z</time>
      </trkpt>
      <trkpt lat="48.67501" lon="-3.3945">
        <ele>45</ele>
        <time>2015-11-10T13:43:55Z</time>
      </trkpt>
      <trkpt lat="48.67484" lon="-3.39444">
        <ele>45</ele>
        <time>2015-11-10T13:43:59Z</time>
      </trkpt>
      <trkpt lat="48.67476" lon="-3.39441">
        <ele>45</ele>
        <time>2015-11-10T13:44:01Z</time>
      </trkpt>
      <trkpt lat="48.67465" lon="-3.39435">
        <ele>45</ele>
        <time>2015-11-10T13:44:04Z</time>
      </trkpt>
      <trkpt lat="48.67454" lon="-3.39429">
        <ele>45</ele>
        <time>2015-11-10T13:44:07Z</time>
      </trkpt>
      <trkpt lat="48.67443" lon="-3.39422">
        <ele>45</ele>
        <time>2015-11-10T13:44:10Z</time>
      </trkpt>
      <trkpt lat="48.67431" lon="-3.39415">
        <ele>45</ele>
        <time>2015-11-10T13:44:13Z</time>
      </trkpt>
      <trkpt lat="48.67424" lon="-3.3941">
        <ele>45</ele>
        <time>2015-11-10T13:44:15Z</time>
      </trkpt>
      <trkpt lat="48.67416" lon="-3.39406">
        <ele>45</ele>
        <time>2015-11-10T13:44:17Z</time>
      </trkpt>
      <trkpt lat="48.67408" lon="-3.39402">
        <ele>45</ele>
        <time>2015-11-10T13:44:19Z</time>
      </trkpt>
      <trkpt lat="48.67399" lon="-3.39398">
        <ele>45</ele>
        <time>2015-11-10T13:44:21Z</time>
      </trkpt>
      <trkpt lat="48.67391" lon="-3.39395">
        <ele>45</ele>
        <time>2015-11-10T13:44:23Z</time>
      </trkpt>
      <trkpt lat="48.67382" lon="-3.39392">
        <ele>45</ele>
        <time>2015-11-10T13:44:25Z</time>
      </trkpt>
      <trkpt lat="48.67374" lon="-3.39389">
        <ele>44</ele>
        <time>2015-11-10T13:44:27Z</time>
      </trkpt>
      <trkpt lat="48.67365" lon="-3.39387">
        <ele>44</ele>
        <time>2015-11-10T13:44:29Z</time>
      </trkpt>
      <trkpt lat="48.67357" lon="-3.39385">
        <ele>45</ele>
        <time>2015-11-10T13:44:31Z</time>
      </trkpt>
      <trkpt lat="48.67348" lon="-3.39384">
        <ele>45</ele>
        <time>2015-11-10T13:44:33Z</time>
      </trkpt>
      <trkpt lat="48.67335" lon="-3.39384">
        <ele>45</ele>
        <time>2015-11-10T13:44:36Z</time>
      </trkpt>
      <trkpt lat="48.67322" lon="-3.39386">
        <ele>45</ele>
        <time>2015-11-10T13:44:39Z</time>
      </trkpt>
      <trkpt lat="48.67314" lon="-3.39388">
        <ele>45</ele>
        <time>2015-11-10T13:44:41Z</time>
      </trkpt>
      <trkpt lat="48.67306" lon="-3.39391">
        <ele>45</ele>
        <time>2015-11-10T13:44:43Z</time>
      </trkpt>
      <trkpt lat="48.67294" lon="-3.39396">
        <ele>45</ele>
        <time>2015-11-10T13:44:46Z</time>
      </trkpt>
      <trkpt lat="48.67284" lon="-3.394">
        <ele>45</ele>
        <time>2015-11-10T13:44:49Z</time>
      </trkpt>
      <trkpt lat="48.67275" lon="-3.39406">
        <ele>45</ele>
        <time>2015-11-10T13:44:52Z</time>
      </trkpt>
      <trkpt lat="48.67263" lon="-3.39412">
        <ele>45</ele>
        <time>2015-11-10T13:44:56Z</time>
      </trkpt>
      <trkpt lat="48.67254" lon="-3.39415">
        <ele>45</ele>
        <time>2015-11-10T13:44:59Z</time>
      </trkpt>
      <trkpt lat="48.67245" lon="-3.39418">
        <ele>45</ele>
        <time>2015-11-10T13:45:02Z</time>
      </trkpt>
      <trkpt lat="48.67235" lon="-3.3942">
        <ele>45</ele>
        <time>2015-11-10T13:45:05Z</time>
      </trkpt>
      <trkpt lat="48.67226" lon="-3.39422">
        <ele>45</ele>
        <time>2015-11-10T13:45:08Z</time>
      </trkpt>
      <trkpt lat="48.67216" lon="-3.39424">
        <ele>46</ele>
        <time>2015-11-10T13:45:11Z</time>
      </trkpt>
      <trkpt lat="48.67205" lon="-3.39426">
        <ele>46</ele>
        <time>2015-11-10T13:45:14Z</time>
      </trkpt>
      <trkpt lat="48.67197" lon="-3.39427">
        <ele>46</ele>
        <time>2015-11-10T13:45:16Z</time>
      </trkpt>
      <trkpt lat="48.67181" lon="-3.3943">
        <ele>45</ele>
        <time>2015-11-10T13:45:20Z</time>
      </trkpt>
      <trkpt lat="48.6717" lon="-3.39432">
        <ele>45</ele>
        <time>2015-11-10T13:45:23Z</time>
      </trkpt>
      <trkpt lat="48.67158" lon="-3.39435">
        <ele>45</ele>
        <time>2015-11-10T13:45:26Z</time>
      </trkpt>
      <trkpt lat="48.67142" lon="-3.39438">
        <ele>45</ele>
        <time>2015-11-10T13:45:30Z</time>
      </trkpt>
      <trkpt lat="48.67127" lon="-3.39441">
        <ele>45</ele>
        <time>2015-11-10T13:45:34Z</time>
      </trkpt>
      <trkpt lat="48.67111" lon="-3.39444">
        <ele>45</ele>
        <time>2015-11-10T13:45:38Z</time>
      </trkpt>
      <trkpt lat="48.67099" lon="-3.39447">
        <ele>45</ele>
        <time>2015-11-10T13:45:41Z</time>
      </trkpt>
      <trkpt lat="48.67088" lon="-3.39451">
        <ele>46</ele>
        <time>2015-11-10T13:45:44Z</time>
      </trkpt>
      <trkpt lat="48.67068" lon="-3.39458">
        <ele>46</ele>
        <time>2015-11-10T13:45:49Z</time>
      </trkpt>
      <trkpt lat="48.6706" lon="-3.39464">
        <ele>46</ele>
        <time>2015-11-10T13:45:51Z</time>
      </trkpt>
      <trkpt lat="48.67046" lon="-3.39485">
        <ele>46</ele>
        <time>2015-11-10T13:45:55Z</time>
      </trkpt>
      <trkpt lat="48.67035" lon="-3.3951">
        <ele>46</ele>
        <time>2015-11-10T13:45:59Z</time>
      </trkpt>
      <trkpt lat="48.67025" lon="-3.39534">
        <ele>46</ele>
        <time>2015-11-10T13:46:03Z</time>
      </trkpt>
      <trkpt lat="48.6702" lon="-3.39546">
        <ele>46</ele>
        <time>2015-11-10T13:46:05Z</time>
      </trkpt>
      <trkpt lat="48.67009" lon="-3.39565">
        <ele>46</ele>
        <time>2015-11-10T13:46:09Z</time>
      </trkpt>
      <trkpt lat="48.66998" lon="-3.3957">
        <ele>47</ele>
        <time>2015-11-10T13:46:12Z</time>
      </trkpt>
      <trkpt lat="48.66982" lon="-3.39571">
        <ele>47</ele>
        <time>2015-11-10T13:46:16Z</time>
      </trkpt>
      <trkpt lat="48.66973" lon="-3.39574">
        <ele>47</ele>
        <time>2015-11-10T13:46:18Z</time>
      </trkpt>
      <trkpt lat="48.66957" lon="-3.39581">
        <ele>47</ele>
        <time>2015-11-10T13:46:22Z</time>
      </trkpt>
      <trkpt lat="48.66945" lon="-3.39588">
        <ele>48</ele>
        <time>2015-11-10T13:46:25Z</time>
      </trkpt>
      <trkpt lat="48.6693" lon="-3.39596">
        <ele>48</ele>
        <time>2015-11-10T13:46:29Z</time>
      </trkpt>
      <trkpt lat="48.66922" lon="-3.396">
        <ele>48</ele>
        <time>2015-11-10T13:46:31Z</time>
      </trkpt>
      <trkpt lat="48.66913" lon="-3.39603">
        <ele>48</ele>
        <time>2015-11-10T13:46:33Z</time>
      </trkpt>
      <trkpt lat="48.66901" lon="-3.39607">
        <ele>49</ele>
        <time>2015-11-10T13:46:36Z</time>
      </trkpt>
      <trkpt lat="48.66887" lon="-3.39622">
        <ele>49</ele>
        <time>2015-11-10T13:46:40Z</time>
      </trkpt>
      <trkpt lat="48.66881" lon="-3.39632">
        <ele>49</ele>
        <time>2015-11-10T13:46:42Z</time>
      </trkpt>
      <trkpt lat="48.66877" lon="-3.39643">
        <ele>49</ele>
        <time>2015-11-10T13:46:44Z</time>
      </trkpt>
      <trkpt lat="48.66873" lon="-3.39654">
        <ele>49</ele>
        <time>2015-11-10T13:46:46Z</time>
      </trkpt>
      <trkpt lat="48.66869" lon="-3.39665">
        <ele>50</ele>
        <time>2015-11-10T13:46:48Z</time>
      </trkpt>
      <trkpt lat="48.6686" lon="-3.39685">
        <ele>50</ele>
        <time>2015-11-10T13:46:52Z</time>
      </trkpt>
      <trkpt lat="48.66843" lon="-3.39696">
        <ele>50</ele>
        <time>2015-11-10T13:46:57Z</time>
      </trkpt>
      <trkpt lat="48.66829" lon="-3.397">
        <ele>50</ele>
        <time>2015-11-10T13:47:01Z</time>
      </trkpt>
      <trkpt lat="48.66813" lon="-3.39704">
        <ele>49</ele>
        <time>2015-11-10T13:47:05Z</time>
      </trkpt>
      <trkpt lat="48.66797" lon="-3.39706">
        <ele>49</ele>
        <time>2015-11-10T13:47:10Z</time>
      </trkpt>
      <trkpt lat="48.66779" lon="-3.39711">
        <ele>49</ele>
        <time>2015-11-10T13:47:17Z</time>
      </trkpt>
      <trkpt lat="48.66762" lon="-3.39718">
        <ele>50</ele>
        <time>2015-11-10T13:47:22Z</time>
      </trkpt>
      <trkpt lat="48.66748" lon="-3.39723">
        <ele>50</ele>
        <time>2015-11-10T13:47:26Z</time>
      </trkpt>
      <trkpt lat="48.66732" lon="-3.3973">
        <ele>51</ele>
        <time>2015-11-10T13:47:31Z</time>
      </trkpt>
      <trkpt lat="48.66715" lon="-3.39733">
        <ele>51</ele>
        <time>2015-11-10T13:47:36Z</time>
      </trkpt>
      <trkpt lat="48.66703" lon="-3.39734">
        <ele>51</ele>
        <time>2015-11-10T13:47:40Z</time>
      </trkpt>
      <trkpt lat="48.66685" lon="-3.39732">
        <ele>52</ele>
        <time>2015-11-10T13:47:46Z</time>
      </trkpt>
      <trkpt lat="48.66676" lon="-3.39729">
        <ele>53</ele>
        <time>2015-11-10T13:47:49Z</time>
      </trkpt>
      <trkpt lat="48.66667" lon="-3.39726">
        <ele>53</ele>
        <time>2015-11-10T13:47:52Z</time>
      </trkpt>
      <trkpt lat="48.66651" lon="-3.3972">
        <ele>53</ele>
        <time>2015-11-10T13:47:57Z</time>
      </trkpt>
      <trkpt lat="48.66634" lon="-3.3971">
        <ele>54</ele>
        <time>2015-11-10T13:48:03Z</time>
      </trkpt>
      <trkpt lat="48.66615" lon="-3.39705">
        <ele>54</ele>
        <time>2015-11-10T13:48:08Z</time>
      </trkpt>
      <trkpt lat="48.66596" lon="-3.39702">
        <ele>55</ele>
        <time>2015-11-10T13:48:12Z</time>
      </trkpt>
      <trkpt lat="48.66578" lon="-3.39701">
        <ele>55</ele>
        <time>2015-11-10T13:48:16Z</time>
      </trkpt>
      <trkpt lat="48.66561" lon="-3.39701">
        <ele>55</ele>
        <time>2015-11-10T13:48:20Z</time>
      </trkpt>
      <trkpt lat="48.66544" lon="-3.39702">
        <ele>56</ele>
        <time>2015-11-10T13:48:24Z</time>
      </trkpt>
      <trkpt lat="48.66536" lon="-3.39702">
        <ele>56</ele>
        <time>2015-11-10T13:48:26Z</time>
      </trkpt>
      <trkpt lat="48.66528" lon="-3.39702">
        <ele>57</ele>
        <time>2015-11-10T13:48:28Z</time>
      </trkpt>
      <trkpt lat="48.66516" lon="-3.39701">
        <ele>57</ele>
        <time>2015-11-10T13:48:31Z</time>
      </trkpt>
      <trkpt lat="48.665" lon="-3.39699">
        <ele>58</ele>
        <time>2015-11-10T13:48:35Z</time>
      </trkpt>
      <trkpt lat="48.66485" lon="-3.39698">
        <ele>58</ele>
        <time>2015-11-10T13:48:39Z</time>
      </trkpt>
      <trkpt lat="48.66473" lon="-3.397">
        <ele>58</ele>
        <time>2015-11-10T13:48:42Z</time>
      </trkpt>
      <trkpt lat="48.66465" lon="-3.39703">
        <ele>59</ele>
        <time>2015-11-10T13:48:44Z</time>
      </trkpt>
      <trkpt lat="48.66449" lon="-3.39708">
        <ele>59</ele>
        <time>2015-11-10T13:48:48Z</time>
      </trkpt>
      <trkpt lat="48.66432" lon="-3.39711">
        <ele>59</ele>
        <time>2015-11-10T13:48:52Z</time>
      </trkpt>
      <trkpt lat="48.66423" lon="-3.39711">
        <ele>59</ele>
        <time>2015-11-10T13:48:54Z</time>
      </trkpt>
      <trkpt lat="48.66413" lon="-3.3971">
        <ele>60</ele>
        <time>2015-11-10T13:48:56Z</time>
      </trkpt>
      <trkpt lat="48.66404" lon="-3.39708">
        <ele>60</ele>
        <time>2015-11-10T13:48:58Z</time>
      </trkpt>
      <trkpt lat="48.66395" lon="-3.39705">
        <ele>60</ele>
        <time>2015-11-10T13:49:00Z</time>
      </trkpt>
      <trkpt lat="48.66386" lon="-3.39703">
        <ele>60</ele>
        <time>2015-11-10T13:49:02Z</time>
      </trkpt>
      <trkpt lat="48.66367" lon="-3.39697">
        <ele>60</ele>
        <time>2015-11-10T13:49:06Z</time>
      </trkpt>
      <trkpt lat="48.66354" lon="-3.39692">
        <ele>61</ele>
        <time>2015-11-10T13:49:09Z</time>
      </trkpt>
      <trkpt lat="48.66345" lon="-3.3969">
        <ele>61</ele>
        <time>2015-11-10T13:49:11Z</time>
      </trkpt>
      <trkpt lat="48.66331" lon="-3.39686">
        <ele>61</ele>
        <time>2015-11-10T13:49:14Z</time>
      </trkpt>
      <trkpt lat="48.66322" lon="-3.39683">
        <ele>61</ele>
        <time>2015-11-10T13:49:16Z</time>
      </trkpt>
      <trkpt lat="48.66312" lon="-3.39679">
        <ele>61</ele>
        <time>2015-11-10T13:49:18Z</time>
      </trkpt>
      <trkpt lat="48.66293" lon="-3.39673">
        <ele>61</ele>
        <time>2015-11-10T13:49:22Z</time>
      </trkpt>
      <trkpt lat="48.66283" lon="-3.3967">
        <ele>62</ele>
        <time>2015-11-10T13:49:24Z</time>
      </trkpt>
      <trkpt lat="48.66273" lon="-3.39666">
        <ele>62</ele>
        <time>2015-11-10T13:49:26Z</time>
      </trkpt>
      <trkpt lat="48.66258" lon="-3.39659">
        <ele>62</ele>
        <time>2015-11-10T13:49:29Z</time>
      </trkpt>
      <trkpt lat="48.66247" lon="-3.39655">
        <ele>62</ele>
        <time>2015-11-10T13:49:31Z</time>
      </trkpt>
      <trkpt lat="48.66236" lon="-3.39649">
        <ele>62</ele>
        <time>2015-11-10T13:49:33Z</time>
      </trkpt>
      <trkpt lat="48.66225" lon="-3.39644">
        <ele>62</ele>
        <time>2015-11-10T13:49:35Z</time>
      </trkpt>
      <trkpt lat="48.66209" lon="-3.39637">
        <ele>62</ele>
        <time>2015-11-10T13:49:38Z</time>
      </trkpt>
      <trkpt lat="48.66198" lon="-3.39633">
        <ele>62</ele>
        <time>2015-11-10T13:49:40Z</time>
      </trkpt>
      <trkpt lat="48.66182" lon="-3.39626">
        <ele>62</ele>
        <time>2015-11-10T13:49:43Z</time>
      </trkpt>
      <trkpt lat="48.66166" lon="-3.39619">
        <ele>63</ele>
        <time>2015-11-10T13:49:46Z</time>
      </trkpt>
      <trkpt lat="48.66155" lon="-3.39615">
        <ele>63</ele>
        <time>2015-11-10T13:49:48Z</time>
      </trkpt>
      <trkpt lat="48.66144" lon="-3.39611">
        <ele>63</ele>
        <time>2015-11-10T13:49:50Z</time>
      </trkpt>
      <trkpt lat="48.66133" lon="-3.39607">
        <ele>63</ele>
        <time>2015-11-10T13:49:52Z</time>
      </trkpt>
      <trkpt lat="48.66117" lon="-3.39602">
        <ele>63</ele>
        <time>2015-11-10T13:49:55Z</time>
      </trkpt>
      <trkpt lat="48.661" lon="-3.39597">
        <ele>63</ele>
        <time>2015-11-10T13:49:58Z</time>
      </trkpt>
      <trkpt lat="48.66084" lon="-3.39592">
        <ele>63</ele>
        <time>2015-11-10T13:50:01Z</time>
      </trkpt>
      <trkpt lat="48.66068" lon="-3.39585">
        <ele>63</ele>
        <time>2015-11-10T13:50:04Z</time>
      </trkpt>
      <trkpt lat="48.66051" lon="-3.39579">
        <ele>63</ele>
        <time>2015-11-10T13:50:07Z</time>
      </trkpt>
      <trkpt lat="48.66034" lon="-3.39572">
        <ele>63</ele>
        <time>2015-11-10T13:50:10Z</time>
      </trkpt>
      <trkpt lat="48.66023" lon="-3.39567">
        <ele>63</ele>
        <time>2015-11-10T13:50:12Z</time>
      </trkpt>
      <trkpt lat="48.66006" lon="-3.3956">
        <ele>63</ele>
        <time>2015-11-10T13:50:15Z</time>
      </trkpt>
      <trkpt lat="48.65995" lon="-3.39556">
        <ele>63</ele>
        <time>2015-11-10T13:50:17Z</time>
      </trkpt>
      <trkpt lat="48.65979" lon="-3.39549">
        <ele>63</ele>
        <time>2015-11-10T13:50:20Z</time>
      </trkpt>
      <trkpt lat="48.65963" lon="-3.3954">
        <ele>63</ele>
        <time>2015-11-10T13:50:23Z</time>
      </trkpt>
      <trkpt lat="48.65947" lon="-3.39532">
        <ele>63</ele>
        <time>2015-11-10T13:50:26Z</time>
      </trkpt>
      <trkpt lat="48.65936" lon="-3.39527">
        <ele>64</ele>
        <time>2015-11-10T13:50:28Z</time>
      </trkpt>
      <trkpt lat="48.65919" lon="-3.39519">
        <ele>64</ele>
        <time>2015-11-10T13:50:31Z</time>
      </trkpt>
      <trkpt lat="48.65908" lon="-3.39515">
        <ele>64</ele>
        <time>2015-11-10T13:50:33Z</time>
      </trkpt>
      <trkpt lat="48.65898" lon="-3.39511">
        <ele>64</ele>
        <time>2015-11-10T13:50:35Z</time>
      </trkpt>
      <trkpt lat="48.65887" lon="-3.39507">
        <ele>64</ele>
        <time>2015-11-10T13:50:37Z</time>
      </trkpt>
      <trkpt lat="48.65877" lon="-3.39503">
        <ele>65</ele>
        <time>2015-11-10T13:50:39Z</time>
      </trkpt>
      <trkpt lat="48.65866" lon="-3.39499">
        <ele>65</ele>
        <time>2015-11-10T13:50:41Z</time>
      </trkpt>
      <trkpt lat="48.65856" lon="-3.39495">
        <ele>65</ele>
        <time>2015-11-10T13:50:43Z</time>
      </trkpt>
      <trkpt lat="48.6584" lon="-3.39491">
        <ele>65</ele>
        <time>2015-11-10T13:50:46Z</time>
      </trkpt>
      <trkpt lat="48.65823" lon="-3.39487">
        <ele>65</ele>
        <time>2015-11-10T13:50:49Z</time>
      </trkpt>
      <trkpt lat="48.65812" lon="-3.39485">
        <ele>66</ele>
        <time>2015-11-10T13:50:51Z</time>
      </trkpt>
      <trkpt lat="48.65801" lon="-3.39482">
        <ele>66</ele>
        <time>2015-11-10T13:50:53Z</time>
      </trkpt>
      <trkpt lat="48.65791" lon="-3.39481">
        <ele>66</ele>
        <time>2015-11-10T13:50:55Z</time>
      </trkpt>
      <trkpt lat="48.6578" lon="-3.39479">
        <ele>66</ele>
        <time>2015-11-10T13:50:57Z</time>
      </trkpt>
      <trkpt lat="48.65769" lon="-3.39478">
        <ele>66</ele>
        <time>2015-11-10T13:50:59Z</time>
      </trkpt>
      <trkpt lat="48.65759" lon="-3.39477">
        <ele>66</ele>
        <time>2015-11-10T13:51:01Z</time>
      </trkpt>
      <trkpt lat="48.65743" lon="-3.39477">
        <ele>66</ele>
        <time>2015-11-10T13:51:04Z</time>
      </trkpt>
      <trkpt lat="48.65722" lon="-3.39477">
        <ele>66</ele>
        <time>2015-11-10T13:51:08Z</time>
      </trkpt>
      <trkpt lat="48.65702" lon="-3.39479">
        <ele>66</ele>
        <time>2015-11-10T13:51:12Z</time>
      </trkpt>
      <trkpt lat="48.65692" lon="-3.39479">
        <ele>67</ele>
        <time>2015-11-10T13:51:14Z</time>
      </trkpt>
      <trkpt lat="48.65677" lon="-3.39479">
        <ele>67</ele>
        <time>2015-11-10T13:51:17Z</time>
      </trkpt>
      <trkpt lat="48.65667" lon="-3.39479">
        <ele>67</ele>
        <time>2015-11-10T13:51:19Z</time>
      </trkpt>
      <trkpt lat="48.65647" lon="-3.39478">
        <ele>67</ele>
        <time>2015-11-10T13:51:23Z</time>
      </trkpt>
      <trkpt lat="48.65631" lon="-3.39477">
        <ele>67</ele>
        <time>2015-11-10T13:51:26Z</time>
      </trkpt>
      <trkpt lat="48.65621" lon="-3.39474">
        <ele>67</ele>
        <time>2015-11-10T13:51:28Z</time>
      </trkpt>
      <trkpt lat="48.65611" lon="-3.39471">
        <ele>67</ele>
        <time>2015-11-10T13:51:30Z</time>
      </trkpt>
      <trkpt lat="48.656" lon="-3.39469">
        <ele>67</ele>
        <time>2015-11-10T13:51:32Z</time>
      </trkpt>
      <trkpt lat="48.65589" lon="-3.39467">
        <ele>67</ele>
        <time>2015-11-10T13:51:34Z</time>
      </trkpt>
      <trkpt lat="48.65577" lon="-3.39465">
        <ele>68</ele>
        <time>2015-11-10T13:51:36Z</time>
      </trkpt>
      <trkpt lat="48.65566" lon="-3.39465">
        <ele>68</ele>
        <time>2015-11-10T13:51:38Z</time>
      </trkpt>
      <trkpt lat="48.65555" lon="-3.39465">
        <ele>68</ele>
        <time>2015-11-10T13:51:40Z</time>
      </trkpt>
      <trkpt lat="48.65539" lon="-3.39469">
        <ele>68</ele>
        <time>2015-11-10T13:51:43Z</time>
      </trkpt>
      <trkpt lat="48.65523" lon="-3.39477">
        <ele>68</ele>
        <time>2015-11-10T13:51:46Z</time>
      </trkpt>
      <trkpt lat="48.65508" lon="-3.39486">
        <ele>68</ele>
        <time>2015-11-10T13:51:49Z</time>
      </trkpt>
      <trkpt lat="48.65493" lon="-3.39493">
        <ele>68</ele>
        <time>2015-11-10T13:51:52Z</time>
      </trkpt>
      <trkpt lat="48.65482" lon="-3.39495">
        <ele>68</ele>
        <time>2015-11-10T13:51:54Z</time>
      </trkpt>
      <trkpt lat="48.65472" lon="-3.39497">
        <ele>68</ele>
        <time>2015-11-10T13:51:56Z</time>
      </trkpt>
      <trkpt lat="48.65456" lon="-3.39499">
        <ele>68</ele>
        <time>2015-11-10T13:51:59Z</time>
      </trkpt>
      <trkpt lat="48.65445" lon="-3.39498">
        <ele>68</ele>
        <time>2015-11-10T13:52:01Z</time>
      </trkpt>
      <trkpt lat="48.65425" lon="-3.39494">
        <ele>68</ele>
        <time>2015-11-10T13:52:05Z</time>
      </trkpt>
      <trkpt lat="48.6541" lon="-3.3949">
        <ele>68</ele>
        <time>2015-11-10T13:52:08Z</time>
      </trkpt>
      <trkpt lat="48.65395" lon="-3.39487">
        <ele>68</ele>
        <time>2015-11-10T13:52:11Z</time>
      </trkpt>
      <trkpt lat="48.65375" lon="-3.39482">
        <ele>68</ele>
        <time>2015-11-10T13:52:15Z</time>
      </trkpt>
      <trkpt lat="48.65356" lon="-3.39478">
        <ele>69</ele>
        <time>2015-11-10T13:52:19Z</time>
      </trkpt>
      <trkpt lat="48.65346" lon="-3.39476">
        <ele>69</ele>
        <time>2015-11-10T13:52:21Z</time>
      </trkpt>
      <trkpt lat="48.65337" lon="-3.39474">
        <ele>69</ele>
        <time>2015-11-10T13:52:23Z</time>
      </trkpt>
      <trkpt lat="48.65319" lon="-3.3947">
        <ele>69</ele>
        <time>2015-11-10T13:52:27Z</time>
      </trkpt>
      <trkpt lat="48.653" lon="-3.39466">
        <ele>69</ele>
        <time>2015-11-10T13:52:31Z</time>
      </trkpt>
      <trkpt lat="48.65285" lon="-3.39463">
        <ele>69</ele>
        <time>2015-11-10T13:52:34Z</time>
      </trkpt>
      <trkpt lat="48.65265" lon="-3.39459">
        <ele>70</ele>
        <time>2015-11-10T13:52:38Z</time>
      </trkpt>
      <trkpt lat="48.65246" lon="-3.39455">
        <ele>70</ele>
        <time>2015-11-10T13:52:42Z</time>
      </trkpt>
      <trkpt lat="48.65231" lon="-3.39452">
        <ele>70</ele>
        <time>2015-11-10T13:52:45Z</time>
      </trkpt>
      <trkpt lat="48.65222" lon="-3.39449">
        <ele>70</ele>
        <time>2015-11-10T13:52:47Z</time>
      </trkpt>
      <trkpt lat="48.65212" lon="-3.39448">
        <ele>70</ele>
        <time>2015-11-10T13:52:49Z</time>
      </trkpt>
      <trkpt lat="48.65202" lon="-3.39445">
        <ele>70</ele>
        <time>2015-11-10T13:52:51Z</time>
      </trkpt>
      <trkpt lat="48.65193" lon="-3.39443">
        <ele>70</ele>
        <time>2015-11-10T13:52:53Z</time>
      </trkpt>
      <trkpt lat="48.65184" lon="-3.39441">
        <ele>70</ele>
        <time>2015-11-10T13:52:55Z</time>
      </trkpt>
      <trkpt lat="48.65165" lon="-3.39436">
        <ele>71</ele>
        <time>2015-11-10T13:52:59Z</time>
      </trkpt>
      <trkpt lat="48.65156" lon="-3.39433">
        <ele>71</ele>
        <time>2015-11-10T13:53:01Z</time>
      </trkpt>
      <trkpt lat="48.65138" lon="-3.39428">
        <ele>71</ele>
        <time>2015-11-10T13:53:05Z</time>
      </trkpt>
      <trkpt lat="48.65121" lon="-3.39423">
        <ele>71</ele>
        <time>2015-11-10T13:53:09Z</time>
      </trkpt>
      <trkpt lat="48.65104" lon="-3.39418">
        <ele>71</ele>
        <time>2015-11-10T13:53:13Z</time>
      </trkpt>
      <trkpt lat="48.65095" lon="-3.39415">
        <ele>71</ele>
        <time>2015-11-10T13:53:15Z</time>
      </trkpt>
      <trkpt lat="48.65077" lon="-3.39411">
        <ele>72</ele>
        <time>2015-11-10T13:53:19Z</time>
      </trkpt>
      <trkpt lat="48.65063" lon="-3.39408">
        <ele>72</ele>
        <time>2015-11-10T13:53:22Z</time>
      </trkpt>
      <trkpt lat="48.65045" lon="-3.39404">
        <ele>72</ele>
        <time>2015-11-10T13:53:26Z</time>
      </trkpt>
      <trkpt lat="48.65026" lon="-3.39401">
        <ele>72</ele>
        <time>2015-11-10T13:53:30Z</time>
      </trkpt>
      <trkpt lat="48.65013" lon="-3.39401">
        <ele>73</ele>
        <time>2015-11-10T13:53:33Z</time>
      </trkpt>
      <trkpt lat="48.64998" lon="-3.39376">
        <ele>73</ele>
        <time>2015-11-10T13:53:40Z</time>
      </trkpt>
      <trkpt lat="48.65001" lon="-3.39349">
        <ele>74</ele>
        <time>2015-11-10T13:53:44Z</time>
      </trkpt>
      <trkpt lat="48.65004" lon="-3.39324">
        <ele>74</ele>
        <time>2015-11-10T13:53:47Z</time>
      </trkpt>
      <trkpt lat="48.65007" lon="-3.39298">
        <ele>74</ele>
        <time>2015-11-10T13:53:50Z</time>
      </trkpt>
      <trkpt lat="48.6501" lon="-3.39271">
        <ele>75</ele>
        <time>2015-11-10T13:53:53Z</time>
      </trkpt>
      <trkpt lat="48.65012" lon="-3.39245">
        <ele>75</ele>
        <time>2015-11-10T13:53:56Z</time>
      </trkpt>
      <trkpt lat="48.65015" lon="-3.39218">
        <ele>76</ele>
        <time>2015-11-10T13:53:59Z</time>
      </trkpt>
      <trkpt lat="48.65018" lon="-3.39192">
        <ele>76</ele>
        <time>2015-11-10T13:54:02Z</time>
      </trkpt>
      <trkpt lat="48.6502" lon="-3.39174">
        <ele>76</ele>
        <time>2015-11-10T13:54:04Z</time>
      </trkpt>
      <trkpt lat="48.65023" lon="-3.39148">
        <ele>77</ele>
        <time>2015-11-10T13:54:07Z</time>
      </trkpt>
      <trkpt lat="48.65027" lon="-3.39122">
        <ele>77</ele>
        <time>2015-11-10T13:54:10Z</time>
      </trkpt>
      <trkpt lat="48.65029" lon="-3.39104">
        <ele>77</ele>
        <time>2015-11-10T13:54:12Z</time>
      </trkpt>
      <trkpt lat="48.65031" lon="-3.39079">
        <ele>77</ele>
        <time>2015-11-10T13:54:15Z</time>
      </trkpt>
      <trkpt lat="48.65033" lon="-3.39053">
        <ele>78</ele>
        <time>2015-11-10T13:54:18Z</time>
      </trkpt>
      <trkpt lat="48.65033" lon="-3.39028">
        <ele>78</ele>
        <time>2015-11-10T13:54:21Z</time>
      </trkpt>
      <trkpt lat="48.65032" lon="-3.39011">
        <ele>78</ele>
        <time>2015-11-10T13:54:23Z</time>
      </trkpt>
      <trkpt lat="48.65029" lon="-3.38994">
        <ele>78</ele>
        <time>2015-11-10T13:54:25Z</time>
      </trkpt>
      <trkpt lat="48.65026" lon="-3.38977">
        <ele>78</ele>
        <time>2015-11-10T13:54:27Z</time>
      </trkpt>
      <trkpt lat="48.65023" lon="-3.3896">
        <ele>78</ele>
        <time>2015-11-10T13:54:29Z</time>
      </trkpt>
      <trkpt lat="48.65016" lon="-3.38936">
        <ele>78</ele>
        <time>2015-11-10T13:54:32Z</time>
      </trkpt>
      <trkpt lat="48.65009" lon="-3.38922">
        <ele>78</ele>
        <time>2015-11-10T13:54:34Z</time>
      </trkpt>
      <trkpt lat="48.65" lon="-3.3891">
        <ele>78</ele>
        <time>2015-11-10T13:54:36Z</time>
      </trkpt>
      <trkpt lat="48.6499" lon="-3.38901">
        <ele>78</ele>
        <time>2015-11-10T13:54:38Z</time>
      </trkpt>
      <trkpt lat="48.64974" lon="-3.3889">
        <ele>78</ele>
        <time>2015-11-10T13:54:41Z</time>
      </trkpt>
      <trkpt lat="48.64964" lon="-3.38883">
        <ele>78</ele>
        <time>2015-11-10T13:54:43Z</time>
      </trkpt>
      <trkpt lat="48.64954" lon="-3.38876">
        <ele>78</ele>
        <time>2015-11-10T13:54:45Z</time>
      </trkpt>
      <trkpt lat="48.64944" lon="-3.38869">
        <ele>78</ele>
        <time>2015-11-10T13:54:47Z</time>
      </trkpt>
      <trkpt lat="48.64934" lon="-3.38861">
        <ele>78</ele>
        <time>2015-11-10T13:54:49Z</time>
      </trkpt>
      <trkpt lat="48.64924" lon="-3.38854">
        <ele>78</ele>
        <time>2015-11-10T13:54:51Z</time>
      </trkpt>
      <trkpt lat="48.64914" lon="-3.38846">
        <ele>78</ele>
        <time>2015-11-10T13:54:53Z</time>
      </trkpt>
      <trkpt lat="48.64904" lon="-3.38838">
        <ele>78</ele>
        <time>2015-11-10T13:54:55Z</time>
      </trkpt>
      <trkpt lat="48.64894" lon="-3.38831">
        <ele>78</ele>
        <time>2015-11-10T13:54:57Z</time>
      </trkpt>
      <trkpt lat="48.64879" lon="-3.38821">
        <ele>78</ele>
        <time>2015-11-10T13:55:00Z</time>
      </trkpt>
      <trkpt lat="48.64869" lon="-3.38814">
        <ele>78</ele>
        <time>2015-11-10T13:55:02Z</time>
      </trkpt>
      <trkpt lat="48.64859" lon="-3.38806">
        <ele>79</ele>
        <time>2015-11-10T13:55:04Z</time>
      </trkpt>
      <trkpt lat="48.6485" lon="-3.38798">
        <ele>79</ele>
        <time>2015-11-10T13:55:06Z</time>
      </trkpt>
      <trkpt lat="48.64841" lon="-3.38789">
        <ele>79</ele>
        <time>2015-11-10T13:55:08Z</time>
      </trkpt>
      <trkpt lat="48.6483" lon="-3.38773">
        <ele>78</ele>
        <time>2015-11-10T13:55:11Z</time>
      </trkpt>
      <trkpt lat="48.64823" lon="-3.38761">
        <ele>78</ele>
        <time>2015-11-10T13:55:13Z</time>
      </trkpt>
      <trkpt lat="48.64815" lon="-3.38748">
        <ele>78</ele>
        <time>2015-11-10T13:55:15Z</time>
      </trkpt>
      <trkpt lat="48.64808" lon="-3.38735">
        <ele>78</ele>
        <time>2015-11-10T13:55:17Z</time>
      </trkpt>
      <trkpt lat="48.64801" lon="-3.38722">
        <ele>78</ele>
        <time>2015-11-10T13:55:19Z</time>
      </trkpt>
      <trkpt lat="48.6479" lon="-3.38702">
        <ele>78</ele>
        <time>2015-11-10T13:55:22Z</time>
      </trkpt>
      <trkpt lat="48.64782" lon="-3.3869">
        <ele>78</ele>
        <time>2015-11-10T13:55:24Z</time>
      </trkpt>
      <trkpt lat="48.64774" lon="-3.38677">
        <ele>78</ele>
        <time>2015-11-10T13:55:26Z</time>
      </trkpt>
      <trkpt lat="48.64766" lon="-3.38663">
        <ele>78</ele>
        <time>2015-11-10T13:55:28Z</time>
      </trkpt>
      <trkpt lat="48.64758" lon="-3.38649">
        <ele>78</ele>
        <time>2015-11-10T13:55:30Z</time>
      </trkpt>
      <trkpt lat="48.64751" lon="-3.38634">
        <ele>78</ele>
        <time>2015-11-10T13:55:32Z</time>
      </trkpt>
      <trkpt lat="48.64744" lon="-3.38619">
        <ele>78</ele>
        <time>2015-11-10T13:55:34Z</time>
      </trkpt>
      <trkpt lat="48.64735" lon="-3.38594">
        <ele>78</ele>
        <time>2015-11-10T13:55:37Z</time>
      </trkpt>
      <trkpt lat="48.64726" lon="-3.38569">
        <ele>78</ele>
        <time>2015-11-10T13:55:40Z</time>
      </trkpt>
      <trkpt lat="48.6472" lon="-3.38553">
        <ele>78</ele>
        <time>2015-11-10T13:55:42Z</time>
      </trkpt>
      <trkpt lat="48.64712" lon="-3.38536">
        <ele>78</ele>
        <time>2015-11-10T13:55:44Z</time>
      </trkpt>
      <trkpt lat="48.64701" lon="-3.38512">
        <ele>78</ele>
        <time>2015-11-10T13:55:47Z</time>
      </trkpt>
      <trkpt lat="48.6469" lon="-3.38487">
        <ele>78</ele>
        <time>2015-11-10T13:55:50Z</time>
      </trkpt>
      <trkpt lat="48.64683" lon="-3.3847">
        <ele>78</ele>
        <time>2015-11-10T13:55:52Z</time>
      </trkpt>
      <trkpt lat="48.64675" lon="-3.38452">
        <ele>78</ele>
        <time>2015-11-10T13:55:54Z</time>
      </trkpt>
      <trkpt lat="48.64662" lon="-3.38426">
        <ele>78</ele>
        <time>2015-11-10T13:55:57Z</time>
      </trkpt>
      <trkpt lat="48.64647" lon="-3.38402">
        <ele>78</ele>
        <time>2015-11-10T13:56:00Z</time>
      </trkpt>
      <trkpt lat="48.64629" lon="-3.38382">
        <ele>78</ele>
        <time>2015-11-10T13:56:03Z</time>
      </trkpt>
      <trkpt lat="48.64616" lon="-3.38371">
        <ele>78</ele>
        <time>2015-11-10T13:56:05Z</time>
      </trkpt>
      <trkpt lat="48.64599" lon="-3.38351">
        <ele>79</ele>
        <time>2015-11-10T13:56:08Z</time>
      </trkpt>
      <trkpt lat="48.64585" lon="-3.38327">
        <ele>79</ele>
        <time>2015-11-10T13:56:11Z</time>
      </trkpt>
      <trkpt lat="48.64575" lon="-3.38301">
        <ele>78</ele>
        <time>2015-11-10T13:56:14Z</time>
      </trkpt>
      <trkpt lat="48.6457" lon="-3.38283">
        <ele>78</ele>
        <time>2015-11-10T13:56:16Z</time>
      </trkpt>
      <trkpt lat="48.64563" lon="-3.38255">
        <ele>78</ele>
        <time>2015-11-10T13:56:19Z</time>
      </trkpt>
      <trkpt lat="48.6456" lon="-3.38236">
        <ele>78</ele>
        <time>2015-11-10T13:56:21Z</time>
      </trkpt>
      <trkpt lat="48.64556" lon="-3.38207">
        <ele>78</ele>
        <time>2015-11-10T13:56:24Z</time>
      </trkpt>
      <trkpt lat="48.64553" lon="-3.38187">
        <ele>78</ele>
        <time>2015-11-10T13:56:26Z</time>
      </trkpt>
      <trkpt lat="48.6455" lon="-3.38167">
        <ele>78</ele>
        <time>2015-11-10T13:56:28Z</time>
      </trkpt>
      <trkpt lat="48.64546" lon="-3.38146">
        <ele>78</ele>
        <time>2015-11-10T13:56:30Z</time>
      </trkpt>
      <trkpt lat="48.64539" lon="-3.38114">
        <ele>77</ele>
        <time>2015-11-10T13:56:33Z</time>
      </trkpt>
      <trkpt lat="48.64531" lon="-3.38082">
        <ele>77</ele>
        <time>2015-11-10T13:56:36Z</time>
      </trkpt>
      <trkpt lat="48.64522" lon="-3.3805">
        <ele>77</ele>
        <time>2015-11-10T13:56:39Z</time>
      </trkpt>
      <trkpt lat="48.64514" lon="-3.38021">
        <ele>77</ele>
        <time>2015-11-10T13:56:42Z</time>
      </trkpt>
      <trkpt lat="48.64507" lon="-3.37995">
        <ele>77</ele>
        <time>2015-11-10T13:56:45Z</time>
      </trkpt>
      <trkpt lat="48.64502" lon="-3.37981">
        <ele>77</ele>
        <time>2015-11-10T13:56:47Z</time>
      </trkpt>
      <trkpt lat="48.64491" lon="-3.37956">
        <ele>76</ele>
        <time>2015-11-10T13:56:51Z</time>
      </trkpt>
      <trkpt lat="48.64485" lon="-3.37945">
        <ele>76</ele>
        <time>2015-11-10T13:56:53Z</time>
      </trkpt>
      <trkpt lat="48.64479" lon="-3.37935">
        <ele>76</ele>
        <time>2015-11-10T13:56:55Z</time>
      </trkpt>
      <trkpt lat="48.64473" lon="-3.37925">
        <ele>76</ele>
        <time>2015-11-10T13:56:57Z</time>
      </trkpt>
      <trkpt lat="48.64467" lon="-3.37916">
        <ele>76</ele>
        <time>2015-11-10T13:56:59Z</time>
      </trkpt>
      <trkpt lat="48.6446" lon="-3.37907">
        <ele>76</ele>
        <time>2015-11-10T13:57:01Z</time>
      </trkpt>
      <trkpt lat="48.64454" lon="-3.37898">
        <ele>76</ele>
        <time>2015-11-10T13:57:03Z</time>
      </trkpt>
      <trkpt lat="48.64447" lon="-3.37889">
        <ele>76</ele>
        <time>2015-11-10T13:57:05Z</time>
      </trkpt>
      <trkpt lat="48.6444" lon="-3.3788">
        <ele>75</ele>
        <time>2015-11-10T13:57:07Z</time>
      </trkpt>
      <trkpt lat="48.64434" lon="-3.37871">
        <ele>75</ele>
        <time>2015-11-10T13:57:09Z</time>
      </trkpt>
      <trkpt lat="48.64419" lon="-3.37854">
        <ele>75</ele>
        <time>2015-11-10T13:57:13Z</time>
      </trkpt>
      <trkpt lat="48.64405" lon="-3.37837">
        <ele>75</ele>
        <time>2015-11-10T13:57:17Z</time>
      </trkpt>
      <trkpt lat="48.6439" lon="-3.3782">
        <ele>75</ele>
        <time>2015-11-10T13:57:21Z</time>
      </trkpt>
      <trkpt lat="48.64376" lon="-3.37803">
        <ele>75</ele>
        <time>2015-11-10T13:57:25Z</time>
      </trkpt>
      <trkpt lat="48.64363" lon="-3.37786">
        <ele>74</ele>
        <time>2015-11-10T13:57:29Z</time>
      </trkpt>
      <trkpt lat="48.64352" lon="-3.37764">
        <ele>74</ele>
        <time>2015-11-10T13:57:33Z</time>
      </trkpt>
      <trkpt lat="48.64344" lon="-3.37741">
        <ele>73</ele>
        <time>2015-11-10T13:57:36Z</time>
      </trkpt>
      <trkpt lat="48.64338" lon="-3.37715">
        <ele>73</ele>
        <time>2015-11-10T13:57:39Z</time>
      </trkpt>
      <trkpt lat="48.64331" lon="-3.37685">
        <ele>73</ele>
        <time>2015-11-10T13:57:42Z</time>
      </trkpt>
      <trkpt lat="48.64323" lon="-3.37654">
        <ele>73</ele>
        <time>2015-11-10T13:57:45Z</time>
      </trkpt>
      <trkpt lat="48.64314" lon="-3.37611">
        <ele>73</ele>
        <time>2015-11-10T13:57:49Z</time>
      </trkpt>
      <trkpt lat="48.6431" lon="-3.37587">
        <ele>72</ele>
        <time>2015-11-10T13:57:51Z</time>
      </trkpt>
      <trkpt lat="48.64306" lon="-3.37562">
        <ele>72</ele>
        <time>2015-11-10T13:57:53Z</time>
      </trkpt>
      <trkpt lat="48.64302" lon="-3.37537">
        <ele>72</ele>
        <time>2015-11-10T13:57:55Z</time>
      </trkpt>
      <trkpt lat="48.64298" lon="-3.37513">
        <ele>72</ele>
        <time>2015-11-10T13:57:57Z</time>
      </trkpt>
      <trkpt lat="48.64293" lon="-3.37482">
        <ele>72</ele>
        <time>2015-11-10T13:58:00Z</time>
      </trkpt>
      <trkpt lat="48.64289" lon="-3.37457">
        <ele>71</ele>
        <time>2015-11-10T13:58:03Z</time>
      </trkpt>
      <trkpt lat="48.64289" lon="-3.37436">
        <ele>70</ele>
        <time>2015-11-10T13:58:06Z</time>
      </trkpt>
      <trkpt lat="48.64291" lon="-3.37414">
        <ele>70</ele>
        <time>2015-11-10T13:58:10Z</time>
      </trkpt>
      <trkpt lat="48.64295" lon="-3.37399">
        <ele>69</ele>
        <time>2015-11-10T13:58:13Z</time>
      </trkpt>
      <trkpt lat="48.643" lon="-3.37373">
        <ele>68</ele>
        <time>2015-11-10T13:58:19Z</time>
      </trkpt>
      <trkpt lat="48.64302" lon="-3.37353">
        <ele>67</ele>
        <time>2015-11-10T13:58:24Z</time>
      </trkpt>
      <trkpt lat="48.64304" lon="-3.37327">
        <ele>67</ele>
        <time>2015-11-10T13:58:31Z</time>
      </trkpt>
      <trkpt lat="48.64302" lon="-3.37315">
        <ele>66</ele>
        <time>2015-11-10T13:58:35Z</time>
      </trkpt>
      <trkpt lat="48.64297" lon="-3.37301">
        <ele>66</ele>
        <time>2015-11-10T13:58:40Z</time>
      </trkpt>
      <trkpt lat="48.6429" lon="-3.37289">
        <ele>65</ele>
        <time>2015-11-10T13:58:45Z</time>
      </trkpt>
      <trkpt lat="48.64283" lon="-3.37281">
        <ele>65</ele>
        <time>2015-11-10T13:58:49Z</time>
      </trkpt>
      <trkpt lat="48.64275" lon="-3.37276">
        <ele>65</ele>
        <time>2015-11-10T13:58:53Z</time>
      </trkpt>
      <trkpt lat="48.64254" lon="-3.37274">
        <ele>65</ele>
        <time>2015-11-10T13:59:03Z</time>
      </trkpt>
      <trkpt lat="48.64239" lon="-3.37279">
        <ele>65</ele>
        <time>2015-11-10T13:59:10Z</time>
      </trkpt>
      <trkpt lat="48.6423" lon="-3.37283">
        <ele>65</ele>
        <time>2015-11-10T13:59:14Z</time>
      </trkpt>
      <trkpt lat="48.64221" lon="-3.37288">
        <ele>65</ele>
        <time>2015-11-10T13:59:18Z</time>
      </trkpt>
      <trkpt lat="48.64211" lon="-3.37293">
        <ele>66</ele>
        <time>2015-11-10T13:59:22Z</time>
      </trkpt>
      <trkpt lat="48.64202" lon="-3.37297">
        <ele>66</ele>
        <time>2015-11-10T13:59:26Z</time>
      </trkpt>
      <trkpt lat="48.64193" lon="-3.373">
        <ele>66</ele>
        <time>2015-11-10T13:59:30Z</time>
      </trkpt>
      <trkpt lat="48.64183" lon="-3.37299">
        <ele>66</ele>
        <time>2015-11-10T13:59:34Z</time>
      </trkpt>
      <trkpt lat="48.64172" lon="-3.37293">
        <ele>66</ele>
        <time>2015-11-10T13:59:39Z</time>
      </trkpt>
      <trkpt lat="48.64163" lon="-3.37287">
        <ele>66</ele>
        <time>2015-11-10T13:59:43Z</time>
      </trkpt>
      <trkpt lat="48.64156" lon="-3.37279">
        <ele>66</ele>
        <time>2015-11-10T13:59:47Z</time>
      </trkpt>
      <trkpt lat="48.64148" lon="-3.37267">
        <ele>67</ele>
        <time>2015-11-10T13:59:52Z</time>
      </trkpt>
      <trkpt lat="48.64141" lon="-3.37257">
        <ele>67</ele>
        <time>2015-11-10T13:59:56Z</time>
      </trkpt>
      <trkpt lat="48.64134" lon="-3.37248">
        <ele>67</ele>
        <time>2015-11-10T14:00:00Z</time>
      </trkpt>
      <trkpt lat="48.64127" lon="-3.3724">
        <ele>68</ele>
        <time>2015-11-10T14:00:04Z</time>
      </trkpt>
      <trkpt lat="48.6412" lon="-3.37231">
        <ele>68</ele>
        <time>2015-11-10T14:00:08Z</time>
      </trkpt>
      <trkpt lat="48.64113" lon="-3.3722">
        <ele>68</ele>
        <time>2015-11-10T14:00:12Z</time>
      </trkpt>
      <trkpt lat="48.64115" lon="-3.37196">
        <ele>69</ele>
        <time>2015-11-10T14:00:19Z</time>
      </trkpt>
      <trkpt lat="48.64129" lon="-3.37181">
        <ele>69</ele>
        <time>2015-11-10T14:00:26Z</time>
      </trkpt>
      <trkpt lat="48.64143" lon="-3.37168">
        <ele>69</ele>
        <time>2015-11-10T14:00:32Z</time>
      </trkpt>
      <trkpt lat="48.64156" lon="-3.37154">
        <ele>69</ele>
        <time>2015-11-10T14:00:38Z</time>
      </trkpt>
      <trkpt lat="48.64166" lon="-3.3714">
        <ele>69</ele>
        <time>2015-11-10T14:00:43Z</time>
      </trkpt>
      <trkpt lat="48.6418" lon="-3.37123">
        <ele>68</ele>
        <time>2015-11-10T14:00:48Z</time>
      </trkpt>
      <trkpt lat="48.64187" lon="-3.37097">
        <ele>68</ele>
        <time>2015-11-10T14:00:52Z</time>
      </trkpt>
      <trkpt lat="48.64191" lon="-3.37071">
        <ele>68</ele>
        <time>2015-11-10T14:00:55Z</time>
      </trkpt>
      <trkpt lat="48.64196" lon="-3.37036">
        <ele>68</ele>
        <time>2015-11-10T14:00:58Z</time>
      </trkpt>
      <trkpt lat="48.64199" lon="-3.37012">
        <ele>68</ele>
        <time>2015-11-10T14:01:00Z</time>
      </trkpt>
      <trkpt lat="48.64203" lon="-3.36986">
        <ele>67</ele>
        <time>2015-11-10T14:01:02Z</time>
      </trkpt>
      <trkpt lat="48.64207" lon="-3.36959">
        <ele>67</ele>
        <time>2015-11-10T14:01:04Z</time>
      </trkpt>
      <trkpt lat="48.64212" lon="-3.3693">
        <ele>67</ele>
        <time>2015-11-10T14:01:06Z</time>
      </trkpt>
      <trkpt lat="48.64218" lon="-3.36902">
        <ele>67</ele>
        <time>2015-11-10T14:01:08Z</time>
      </trkpt>
      <trkpt lat="48.64223" lon="-3.36874">
        <ele>67</ele>
        <time>2015-11-10T14:01:10Z</time>
      </trkpt>
      <trkpt lat="48.64228" lon="-3.36846">
        <ele>67</ele>
        <time>2015-11-10T14:01:12Z</time>
      </trkpt>
      <trkpt lat="48.64232" lon="-3.36818">
        <ele>67</ele>
        <time>2015-11-10T14:01:14Z</time>
      </trkpt>
      <trkpt lat="48.64237" lon="-3.36788">
        <ele>67</ele>
        <time>2015-11-10T14:01:16Z</time>
      </trkpt>
      <trkpt lat="48.64246" lon="-3.36758">
        <ele>67</ele>
        <time>2015-11-10T14:01:18Z</time>
      </trkpt>
      <trkpt lat="48.64256" lon="-3.36728">
        <ele>67</ele>
        <time>2015-11-10T14:01:20Z</time>
      </trkpt>
      <trkpt lat="48.64266" lon="-3.367">
        <ele>67</ele>
        <time>2015-11-10T14:01:22Z</time>
      </trkpt>
      <trkpt lat="48.64275" lon="-3.36673">
        <ele>67</ele>
        <time>2015-11-10T14:01:24Z</time>
      </trkpt>
      <trkpt lat="48.64279" lon="-3.36659">
        <ele>67</ele>
        <time>2015-11-10T14:01:25Z</time>
      </trkpt>
      <trkpt lat="48.64288" lon="-3.36631">
        <ele>67</ele>
        <time>2015-11-10T14:01:27Z</time>
      </trkpt>
      <trkpt lat="48.64297" lon="-3.36601">
        <ele>66</ele>
        <time>2015-11-10T14:01:29Z</time>
      </trkpt>
      <trkpt lat="48.64305" lon="-3.36569">
        <ele>66</ele>
        <time>2015-11-10T14:01:31Z</time>
      </trkpt>
      <trkpt lat="48.64313" lon="-3.36538">
        <ele>66</ele>
        <time>2015-11-10T14:01:33Z</time>
      </trkpt>
      <trkpt lat="48.6432" lon="-3.36511">
        <ele>66</ele>
        <time>2015-11-10T14:01:35Z</time>
      </trkpt>
      <trkpt lat="48.64323" lon="-3.36499">
        <ele>66</ele>
        <time>2015-11-10T14:01:36Z</time>
      </trkpt>
      <trkpt lat="48.6433" lon="-3.36474">
        <ele>66</ele>
        <time>2015-11-10T14:01:38Z</time>
      </trkpt>
      <trkpt lat="48.64338" lon="-3.36448">
        <ele>66</ele>
        <time>2015-11-10T14:01:40Z</time>
      </trkpt>
      <trkpt lat="48.64345" lon="-3.3642">
        <ele>65</ele>
        <time>2015-11-10T14:01:42Z</time>
      </trkpt>
      <trkpt lat="48.64352" lon="-3.36394">
        <ele>65</ele>
        <time>2015-11-10T14:01:44Z</time>
      </trkpt>
      <trkpt lat="48.64358" lon="-3.36367">
        <ele>65</ele>
        <time>2015-11-10T14:01:46Z</time>
      </trkpt>
      <trkpt lat="48.64366" lon="-3.36331">
        <ele>64</ele>
        <time>2015-11-10T14:01:49Z</time>
      </trkpt>
      <trkpt lat="48.64371" lon="-3.36293">
        <ele>64</ele>
        <time>2015-11-10T14:01:53Z</time>
      </trkpt>
      <trkpt lat="48.64373" lon="-3.36266">
        <ele>62</ele>
        <time>2015-11-10T14:01:58Z</time>
      </trkpt>
      <trkpt lat="48.64374" lon="-3.3625">
        <ele>61</ele>
        <time>2015-11-10T14:02:02Z</time>
      </trkpt>
      <trkpt lat="48.64375" lon="-3.36224">
        <ele>59</ele>
        <time>2015-11-10T14:02:09Z</time>
      </trkpt>
      <trkpt lat="48.64377" lon="-3.362">
        <ele>58</ele>
        <time>2015-11-10T14:02:17Z</time>
      </trkpt>
      <trkpt lat="48.64379" lon="-3.36185">
        <ele>57</ele>
        <time>2015-11-10T14:02:22Z</time>
      </trkpt>
      <trkpt lat="48.64385" lon="-3.36161">
        <ele>56</ele>
        <time>2015-11-10T14:02:31Z</time>
      </trkpt>
      <trkpt lat="48.64392" lon="-3.36143">
        <ele>56</ele>
        <time>2015-11-10T14:02:37Z</time>
      </trkpt>
      <trkpt lat="48.64397" lon="-3.36129">
        <ele>56</ele>
        <time>2015-11-10T14:02:41Z</time>
      </trkpt>
      <trkpt lat="48.64401" lon="-3.36117">
        <ele>55</ele>
        <time>2015-11-10T14:02:44Z</time>
      </trkpt>
      <trkpt lat="48.64405" lon="-3.36104">
        <ele>55</ele>
        <time>2015-11-10T14:02:47Z</time>
      </trkpt>
      <trkpt lat="48.64408" lon="-3.3609">
        <ele>55</ele>
        <time>2015-11-10T14:02:50Z</time>
      </trkpt>
      <trkpt lat="48.64412" lon="-3.36068">
        <ele>55</ele>
        <time>2015-11-10T14:02:54Z</time>
      </trkpt>
      <trkpt lat="48.64415" lon="-3.36046">
        <ele>55</ele>
        <time>2015-11-10T14:02:58Z</time>
      </trkpt>
      <trkpt lat="48.6442" lon="-3.3602">
        <ele>55</ele>
        <time>2015-11-10T14:03:02Z</time>
      </trkpt>
      <trkpt lat="48.64426" lon="-3.35993">
        <ele>56</ele>
        <time>2015-11-10T14:03:06Z</time>
      </trkpt>
      <trkpt lat="48.64434" lon="-3.35969">
        <ele>56</ele>
        <time>2015-11-10T14:03:10Z</time>
      </trkpt>
      <trkpt lat="48.64442" lon="-3.35947">
        <ele>56</ele>
        <time>2015-11-10T14:03:14Z</time>
      </trkpt>
      <trkpt lat="48.64449" lon="-3.35931">
        <ele>56</ele>
        <time>2015-11-10T14:03:17Z</time>
      </trkpt>
      <trkpt lat="48.64455" lon="-3.35916">
        <ele>56</ele>
        <time>2015-11-10T14:03:20Z</time>
      </trkpt>
      <trkpt lat="48.6446" lon="-3.35894">
        <ele>56</ele>
        <time>2015-11-10T14:03:24Z</time>
      </trkpt>
      <trkpt lat="48.64463" lon="-3.35872">
        <ele>56</ele>
        <time>2015-11-10T14:03:30Z</time>
      </trkpt>
      <trkpt lat="48.64468" lon="-3.35874">
        <ele>56</ele>
        <time>2015-11-10T14:04:24Z</time>
      </trkpt>
      <trkpt lat="48.64481" lon="-3.35875">
        <ele>57</ele>
        <time>2015-11-10T14:11:12Z</time>
      </trkpt>
      <trkpt lat="48.64487" lon="-3.35864">
        <ele>56</ele>
        <time>2015-11-10T14:11:16Z</time>
      </trkpt>
      <trkpt lat="48.64492" lon="-3.35853">
        <ele>56</ele>
        <time>2015-11-10T14:11:20Z</time>
      </trkpt>
      <trkpt lat="48.64499" lon="-3.35836">
        <ele>56</ele>
        <time>2015-11-10T14:11:24Z</time>
      </trkpt>
      <trkpt lat="48.64505" lon="-3.35823">
        <ele>56</ele>
        <time>2015-11-10T14:11:27Z</time>
      </trkpt>
      <trkpt lat="48.64512" lon="-3.35802">
        <ele>56</ele>
        <time>2015-11-10T14:11:31Z</time>
      </trkpt>
      <trkpt lat="48.64518" lon="-3.35784">
        <ele>55</ele>
        <time>2015-11-10T14:11:34Z</time>
      </trkpt>
      <trkpt lat="48.64521" lon="-3.3577">
        <ele>55</ele>
        <time>2015-11-10T14:11:36Z</time>
      </trkpt>
      <trkpt lat="48.64525" lon="-3.35755">
        <ele>55</ele>
        <time>2015-11-10T14:11:38Z</time>
      </trkpt>
      <trkpt lat="48.64528" lon="-3.3574">
        <ele>55</ele>
        <time>2015-11-10T14:11:40Z</time>
      </trkpt>
      <trkpt lat="48.64534" lon="-3.35716">
        <ele>55</ele>
        <time>2015-11-10T14:11:43Z</time>
      </trkpt>
      <trkpt lat="48.6454" lon="-3.3569">
        <ele>55</ele>
        <time>2015-11-10T14:11:46Z</time>
      </trkpt>
      <trkpt lat="48.64544" lon="-3.35672">
        <ele>55</ele>
        <time>2015-11-10T14:11:48Z</time>
      </trkpt>
      <trkpt lat="48.64554" lon="-3.35647">
        <ele>55</ele>
        <time>2015-11-10T14:11:51Z</time>
      </trkpt>
      <trkpt lat="48.64564" lon="-3.35623">
        <ele>55</ele>
        <time>2015-11-10T14:11:54Z</time>
      </trkpt>
      <trkpt lat="48.64576" lon="-3.35601">
        <ele>55</ele>
        <time>2015-11-10T14:11:57Z</time>
      </trkpt>
      <trkpt lat="48.64584" lon="-3.35587">
        <ele>55</ele>
        <time>2015-11-10T14:11:59Z</time>
      </trkpt>
      <trkpt lat="48.64594" lon="-3.35566">
        <ele>55</ele>
        <time>2015-11-10T14:12:02Z</time>
      </trkpt>
      <trkpt lat="48.64603" lon="-3.35545">
        <ele>55</ele>
        <time>2015-11-10T14:12:05Z</time>
      </trkpt>
      <trkpt lat="48.64614" lon="-3.35515">
        <ele>55</ele>
        <time>2015-11-10T14:12:09Z</time>
      </trkpt>
      <trkpt lat="48.64622" lon="-3.35492">
        <ele>55</ele>
        <time>2015-11-10T14:12:12Z</time>
      </trkpt>
      <trkpt lat="48.64631" lon="-3.35468">
        <ele>54</ele>
        <time>2015-11-10T14:12:15Z</time>
      </trkpt>
      <trkpt lat="48.64639" lon="-3.35446">
        <ele>54</ele>
        <time>2015-11-10T14:12:18Z</time>
      </trkpt>
      <trkpt lat="48.64648" lon="-3.35424">
        <ele>55</ele>
        <time>2015-11-10T14:12:21Z</time>
      </trkpt>
      <trkpt lat="48.64656" lon="-3.35402">
        <ele>55</ele>
        <time>2015-11-10T14:12:24Z</time>
      </trkpt>
      <trkpt lat="48.64662" lon="-3.35386">
        <ele>55</ele>
        <time>2015-11-10T14:12:26Z</time>
      </trkpt>
      <trkpt lat="48.64667" lon="-3.35372">
        <ele>55</ele>
        <time>2015-11-10T14:12:28Z</time>
      </trkpt>
      <trkpt lat="48.64672" lon="-3.35356">
        <ele>55</ele>
        <time>2015-11-10T14:12:30Z</time>
      </trkpt>
      <trkpt lat="48.64677" lon="-3.35333">
        <ele>55</ele>
        <time>2015-11-10T14:12:33Z</time>
      </trkpt>
      <trkpt lat="48.6468" lon="-3.35309">
        <ele>55</ele>
        <time>2015-11-10T14:12:36Z</time>
      </trkpt>
      <trkpt lat="48.64684" lon="-3.35268">
        <ele>55</ele>
        <time>2015-11-10T14:12:41Z</time>
      </trkpt>
      <trkpt lat="48.64687" lon="-3.35244">
        <ele>55</ele>
        <time>2015-11-10T14:12:44Z</time>
      </trkpt>
      <trkpt lat="48.6469" lon="-3.35222">
        <ele>55</ele>
        <time>2015-11-10T14:12:47Z</time>
      </trkpt>
      <trkpt lat="48.64694" lon="-3.35198">
        <ele>55</ele>
        <time>2015-11-10T14:12:50Z</time>
      </trkpt>
      <trkpt lat="48.64703" lon="-3.35169">
        <ele>55</ele>
        <time>2015-11-10T14:12:54Z</time>
      </trkpt>
      <trkpt lat="48.64709" lon="-3.35145">
        <ele>54</ele>
        <time>2015-11-10T14:12:57Z</time>
      </trkpt>
      <trkpt lat="48.64714" lon="-3.3512">
        <ele>54</ele>
        <time>2015-11-10T14:13:00Z</time>
      </trkpt>
      <trkpt lat="48.64717" lon="-3.35097">
        <ele>54</ele>
        <time>2015-11-10T14:13:03Z</time>
      </trkpt>
      <trkpt lat="48.64723" lon="-3.35073">
        <ele>54</ele>
        <time>2015-11-10T14:13:06Z</time>
      </trkpt>
      <trkpt lat="48.64729" lon="-3.35047">
        <ele>54</ele>
        <time>2015-11-10T14:13:09Z</time>
      </trkpt>
      <trkpt lat="48.64736" lon="-3.35022">
        <ele>54</ele>
        <time>2015-11-10T14:13:12Z</time>
      </trkpt>
      <trkpt lat="48.64742" lon="-3.34999">
        <ele>54</ele>
        <time>2015-11-10T14:13:15Z</time>
      </trkpt>
      <trkpt lat="48.64746" lon="-3.34984">
        <ele>54</ele>
        <time>2015-11-10T14:13:17Z</time>
      </trkpt>
      <trkpt lat="48.6475" lon="-3.3497">
        <ele>54</ele>
        <time>2015-11-10T14:13:19Z</time>
      </trkpt>
      <trkpt lat="48.64753" lon="-3.34957">
        <ele>54</ele>
        <time>2015-11-10T14:13:21Z</time>
      </trkpt>
      <trkpt lat="48.64757" lon="-3.34943">
        <ele>54</ele>
        <time>2015-11-10T14:13:23Z</time>
      </trkpt>
      <trkpt lat="48.64763" lon="-3.34923">
        <ele>54</ele>
        <time>2015-11-10T14:13:26Z</time>
      </trkpt>
      <trkpt lat="48.64766" lon="-3.34909">
        <ele>54</ele>
        <time>2015-11-10T14:13:28Z</time>
      </trkpt>
      <trkpt lat="48.64771" lon="-3.34896">
        <ele>54</ele>
        <time>2015-11-10T14:13:30Z</time>
      </trkpt>
      <trkpt lat="48.64775" lon="-3.34882">
        <ele>55</ele>
        <time>2015-11-10T14:13:32Z</time>
      </trkpt>
      <trkpt lat="48.64779" lon="-3.34869">
        <ele>55</ele>
        <time>2015-11-10T14:13:34Z</time>
      </trkpt>
      <trkpt lat="48.64784" lon="-3.34856">
        <ele>55</ele>
        <time>2015-11-10T14:13:36Z</time>
      </trkpt>
      <trkpt lat="48.64793" lon="-3.3484">
        <ele>55</ele>
        <time>2015-11-10T14:13:39Z</time>
      </trkpt>
      <trkpt lat="48.648" lon="-3.3483">
        <ele>56</ele>
        <time>2015-11-10T14:13:41Z</time>
      </trkpt>
      <trkpt lat="48.64808" lon="-3.34821">
        <ele>56</ele>
        <time>2015-11-10T14:13:43Z</time>
      </trkpt>
      <trkpt lat="48.64817" lon="-3.34813">
        <ele>56</ele>
        <time>2015-11-10T14:13:45Z</time>
      </trkpt>
      <trkpt lat="48.64827" lon="-3.34805">
        <ele>56</ele>
        <time>2015-11-10T14:13:47Z</time>
      </trkpt>
      <trkpt lat="48.64837" lon="-3.34798">
        <ele>57</ele>
        <time>2015-11-10T14:13:49Z</time>
      </trkpt>
      <trkpt lat="48.64846" lon="-3.3479">
        <ele>57</ele>
        <time>2015-11-10T14:13:51Z</time>
      </trkpt>
      <trkpt lat="48.64856" lon="-3.34783">
        <ele>57</ele>
        <time>2015-11-10T14:13:53Z</time>
      </trkpt>
      <trkpt lat="48.64866" lon="-3.34777">
        <ele>57</ele>
        <time>2015-11-10T14:13:55Z</time>
      </trkpt>
      <trkpt lat="48.64876" lon="-3.34771">
        <ele>57</ele>
        <time>2015-11-10T14:13:57Z</time>
      </trkpt>
      <trkpt lat="48.64887" lon="-3.34767">
        <ele>57</ele>
        <time>2015-11-10T14:13:59Z</time>
      </trkpt>
      <trkpt lat="48.64899" lon="-3.34763">
        <ele>57</ele>
        <time>2015-11-10T14:14:01Z</time>
      </trkpt>
      <trkpt lat="48.64916" lon="-3.34758">
        <ele>58</ele>
        <time>2015-11-10T14:14:04Z</time>
      </trkpt>
      <trkpt lat="48.64926" lon="-3.34753">
        <ele>58</ele>
        <time>2015-11-10T14:14:06Z</time>
      </trkpt>
      <trkpt lat="48.64942" lon="-3.34746">
        <ele>58</ele>
        <time>2015-11-10T14:14:09Z</time>
      </trkpt>
      <trkpt lat="48.64951" lon="-3.34741">
        <ele>58</ele>
        <time>2015-11-10T14:14:11Z</time>
      </trkpt>
      <trkpt lat="48.64961" lon="-3.34736">
        <ele>58</ele>
        <time>2015-11-10T14:14:13Z</time>
      </trkpt>
      <trkpt lat="48.64971" lon="-3.34729">
        <ele>59</ele>
        <time>2015-11-10T14:14:15Z</time>
      </trkpt>
      <trkpt lat="48.64981" lon="-3.34722">
        <ele>59</ele>
        <time>2015-11-10T14:14:17Z</time>
      </trkpt>
      <trkpt lat="48.64996" lon="-3.34712">
        <ele>59</ele>
        <time>2015-11-10T14:14:20Z</time>
      </trkpt>
      <trkpt lat="48.6501" lon="-3.34701">
        <ele>59</ele>
        <time>2015-11-10T14:14:23Z</time>
      </trkpt>
      <trkpt lat="48.65027" lon="-3.34689">
        <ele>60</ele>
        <time>2015-11-10T14:14:27Z</time>
      </trkpt>
      <trkpt lat="48.65045" lon="-3.34681">
        <ele>59</ele>
        <time>2015-11-10T14:14:31Z</time>
      </trkpt>
      <trkpt lat="48.6509" lon="-3.34655">
        <ele>59</ele>
        <time>2015-11-10T14:14:40Z</time>
      </trkpt>
      <trkpt lat="48.65109" lon="-3.34644">
        <ele>59</ele>
        <time>2015-11-10T14:14:43Z</time>
      </trkpt>
      <trkpt lat="48.65128" lon="-3.34634">
        <ele>59</ele>
        <time>2015-11-10T14:14:46Z</time>
      </trkpt>
      <trkpt lat="48.65147" lon="-3.34623">
        <ele>59</ele>
        <time>2015-11-10T14:14:49Z</time>
      </trkpt>
      <trkpt lat="48.65158" lon="-3.34615">
        <ele>59</ele>
        <time>2015-11-10T14:14:51Z</time>
      </trkpt>
      <trkpt lat="48.6518" lon="-3.34601">
        <ele>58</ele>
        <time>2015-11-10T14:14:56Z</time>
      </trkpt>
      <trkpt lat="48.65212" lon="-3.34563">
        <ele>58</ele>
        <time>2015-11-10T14:15:04Z</time>
      </trkpt>
      <trkpt lat="48.65236" lon="-3.34526">
        <ele>58</ele>
        <time>2015-11-10T14:15:09Z</time>
      </trkpt>
      <trkpt lat="48.65251" lon="-3.34504">
        <ele>58</ele>
        <time>2015-11-10T14:15:12Z</time>
      </trkpt>
      <trkpt lat="48.65267" lon="-3.34486">
        <ele>58</ele>
        <time>2015-11-10T14:15:15Z</time>
      </trkpt>
      <trkpt lat="48.65283" lon="-3.3447">
        <ele>58</ele>
        <time>2015-11-10T14:15:18Z</time>
      </trkpt>
      <trkpt lat="48.65294" lon="-3.3446">
        <ele>58</ele>
        <time>2015-11-10T14:15:20Z</time>
      </trkpt>
      <trkpt lat="48.65316" lon="-3.34443">
        <ele>57</ele>
        <time>2015-11-10T14:15:24Z</time>
      </trkpt>
      <trkpt lat="48.65334" lon="-3.34431">
        <ele>57</ele>
        <time>2015-11-10T14:15:27Z</time>
      </trkpt>
      <trkpt lat="48.65345" lon="-3.34422">
        <ele>57</ele>
        <time>2015-11-10T14:15:29Z</time>
      </trkpt>
      <trkpt lat="48.65355" lon="-3.34412">
        <ele>57</ele>
        <time>2015-11-10T14:15:31Z</time>
      </trkpt>
      <trkpt lat="48.65369" lon="-3.34394">
        <ele>57</ele>
        <time>2015-11-10T14:15:34Z</time>
      </trkpt>
      <trkpt lat="48.6538" lon="-3.34372">
        <ele>57</ele>
        <time>2015-11-10T14:15:37Z</time>
      </trkpt>
      <trkpt lat="48.65389" lon="-3.3435">
        <ele>57</ele>
        <time>2015-11-10T14:15:40Z</time>
      </trkpt>
      <trkpt lat="48.65399" lon="-3.3433">
        <ele>57</ele>
        <time>2015-11-10T14:15:43Z</time>
      </trkpt>
      <trkpt lat="48.65472" lon="-3.3416">
        <ele>57</ele>
        <time>2015-11-10T14:16:07Z</time>
      </trkpt>
      <trkpt lat="48.65485" lon="-3.34115">
        <ele>58</ele>
        <time>2015-11-10T14:16:13Z</time>
      </trkpt>
      <trkpt lat="48.65493" lon="-3.3409">
        <ele>58</ele>
        <time>2015-11-10T14:16:16Z</time>
      </trkpt>
      <trkpt lat="48.65507" lon="-3.34059">
        <ele>58</ele>
        <time>2015-11-10T14:16:20Z</time>
      </trkpt>
      <trkpt lat="48.6556" lon="-3.33986">
        <ele>59</ele>
        <time>2015-11-10T14:16:31Z</time>
      </trkpt>
      <trkpt lat="48.65577" lon="-3.3397">
        <ele>59</ele>
        <time>2015-11-10T14:16:34Z</time>
      </trkpt>
      <trkpt lat="48.65596" lon="-3.33954">
        <ele>59</ele>
        <time>2015-11-10T14:16:37Z</time>
      </trkpt>
      <trkpt lat="48.65695" lon="-3.33906">
        <ele>58</ele>
        <time>2015-11-10T14:16:52Z</time>
      </trkpt>
      <trkpt lat="48.65713" lon="-3.3389">
        <ele>58</ele>
        <time>2015-11-10T14:16:55Z</time>
      </trkpt>
      <trkpt lat="48.65728" lon="-3.3387">
        <ele>58</ele>
        <time>2015-11-10T14:16:58Z</time>
      </trkpt>
      <trkpt lat="48.6574" lon="-3.33849">
        <ele>57</ele>
        <time>2015-11-10T14:17:01Z</time>
      </trkpt>
      <trkpt lat="48.65753" lon="-3.33834">
        <ele>57</ele>
        <time>2015-11-10T14:17:04Z</time>
      </trkpt>
      <trkpt lat="48.65768" lon="-3.33824">
        <ele>57</ele>
        <time>2015-11-10T14:17:07Z</time>
      </trkpt>
      <trkpt lat="48.65781" lon="-3.33809">
        <ele>57</ele>
        <time>2015-11-10T14:17:10Z</time>
      </trkpt>
      <trkpt lat="48.65792" lon="-3.33792">
        <ele>57</ele>
        <time>2015-11-10T14:17:13Z</time>
      </trkpt>
      <trkpt lat="48.65799" lon="-3.33781">
        <ele>57</ele>
        <time>2015-11-10T14:17:15Z</time>
      </trkpt>
      <trkpt lat="48.65814" lon="-3.33759">
        <ele>58</ele>
        <time>2015-11-10T14:17:19Z</time>
      </trkpt>
      <trkpt lat="48.65824" lon="-3.33742">
        <ele>58</ele>
        <time>2015-11-10T14:17:22Z</time>
      </trkpt>
      <trkpt lat="48.65832" lon="-3.3373">
        <ele>58</ele>
        <time>2015-11-10T14:17:24Z</time>
      </trkpt>
      <trkpt lat="48.65839" lon="-3.3372">
        <ele>59</ele>
        <time>2015-11-10T14:17:26Z</time>
      </trkpt>
      <trkpt lat="48.65848" lon="-3.33712">
        <ele>59</ele>
        <time>2015-11-10T14:17:28Z</time>
      </trkpt>
      <trkpt lat="48.65864" lon="-3.33705">
        <ele>59</ele>
        <time>2015-11-10T14:17:31Z</time>
      </trkpt>
      <trkpt lat="48.65876" lon="-3.33703">
        <ele>59</ele>
        <time>2015-11-10T14:17:33Z</time>
      </trkpt>
      <trkpt lat="48.65888" lon="-3.33704">
        <ele>59</ele>
        <time>2015-11-10T14:17:35Z</time>
      </trkpt>
      <trkpt lat="48.659" lon="-3.3371">
        <ele>59</ele>
        <time>2015-11-10T14:17:37Z</time>
      </trkpt>
      <trkpt lat="48.65918" lon="-3.33724">
        <ele>59</ele>
        <time>2015-11-10T14:17:40Z</time>
      </trkpt>
      <trkpt lat="48.6593" lon="-3.33739">
        <ele>59</ele>
        <time>2015-11-10T14:17:42Z</time>
      </trkpt>
      <trkpt lat="48.65942" lon="-3.33755">
        <ele>59</ele>
        <time>2015-11-10T14:17:44Z</time>
      </trkpt>
      <trkpt lat="48.65949" lon="-3.33763">
        <ele>59</ele>
        <time>2015-11-10T14:17:45Z</time>
      </trkpt>
      <trkpt lat="48.65955" lon="-3.33771">
        <ele>59</ele>
        <time>2015-11-10T14:17:46Z</time>
      </trkpt>
      <trkpt lat="48.65962" lon="-3.33779">
        <ele>59</ele>
        <time>2015-11-10T14:17:47Z</time>
      </trkpt>
      <trkpt lat="48.65976" lon="-3.33793">
        <ele>59</ele>
        <time>2015-11-10T14:17:49Z</time>
      </trkpt>
      <trkpt lat="48.65983" lon="-3.338">
        <ele>59</ele>
        <time>2015-11-10T14:17:50Z</time>
      </trkpt>
      <trkpt lat="48.65998" lon="-3.33812">
        <ele>59</ele>
        <time>2015-11-10T14:17:52Z</time>
      </trkpt>
      <trkpt lat="48.66013" lon="-3.33822">
        <ele>59</ele>
        <time>2015-11-10T14:17:54Z</time>
      </trkpt>
      <trkpt lat="48.66028" lon="-3.33829">
        <ele>59</ele>
        <time>2015-11-10T14:17:56Z</time>
      </trkpt>
      <trkpt lat="48.66043" lon="-3.33833">
        <ele>59</ele>
        <time>2015-11-10T14:17:58Z</time>
      </trkpt>
      <trkpt lat="48.66065" lon="-3.33835">
        <ele>59</ele>
        <time>2015-11-10T14:18:01Z</time>
      </trkpt>
      <trkpt lat="48.66087" lon="-3.33836">
        <ele>59</ele>
        <time>2015-11-10T14:18:04Z</time>
      </trkpt>
      <trkpt lat="48.66101" lon="-3.33836">
        <ele>59</ele>
        <time>2015-11-10T14:18:06Z</time>
      </trkpt>
      <trkpt lat="48.66129" lon="-3.33835">
        <ele>59</ele>
        <time>2015-11-10T14:18:10Z</time>
      </trkpt>
      <trkpt lat="48.66143" lon="-3.33834">
        <ele>59</ele>
        <time>2015-11-10T14:18:12Z</time>
      </trkpt>
      <trkpt lat="48.66157" lon="-3.33833">
        <ele>59</ele>
        <time>2015-11-10T14:18:14Z</time>
      </trkpt>
      <trkpt lat="48.6617" lon="-3.33832">
        <ele>59</ele>
        <time>2015-11-10T14:18:16Z</time>
      </trkpt>
      <trkpt lat="48.66184" lon="-3.33831">
        <ele>59</ele>
        <time>2015-11-10T14:18:18Z</time>
      </trkpt>
      <trkpt lat="48.66198" lon="-3.3383">
        <ele>59</ele>
        <time>2015-11-10T14:18:20Z</time>
      </trkpt>
      <trkpt lat="48.66212" lon="-3.33828">
        <ele>59</ele>
        <time>2015-11-10T14:18:22Z</time>
      </trkpt>
      <trkpt lat="48.66226" lon="-3.33827">
        <ele>59</ele>
        <time>2015-11-10T14:18:24Z</time>
      </trkpt>
      <trkpt lat="48.6624" lon="-3.33824">
        <ele>59</ele>
        <time>2015-11-10T14:18:26Z</time>
      </trkpt>
      <trkpt lat="48.66252" lon="-3.33813">
        <ele>59</ele>
        <time>2015-11-10T14:18:28Z</time>
      </trkpt>
      <trkpt lat="48.66261" lon="-3.33797">
        <ele>59</ele>
        <time>2015-11-10T14:18:30Z</time>
      </trkpt>
      <trkpt lat="48.66273" lon="-3.3377">
        <ele>59</ele>
        <time>2015-11-10T14:18:33Z</time>
      </trkpt>
      <trkpt lat="48.6629" lon="-3.33749">
        <ele>59</ele>
        <time>2015-11-10T14:18:36Z</time>
      </trkpt>
      <trkpt lat="48.66303" lon="-3.33737">
        <ele>59</ele>
        <time>2015-11-10T14:18:38Z</time>
      </trkpt>
      <trkpt lat="48.66322" lon="-3.3372">
        <ele>58</ele>
        <time>2015-11-10T14:18:41Z</time>
      </trkpt>
      <trkpt lat="48.66342" lon="-3.33705">
        <ele>58</ele>
        <time>2015-11-10T14:18:44Z</time>
      </trkpt>
      <trkpt lat="48.6636" lon="-3.3369">
        <ele>58</ele>
        <time>2015-11-10T14:18:47Z</time>
      </trkpt>
      <trkpt lat="48.66377" lon="-3.33675">
        <ele>58</ele>
        <time>2015-11-10T14:18:50Z</time>
      </trkpt>
      <trkpt lat="48.66393" lon="-3.3366">
        <ele>58</ele>
        <time>2015-11-10T14:18:53Z</time>
      </trkpt>
      <trkpt lat="48.66409" lon="-3.33646">
        <ele>58</ele>
        <time>2015-11-10T14:18:56Z</time>
      </trkpt>
      <trkpt lat="48.66426" lon="-3.3363">
        <ele>57</ele>
        <time>2015-11-10T14:18:59Z</time>
      </trkpt>
      <trkpt lat="48.66443" lon="-3.33611">
        <ele>57</ele>
        <time>2015-11-10T14:19:02Z</time>
      </trkpt>
      <trkpt lat="48.6646" lon="-3.33592">
        <ele>57</ele>
        <time>2015-11-10T14:19:05Z</time>
      </trkpt>
      <trkpt lat="48.66477" lon="-3.33571">
        <ele>56</ele>
        <time>2015-11-10T14:19:08Z</time>
      </trkpt>
      <trkpt lat="48.66494" lon="-3.33551">
        <ele>56</ele>
        <time>2015-11-10T14:19:11Z</time>
      </trkpt>
      <trkpt lat="48.66512" lon="-3.3353">
        <ele>56</ele>
        <time>2015-11-10T14:19:14Z</time>
      </trkpt>
      <trkpt lat="48.66529" lon="-3.33509">
        <ele>56</ele>
        <time>2015-11-10T14:19:17Z</time>
      </trkpt>
      <trkpt lat="48.66547" lon="-3.33489">
        <ele>56</ele>
        <time>2015-11-10T14:19:20Z</time>
      </trkpt>
      <trkpt lat="48.66564" lon="-3.3347">
        <ele>55</ele>
        <time>2015-11-10T14:19:23Z</time>
      </trkpt>
      <trkpt lat="48.66581" lon="-3.33451">
        <ele>55</ele>
        <time>2015-11-10T14:19:26Z</time>
      </trkpt>
      <trkpt lat="48.66598" lon="-3.33432">
        <ele>55</ele>
        <time>2015-11-10T14:19:29Z</time>
      </trkpt>
      <trkpt lat="48.66615" lon="-3.33414">
        <ele>55</ele>
        <time>2015-11-10T14:19:32Z</time>
      </trkpt>
      <trkpt lat="48.66631" lon="-3.33399">
        <ele>55</ele>
        <time>2015-11-10T14:19:35Z</time>
      </trkpt>
      <trkpt lat="48.66651" lon="-3.3338">
        <ele>55</ele>
        <time>2015-11-10T14:19:39Z</time>
      </trkpt>
      <trkpt lat="48.6667" lon="-3.33361">
        <ele>55</ele>
        <time>2015-11-10T14:19:43Z</time>
      </trkpt>
      <trkpt lat="48.66684" lon="-3.33347">
        <ele>55</ele>
        <time>2015-11-10T14:19:46Z</time>
      </trkpt>
      <trkpt lat="48.66712" lon="-3.33316">
        <ele>55</ele>
        <time>2015-11-10T14:19:52Z</time>
      </trkpt>
      <trkpt lat="48.66727" lon="-3.33299">
        <ele>54</ele>
        <time>2015-11-10T14:19:55Z</time>
      </trkpt>
      <trkpt lat="48.66743" lon="-3.33283">
        <ele>54</ele>
        <time>2015-11-10T14:19:58Z</time>
      </trkpt>
      <trkpt lat="48.66758" lon="-3.33268">
        <ele>54</ele>
        <time>2015-11-10T14:20:01Z</time>
      </trkpt>
      <trkpt lat="48.66768" lon="-3.33258">
        <ele>54</ele>
        <time>2015-11-10T14:20:03Z</time>
      </trkpt>
      <trkpt lat="48.66778" lon="-3.33248">
        <ele>54</ele>
        <time>2015-11-10T14:20:05Z</time>
      </trkpt>
      <trkpt lat="48.66793" lon="-3.33233">
        <ele>54</ele>
        <time>2015-11-10T14:20:08Z</time>
      </trkpt>
      <trkpt lat="48.66807" lon="-3.33219">
        <ele>54</ele>
        <time>2015-11-10T14:20:11Z</time>
      </trkpt>
      <trkpt lat="48.66821" lon="-3.33205">
        <ele>54</ele>
        <time>2015-11-10T14:20:14Z</time>
      </trkpt>
      <trkpt lat="48.66835" lon="-3.33191">
        <ele>53</ele>
        <time>2015-11-10T14:20:17Z</time>
      </trkpt>
      <trkpt lat="48.66844" lon="-3.33181">
        <ele>53</ele>
        <time>2015-11-10T14:20:19Z</time>
      </trkpt>
      <trkpt lat="48.66859" lon="-3.33166">
        <ele>53</ele>
        <time>2015-11-10T14:20:22Z</time>
      </trkpt>
      <trkpt lat="48.66868" lon="-3.33155">
        <ele>53</ele>
        <time>2015-11-10T14:20:24Z</time>
      </trkpt>
      <trkpt lat="48.66882" lon="-3.33139">
        <ele>53</ele>
        <time>2015-11-10T14:20:27Z</time>
      </trkpt>
      <trkpt lat="48.66895" lon="-3.33124">
        <ele>53</ele>
        <time>2015-11-10T14:20:30Z</time>
      </trkpt>
      <trkpt lat="48.66911" lon="-3.33106">
        <ele>53</ele>
        <time>2015-11-10T14:20:34Z</time>
      </trkpt>
      <trkpt lat="48.66925" lon="-3.33087">
        <ele>53</ele>
        <time>2015-11-10T14:20:38Z</time>
      </trkpt>
      <trkpt lat="48.6695" lon="-3.33053">
        <ele>53</ele>
        <time>2015-11-10T14:20:44Z</time>
      </trkpt>
      <trkpt lat="48.66964" lon="-3.33033">
        <ele>53</ele>
        <time>2015-11-10T14:20:47Z</time>
      </trkpt>
      <trkpt lat="48.66978" lon="-3.33013">
        <ele>53</ele>
        <time>2015-11-10T14:20:50Z</time>
      </trkpt>
      <trkpt lat="48.66996" lon="-3.32985">
        <ele>53</ele>
        <time>2015-11-10T14:20:54Z</time>
      </trkpt>
      <trkpt lat="48.67009" lon="-3.32964">
        <ele>53</ele>
        <time>2015-11-10T14:20:57Z</time>
      </trkpt>
      <trkpt lat="48.67021" lon="-3.32945">
        <ele>52</ele>
        <time>2015-11-10T14:21:00Z</time>
      </trkpt>
      <trkpt lat="48.67034" lon="-3.32923">
        <ele>52</ele>
        <time>2015-11-10T14:21:03Z</time>
      </trkpt>
      <trkpt lat="48.67047" lon="-3.329">
        <ele>51</ele>
        <time>2015-11-10T14:21:06Z</time>
      </trkpt>
      <trkpt lat="48.6706" lon="-3.32877">
        <ele>51</ele>
        <time>2015-11-10T14:21:09Z</time>
      </trkpt>
      <trkpt lat="48.67074" lon="-3.32853">
        <ele>50</ele>
        <time>2015-11-10T14:21:12Z</time>
      </trkpt>
      <trkpt lat="48.67088" lon="-3.3283">
        <ele>49</ele>
        <time>2015-11-10T14:21:15Z</time>
      </trkpt>
      <trkpt lat="48.67103" lon="-3.32806">
        <ele>49</ele>
        <time>2015-11-10T14:21:18Z</time>
      </trkpt>
      <trkpt lat="48.67113" lon="-3.32791">
        <ele>48</ele>
        <time>2015-11-10T14:21:20Z</time>
      </trkpt>
      <trkpt lat="48.67123" lon="-3.32776">
        <ele>48</ele>
        <time>2015-11-10T14:21:22Z</time>
      </trkpt>
      <trkpt lat="48.67133" lon="-3.32761">
        <ele>48</ele>
        <time>2015-11-10T14:21:24Z</time>
      </trkpt>
      <trkpt lat="48.67148" lon="-3.3274">
        <ele>48</ele>
        <time>2015-11-10T14:21:27Z</time>
      </trkpt>
      <trkpt lat="48.67158" lon="-3.32726">
        <ele>48</ele>
        <time>2015-11-10T14:21:29Z</time>
      </trkpt>
      <trkpt lat="48.67168" lon="-3.32711">
        <ele>48</ele>
        <time>2015-11-10T14:21:31Z</time>
      </trkpt>
      <trkpt lat="48.67178" lon="-3.32697">
        <ele>48</ele>
        <time>2015-11-10T14:21:33Z</time>
      </trkpt>
      <trkpt lat="48.67187" lon="-3.32684">
        <ele>48</ele>
        <time>2015-11-10T14:21:35Z</time>
      </trkpt>
      <trkpt lat="48.67196" lon="-3.3267">
        <ele>48</ele>
        <time>2015-11-10T14:21:37Z</time>
      </trkpt>
      <trkpt lat="48.67205" lon="-3.32656">
        <ele>49</ele>
        <time>2015-11-10T14:21:39Z</time>
      </trkpt>
      <trkpt lat="48.67214" lon="-3.32643">
        <ele>49</ele>
        <time>2015-11-10T14:21:41Z</time>
      </trkpt>
      <trkpt lat="48.67223" lon="-3.32629">
        <ele>49</ele>
        <time>2015-11-10T14:21:43Z</time>
      </trkpt>
      <trkpt lat="48.67231" lon="-3.32615">
        <ele>49</ele>
        <time>2015-11-10T14:21:45Z</time>
      </trkpt>
      <trkpt lat="48.6724" lon="-3.32601">
        <ele>49</ele>
        <time>2015-11-10T14:21:47Z</time>
      </trkpt>
      <trkpt lat="48.67249" lon="-3.32587">
        <ele>49</ele>
        <time>2015-11-10T14:21:49Z</time>
      </trkpt>
      <trkpt lat="48.67257" lon="-3.32573">
        <ele>49</ele>
        <time>2015-11-10T14:21:51Z</time>
      </trkpt>
      <trkpt lat="48.67266" lon="-3.32558">
        <ele>50</ele>
        <time>2015-11-10T14:21:53Z</time>
      </trkpt>
      <trkpt lat="48.67278" lon="-3.32536">
        <ele>50</ele>
        <time>2015-11-10T14:21:56Z</time>
      </trkpt>
      <trkpt lat="48.67286" lon="-3.32521">
        <ele>50</ele>
        <time>2015-11-10T14:21:58Z</time>
      </trkpt>
      <trkpt lat="48.67294" lon="-3.32506">
        <ele>50</ele>
        <time>2015-11-10T14:22:00Z</time>
      </trkpt>
      <trkpt lat="48.67302" lon="-3.32492">
        <ele>51</ele>
        <time>2015-11-10T14:22:02Z</time>
      </trkpt>
      <trkpt lat="48.67314" lon="-3.3247">
        <ele>51</ele>
        <time>2015-11-10T14:22:05Z</time>
      </trkpt>
      <trkpt lat="48.67323" lon="-3.32455">
        <ele>51</ele>
        <time>2015-11-10T14:22:07Z</time>
      </trkpt>
      <trkpt lat="48.67331" lon="-3.32441">
        <ele>52</ele>
        <time>2015-11-10T14:22:09Z</time>
      </trkpt>
      <trkpt lat="48.67339" lon="-3.32426">
        <ele>52</ele>
        <time>2015-11-10T14:22:11Z</time>
      </trkpt>
      <trkpt lat="48.67347" lon="-3.32411">
        <ele>52</ele>
        <time>2015-11-10T14:22:13Z</time>
      </trkpt>
      <trkpt lat="48.67355" lon="-3.32396">
        <ele>52</ele>
        <time>2015-11-10T14:22:15Z</time>
      </trkpt>
      <trkpt lat="48.67368" lon="-3.32375">
        <ele>53</ele>
        <time>2015-11-10T14:22:18Z</time>
      </trkpt>
      <trkpt lat="48.67377" lon="-3.32362">
        <ele>53</ele>
        <time>2015-11-10T14:22:20Z</time>
      </trkpt>
      <trkpt lat="48.67387" lon="-3.32349">
        <ele>53</ele>
        <time>2015-11-10T14:22:22Z</time>
      </trkpt>
      <trkpt lat="48.67397" lon="-3.32335">
        <ele>53</ele>
        <time>2015-11-10T14:22:24Z</time>
      </trkpt>
      <trkpt lat="48.67418" lon="-3.3231">
        <ele>53</ele>
        <time>2015-11-10T14:22:28Z</time>
      </trkpt>
      <trkpt lat="48.67435" lon="-3.32291">
        <ele>53</ele>
        <time>2015-11-10T14:22:31Z</time>
      </trkpt>
      <trkpt lat="48.67447" lon="-3.3228">
        <ele>54</ele>
        <time>2015-11-10T14:22:33Z</time>
      </trkpt>
      <trkpt lat="48.67459" lon="-3.32269">
        <ele>54</ele>
        <time>2015-11-10T14:22:35Z</time>
      </trkpt>
      <trkpt lat="48.67478" lon="-3.32255">
        <ele>54</ele>
        <time>2015-11-10T14:22:38Z</time>
      </trkpt>
      <trkpt lat="48.6749" lon="-3.32245">
        <ele>54</ele>
        <time>2015-11-10T14:22:40Z</time>
      </trkpt>
      <trkpt lat="48.67509" lon="-3.32231">
        <ele>54</ele>
        <time>2015-11-10T14:22:43Z</time>
      </trkpt>
      <trkpt lat="48.67521" lon="-3.3222">
        <ele>54</ele>
        <time>2015-11-10T14:22:45Z</time>
      </trkpt>
      <trkpt lat="48.67533" lon="-3.32209">
        <ele>54</ele>
        <time>2015-11-10T14:22:47Z</time>
      </trkpt>
      <trkpt lat="48.67545" lon="-3.32199">
        <ele>54</ele>
        <time>2015-11-10T14:22:49Z</time>
      </trkpt>
      <trkpt lat="48.67557" lon="-3.32188">
        <ele>54</ele>
        <time>2015-11-10T14:22:51Z</time>
      </trkpt>
      <trkpt lat="48.67574" lon="-3.32171">
        <ele>54</ele>
        <time>2015-11-10T14:22:54Z</time>
      </trkpt>
      <trkpt lat="48.67592" lon="-3.32154">
        <ele>54</ele>
        <time>2015-11-10T14:22:57Z</time>
      </trkpt>
      <trkpt lat="48.67603" lon="-3.32143">
        <ele>54</ele>
        <time>2015-11-10T14:22:59Z</time>
      </trkpt>
      <trkpt lat="48.67615" lon="-3.32131">
        <ele>54</ele>
        <time>2015-11-10T14:23:01Z</time>
      </trkpt>
      <trkpt lat="48.67627" lon="-3.3212">
        <ele>54</ele>
        <time>2015-11-10T14:23:03Z</time>
      </trkpt>
      <trkpt lat="48.67644" lon="-3.32103">
        <ele>54</ele>
        <time>2015-11-10T14:23:06Z</time>
      </trkpt>
      <trkpt lat="48.67656" lon="-3.32092">
        <ele>54</ele>
        <time>2015-11-10T14:23:08Z</time>
      </trkpt>
      <trkpt lat="48.67667" lon="-3.32081">
        <ele>54</ele>
        <time>2015-11-10T14:23:10Z</time>
      </trkpt>
      <trkpt lat="48.67678" lon="-3.32069">
        <ele>54</ele>
        <time>2015-11-10T14:23:12Z</time>
      </trkpt>
      <trkpt lat="48.67689" lon="-3.32057">
        <ele>54</ele>
        <time>2015-11-10T14:23:14Z</time>
      </trkpt>
      <trkpt lat="48.67699" lon="-3.32044">
        <ele>54</ele>
        <time>2015-11-10T14:23:16Z</time>
      </trkpt>
      <trkpt lat="48.67715" lon="-3.32025">
        <ele>54</ele>
        <time>2015-11-10T14:23:19Z</time>
      </trkpt>
      <trkpt lat="48.67729" lon="-3.32007">
        <ele>54</ele>
        <time>2015-11-10T14:23:22Z</time>
      </trkpt>
      <trkpt lat="48.67739" lon="-3.31995">
        <ele>54</ele>
        <time>2015-11-10T14:23:24Z</time>
      </trkpt>
      <trkpt lat="48.6775" lon="-3.31983">
        <ele>54</ele>
        <time>2015-11-10T14:23:26Z</time>
      </trkpt>
      <trkpt lat="48.67766" lon="-3.31966">
        <ele>54</ele>
        <time>2015-11-10T14:23:29Z</time>
      </trkpt>
      <trkpt lat="48.67782" lon="-3.31949">
        <ele>54</ele>
        <time>2015-11-10T14:23:32Z</time>
      </trkpt>
      <trkpt lat="48.67798" lon="-3.31933">
        <ele>54</ele>
        <time>2015-11-10T14:23:35Z</time>
      </trkpt>
      <trkpt lat="48.67814" lon="-3.31917">
        <ele>54</ele>
        <time>2015-11-10T14:23:38Z</time>
      </trkpt>
      <trkpt lat="48.67829" lon="-3.31902">
        <ele>54</ele>
        <time>2015-11-10T14:23:41Z</time>
      </trkpt>
      <trkpt lat="48.67845" lon="-3.3189">
        <ele>54</ele>
        <time>2015-11-10T14:23:44Z</time>
      </trkpt>
      <trkpt lat="48.67864" lon="-3.31881">
        <ele>54</ele>
        <time>2015-11-10T14:23:47Z</time>
      </trkpt>
      <trkpt lat="48.67884" lon="-3.31875">
        <ele>54</ele>
        <time>2015-11-10T14:23:50Z</time>
      </trkpt>
      <trkpt lat="48.67904" lon="-3.31872">
        <ele>54</ele>
        <time>2015-11-10T14:23:53Z</time>
      </trkpt>
      <trkpt lat="48.67924" lon="-3.31871">
        <ele>54</ele>
        <time>2015-11-10T14:23:56Z</time>
      </trkpt>
      <trkpt lat="48.67937" lon="-3.31872">
        <ele>54</ele>
        <time>2015-11-10T14:23:58Z</time>
      </trkpt>
      <trkpt lat="48.67955" lon="-3.31873">
        <ele>54</ele>
        <time>2015-11-10T14:24:01Z</time>
      </trkpt>
      <trkpt lat="48.67973" lon="-3.31876">
        <ele>54</ele>
        <time>2015-11-10T14:24:04Z</time>
      </trkpt>
      <trkpt lat="48.67986" lon="-3.31878">
        <ele>54</ele>
        <time>2015-11-10T14:24:06Z</time>
      </trkpt>
      <trkpt lat="48.68005" lon="-3.31881">
        <ele>54</ele>
        <time>2015-11-10T14:24:09Z</time>
      </trkpt>
      <trkpt lat="48.68025" lon="-3.31884">
        <ele>54</ele>
        <time>2015-11-10T14:24:12Z</time>
      </trkpt>
      <trkpt lat="48.68039" lon="-3.31885">
        <ele>54</ele>
        <time>2015-11-10T14:24:14Z</time>
      </trkpt>
      <trkpt lat="48.68059" lon="-3.31885">
        <ele>54</ele>
        <time>2015-11-10T14:24:17Z</time>
      </trkpt>
      <trkpt lat="48.68079" lon="-3.31885">
        <ele>54</ele>
        <time>2015-11-10T14:24:20Z</time>
      </trkpt>
      <trkpt lat="48.68092" lon="-3.31884">
        <ele>54</ele>
        <time>2015-11-10T14:24:22Z</time>
      </trkpt>
      <trkpt lat="48.68111" lon="-3.31883">
        <ele>54</ele>
        <time>2015-11-10T14:24:25Z</time>
      </trkpt>
      <trkpt lat="48.68123" lon="-3.31882">
        <ele>54</ele>
        <time>2015-11-10T14:24:27Z</time>
      </trkpt>
      <trkpt lat="48.68142" lon="-3.31879">
        <ele>54</ele>
        <time>2015-11-10T14:24:30Z</time>
      </trkpt>
      <trkpt lat="48.6816" lon="-3.31876">
        <ele>54</ele>
        <time>2015-11-10T14:24:33Z</time>
      </trkpt>
      <trkpt lat="48.68173" lon="-3.31873">
        <ele>54</ele>
        <time>2015-11-10T14:24:35Z</time>
      </trkpt>
      <trkpt lat="48.68186" lon="-3.3187">
        <ele>54</ele>
        <time>2015-11-10T14:24:37Z</time>
      </trkpt>
      <trkpt lat="48.68206" lon="-3.31865">
        <ele>54</ele>
        <time>2015-11-10T14:24:40Z</time>
      </trkpt>
      <trkpt lat="48.68225" lon="-3.31859">
        <ele>54</ele>
        <time>2015-11-10T14:24:43Z</time>
      </trkpt>
      <trkpt lat="48.68242" lon="-3.31852">
        <ele>54</ele>
        <time>2015-11-10T14:24:46Z</time>
      </trkpt>
      <trkpt lat="48.68348" lon="-3.31828">
        <ele>105.1</ele>
        <time>2015-11-10T14:25:03Z</time>
      </trkpt>
      <trkpt lat="48.68572" lon="-3.31799">
        <ele>52</ele>
        <time>2015-11-10T14:25:35Z</time>
      </trkpt>
      <trkpt lat="48.68593" lon="-3.3179">
        <ele>52</ele>
        <time>2015-11-10T14:25:38Z</time>
      </trkpt>
      <trkpt lat="48.68625" lon="-3.3177">
        <ele>52</ele>
        <time>2015-11-10T14:25:43Z</time>
      </trkpt>
      <trkpt lat="48.68645" lon="-3.31757">
        <ele>52</ele>
        <time>2015-11-10T14:25:46Z</time>
      </trkpt>
      <trkpt lat="48.68666" lon="-3.31747">
        <ele>52</ele>
        <time>2015-11-10T14:25:49Z</time>
      </trkpt>
      <trkpt lat="48.68686" lon="-3.31738">
        <ele>52</ele>
        <time>2015-11-10T14:25:52Z</time>
      </trkpt>
      <trkpt lat="48.68709" lon="-3.31735">
        <ele>52</ele>
        <time>2015-11-10T14:25:55Z</time>
      </trkpt>
      <trkpt lat="48.68726" lon="-3.31736">
        <ele>52</ele>
        <time>2015-11-10T14:25:57Z</time>
      </trkpt>
      <trkpt lat="48.68743" lon="-3.31738">
        <ele>52</ele>
        <time>2015-11-10T14:25:59Z</time>
      </trkpt>
      <trkpt lat="48.6876" lon="-3.3174">
        <ele>52</ele>
        <time>2015-11-10T14:26:01Z</time>
      </trkpt>
      <trkpt lat="48.68777" lon="-3.31742">
        <ele>52</ele>
        <time>2015-11-10T14:26:03Z</time>
      </trkpt>
      <trkpt lat="48.68794" lon="-3.31743">
        <ele>52</ele>
        <time>2015-11-10T14:26:05Z</time>
      </trkpt>
      <trkpt lat="48.68812" lon="-3.31744">
        <ele>52</ele>
        <time>2015-11-10T14:26:07Z</time>
      </trkpt>
      <trkpt lat="48.68831" lon="-3.31746">
        <ele>52</ele>
        <time>2015-11-10T14:26:09Z</time>
      </trkpt>
      <trkpt lat="48.68849" lon="-3.31747">
        <ele>52</ele>
        <time>2015-11-10T14:26:11Z</time>
      </trkpt>
      <trkpt lat="48.68868" lon="-3.3175">
        <ele>52</ele>
        <time>2015-11-10T14:26:13Z</time>
      </trkpt>
      <trkpt lat="48.68887" lon="-3.31752">
        <ele>52</ele>
        <time>2015-11-10T14:26:15Z</time>
      </trkpt>
      <trkpt lat="48.68906" lon="-3.31755">
        <ele>52</ele>
        <time>2015-11-10T14:26:17Z</time>
      </trkpt>
      <trkpt lat="48.68943" lon="-3.31761">
        <ele>52</ele>
        <time>2015-11-10T14:26:21Z</time>
      </trkpt>
      <trkpt lat="48.68977" lon="-3.31766">
        <ele>52</ele>
        <time>2015-11-10T14:26:25Z</time>
      </trkpt>
      <trkpt lat="48.68993" lon="-3.3177">
        <ele>51</ele>
        <time>2015-11-10T14:26:27Z</time>
      </trkpt>
      <trkpt lat="48.69009" lon="-3.31773">
        <ele>51</ele>
        <time>2015-11-10T14:26:29Z</time>
      </trkpt>
      <trkpt lat="48.69024" lon="-3.31776">
        <ele>51</ele>
        <time>2015-11-10T14:26:31Z</time>
      </trkpt>
      <trkpt lat="48.69046" lon="-3.31779">
        <ele>51</ele>
        <time>2015-11-10T14:26:34Z</time>
      </trkpt>
      <trkpt lat="48.69061" lon="-3.31781">
        <ele>51</ele>
        <time>2015-11-10T14:26:36Z</time>
      </trkpt>
      <trkpt lat="48.69076" lon="-3.31783">
        <ele>50</ele>
        <time>2015-11-10T14:26:38Z</time>
      </trkpt>
      <trkpt lat="48.69092" lon="-3.31784">
        <ele>50</ele>
        <time>2015-11-10T14:26:40Z</time>
      </trkpt>
      <trkpt lat="48.69115" lon="-3.31785">
        <ele>50</ele>
        <time>2015-11-10T14:26:43Z</time>
      </trkpt>
      <trkpt lat="48.69137" lon="-3.31785">
        <ele>50</ele>
        <time>2015-11-10T14:26:46Z</time>
      </trkpt>
      <trkpt lat="48.69152" lon="-3.31784">
        <ele>50</ele>
        <time>2015-11-10T14:26:48Z</time>
      </trkpt>
      <trkpt lat="48.69167" lon="-3.31782">
        <ele>49</ele>
        <time>2015-11-10T14:26:50Z</time>
      </trkpt>
      <trkpt lat="48.69183" lon="-3.31779">
        <ele>49</ele>
        <time>2015-11-10T14:26:52Z</time>
      </trkpt>
      <trkpt lat="48.69198" lon="-3.31775">
        <ele>49</ele>
        <time>2015-11-10T14:26:54Z</time>
      </trkpt>
      <trkpt lat="48.69228" lon="-3.31767">
        <ele>49</ele>
        <time>2015-11-10T14:26:58Z</time>
      </trkpt>
      <trkpt lat="48.6925" lon="-3.3176">
        <ele>49</ele>
        <time>2015-11-10T14:27:01Z</time>
      </trkpt>
      <trkpt lat="48.69272" lon="-3.31754">
        <ele>48</ele>
        <time>2015-11-10T14:27:04Z</time>
      </trkpt>
      <trkpt lat="48.69294" lon="-3.31746">
        <ele>48</ele>
        <time>2015-11-10T14:27:07Z</time>
      </trkpt>
      <trkpt lat="48.6931" lon="-3.31742">
        <ele>48</ele>
        <time>2015-11-10T14:27:09Z</time>
      </trkpt>
      <trkpt lat="48.69325" lon="-3.31739">
        <ele>48</ele>
        <time>2015-11-10T14:27:11Z</time>
      </trkpt>
      <trkpt lat="48.6934" lon="-3.31736">
        <ele>48</ele>
        <time>2015-11-10T14:27:13Z</time>
      </trkpt>
      <trkpt lat="48.69363" lon="-3.31734">
        <ele>48</ele>
        <time>2015-11-10T14:27:16Z</time>
      </trkpt>
      <trkpt lat="48.69379" lon="-3.31733">
        <ele>48</ele>
        <time>2015-11-10T14:27:18Z</time>
      </trkpt>
      <trkpt lat="48.69396" lon="-3.31733">
        <ele>48</ele>
        <time>2015-11-10T14:27:20Z</time>
      </trkpt>
      <trkpt lat="48.69413" lon="-3.31732">
        <ele>48</ele>
        <time>2015-11-10T14:27:22Z</time>
      </trkpt>
      <trkpt lat="48.69429" lon="-3.31731">
        <ele>48</ele>
        <time>2015-11-10T14:27:24Z</time>
      </trkpt>
      <trkpt lat="48.69445" lon="-3.31729">
        <ele>48</ele>
        <time>2015-11-10T14:27:26Z</time>
      </trkpt>
      <trkpt lat="48.6946" lon="-3.31726">
        <ele>48</ele>
        <time>2015-11-10T14:27:28Z</time>
      </trkpt>
      <trkpt lat="48.69474" lon="-3.3172">
        <ele>48</ele>
        <time>2015-11-10T14:27:30Z</time>
      </trkpt>
      <trkpt lat="48.69488" lon="-3.31711">
        <ele>48</ele>
        <time>2015-11-10T14:27:32Z</time>
      </trkpt>
      <trkpt lat="48.69503" lon="-3.31701">
        <ele>48</ele>
        <time>2015-11-10T14:27:34Z</time>
      </trkpt>
      <trkpt lat="48.69517" lon="-3.3169">
        <ele>48</ele>
        <time>2015-11-10T14:27:36Z</time>
      </trkpt>
      <trkpt lat="48.69532" lon="-3.31678">
        <ele>48</ele>
        <time>2015-11-10T14:27:38Z</time>
      </trkpt>
      <trkpt lat="48.69548" lon="-3.31662">
        <ele>48</ele>
        <time>2015-11-10T14:27:40Z</time>
      </trkpt>
      <trkpt lat="48.69563" lon="-3.31644">
        <ele>48</ele>
        <time>2015-11-10T14:27:42Z</time>
      </trkpt>
      <trkpt lat="48.69578" lon="-3.31624">
        <ele>48</ele>
        <time>2015-11-10T14:27:44Z</time>
      </trkpt>
      <trkpt lat="48.69592" lon="-3.31604">
        <ele>48</ele>
        <time>2015-11-10T14:27:46Z</time>
      </trkpt>
      <trkpt lat="48.69607" lon="-3.31585">
        <ele>48</ele>
        <time>2015-11-10T14:27:48Z</time>
      </trkpt>
      <trkpt lat="48.69639" lon="-3.31554">
        <ele>48</ele>
        <time>2015-11-10T14:27:52Z</time>
      </trkpt>
      <trkpt lat="48.69654" lon="-3.31539">
        <ele>48</ele>
        <time>2015-11-10T14:27:54Z</time>
      </trkpt>
      <trkpt lat="48.69661" lon="-3.3153">
        <ele>48</ele>
        <time>2015-11-10T14:27:55Z</time>
      </trkpt>
      <trkpt lat="48.69675" lon="-3.31512">
        <ele>48</ele>
        <time>2015-11-10T14:27:57Z</time>
      </trkpt>
      <trkpt lat="48.69688" lon="-3.31494">
        <ele>48</ele>
        <time>2015-11-10T14:27:59Z</time>
      </trkpt>
      <trkpt lat="48.69702" lon="-3.31475">
        <ele>48</ele>
        <time>2015-11-10T14:28:01Z</time>
      </trkpt>
      <trkpt lat="48.69715" lon="-3.31456">
        <ele>48</ele>
        <time>2015-11-10T14:28:03Z</time>
      </trkpt>
      <trkpt lat="48.69728" lon="-3.31438">
        <ele>47</ele>
        <time>2015-11-10T14:28:05Z</time>
      </trkpt>
      <trkpt lat="48.69746" lon="-3.31413">
        <ele>47</ele>
        <time>2015-11-10T14:28:08Z</time>
      </trkpt>
      <trkpt lat="48.69759" lon="-3.31399">
        <ele>47</ele>
        <time>2015-11-10T14:28:10Z</time>
      </trkpt>
      <trkpt lat="48.69773" lon="-3.31386">
        <ele>47</ele>
        <time>2015-11-10T14:28:12Z</time>
      </trkpt>
      <trkpt lat="48.69787" lon="-3.31375">
        <ele>47</ele>
        <time>2015-11-10T14:28:14Z</time>
      </trkpt>
      <trkpt lat="48.69801" lon="-3.31364">
        <ele>47</ele>
        <time>2015-11-10T14:28:16Z</time>
      </trkpt>
      <trkpt lat="48.69814" lon="-3.31352">
        <ele>47</ele>
        <time>2015-11-10T14:28:18Z</time>
      </trkpt>
      <trkpt lat="48.69828" lon="-3.3134">
        <ele>46</ele>
        <time>2015-11-10T14:28:20Z</time>
      </trkpt>
      <trkpt lat="48.69842" lon="-3.31328">
        <ele>46</ele>
        <time>2015-11-10T14:28:22Z</time>
      </trkpt>
      <trkpt lat="48.69856" lon="-3.31315">
        <ele>46</ele>
        <time>2015-11-10T14:28:24Z</time>
      </trkpt>
      <trkpt lat="48.6987" lon="-3.313">
        <ele>46</ele>
        <time>2015-11-10T14:28:26Z</time>
      </trkpt>
      <trkpt lat="48.69884" lon="-3.31283">
        <ele>46</ele>
        <time>2015-11-10T14:28:28Z</time>
      </trkpt>
      <trkpt lat="48.69897" lon="-3.31264">
        <ele>46</ele>
        <time>2015-11-10T14:28:30Z</time>
      </trkpt>
      <trkpt lat="48.69908" lon="-3.31244">
        <ele>45</ele>
        <time>2015-11-10T14:28:32Z</time>
      </trkpt>
      <trkpt lat="48.69927" lon="-3.31219">
        <ele>45</ele>
        <time>2015-11-10T14:28:35Z</time>
      </trkpt>
      <trkpt lat="48.69941" lon="-3.31205">
        <ele>45</ele>
        <time>2015-11-10T14:28:37Z</time>
      </trkpt>
      <trkpt lat="48.69955" lon="-3.3119">
        <ele>44</ele>
        <time>2015-11-10T14:28:39Z</time>
      </trkpt>
      <trkpt lat="48.69968" lon="-3.31173">
        <ele>44</ele>
        <time>2015-11-10T14:28:41Z</time>
      </trkpt>
      <trkpt lat="48.6998" lon="-3.31156">
        <ele>44</ele>
        <time>2015-11-10T14:28:43Z</time>
      </trkpt>
      <trkpt lat="48.69991" lon="-3.31138">
        <ele>44</ele>
        <time>2015-11-10T14:28:45Z</time>
      </trkpt>
      <trkpt lat="48.70012" lon="-3.31106">
        <ele>44</ele>
        <time>2015-11-10T14:28:49Z</time>
      </trkpt>
      <trkpt lat="48.70033" lon="-3.31073">
        <ele>43</ele>
        <time>2015-11-10T14:28:53Z</time>
      </trkpt>
      <trkpt lat="48.70054" lon="-3.31041">
        <ele>43</ele>
        <time>2015-11-10T14:28:57Z</time>
      </trkpt>
      <trkpt lat="48.70074" lon="-3.31009">
        <ele>43</ele>
        <time>2015-11-10T14:29:01Z</time>
      </trkpt>
      <trkpt lat="48.70089" lon="-3.30983">
        <ele>42</ele>
        <time>2015-11-10T14:29:04Z</time>
      </trkpt>
      <trkpt lat="48.70103" lon="-3.30956">
        <ele>42</ele>
        <time>2015-11-10T14:29:07Z</time>
      </trkpt>
      <trkpt lat="48.70116" lon="-3.30931">
        <ele>42</ele>
        <time>2015-11-10T14:29:10Z</time>
      </trkpt>
      <trkpt lat="48.70129" lon="-3.30906">
        <ele>41</ele>
        <time>2015-11-10T14:29:13Z</time>
      </trkpt>
      <trkpt lat="48.70143" lon="-3.30883">
        <ele>41</ele>
        <time>2015-11-10T14:29:16Z</time>
      </trkpt>
      <trkpt lat="48.70158" lon="-3.30861">
        <ele>40</ele>
        <time>2015-11-10T14:29:19Z</time>
      </trkpt>
      <trkpt lat="48.70173" lon="-3.30841">
        <ele>40</ele>
        <time>2015-11-10T14:29:22Z</time>
      </trkpt>
      <trkpt lat="48.70187" lon="-3.30819">
        <ele>40</ele>
        <time>2015-11-10T14:29:25Z</time>
      </trkpt>
      <trkpt lat="48.70196" lon="-3.30803">
        <ele>39</ele>
        <time>2015-11-10T14:29:27Z</time>
      </trkpt>
      <trkpt lat="48.7022" lon="-3.30766">
        <ele>39</ele>
        <time>2015-11-10T14:29:32Z</time>
      </trkpt>
      <trkpt lat="48.70271" lon="-3.30703">
        <ele>38</ele>
        <time>2015-11-10T14:29:40Z</time>
      </trkpt>
      <trkpt lat="48.70285" lon="-3.30687">
        <ele>38</ele>
        <time>2015-11-10T14:29:42Z</time>
      </trkpt>
      <trkpt lat="48.70298" lon="-3.30674">
        <ele>37</ele>
        <time>2015-11-10T14:29:44Z</time>
      </trkpt>
      <trkpt lat="48.70311" lon="-3.3066">
        <ele>36</ele>
        <time>2015-11-10T14:29:46Z</time>
      </trkpt>
      <trkpt lat="48.70324" lon="-3.30645">
        <ele>36</ele>
        <time>2015-11-10T14:29:48Z</time>
      </trkpt>
      <trkpt lat="48.70337" lon="-3.3063">
        <ele>36</ele>
        <time>2015-11-10T14:29:50Z</time>
      </trkpt>
      <trkpt lat="48.70349" lon="-3.30615">
        <ele>35</ele>
        <time>2015-11-10T14:29:52Z</time>
      </trkpt>
      <trkpt lat="48.70362" lon="-3.306">
        <ele>35</ele>
        <time>2015-11-10T14:29:54Z</time>
      </trkpt>
      <trkpt lat="48.70374" lon="-3.30586">
        <ele>35</ele>
        <time>2015-11-10T14:29:56Z</time>
      </trkpt>
      <trkpt lat="48.70394" lon="-3.30566">
        <ele>34</ele>
        <time>2015-11-10T14:29:59Z</time>
      </trkpt>
      <trkpt lat="48.70407" lon="-3.30553">
        <ele>33</ele>
        <time>2015-11-10T14:30:01Z</time>
      </trkpt>
      <trkpt lat="48.70421" lon="-3.3054">
        <ele>33</ele>
        <time>2015-11-10T14:30:03Z</time>
      </trkpt>
      <trkpt lat="48.70435" lon="-3.30527">
        <ele>33</ele>
        <time>2015-11-10T14:30:05Z</time>
      </trkpt>
      <trkpt lat="48.70449" lon="-3.30514">
        <ele>32</ele>
        <time>2015-11-10T14:30:07Z</time>
      </trkpt>
      <trkpt lat="48.70464" lon="-3.30502">
        <ele>32</ele>
        <time>2015-11-10T14:30:09Z</time>
      </trkpt>
      <trkpt lat="48.70486" lon="-3.30481">
        <ele>32</ele>
        <time>2015-11-10T14:30:12Z</time>
      </trkpt>
      <trkpt lat="48.70501" lon="-3.30467">
        <ele>31</ele>
        <time>2015-11-10T14:30:14Z</time>
      </trkpt>
      <trkpt lat="48.70516" lon="-3.30453">
        <ele>31</ele>
        <time>2015-11-10T14:30:16Z</time>
      </trkpt>
      <trkpt lat="48.7053" lon="-3.30438">
        <ele>31</ele>
        <time>2015-11-10T14:30:18Z</time>
      </trkpt>
      <trkpt lat="48.70559" lon="-3.30409">
        <ele>31</ele>
        <time>2015-11-10T14:30:22Z</time>
      </trkpt>
      <trkpt lat="48.70573" lon="-3.30395">
        <ele>30</ele>
        <time>2015-11-10T14:30:24Z</time>
      </trkpt>
      <trkpt lat="48.70587" lon="-3.30382">
        <ele>30</ele>
        <time>2015-11-10T14:30:26Z</time>
      </trkpt>
      <trkpt lat="48.70601" lon="-3.30371">
        <ele>30</ele>
        <time>2015-11-10T14:30:28Z</time>
      </trkpt>
      <trkpt lat="48.70613" lon="-3.30362">
        <ele>30</ele>
        <time>2015-11-10T14:30:30Z</time>
      </trkpt>
      <trkpt lat="48.70636" lon="-3.30346">
        <ele>29</ele>
        <time>2015-11-10T14:30:34Z</time>
      </trkpt>
      <trkpt lat="48.70646" lon="-3.30338">
        <ele>29</ele>
        <time>2015-11-10T14:30:36Z</time>
      </trkpt>
      <trkpt lat="48.70666" lon="-3.30323">
        <ele>29</ele>
        <time>2015-11-10T14:30:40Z</time>
      </trkpt>
      <trkpt lat="48.70675" lon="-3.30316">
        <ele>29</ele>
        <time>2015-11-10T14:30:42Z</time>
      </trkpt>
      <trkpt lat="48.70696" lon="-3.303">
        <ele>28</ele>
        <time>2015-11-10T14:30:47Z</time>
      </trkpt>
      <trkpt lat="48.70706" lon="-3.30292">
        <ele>28</ele>
        <time>2015-11-10T14:30:50Z</time>
      </trkpt>
      <trkpt lat="48.70719" lon="-3.30282">
        <ele>28</ele>
        <time>2015-11-10T14:30:54Z</time>
      </trkpt>
      <trkpt lat="48.70736" lon="-3.3027">
        <ele>27</ele>
        <time>2015-11-10T14:30:59Z</time>
      </trkpt>
      <trkpt lat="48.7075" lon="-3.30261">
        <ele>27</ele>
        <time>2015-11-10T14:31:03Z</time>
      </trkpt>
      <trkpt lat="48.7076" lon="-3.30254">
        <ele>27</ele>
        <time>2015-11-10T14:31:06Z</time>
      </trkpt>
      <trkpt lat="48.70774" lon="-3.30245">
        <ele>27</ele>
        <time>2015-11-10T14:31:10Z</time>
      </trkpt>
      <trkpt lat="48.70788" lon="-3.30237">
        <ele>27</ele>
        <time>2015-11-10T14:31:14Z</time>
      </trkpt>
      <trkpt lat="48.70798" lon="-3.30231">
        <ele>27</ele>
        <time>2015-11-10T14:31:17Z</time>
      </trkpt>
      <trkpt lat="48.70812" lon="-3.30225">
        <ele>27</ele>
        <time>2015-11-10T14:31:21Z</time>
      </trkpt>
      <trkpt lat="48.70822" lon="-3.30219">
        <ele>27</ele>
        <time>2015-11-10T14:31:24Z</time>
      </trkpt>
      <trkpt lat="48.70838" lon="-3.30212">
        <ele>28</ele>
        <time>2015-11-10T14:31:28Z</time>
      </trkpt>
      <trkpt lat="48.70846" lon="-3.30208">
        <ele>28</ele>
        <time>2015-11-10T14:31:30Z</time>
      </trkpt>
      <trkpt lat="48.70854" lon="-3.30204">
        <ele>28</ele>
        <time>2015-11-10T14:31:32Z</time>
      </trkpt>
      <trkpt lat="48.70866" lon="-3.30198">
        <ele>28</ele>
        <time>2015-11-10T14:31:35Z</time>
      </trkpt>
      <trkpt lat="48.70882" lon="-3.30189">
        <ele>28</ele>
        <time>2015-11-10T14:31:40Z</time>
      </trkpt>
      <trkpt lat="48.70892" lon="-3.30183">
        <ele>29</ele>
        <time>2015-11-10T14:31:43Z</time>
      </trkpt>
      <trkpt lat="48.70901" lon="-3.30177">
        <ele>29</ele>
        <time>2015-11-10T14:31:46Z</time>
      </trkpt>
      <trkpt lat="48.70912" lon="-3.3017">
        <ele>29</ele>
        <time>2015-11-10T14:31:49Z</time>
      </trkpt>
      <trkpt lat="48.70924" lon="-3.30162">
        <ele>29</ele>
        <time>2015-11-10T14:31:52Z</time>
      </trkpt>
      <trkpt lat="48.70931" lon="-3.30156">
        <ele>30</ele>
        <time>2015-11-10T14:31:54Z</time>
      </trkpt>
      <trkpt lat="48.70942" lon="-3.30146">
        <ele>30</ele>
        <time>2015-11-10T14:31:57Z</time>
      </trkpt>
      <trkpt lat="48.7095" lon="-3.30139">
        <ele>30</ele>
        <time>2015-11-10T14:31:59Z</time>
      </trkpt>
      <trkpt lat="48.70964" lon="-3.30124">
        <ele>30</ele>
        <time>2015-11-10T14:32:03Z</time>
      </trkpt>
      <trkpt lat="48.70979" lon="-3.30107">
        <ele>31</ele>
        <time>2015-11-10T14:32:07Z</time>
      </trkpt>
      <trkpt lat="48.70991" lon="-3.30092">
        <ele>31</ele>
        <time>2015-11-10T14:32:10Z</time>
      </trkpt>
      <trkpt lat="48.71003" lon="-3.30076">
        <ele>31</ele>
        <time>2015-11-10T14:32:13Z</time>
      </trkpt>
      <trkpt lat="48.71012" lon="-3.30063">
        <ele>31</ele>
        <time>2015-11-10T14:32:15Z</time>
      </trkpt>
      <trkpt lat="48.71026" lon="-3.30042">
        <ele>31</ele>
        <time>2015-11-10T14:32:18Z</time>
      </trkpt>
      <trkpt lat="48.71036" lon="-3.30028">
        <ele>31</ele>
        <time>2015-11-10T14:32:20Z</time>
      </trkpt>
      <trkpt lat="48.71051" lon="-3.30007">
        <ele>31</ele>
        <time>2015-11-10T14:32:23Z</time>
      </trkpt>
      <trkpt lat="48.7106" lon="-3.29992">
        <ele>31</ele>
        <time>2015-11-10T14:32:25Z</time>
      </trkpt>
      <trkpt lat="48.71076" lon="-3.29971">
        <ele>31</ele>
        <time>2015-11-10T14:32:28Z</time>
      </trkpt>
      <trkpt lat="48.71091" lon="-3.2995">
        <ele>31</ele>
        <time>2015-11-10T14:32:31Z</time>
      </trkpt>
      <trkpt lat="48.71106" lon="-3.29928">
        <ele>31</ele>
        <time>2015-11-10T14:32:34Z</time>
      </trkpt>
      <trkpt lat="48.71121" lon="-3.29908">
        <ele>32</ele>
        <time>2015-11-10T14:32:37Z</time>
      </trkpt>
      <trkpt lat="48.71138" lon="-3.2989">
        <ele>32</ele>
        <time>2015-11-10T14:32:40Z</time>
      </trkpt>
      <trkpt lat="48.71153" lon="-3.29872">
        <ele>32</ele>
        <time>2015-11-10T14:32:43Z</time>
      </trkpt>
      <trkpt lat="48.71164" lon="-3.29859">
        <ele>32</ele>
        <time>2015-11-10T14:32:45Z</time>
      </trkpt>
      <trkpt lat="48.71174" lon="-3.29848">
        <ele>32</ele>
        <time>2015-11-10T14:32:47Z</time>
      </trkpt>
      <trkpt lat="48.71189" lon="-3.29831">
        <ele>32</ele>
        <time>2015-11-10T14:32:50Z</time>
      </trkpt>
      <trkpt lat="48.71199" lon="-3.2982">
        <ele>32</ele>
        <time>2015-11-10T14:32:52Z</time>
      </trkpt>
      <trkpt lat="48.71214" lon="-3.29802">
        <ele>32</ele>
        <time>2015-11-10T14:32:55Z</time>
      </trkpt>
      <trkpt lat="48.71224" lon="-3.2979">
        <ele>32</ele>
        <time>2015-11-10T14:32:57Z</time>
      </trkpt>
      <trkpt lat="48.71239" lon="-3.29771">
        <ele>32</ele>
        <time>2015-11-10T14:33:00Z</time>
      </trkpt>
      <trkpt lat="48.71253" lon="-3.29751">
        <ele>32</ele>
        <time>2015-11-10T14:33:03Z</time>
      </trkpt>
      <trkpt lat="48.71266" lon="-3.29732">
        <ele>32</ele>
        <time>2015-11-10T14:33:06Z</time>
      </trkpt>
      <trkpt lat="48.71279" lon="-3.29713">
        <ele>32</ele>
        <time>2015-11-10T14:33:09Z</time>
      </trkpt>
      <trkpt lat="48.71293" lon="-3.29694">
        <ele>32</ele>
        <time>2015-11-10T14:33:12Z</time>
      </trkpt>
      <trkpt lat="48.71301" lon="-3.29681">
        <ele>32</ele>
        <time>2015-11-10T14:33:14Z</time>
      </trkpt>
      <trkpt lat="48.7131" lon="-3.29668">
        <ele>32</ele>
        <time>2015-11-10T14:33:16Z</time>
      </trkpt>
      <trkpt lat="48.71319" lon="-3.29655">
        <ele>32</ele>
        <time>2015-11-10T14:33:18Z</time>
      </trkpt>
      <trkpt lat="48.71328" lon="-3.29643">
        <ele>33</ele>
        <time>2015-11-10T14:33:20Z</time>
      </trkpt>
      <trkpt lat="48.71345" lon="-3.29617">
        <ele>33</ele>
        <time>2015-11-10T14:33:24Z</time>
      </trkpt>
      <trkpt lat="48.71359" lon="-3.29598">
        <ele>33</ele>
        <time>2015-11-10T14:33:27Z</time>
      </trkpt>
      <trkpt lat="48.71373" lon="-3.29578">
        <ele>33</ele>
        <time>2015-11-10T14:33:30Z</time>
      </trkpt>
      <trkpt lat="48.71386" lon="-3.29557">
        <ele>33</ele>
        <time>2015-11-10T14:33:33Z</time>
      </trkpt>
      <trkpt lat="48.714" lon="-3.29538">
        <ele>33</ele>
        <time>2015-11-10T14:33:36Z</time>
      </trkpt>
      <trkpt lat="48.71414" lon="-3.29518">
        <ele>33</ele>
        <time>2015-11-10T14:33:39Z</time>
      </trkpt>
      <trkpt lat="48.71427" lon="-3.29499">
        <ele>33</ele>
        <time>2015-11-10T14:33:42Z</time>
      </trkpt>
      <trkpt lat="48.71441" lon="-3.2948">
        <ele>33</ele>
        <time>2015-11-10T14:33:45Z</time>
      </trkpt>
      <trkpt lat="48.71458" lon="-3.29454">
        <ele>33</ele>
        <time>2015-11-10T14:33:49Z</time>
      </trkpt>
      <trkpt lat="48.71476" lon="-3.29428">
        <ele>33</ele>
        <time>2015-11-10T14:33:53Z</time>
      </trkpt>
      <trkpt lat="48.71499" lon="-3.29395">
        <ele>33</ele>
        <time>2015-11-10T14:33:58Z</time>
      </trkpt>
      <trkpt lat="48.71514" lon="-3.29374">
        <ele>33</ele>
        <time>2015-11-10T14:34:01Z</time>
      </trkpt>
      <trkpt lat="48.7153" lon="-3.29354">
        <ele>33</ele>
        <time>2015-11-10T14:34:04Z</time>
      </trkpt>
      <trkpt lat="48.71554" lon="-3.29329">
        <ele>33</ele>
        <time>2015-11-10T14:34:08Z</time>
      </trkpt>
      <trkpt lat="48.71573" lon="-3.29311">
        <ele>33</ele>
        <time>2015-11-10T14:34:11Z</time>
      </trkpt>
      <trkpt lat="48.71592" lon="-3.29294">
        <ele>34</ele>
        <time>2015-11-10T14:34:14Z</time>
      </trkpt>
      <trkpt lat="48.71604" lon="-3.29283">
        <ele>34</ele>
        <time>2015-11-10T14:34:16Z</time>
      </trkpt>
      <trkpt lat="48.71617" lon="-3.29273">
        <ele>34</ele>
        <time>2015-11-10T14:34:18Z</time>
      </trkpt>
      <trkpt lat="48.71637" lon="-3.2926">
        <ele>34</ele>
        <time>2015-11-10T14:34:21Z</time>
      </trkpt>
      <trkpt lat="48.71658" lon="-3.29249">
        <ele>35</ele>
        <time>2015-11-10T14:34:24Z</time>
      </trkpt>
      <trkpt lat="48.71679" lon="-3.29238">
        <ele>35</ele>
        <time>2015-11-10T14:34:27Z</time>
      </trkpt>
      <trkpt lat="48.71694" lon="-3.29231">
        <ele>35</ele>
        <time>2015-11-10T14:34:29Z</time>
      </trkpt>
      <trkpt lat="48.71709" lon="-3.29224">
        <ele>35</ele>
        <time>2015-11-10T14:34:31Z</time>
      </trkpt>
      <trkpt lat="48.71724" lon="-3.29219">
        <ele>35</ele>
        <time>2015-11-10T14:34:33Z</time>
      </trkpt>
      <trkpt lat="48.7174" lon="-3.29214">
        <ele>35</ele>
        <time>2015-11-10T14:34:35Z</time>
      </trkpt>
      <trkpt lat="48.71757" lon="-3.29211">
        <ele>35</ele>
        <time>2015-11-10T14:34:37Z</time>
      </trkpt>
      <trkpt lat="48.71773" lon="-3.29207">
        <ele>35</ele>
        <time>2015-11-10T14:34:39Z</time>
      </trkpt>
      <trkpt lat="48.7179" lon="-3.29203">
        <ele>35</ele>
        <time>2015-11-10T14:34:41Z</time>
      </trkpt>
      <trkpt lat="48.71807" lon="-3.29199">
        <ele>35</ele>
        <time>2015-11-10T14:34:43Z</time>
      </trkpt>
      <trkpt lat="48.71824" lon="-3.29194">
        <ele>35</ele>
        <time>2015-11-10T14:34:45Z</time>
      </trkpt>
      <trkpt lat="48.7184" lon="-3.2919">
        <ele>35</ele>
        <time>2015-11-10T14:34:47Z</time>
      </trkpt>
      <trkpt lat="48.71857" lon="-3.29186">
        <ele>35</ele>
        <time>2015-11-10T14:34:49Z</time>
      </trkpt>
      <trkpt lat="48.71874" lon="-3.29183">
        <ele>35</ele>
        <time>2015-11-10T14:34:51Z</time>
      </trkpt>
      <trkpt lat="48.71892" lon="-3.29179">
        <ele>35</ele>
        <time>2015-11-10T14:34:53Z</time>
      </trkpt>
      <trkpt lat="48.71917" lon="-3.29173">
        <ele>35</ele>
        <time>2015-11-10T14:34:56Z</time>
      </trkpt>
      <trkpt lat="48.71935" lon="-3.29169">
        <ele>35</ele>
        <time>2015-11-10T14:34:58Z</time>
      </trkpt>
      <trkpt lat="48.71952" lon="-3.29166">
        <ele>35</ele>
        <time>2015-11-10T14:35:00Z</time>
      </trkpt>
      <trkpt lat="48.71969" lon="-3.29163">
        <ele>35</ele>
        <time>2015-11-10T14:35:02Z</time>
      </trkpt>
      <trkpt lat="48.71986" lon="-3.29159">
        <ele>35</ele>
        <time>2015-11-10T14:35:04Z</time>
      </trkpt>
      <trkpt lat="48.72003" lon="-3.29155">
        <ele>35</ele>
        <time>2015-11-10T14:35:06Z</time>
      </trkpt>
      <trkpt lat="48.72027" lon="-3.29147">
        <ele>35</ele>
        <time>2015-11-10T14:35:09Z</time>
      </trkpt>
      <trkpt lat="48.72043" lon="-3.29141">
        <ele>35</ele>
        <time>2015-11-10T14:35:11Z</time>
      </trkpt>
      <trkpt lat="48.72059" lon="-3.29136">
        <ele>35</ele>
        <time>2015-11-10T14:35:13Z</time>
      </trkpt>
      <trkpt lat="48.72082" lon="-3.29127">
        <ele>34</ele>
        <time>2015-11-10T14:35:16Z</time>
      </trkpt>
      <trkpt lat="48.72098" lon="-3.2912">
        <ele>34</ele>
        <time>2015-11-10T14:35:18Z</time>
      </trkpt>
      <trkpt lat="48.72113" lon="-3.29113">
        <ele>34</ele>
        <time>2015-11-10T14:35:20Z</time>
      </trkpt>
      <trkpt lat="48.72134" lon="-3.291">
        <ele>34</ele>
        <time>2015-11-10T14:35:23Z</time>
      </trkpt>
      <trkpt lat="48.72148" lon="-3.29089">
        <ele>34</ele>
        <time>2015-11-10T14:35:25Z</time>
      </trkpt>
      <trkpt lat="48.72175" lon="-3.29068">
        <ele>34</ele>
        <time>2015-11-10T14:35:29Z</time>
      </trkpt>
      <trkpt lat="48.72189" lon="-3.29058">
        <ele>34</ele>
        <time>2015-11-10T14:35:31Z</time>
      </trkpt>
      <trkpt lat="48.72203" lon="-3.29048">
        <ele>34</ele>
        <time>2015-11-10T14:35:33Z</time>
      </trkpt>
      <trkpt lat="48.72223" lon="-3.29033">
        <ele>34</ele>
        <time>2015-11-10T14:35:36Z</time>
      </trkpt>
      <trkpt lat="48.72249" lon="-3.29012">
        <ele>33</ele>
        <time>2015-11-10T14:35:40Z</time>
      </trkpt>
      <trkpt lat="48.72273" lon="-3.28993">
        <ele>33</ele>
        <time>2015-11-10T14:35:44Z</time>
      </trkpt>
      <trkpt lat="48.72298" lon="-3.28972">
        <ele>33</ele>
        <time>2015-11-10T14:35:48Z</time>
      </trkpt>
      <trkpt lat="48.72316" lon="-3.28957">
        <ele>33</ele>
        <time>2015-11-10T14:35:51Z</time>
      </trkpt>
      <trkpt lat="48.7234" lon="-3.28936">
        <ele>33</ele>
        <time>2015-11-10T14:35:55Z</time>
      </trkpt>
      <trkpt lat="48.72365" lon="-3.28913">
        <ele>33</ele>
        <time>2015-11-10T14:35:59Z</time>
      </trkpt>
      <trkpt lat="48.72379" lon="-3.28899">
        <ele>32</ele>
        <time>2015-11-10T14:36:01Z</time>
      </trkpt>
      <trkpt lat="48.72394" lon="-3.28886">
        <ele>32</ele>
        <time>2015-11-10T14:36:03Z</time>
      </trkpt>
      <trkpt lat="48.7241" lon="-3.28871">
        <ele>32</ele>
        <time>2015-11-10T14:36:05Z</time>
      </trkpt>
      <trkpt lat="48.72426" lon="-3.28855">
        <ele>32</ele>
        <time>2015-11-10T14:36:07Z</time>
      </trkpt>
      <trkpt lat="48.72442" lon="-3.28838">
        <ele>32</ele>
        <time>2015-11-10T14:36:09Z</time>
      </trkpt>
      <trkpt lat="48.72459" lon="-3.2882">
        <ele>32</ele>
        <time>2015-11-10T14:36:11Z</time>
      </trkpt>
      <trkpt lat="48.72476" lon="-3.28802">
        <ele>32</ele>
        <time>2015-11-10T14:36:13Z</time>
      </trkpt>
      <trkpt lat="48.72494" lon="-3.28784">
        <ele>32</ele>
        <time>2015-11-10T14:36:15Z</time>
      </trkpt>
      <trkpt lat="48.7254" lon="-3.2874">
        <ele>32</ele>
        <time>2015-11-10T14:36:20Z</time>
      </trkpt>
      <trkpt lat="48.72558" lon="-3.28723">
        <ele>31</ele>
        <time>2015-11-10T14:36:22Z</time>
      </trkpt>
      <trkpt lat="48.72577" lon="-3.28706">
        <ele>31</ele>
        <time>2015-11-10T14:36:24Z</time>
      </trkpt>
      <trkpt lat="48.72586" lon="-3.28699">
        <ele>31</ele>
        <time>2015-11-10T14:36:25Z</time>
      </trkpt>
      <trkpt lat="48.72595" lon="-3.28692">
        <ele>31</ele>
        <time>2015-11-10T14:36:26Z</time>
      </trkpt>
      <trkpt lat="48.72614" lon="-3.28679">
        <ele>31</ele>
        <time>2015-11-10T14:36:28Z</time>
      </trkpt>
      <trkpt lat="48.72634" lon="-3.28668">
        <ele>30</ele>
        <time>2015-11-10T14:36:30Z</time>
      </trkpt>
      <trkpt lat="48.72655" lon="-3.28656">
        <ele>30</ele>
        <time>2015-11-10T14:36:32Z</time>
      </trkpt>
      <trkpt lat="48.72675" lon="-3.28644">
        <ele>30</ele>
        <time>2015-11-10T14:36:34Z</time>
      </trkpt>
      <trkpt lat="48.72713" lon="-3.28623">
        <ele>30</ele>
        <time>2015-11-10T14:36:38Z</time>
      </trkpt>
      <trkpt lat="48.72779" lon="-3.2857">
        <ele>29</ele>
        <time>2015-11-10T14:36:46Z</time>
      </trkpt>
      <trkpt lat="48.72787" lon="-3.28562">
        <ele>29</ele>
        <time>2015-11-10T14:36:47Z</time>
      </trkpt>
      <trkpt lat="48.72829" lon="-3.28526">
        <ele>44.7</ele>
        <time>2015-11-10T14:36:52Z</time>
      </trkpt>
      <trkpt lat="48.73053" lon="-3.28362">
        <ele>25.2</ele>
        <time>2015-11-10T14:37:15Z</time>
      </trkpt>
      <trkpt lat="48.73108" lon="-3.28249">
        <ele>17</ele>
        <time>2015-11-10T14:37:23Z</time>
      </trkpt>
      <trkpt lat="48.73133" lon="-3.28178">
        <ele>16</ele>
        <time>2015-11-10T14:37:28Z</time>
      </trkpt>
      <trkpt lat="48.73137" lon="-3.28163">
        <ele>15</ele>
        <time>2015-11-10T14:37:29Z</time>
      </trkpt>
      <trkpt lat="48.73147" lon="-3.28135">
        <ele>13</ele>
        <time>2015-11-10T14:37:31Z</time>
      </trkpt>
      <trkpt lat="48.73155" lon="-3.28107">
        <ele>12</ele>
        <time>2015-11-10T14:37:33Z</time>
      </trkpt>
      <trkpt lat="48.73165" lon="-3.28079">
        <ele>10</ele>
        <time>2015-11-10T14:37:35Z</time>
      </trkpt>
      <trkpt lat="48.73176" lon="-3.28051">
        <ele>9</ele>
        <time>2015-11-10T14:37:37Z</time>
      </trkpt>
      <trkpt lat="48.73187" lon="-3.28025">
        <ele>7</ele>
        <time>2015-11-10T14:37:39Z</time>
      </trkpt>
      <trkpt lat="48.732" lon="-3.28">
        <ele>6</ele>
        <time>2015-11-10T14:37:41Z</time>
      </trkpt>
      <trkpt lat="48.73207" lon="-3.27989">
        <ele>4</ele>
        <time>2015-11-10T14:37:42Z</time>
      </trkpt>
      <trkpt lat="48.73221" lon="-3.27968">
        <ele>3</ele>
        <time>2015-11-10T14:37:44Z</time>
      </trkpt>
      <trkpt lat="48.73235" lon="-3.27948">
        <ele>2</ele>
        <time>2015-11-10T14:37:46Z</time>
      </trkpt>
      <trkpt lat="48.73248" lon="-3.27929">
        <ele>1</ele>
        <time>2015-11-10T14:37:48Z</time>
      </trkpt>
      <trkpt lat="48.73261" lon="-3.27909">
        <ele>13.3</ele>
        <time>2015-11-10T14:37:50Z</time>
      </trkpt>
      <trkpt lat="48.73272" lon="-3.27888">
        <ele>-2</ele>
        <time>2015-11-10T14:37:52Z</time>
      </trkpt>
      <trkpt lat="48.73287" lon="-3.27855">
        <ele>-3</ele>
        <time>2015-11-10T14:37:55Z</time>
      </trkpt>
      <trkpt lat="48.73299" lon="-3.27835">
        <ele>-5</ele>
        <time>2015-11-10T14:37:57Z</time>
      </trkpt>
      <trkpt lat="48.73312" lon="-3.27816">
        <ele>-7</ele>
        <time>2015-11-10T14:37:59Z</time>
      </trkpt>
      <trkpt lat="48.73325" lon="-3.27797">
        <ele>-8</ele>
        <time>2015-11-10T14:38:01Z</time>
      </trkpt>
      <trkpt lat="48.73344" lon="-3.27774">
        <ele>-10</ele>
        <time>2015-11-10T14:38:04Z</time>
      </trkpt>
      <trkpt lat="48.73368" lon="-3.27756">
        <ele>-12</ele>
        <time>2015-11-10T14:38:08Z</time>
      </trkpt>
      <trkpt lat="48.73385" lon="-3.27747">
        <ele>-12</ele>
        <time>2015-11-10T14:38:10Z</time>
      </trkpt>
      <trkpt lat="48.73411" lon="-3.27736">
        <ele>-14</ele>
        <time>2015-11-10T14:38:13Z</time>
      </trkpt>
      <trkpt lat="48.73428" lon="-3.27729">
        <ele>-15</ele>
        <time>2015-11-10T14:38:15Z</time>
      </trkpt>
      <trkpt lat="48.73444" lon="-3.2772">
        <ele>-15</ele>
        <time>2015-11-10T14:38:17Z</time>
      </trkpt>
      <trkpt lat="48.73466" lon="-3.27704">
        <ele>-17</ele>
        <time>2015-11-10T14:38:20Z</time>
      </trkpt>
      <trkpt lat="48.73479" lon="-3.27693">
        <ele>-18</ele>
        <time>2015-11-10T14:38:22Z</time>
      </trkpt>
      <trkpt lat="48.73503" lon="-3.27666">
        <ele>-19</ele>
        <time>2015-11-10T14:38:26Z</time>
      </trkpt>
      <trkpt lat="48.7352" lon="-3.27644">
        <ele>-20</ele>
        <time>2015-11-10T14:38:29Z</time>
      </trkpt>
      <trkpt lat="48.73559" lon="-3.27587">
        <ele>-21</ele>
        <time>2015-11-10T14:38:36Z</time>
      </trkpt>
      <trkpt lat="48.73578" lon="-3.27552">
        <ele>-22</ele>
        <time>2015-11-10T14:38:40Z</time>
      </trkpt>
      <trkpt lat="48.73593" lon="-3.27518">
        <ele>-23</ele>
        <time>2015-11-10T14:38:44Z</time>
      </trkpt>
      <trkpt lat="48.73657" lon="-3.27376">
        <ele>-26</ele>
        <time>2015-11-10T14:39:03Z</time>
      </trkpt>
      <trkpt lat="48.73677" lon="-3.27344">
        <ele>-26</ele>
        <time>2015-11-10T14:39:08Z</time>
      </trkpt>
      <trkpt lat="48.73692" lon="-3.27316">
        <ele>-27</ele>
        <time>2015-11-10T14:39:12Z</time>
      </trkpt>
      <trkpt lat="48.73702" lon="-3.27295">
        <ele>-28</ele>
        <time>2015-11-10T14:39:15Z</time>
      </trkpt>
      <trkpt lat="48.73712" lon="-3.27274">
        <ele>-29</ele>
        <time>2015-11-10T14:39:18Z</time>
      </trkpt>
      <trkpt lat="48.73717" lon="-3.2726">
        <ele>-30</ele>
        <time>2015-11-10T14:39:20Z</time>
      </trkpt>
      <trkpt lat="48.73723" lon="-3.27246">
        <ele>-31</ele>
        <time>2015-11-10T14:39:22Z</time>
      </trkpt>
      <trkpt lat="48.73734" lon="-3.27217">
        <ele>-31</ele>
        <time>2015-11-10T14:39:26Z</time>
      </trkpt>
      <trkpt lat="48.73742" lon="-3.27193">
        <ele>-32</ele>
        <time>2015-11-10T14:39:29Z</time>
      </trkpt>
      <trkpt lat="48.73747" lon="-3.27177">
        <ele>-33</ele>
        <time>2015-11-10T14:39:31Z</time>
      </trkpt>
      <trkpt lat="48.73751" lon="-3.2716">
        <ele>-33</ele>
        <time>2015-11-10T14:39:33Z</time>
      </trkpt>
      <trkpt lat="48.73755" lon="-3.27144">
        <ele>-34</ele>
        <time>2015-11-10T14:39:35Z</time>
      </trkpt>
      <trkpt lat="48.73759" lon="-3.27128">
        <ele>-34</ele>
        <time>2015-11-10T14:39:37Z</time>
      </trkpt>
      <trkpt lat="48.73764" lon="-3.27106">
        <ele>-35</ele>
        <time>2015-11-10T14:39:40Z</time>
      </trkpt>
      <trkpt lat="48.73773" lon="-3.27078">
        <ele>-36</ele>
        <time>2015-11-10T14:39:45Z</time>
      </trkpt>
      <trkpt lat="48.73778" lon="-3.27056">
        <ele>-37</ele>
        <time>2015-11-10T14:39:49Z</time>
      </trkpt>
      <trkpt lat="48.73783" lon="-3.27029">
        <ele>-37</ele>
        <time>2015-11-10T14:39:54Z</time>
      </trkpt>
      <trkpt lat="48.73788" lon="-3.2701">
        <ele>-38</ele>
        <time>2015-11-10T14:39:58Z</time>
      </trkpt>
      <trkpt lat="48.73794" lon="-3.26989">
        <ele>-38</ele>
        <time>2015-11-10T14:40:03Z</time>
      </trkpt>
      <trkpt lat="48.73805" lon="-3.26969">
        <ele>-38</ele>
        <time>2015-11-10T14:40:09Z</time>
      </trkpt>
      <trkpt lat="48.73816" lon="-3.26952">
        <ele>-38</ele>
        <time>2015-11-10T14:40:15Z</time>
      </trkpt>
      <trkpt lat="48.73823" lon="-3.26944">
        <ele>-38</ele>
        <time>2015-11-10T14:40:18Z</time>
      </trkpt>
      <trkpt lat="48.73835" lon="-3.26927">
        <ele>-38</ele>
        <time>2015-11-10T14:40:24Z</time>
      </trkpt>
      <trkpt lat="48.73847" lon="-3.26912">
        <ele>-38</ele>
        <time>2015-11-10T14:40:30Z</time>
      </trkpt>
      <trkpt lat="48.73861" lon="-3.26896">
        <ele>-38</ele>
        <time>2015-11-10T14:40:37Z</time>
      </trkpt>
      <trkpt lat="48.73875" lon="-3.26885">
        <ele>-38</ele>
        <time>2015-11-10T14:40:43Z</time>
      </trkpt>
      <trkpt lat="48.73889" lon="-3.26874">
        <ele>-38</ele>
        <time>2015-11-10T14:40:49Z</time>
      </trkpt>
      <trkpt lat="48.739" lon="-3.26866">
        <ele>-38</ele>
        <time>2015-11-10T14:40:53Z</time>
      </trkpt>
      <trkpt lat="48.73916" lon="-3.26856">
        <ele>-38</ele>
        <time>2015-11-10T14:40:59Z</time>
      </trkpt>
      <trkpt lat="48.73925" lon="-3.2685">
        <ele>-38</ele>
        <time>2015-11-10T14:41:02Z</time>
      </trkpt>
      <trkpt lat="48.73947" lon="-3.26832">
        <ele>-38</ele>
        <time>2015-11-10T14:41:09Z</time>
      </trkpt>
      <trkpt lat="48.73961" lon="-3.26819">
        <ele>-37</ele>
        <time>2015-11-10T14:41:13Z</time>
      </trkpt>
      <trkpt lat="48.7398" lon="-3.26803">
        <ele>-37</ele>
        <time>2015-11-10T14:41:18Z</time>
      </trkpt>
      <trkpt lat="48.73994" lon="-3.26791">
        <ele>-36</ele>
        <time>2015-11-10T14:41:22Z</time>
      </trkpt>
      <trkpt lat="48.74001" lon="-3.26784">
        <ele>-36</ele>
        <time>2015-11-10T14:41:24Z</time>
      </trkpt>
      <trkpt lat="48.74017" lon="-3.26768">
        <ele>-36</ele>
        <time>2015-11-10T14:41:28Z</time>
      </trkpt>
      <trkpt lat="48.74026" lon="-3.26757">
        <ele>-35</ele>
        <time>2015-11-10T14:41:30Z</time>
      </trkpt>
      <trkpt lat="48.74035" lon="-3.26746">
        <ele>-35</ele>
        <time>2015-11-10T14:41:32Z</time>
      </trkpt>
      <trkpt lat="48.74094" lon="-3.26651">
        <ele>-35</ele>
        <time>2015-11-10T14:41:44Z</time>
      </trkpt>
      <trkpt lat="48.74104" lon="-3.26628">
        <ele>-35</ele>
        <time>2015-11-10T14:41:46Z</time>
      </trkpt>
      <trkpt lat="48.74114" lon="-3.26606">
        <ele>-35</ele>
        <time>2015-11-10T14:41:48Z</time>
      </trkpt>
      <trkpt lat="48.74124" lon="-3.26586">
        <ele>-35</ele>
        <time>2015-11-10T14:41:50Z</time>
      </trkpt>
      <trkpt lat="48.74135" lon="-3.26567">
        <ele>-35</ele>
        <time>2015-11-10T14:41:52Z</time>
      </trkpt>
      <trkpt lat="48.74147" lon="-3.26553">
        <ele>-35</ele>
        <time>2015-11-10T14:41:54Z</time>
      </trkpt>
      <trkpt lat="48.74173" lon="-3.26533">
        <ele>-35</ele>
        <time>2015-11-10T14:41:58Z</time>
      </trkpt>
      <trkpt lat="48.74201" lon="-3.2652">
        <ele>-35</ele>
        <time>2015-11-10T14:42:02Z</time>
      </trkpt>
      <trkpt lat="48.74225" lon="-3.26503">
        <ele>-35</ele>
        <time>2015-11-10T14:42:06Z</time>
      </trkpt>
      <trkpt lat="48.74243" lon="-3.2648">
        <ele>-35</ele>
        <time>2015-11-10T14:42:10Z</time>
      </trkpt>
      <trkpt lat="48.74259" lon="-3.26455">
        <ele>-35</ele>
        <time>2015-11-10T14:42:14Z</time>
      </trkpt>
      <trkpt lat="48.7432" lon="-3.26374">
        <ele>-35</ele>
        <time>2015-11-10T14:42:28Z</time>
      </trkpt>
      <trkpt lat="48.74337" lon="-3.26362">
        <ele>-35</ele>
        <time>2015-11-10T14:42:32Z</time>
      </trkpt>
      <trkpt lat="48.74382" lon="-3.26338">
        <ele>-35</ele>
        <time>2015-11-10T14:42:39Z</time>
      </trkpt>
      <trkpt lat="48.74402" lon="-3.26323">
        <ele>-35</ele>
        <time>2015-11-10T14:42:42Z</time>
      </trkpt>
      <trkpt lat="48.74419" lon="-3.26309">
        <ele>-35</ele>
        <time>2015-11-10T14:42:45Z</time>
      </trkpt>
      <trkpt lat="48.74437" lon="-3.26312">
        <ele>-35</ele>
        <time>2015-11-10T14:42:48Z</time>
      </trkpt>
      <trkpt lat="48.7445" lon="-3.26335">
        <ele>-35</ele>
        <time>2015-11-10T14:42:51Z</time>
      </trkpt>
      <trkpt lat="48.74457" lon="-3.26351">
        <ele>-36</ele>
        <time>2015-11-10T14:42:53Z</time>
      </trkpt>
      <trkpt lat="48.74463" lon="-3.26366">
        <ele>-36</ele>
        <time>2015-11-10T14:42:55Z</time>
      </trkpt>
      <trkpt lat="48.74468" lon="-3.26377">
        <ele>-36</ele>
        <time>2015-11-10T14:42:57Z</time>
      </trkpt>
      <trkpt lat="48.74477" lon="-3.26397">
        <ele>-37</ele>
        <time>2015-11-10T14:43:01Z</time>
      </trkpt>
      <trkpt lat="48.74489" lon="-3.26418">
        <ele>-37</ele>
        <time>2015-11-10T14:43:06Z</time>
      </trkpt>
      <trkpt lat="48.74502" lon="-3.26436">
        <ele>-38</ele>
        <time>2015-11-10T14:43:11Z</time>
      </trkpt>
      <trkpt lat="48.74515" lon="-3.26454">
        <ele>-38</ele>
        <time>2015-11-10T14:43:15Z</time>
      </trkpt>
      <trkpt lat="48.74531" lon="-3.26474">
        <ele>-39</ele>
        <time>2015-11-10T14:43:19Z</time>
      </trkpt>
      <trkpt lat="48.74543" lon="-3.26494">
        <ele>-39</ele>
        <time>2015-11-10T14:43:22Z</time>
      </trkpt>
      <trkpt lat="48.74556" lon="-3.26518">
        <ele>-40</ele>
        <time>2015-11-10T14:43:25Z</time>
      </trkpt>
      <trkpt lat="48.74567" lon="-3.26544">
        <ele>-40</ele>
        <time>2015-11-10T14:43:28Z</time>
      </trkpt>
      <trkpt lat="48.74579" lon="-3.26571">
        <ele>-41</ele>
        <time>2015-11-10T14:43:31Z</time>
      </trkpt>
      <trkpt lat="48.74587" lon="-3.26588">
        <ele>-41</ele>
        <time>2015-11-10T14:43:33Z</time>
      </trkpt>
      <trkpt lat="48.74597" lon="-3.26602">
        <ele>-41</ele>
        <time>2015-11-10T14:43:35Z</time>
      </trkpt>
      <trkpt lat="48.74619" lon="-3.26627">
        <ele>-42</ele>
        <time>2015-11-10T14:43:39Z</time>
      </trkpt>
      <trkpt lat="48.7463" lon="-3.26637">
        <ele>-43</ele>
        <time>2015-11-10T14:43:41Z</time>
      </trkpt>
      <trkpt lat="48.74661" lon="-3.26666">
        <ele>-43</ele>
        <time>2015-11-10T14:43:47Z</time>
      </trkpt>
      <trkpt lat="48.74681" lon="-3.26689">
        <ele>-43</ele>
        <time>2015-11-10T14:43:51Z</time>
      </trkpt>
      <trkpt lat="48.74695" lon="-3.26709">
        <ele>-44</ele>
        <time>2015-11-10T14:43:54Z</time>
      </trkpt>
      <trkpt lat="48.74712" lon="-3.26738">
        <ele>-44</ele>
        <time>2015-11-10T14:43:58Z</time>
      </trkpt>
      <trkpt lat="48.74725" lon="-3.26759">
        <ele>-45</ele>
        <time>2015-11-10T14:44:01Z</time>
      </trkpt>
      <trkpt lat="48.74737" lon="-3.2678">
        <ele>-45</ele>
        <time>2015-11-10T14:44:04Z</time>
      </trkpt>
      <trkpt lat="48.74744" lon="-3.26793">
        <ele>-45</ele>
        <time>2015-11-10T14:44:06Z</time>
      </trkpt>
      <trkpt lat="48.74757" lon="-3.26816">
        <ele>-45</ele>
        <time>2015-11-10T14:44:10Z</time>
      </trkpt>
      <trkpt lat="48.7477" lon="-3.26839">
        <ele>-46</ele>
        <time>2015-11-10T14:44:14Z</time>
      </trkpt>
      <trkpt lat="48.74781" lon="-3.26862">
        <ele>-46</ele>
        <time>2015-11-10T14:44:18Z</time>
      </trkpt>
      <trkpt lat="48.74792" lon="-3.26884">
        <ele>-46</ele>
        <time>2015-11-10T14:44:22Z</time>
      </trkpt>
      <trkpt lat="48.74805" lon="-3.26906">
        <ele>-47</ele>
        <time>2015-11-10T14:44:26Z</time>
      </trkpt>
      <trkpt lat="48.74824" lon="-3.26928">
        <ele>-47</ele>
        <time>2015-11-10T14:44:30Z</time>
      </trkpt>
      <trkpt lat="48.74839" lon="-3.26945">
        <ele>-47</ele>
        <time>2015-11-10T14:44:34Z</time>
      </trkpt>
      <trkpt lat="48.74855" lon="-3.26961">
        <ele>-47</ele>
        <time>2015-11-10T14:44:38Z</time>
      </trkpt>
      <trkpt lat="48.74866" lon="-3.26971">
        <ele>-47</ele>
        <time>2015-11-10T14:44:41Z</time>
      </trkpt>
      <trkpt lat="48.74876" lon="-3.26979">
        <ele>-47</ele>
        <time>2015-11-10T14:44:44Z</time>
      </trkpt>
      <trkpt lat="48.74885" lon="-3.26982">
        <ele>-47</ele>
        <time>2015-11-10T14:45:12Z</time>
      </trkpt>
      <trkpt lat="48.74897" lon="-3.2699">
        <ele>-45</ele>
        <time>2015-11-10T14:46:50Z</time>
      </trkpt>
      <trkpt lat="48.74906" lon="-3.26997">
        <ele>-42</ele>
        <time>2015-11-10T14:47:02Z</time>
      </trkpt>
      <trkpt lat="48.74909" lon="-3.27011">
        <ele>-41</ele>
        <time>2015-11-10T14:47:05Z</time>
      </trkpt>
      <trkpt lat="48.74911" lon="-3.27034">
        <ele>-41</ele>
        <time>2015-11-10T14:47:09Z</time>
      </trkpt>
      <trkpt lat="48.74915" lon="-3.27057">
        <ele>-40</ele>
        <time>2015-11-10T14:47:13Z</time>
      </trkpt>
      <trkpt lat="48.74919" lon="-3.2708">
        <ele>-39</ele>
        <time>2015-11-10T14:47:17Z</time>
      </trkpt>
      <trkpt lat="48.74925" lon="-3.27107">
        <ele>-39</ele>
        <time>2015-11-10T14:47:22Z</time>
      </trkpt>
      <trkpt lat="48.74929" lon="-3.27128">
        <ele>-39</ele>
        <time>2015-11-10T14:47:26Z</time>
      </trkpt>
      <trkpt lat="48.74934" lon="-3.27154">
        <ele>-38</ele>
        <time>2015-11-10T14:47:31Z</time>
      </trkpt>
      <trkpt lat="48.7494" lon="-3.27181">
        <ele>-38</ele>
        <time>2015-11-10T14:47:36Z</time>
      </trkpt>
      <trkpt lat="48.74943" lon="-3.27201">
        <ele>-38</ele>
        <time>2015-11-10T14:47:40Z</time>
      </trkpt>
      <trkpt lat="48.74948" lon="-3.27226">
        <ele>-38</ele>
        <time>2015-11-10T14:47:45Z</time>
      </trkpt>
      <trkpt lat="48.74954" lon="-3.27253">
        <ele>-38</ele>
        <time>2015-11-10T14:47:50Z</time>
      </trkpt>
      <trkpt lat="48.74961" lon="-3.27278">
        <ele>-38</ele>
        <time>2015-11-10T14:47:55Z</time>
      </trkpt>
      <trkpt lat="48.74967" lon="-3.27302">
        <ele>-39</ele>
        <time>2015-11-10T14:48:01Z</time>
      </trkpt>
      <trkpt lat="48.74972" lon="-3.27324">
        <ele>-39</ele>
        <time>2015-11-10T14:48:08Z</time>
      </trkpt>
      <trkpt lat="48.74978" lon="-3.27346">
        <ele>-39</ele>
        <time>2015-11-10T14:48:14Z</time>
      </trkpt>
      <trkpt lat="48.74986" lon="-3.27368">
        <ele>-39</ele>
        <time>2015-11-10T14:48:20Z</time>
      </trkpt>
      <trkpt lat="48.74997" lon="-3.27389">
        <ele>-39</ele>
        <time>2015-11-10T14:48:26Z</time>
      </trkpt>
      <trkpt lat="48.75009" lon="-3.27409">
        <ele>-38</ele>
        <time>2015-11-10T14:48:32Z</time>
      </trkpt>
      <trkpt lat="48.7502" lon="-3.27428">
        <ele>-38</ele>
        <time>2015-11-10T14:48:39Z</time>
      </trkpt>
      <trkpt lat="48.75031" lon="-3.27446">
        <ele>-38</ele>
        <time>2015-11-10T14:48:45Z</time>
      </trkpt>
      <trkpt lat="48.75036" lon="-3.27456">
        <ele>-38</ele>
        <time>2015-11-10T14:48:48Z</time>
      </trkpt>
      <trkpt lat="48.75042" lon="-3.27466">
        <ele>-38</ele>
        <time>2015-11-10T14:48:51Z</time>
      </trkpt>
      <trkpt lat="48.75052" lon="-3.27485">
        <ele>-38</ele>
        <time>2015-11-10T14:48:56Z</time>
      </trkpt>
      <trkpt lat="48.75062" lon="-3.27506">
        <ele>-38</ele>
        <time>2015-11-10T14:49:00Z</time>
      </trkpt>
      <trkpt lat="48.75073" lon="-3.27529">
        <ele>-37</ele>
        <time>2015-11-10T14:49:04Z</time>
      </trkpt>
      <trkpt lat="48.75079" lon="-3.27542">
        <ele>-37</ele>
        <time>2015-11-10T14:49:06Z</time>
      </trkpt>
      <trkpt lat="48.75089" lon="-3.27562">
        <ele>-37</ele>
        <time>2015-11-10T14:49:09Z</time>
      </trkpt>
      <trkpt lat="48.751" lon="-3.27584">
        <ele>-37</ele>
        <time>2015-11-10T14:49:12Z</time>
      </trkpt>
      <trkpt lat="48.75111" lon="-3.27605">
        <ele>-36</ele>
        <time>2015-11-10T14:49:15Z</time>
      </trkpt>
      <trkpt lat="48.75123" lon="-3.27626">
        <ele>-36</ele>
        <time>2015-11-10T14:49:18Z</time>
      </trkpt>
      <trkpt lat="48.75134" lon="-3.27648">
        <ele>-36</ele>
        <time>2015-11-10T14:49:21Z</time>
      </trkpt>
      <trkpt lat="48.75141" lon="-3.27663">
        <ele>-36</ele>
        <time>2015-11-10T14:49:23Z</time>
      </trkpt>
      <trkpt lat="48.75149" lon="-3.27678">
        <ele>-36</ele>
        <time>2015-11-10T14:49:25Z</time>
      </trkpt>
      <trkpt lat="48.75157" lon="-3.27693">
        <ele>-36</ele>
        <time>2015-11-10T14:49:27Z</time>
      </trkpt>
      <trkpt lat="48.75166" lon="-3.27717">
        <ele>-35</ele>
        <time>2015-11-10T14:49:30Z</time>
      </trkpt>
      <trkpt lat="48.75174" lon="-3.27741">
        <ele>-35</ele>
        <time>2015-11-10T14:49:33Z</time>
      </trkpt>
      <trkpt lat="48.7518" lon="-3.27766">
        <ele>-35</ele>
        <time>2015-11-10T14:49:36Z</time>
      </trkpt>
      <trkpt lat="48.75182" lon="-3.27792">
        <ele>-36</ele>
        <time>2015-11-10T14:49:39Z</time>
      </trkpt>
      <trkpt lat="48.75179" lon="-3.27808">
        <ele>-36</ele>
        <time>2015-11-10T14:49:41Z</time>
      </trkpt>
      <trkpt lat="48.75174" lon="-3.27822">
        <ele>-36</ele>
        <time>2015-11-10T14:49:43Z</time>
      </trkpt>
      <trkpt lat="48.75166" lon="-3.27845">
        <ele>-36</ele>
        <time>2015-11-10T14:49:47Z</time>
      </trkpt>
      <trkpt lat="48.75159" lon="-3.27865">
        <ele>-36</ele>
        <time>2015-11-10T14:49:51Z</time>
      </trkpt>
      <trkpt lat="48.7515" lon="-3.27888">
        <ele>-35</ele>
        <time>2015-11-10T14:49:56Z</time>
      </trkpt>
      <trkpt lat="48.75143" lon="-3.27909">
        <ele>-35</ele>
        <time>2015-11-10T14:50:01Z</time>
      </trkpt>
      <trkpt lat="48.75138" lon="-3.2792">
        <ele>-35</ele>
        <time>2015-11-10T14:50:04Z</time>
      </trkpt>
      <trkpt lat="48.75131" lon="-3.27942">
        <ele>-34</ele>
        <time>2015-11-10T14:50:10Z</time>
      </trkpt>
      <trkpt lat="48.75127" lon="-3.27954">
        <ele>-34</ele>
        <time>2015-11-10T14:50:14Z</time>
      </trkpt>
      <trkpt lat="48.75124" lon="-3.27968">
        <ele>-33</ele>
        <time>2015-11-10T14:50:18Z</time>
      </trkpt>
      <trkpt lat="48.75118" lon="-3.27989">
        <ele>-33</ele>
        <time>2015-11-10T14:50:24Z</time>
      </trkpt>
      <trkpt lat="48.75114" lon="-3.28003">
        <ele>-32</ele>
        <time>2015-11-10T14:50:28Z</time>
      </trkpt>
      <trkpt lat="48.75108" lon="-3.2802">
        <ele>-32</ele>
        <time>2015-11-10T14:50:33Z</time>
      </trkpt>
      <trkpt lat="48.75101" lon="-3.28044">
        <ele>-31</ele>
        <time>2015-11-10T14:50:40Z</time>
      </trkpt>
      <trkpt lat="48.75094" lon="-3.28065">
        <ele>-31</ele>
        <time>2015-11-10T14:50:47Z</time>
      </trkpt>
      <trkpt lat="48.7509" lon="-3.28077">
        <ele>-30</ele>
        <time>2015-11-10T14:50:51Z</time>
      </trkpt>
      <trkpt lat="48.75086" lon="-3.28091">
        <ele>-30</ele>
        <time>2015-11-10T14:50:56Z</time>
      </trkpt>
      <trkpt lat="48.75082" lon="-3.28103">
        <ele>-30</ele>
        <time>2015-11-10T14:51:01Z</time>
      </trkpt>
      <trkpt lat="48.75073" lon="-3.28119">
        <ele>-29</ele>
        <time>2015-11-10T14:51:07Z</time>
      </trkpt>
      <trkpt lat="48.75062" lon="-3.28129">
        <ele>-28</ele>
        <time>2015-11-10T14:51:11Z</time>
      </trkpt>
      <trkpt lat="48.75048" lon="-3.28141">
        <ele>-28</ele>
        <time>2015-11-10T14:51:16Z</time>
      </trkpt>
      <trkpt lat="48.75039" lon="-3.28149">
        <ele>-27</ele>
        <time>2015-11-10T14:51:19Z</time>
      </trkpt>
      <trkpt lat="48.75027" lon="-3.28163">
        <ele>-26</ele>
        <time>2015-11-10T14:51:24Z</time>
      </trkpt>
      <trkpt lat="48.75018" lon="-3.28183">
        <ele>-26</ele>
        <time>2015-11-10T14:51:29Z</time>
      </trkpt>
      <trkpt lat="48.75005" lon="-3.28208">
        <ele>-25</ele>
        <time>2015-11-10T14:51:36Z</time>
      </trkpt>
      <trkpt lat="48.74998" lon="-3.28231">
        <ele>-24</ele>
        <time>2015-11-10T14:51:42Z</time>
      </trkpt>
      <trkpt lat="48.74992" lon="-3.28247">
        <ele>-24</ele>
        <time>2015-11-10T14:51:46Z</time>
      </trkpt>
      <trkpt lat="48.74985" lon="-3.2827">
        <ele>-23</ele>
        <time>2015-11-10T14:51:51Z</time>
      </trkpt>
      <trkpt lat="48.74979" lon="-3.28285">
        <ele>-23</ele>
        <time>2015-11-10T14:51:54Z</time>
      </trkpt>
      <trkpt lat="48.74974" lon="-3.28296">
        <ele>-22</ele>
        <time>2015-11-10T14:51:56Z</time>
      </trkpt>
      <trkpt lat="48.74971" lon="-3.28308">
        <ele>-22</ele>
        <time>2015-11-10T14:51:58Z</time>
      </trkpt>
      <trkpt lat="48.74967" lon="-3.2832">
        <ele>-22</ele>
        <time>2015-11-10T14:52:00Z</time>
      </trkpt>
      <trkpt lat="48.74964" lon="-3.28332">
        <ele>-21</ele>
        <time>2015-11-10T14:52:02Z</time>
      </trkpt>
      <trkpt lat="48.7496" lon="-3.28344">
        <ele>-21</ele>
        <time>2015-11-10T14:52:04Z</time>
      </trkpt>
      <trkpt lat="48.74956" lon="-3.28356">
        <ele>-21</ele>
        <time>2015-11-10T14:52:06Z</time>
      </trkpt>
      <trkpt lat="48.74952" lon="-3.28367">
        <ele>-21</ele>
        <time>2015-11-10T14:52:08Z</time>
      </trkpt>
      <trkpt lat="48.74949" lon="-3.28379">
        <ele>-20</ele>
        <time>2015-11-10T14:52:10Z</time>
      </trkpt>
      <trkpt lat="48.74945" lon="-3.2839">
        <ele>-20</ele>
        <time>2015-11-10T14:52:12Z</time>
      </trkpt>
      <trkpt lat="48.74942" lon="-3.28402">
        <ele>-20</ele>
        <time>2015-11-10T14:52:14Z</time>
      </trkpt>
      <trkpt lat="48.74938" lon="-3.28413">
        <ele>-20</ele>
        <time>2015-11-10T14:52:16Z</time>
      </trkpt>
      <trkpt lat="48.74934" lon="-3.28425">
        <ele>-19</ele>
        <time>2015-11-10T14:52:18Z</time>
      </trkpt>
      <trkpt lat="48.74928" lon="-3.28443">
        <ele>-19</ele>
        <time>2015-11-10T14:52:21Z</time>
      </trkpt>
      <trkpt lat="48.74924" lon="-3.28456">
        <ele>-19</ele>
        <time>2015-11-10T14:52:23Z</time>
      </trkpt>
      <trkpt lat="48.7492" lon="-3.28468">
        <ele>-18</ele>
        <time>2015-11-10T14:52:25Z</time>
      </trkpt>
      <trkpt lat="48.74917" lon="-3.2848">
        <ele>-18</ele>
        <time>2015-11-10T14:52:27Z</time>
      </trkpt>
      <trkpt lat="48.74914" lon="-3.28492">
        <ele>-18</ele>
        <time>2015-11-10T14:52:29Z</time>
      </trkpt>
      <trkpt lat="48.74911" lon="-3.28505">
        <ele>-18</ele>
        <time>2015-11-10T14:52:31Z</time>
      </trkpt>
      <trkpt lat="48.74907" lon="-3.28529">
        <ele>-17</ele>
        <time>2015-11-10T14:52:35Z</time>
      </trkpt>
      <trkpt lat="48.74904" lon="-3.28542">
        <ele>-17</ele>
        <time>2015-11-10T14:52:37Z</time>
      </trkpt>
      <trkpt lat="48.74902" lon="-3.28554">
        <ele>-17</ele>
        <time>2015-11-10T14:52:39Z</time>
      </trkpt>
      <trkpt lat="48.74897" lon="-3.2858">
        <ele>-16</ele>
        <time>2015-11-10T14:52:43Z</time>
      </trkpt>
      <trkpt lat="48.74895" lon="-3.28594">
        <ele>-16</ele>
        <time>2015-11-10T14:52:45Z</time>
      </trkpt>
      <trkpt lat="48.74891" lon="-3.28617">
        <ele>-16</ele>
        <time>2015-11-10T14:52:48Z</time>
      </trkpt>
      <trkpt lat="48.74888" lon="-3.28633">
        <ele>-16</ele>
        <time>2015-11-10T14:52:50Z</time>
      </trkpt>
      <trkpt lat="48.74886" lon="-3.28649">
        <ele>-15</ele>
        <time>2015-11-10T14:52:52Z</time>
      </trkpt>
      <trkpt lat="48.74881" lon="-3.28673">
        <ele>-15</ele>
        <time>2015-11-10T14:52:55Z</time>
      </trkpt>
      <trkpt lat="48.74876" lon="-3.28696">
        <ele>-15</ele>
        <time>2015-11-10T14:52:58Z</time>
      </trkpt>
      <trkpt lat="48.74873" lon="-3.28712">
        <ele>-14</ele>
        <time>2015-11-10T14:53:00Z</time>
      </trkpt>
      <trkpt lat="48.74868" lon="-3.28735">
        <ele>-14</ele>
        <time>2015-11-10T14:53:03Z</time>
      </trkpt>
      <trkpt lat="48.74864" lon="-3.28752">
        <ele>-14</ele>
        <time>2015-11-10T14:53:05Z</time>
      </trkpt>
      <trkpt lat="48.74856" lon="-3.28778">
        <ele>-14</ele>
        <time>2015-11-10T14:53:08Z</time>
      </trkpt>
      <trkpt lat="48.7485" lon="-3.28798">
        <ele>-14</ele>
        <time>2015-11-10T14:53:10Z</time>
      </trkpt>
      <trkpt lat="48.74844" lon="-3.2882">
        <ele>-13</ele>
        <time>2015-11-10T14:53:12Z</time>
      </trkpt>
      <trkpt lat="48.74839" lon="-3.28843">
        <ele>-13</ele>
        <time>2015-11-10T14:53:14Z</time>
      </trkpt>
      <trkpt lat="48.74835" lon="-3.28877">
        <ele>-13</ele>
        <time>2015-11-10T14:53:17Z</time>
      </trkpt>
      <trkpt lat="48.7483" lon="-3.28909">
        <ele>-13</ele>
        <time>2015-11-10T14:53:20Z</time>
      </trkpt>
      <trkpt lat="48.74835" lon="-3.2894">
        <ele>-13</ele>
        <time>2015-11-10T14:53:23Z</time>
      </trkpt>
      <trkpt lat="48.74845" lon="-3.28977">
        <ele>-14</ele>
        <time>2015-11-10T14:53:27Z</time>
      </trkpt>
      <trkpt lat="48.74851" lon="-3.29005">
        <ele>-14</ele>
        <time>2015-11-10T14:53:31Z</time>
      </trkpt>
      <trkpt lat="48.74857" lon="-3.29028">
        <ele>-14</ele>
        <time>2015-11-10T14:53:35Z</time>
      </trkpt>
      <trkpt lat="48.74865" lon="-3.29053">
        <ele>-14</ele>
        <time>2015-11-10T14:53:40Z</time>
      </trkpt>
      <trkpt lat="48.74876" lon="-3.29072">
        <ele>-14</ele>
        <time>2015-11-10T14:53:43Z</time>
      </trkpt>
      <trkpt lat="48.7488" lon="-3.29095">
        <ele>-14</ele>
        <time>2015-11-10T14:53:48Z</time>
      </trkpt>
      <trkpt lat="48.7488" lon="-3.2912">
        <ele>-14</ele>
        <time>2015-11-10T14:53:54Z</time>
      </trkpt>
      <trkpt lat="48.74882" lon="-3.29145">
        <ele>-14</ele>
        <time>2015-11-10T14:54:00Z</time>
      </trkpt>
      <trkpt lat="48.74886" lon="-3.29168">
        <ele>-15</ele>
        <time>2015-11-10T14:54:05Z</time>
      </trkpt>
      <trkpt lat="48.74887" lon="-3.29191">
        <ele>-15</ele>
        <time>2015-11-10T14:54:10Z</time>
      </trkpt>
      <trkpt lat="48.74885" lon="-3.29206">
        <ele>-15</ele>
        <time>2015-11-10T14:54:13Z</time>
      </trkpt>
      <trkpt lat="48.74883" lon="-3.2922">
        <ele>-14</ele>
        <time>2015-11-10T14:54:16Z</time>
      </trkpt>
      <trkpt lat="48.74881" lon="-3.29233">
        <ele>-14</ele>
        <time>2015-11-10T14:54:19Z</time>
      </trkpt>
      <trkpt lat="48.74879" lon="-3.29247">
        <ele>-14</ele>
        <time>2015-11-10T14:54:22Z</time>
      </trkpt>
      <trkpt lat="48.74873" lon="-3.29273">
        <ele>-14</ele>
        <time>2015-11-10T14:54:28Z</time>
      </trkpt>
      <trkpt lat="48.74868" lon="-3.29295">
        <ele>-14</ele>
        <time>2015-11-10T14:54:33Z</time>
      </trkpt>
      <trkpt lat="48.74865" lon="-3.29308">
        <ele>-13</ele>
        <time>2015-11-10T14:54:36Z</time>
      </trkpt>
      <trkpt lat="48.74859" lon="-3.2933">
        <ele>-13</ele>
        <time>2015-11-10T14:54:41Z</time>
      </trkpt>
      <trkpt lat="48.74856" lon="-3.29343">
        <ele>-13</ele>
        <time>2015-11-10T14:54:44Z</time>
      </trkpt>
      <trkpt lat="48.74851" lon="-3.2936">
        <ele>-12</ele>
        <time>2015-11-10T14:54:48Z</time>
      </trkpt>
      <trkpt lat="48.74848" lon="-3.29373">
        <ele>-12</ele>
        <time>2015-11-10T14:54:51Z</time>
      </trkpt>
      <trkpt lat="48.74845" lon="-3.29387">
        <ele>-12</ele>
        <time>2015-11-10T14:54:54Z</time>
      </trkpt>
      <trkpt lat="48.74842" lon="-3.29399">
        <ele>-11</ele>
        <time>2015-11-10T14:54:57Z</time>
      </trkpt>
      <trkpt lat="48.74838" lon="-3.29422">
        <ele>-11</ele>
        <time>2015-11-10T14:55:02Z</time>
      </trkpt>
      <trkpt lat="48.74834" lon="-3.29446">
        <ele>-10</ele>
        <time>2015-11-10T14:55:08Z</time>
      </trkpt>
      <trkpt lat="48.74833" lon="-3.29471">
        <ele>-10</ele>
        <time>2015-11-10T14:55:14Z</time>
      </trkpt>
      <trkpt lat="48.74833" lon="-3.29496">
        <ele>-10</ele>
        <time>2015-11-10T14:55:19Z</time>
      </trkpt>
      <trkpt lat="48.74834" lon="-3.29523">
        <ele>-9</ele>
        <time>2015-11-10T14:55:24Z</time>
      </trkpt>
      <trkpt lat="48.7483" lon="-3.29543">
        <ele>-9</ele>
        <time>2015-11-10T14:55:28Z</time>
      </trkpt>
      <trkpt lat="48.7483" lon="-3.2957">
        <ele>-9</ele>
        <time>2015-11-10T14:55:33Z</time>
      </trkpt>
      <trkpt lat="48.74828" lon="-3.29596">
        <ele>-8</ele>
        <time>2015-11-10T14:55:38Z</time>
      </trkpt>
      <trkpt lat="48.74826" lon="-3.29611">
        <ele>-8</ele>
        <time>2015-11-10T14:55:41Z</time>
      </trkpt>
      <trkpt lat="48.74823" lon="-3.29625">
        <ele>-8</ele>
        <time>2015-11-10T14:55:44Z</time>
      </trkpt>
      <trkpt lat="48.7482" lon="-3.29639">
        <ele>-8</ele>
        <time>2015-11-10T14:55:47Z</time>
      </trkpt>
      <trkpt lat="48.74817" lon="-3.29654">
        <ele>-8</ele>
        <time>2015-11-10T14:55:50Z</time>
      </trkpt>
      <trkpt lat="48.74813" lon="-3.29673">
        <ele>-8</ele>
        <time>2015-11-10T14:55:54Z</time>
      </trkpt>
      <trkpt lat="48.74809" lon="-3.29691">
        <ele>-7</ele>
        <time>2015-11-10T14:55:58Z</time>
      </trkpt>
      <trkpt lat="48.74806" lon="-3.29705">
        <ele>-7</ele>
        <time>2015-11-10T14:56:01Z</time>
      </trkpt>
      <trkpt lat="48.74804" lon="-3.29718">
        <ele>-7</ele>
        <time>2015-11-10T14:56:04Z</time>
      </trkpt>
      <trkpt lat="48.74801" lon="-3.29731">
        <ele>-7</ele>
        <time>2015-11-10T14:56:07Z</time>
      </trkpt>
      <trkpt lat="48.748" lon="-3.29744">
        <ele>-7</ele>
        <time>2015-11-10T14:56:10Z</time>
      </trkpt>
      <trkpt lat="48.74797" lon="-3.29769">
        <ele>-6</ele>
        <time>2015-11-10T14:56:15Z</time>
      </trkpt>
      <trkpt lat="48.74797" lon="-3.298">
        <ele>-6</ele>
        <time>2015-11-10T14:56:21Z</time>
      </trkpt>
      <trkpt lat="48.74797" lon="-3.29816">
        <ele>-6</ele>
        <time>2015-11-10T14:56:24Z</time>
      </trkpt>
      <trkpt lat="48.74799" lon="-3.29839">
        <ele>-6</ele>
        <time>2015-11-10T14:56:28Z</time>
      </trkpt>
      <trkpt lat="48.748" lon="-3.29856">
        <ele>-7</ele>
        <time>2015-11-10T14:56:31Z</time>
      </trkpt>
      <trkpt lat="48.74804" lon="-3.29882">
        <ele>-8</ele>
        <time>2015-11-10T14:56:35Z</time>
      </trkpt>
      <trkpt lat="48.74807" lon="-3.29897">
        <ele>-8</ele>
        <time>2015-11-10T14:56:37Z</time>
      </trkpt>
      <trkpt lat="48.74811" lon="-3.29921">
        <ele>-9</ele>
        <time>2015-11-10T14:56:40Z</time>
      </trkpt>
      <trkpt lat="48.74814" lon="-3.29936">
        <ele>-10</ele>
        <time>2015-11-10T14:56:42Z</time>
      </trkpt>
      <trkpt lat="48.74818" lon="-3.29952">
        <ele>-10</ele>
        <time>2015-11-10T14:56:44Z</time>
      </trkpt>
      <trkpt lat="48.74824" lon="-3.29977">
        <ele>-11</ele>
        <time>2015-11-10T14:56:47Z</time>
      </trkpt>
      <trkpt lat="48.74827" lon="-3.29996">
        <ele>-12</ele>
        <time>2015-11-10T14:56:49Z</time>
      </trkpt>
      <trkpt lat="48.74828" lon="-3.30025">
        <ele>-12</ele>
        <time>2015-11-10T14:56:52Z</time>
      </trkpt>
      <trkpt lat="48.74828" lon="-3.30044">
        <ele>-12</ele>
        <time>2015-11-10T14:56:54Z</time>
      </trkpt>
      <trkpt lat="48.74827" lon="-3.3007">
        <ele>-13</ele>
        <time>2015-11-10T14:56:57Z</time>
      </trkpt>
      <trkpt lat="48.74827" lon="-3.30097">
        <ele>-13</ele>
        <time>2015-11-10T14:57:00Z</time>
      </trkpt>
      <trkpt lat="48.74826" lon="-3.30147">
        <ele>-13</ele>
        <time>2015-11-10T14:57:06Z</time>
      </trkpt>
      <trkpt lat="48.74822" lon="-3.30175">
        <ele>-13</ele>
        <time>2015-11-10T14:57:09Z</time>
      </trkpt>
      <trkpt lat="48.74818" lon="-3.30205">
        <ele>-14</ele>
        <time>2015-11-10T14:57:12Z</time>
      </trkpt>
      <trkpt lat="48.74816" lon="-3.30226">
        <ele>-14</ele>
        <time>2015-11-10T14:57:14Z</time>
      </trkpt>
      <trkpt lat="48.74815" lon="-3.30258">
        <ele>-14</ele>
        <time>2015-11-10T14:57:17Z</time>
      </trkpt>
      <trkpt lat="48.74814" lon="-3.30279">
        <ele>-14</ele>
        <time>2015-11-10T14:57:19Z</time>
      </trkpt>
      <trkpt lat="48.74814" lon="-3.30301">
        <ele>-14</ele>
        <time>2015-11-10T14:57:21Z</time>
      </trkpt>
      <trkpt lat="48.74813" lon="-3.30332">
        <ele>-14</ele>
        <time>2015-11-10T14:57:24Z</time>
      </trkpt>
      <trkpt lat="48.74812" lon="-3.30365">
        <ele>-14</ele>
        <time>2015-11-10T14:57:27Z</time>
      </trkpt>
      <trkpt lat="48.74812" lon="-3.30387">
        <ele>-15</ele>
        <time>2015-11-10T14:57:29Z</time>
      </trkpt>
      <trkpt lat="48.74812" lon="-3.30419">
        <ele>-15</ele>
        <time>2015-11-10T14:57:32Z</time>
      </trkpt>
      <trkpt lat="48.74813" lon="-3.30453">
        <ele>-15</ele>
        <time>2015-11-10T14:57:35Z</time>
      </trkpt>
      <trkpt lat="48.74817" lon="-3.30478">
        <ele>-15</ele>
        <time>2015-11-10T14:57:37Z</time>
      </trkpt>
      <trkpt lat="48.7482" lon="-3.30505">
        <ele>-15</ele>
        <time>2015-11-10T14:57:39Z</time>
      </trkpt>
      <trkpt lat="48.74822" lon="-3.3053">
        <ele>-15</ele>
        <time>2015-11-10T14:57:41Z</time>
      </trkpt>
      <trkpt lat="48.74823" lon="-3.30555">
        <ele>-15</ele>
        <time>2015-11-10T14:57:43Z</time>
      </trkpt>
      <trkpt lat="48.74824" lon="-3.30579">
        <ele>-15</ele>
        <time>2015-11-10T14:57:45Z</time>
      </trkpt>
      <trkpt lat="48.74825" lon="-3.30603">
        <ele>-16</ele>
        <time>2015-11-10T14:57:47Z</time>
      </trkpt>
      <trkpt lat="48.74825" lon="-3.3065">
        <ele>-16</ele>
        <time>2015-11-10T14:57:51Z</time>
      </trkpt>
      <trkpt lat="48.74825" lon="-3.30674">
        <ele>-16</ele>
        <time>2015-11-10T14:57:53Z</time>
      </trkpt>
      <trkpt lat="48.74826" lon="-3.30698">
        <ele>-16</ele>
        <time>2015-11-10T14:57:55Z</time>
      </trkpt>
      <trkpt lat="48.74826" lon="-3.30722">
        <ele>-17</ele>
        <time>2015-11-10T14:57:57Z</time>
      </trkpt>
      <trkpt lat="48.74825" lon="-3.30746">
        <ele>-17</ele>
        <time>2015-11-10T14:57:59Z</time>
      </trkpt>
      <trkpt lat="48.74823" lon="-3.3077">
        <ele>-17</ele>
        <time>2015-11-10T14:58:01Z</time>
      </trkpt>
      <trkpt lat="48.74819" lon="-3.30803">
        <ele>-18</ele>
        <time>2015-11-10T14:58:04Z</time>
      </trkpt>
      <trkpt lat="48.74816" lon="-3.30835">
        <ele>-18</ele>
        <time>2015-11-10T14:58:07Z</time>
      </trkpt>
      <trkpt lat="48.74809" lon="-3.30877">
        <ele>-18</ele>
        <time>2015-11-10T14:58:11Z</time>
      </trkpt>
      <trkpt lat="48.74803" lon="-3.30905">
        <ele>-19</ele>
        <time>2015-11-10T14:58:14Z</time>
      </trkpt>
      <trkpt lat="48.74799" lon="-3.3093">
        <ele>-19</ele>
        <time>2015-11-10T14:58:17Z</time>
      </trkpt>
      <trkpt lat="48.74792" lon="-3.30955">
        <ele>-19</ele>
        <time>2015-11-10T14:58:21Z</time>
      </trkpt>
      <trkpt lat="48.74797" lon="-3.30981">
        <ele>-20</ele>
        <time>2015-11-10T14:58:26Z</time>
      </trkpt>
      <trkpt lat="48.74806" lon="-3.31007">
        <ele>-20</ele>
        <time>2015-11-10T14:58:31Z</time>
      </trkpt>
      <trkpt lat="48.74813" lon="-3.31032">
        <ele>-21</ele>
        <time>2015-11-10T14:58:36Z</time>
      </trkpt>
      <trkpt lat="48.74816" lon="-3.31059">
        <ele>-21</ele>
        <time>2015-11-10T14:58:42Z</time>
      </trkpt>
      <trkpt lat="48.7482" lon="-3.31084">
        <ele>-22</ele>
        <time>2015-11-10T14:58:48Z</time>
      </trkpt>
      <trkpt lat="48.74823" lon="-3.31108">
        <ele>-21</ele>
        <time>2015-11-10T14:58:54Z</time>
      </trkpt>
      <trkpt lat="48.74827" lon="-3.31133">
        <ele>-21</ele>
        <time>2015-11-10T14:59:00Z</time>
      </trkpt>
      <trkpt lat="48.74828" lon="-3.31157">
        <ele>-21</ele>
        <time>2015-11-10T14:59:06Z</time>
      </trkpt>
      <trkpt lat="48.74831" lon="-3.3118">
        <ele>-20</ele>
        <time>2015-11-10T14:59:12Z</time>
      </trkpt>
      <trkpt lat="48.74835" lon="-3.31206">
        <ele>-20</ele>
        <time>2015-11-10T14:59:18Z</time>
      </trkpt>
      <trkpt lat="48.74837" lon="-3.3123">
        <ele>-20</ele>
        <time>2015-11-10T14:59:24Z</time>
      </trkpt>
      <trkpt lat="48.74837" lon="-3.31254">
        <ele>-20</ele>
        <time>2015-11-10T14:59:30Z</time>
      </trkpt>
      <trkpt lat="48.74836" lon="-3.31275">
        <ele>-19</ele>
        <time>2015-11-10T14:59:36Z</time>
      </trkpt>
      <trkpt lat="48.74835" lon="-3.31301">
        <ele>-18</ele>
        <time>2015-11-10T14:59:43Z</time>
      </trkpt>
      <trkpt lat="48.74834" lon="-3.3132">
        <ele>-18</ele>
        <time>2015-11-10T14:59:48Z</time>
      </trkpt>
      <trkpt lat="48.74833" lon="-3.31339">
        <ele>-17</ele>
        <time>2015-11-10T14:59:53Z</time>
      </trkpt>
      <trkpt lat="48.74832" lon="-3.31352">
        <ele>-16</ele>
        <time>2015-11-10T14:59:57Z</time>
      </trkpt>
      <trkpt lat="48.74831" lon="-3.31366">
        <ele>-16</ele>
        <time>2015-11-10T15:00:01Z</time>
      </trkpt>
      <trkpt lat="48.7483" lon="-3.3139">
        <ele>-15</ele>
        <time>2015-11-10T15:00:09Z</time>
      </trkpt>
      <trkpt lat="48.74828" lon="-3.31406">
        <ele>-15</ele>
        <time>2015-11-10T15:00:13Z</time>
      </trkpt>
      <trkpt lat="48.74826" lon="-3.31422">
        <ele>-14</ele>
        <time>2015-11-10T15:00:16Z</time>
      </trkpt>
      <trkpt lat="48.74824" lon="-3.31435">
        <ele>-14</ele>
        <time>2015-11-10T15:00:18Z</time>
      </trkpt>
      <trkpt lat="48.74822" lon="-3.31448">
        <ele>-14</ele>
        <time>2015-11-10T15:00:20Z</time>
      </trkpt>
      <trkpt lat="48.7482" lon="-3.31462">
        <ele>-13</ele>
        <time>2015-11-10T15:00:22Z</time>
      </trkpt>
      <trkpt lat="48.74818" lon="-3.31476">
        <ele>-13</ele>
        <time>2015-11-10T15:00:24Z</time>
      </trkpt>
      <trkpt lat="48.74816" lon="-3.31489">
        <ele>-13</ele>
        <time>2015-11-10T15:00:26Z</time>
      </trkpt>
      <trkpt lat="48.74812" lon="-3.31516">
        <ele>-13</ele>
        <time>2015-11-10T15:00:30Z</time>
      </trkpt>
      <trkpt lat="48.7481" lon="-3.31529">
        <ele>-12</ele>
        <time>2015-11-10T15:00:32Z</time>
      </trkpt>
      <trkpt lat="48.74808" lon="-3.3155">
        <ele>-12</ele>
        <time>2015-11-10T15:00:35Z</time>
      </trkpt>
      <trkpt lat="48.74807" lon="-3.31563">
        <ele>-12</ele>
        <time>2015-11-10T15:00:37Z</time>
      </trkpt>
      <trkpt lat="48.74806" lon="-3.31577">
        <ele>-12</ele>
        <time>2015-11-10T15:00:39Z</time>
      </trkpt>
      <trkpt lat="48.74805" lon="-3.31591">
        <ele>-12</ele>
        <time>2015-11-10T15:00:41Z</time>
      </trkpt>
      <trkpt lat="48.74803" lon="-3.31613">
        <ele>-11</ele>
        <time>2015-11-10T15:00:44Z</time>
      </trkpt>
      <trkpt lat="48.74801" lon="-3.31628">
        <ele>-11</ele>
        <time>2015-11-10T15:00:46Z</time>
      </trkpt>
      <trkpt lat="48.748" lon="-3.31643">
        <ele>-11</ele>
        <time>2015-11-10T15:00:48Z</time>
      </trkpt>
      <trkpt lat="48.74798" lon="-3.31659">
        <ele>-11</ele>
        <time>2015-11-10T15:00:50Z</time>
      </trkpt>
      <trkpt lat="48.74795" lon="-3.31681">
        <ele>-11</ele>
        <time>2015-11-10T15:00:53Z</time>
      </trkpt>
      <trkpt lat="48.74793" lon="-3.31697">
        <ele>-11</ele>
        <time>2015-11-10T15:00:55Z</time>
      </trkpt>
      <trkpt lat="48.74789" lon="-3.31719">
        <ele>-11</ele>
        <time>2015-11-10T15:00:58Z</time>
      </trkpt>
      <trkpt lat="48.74783" lon="-3.31749">
        <ele>-11</ele>
        <time>2015-11-10T15:01:02Z</time>
      </trkpt>
      <trkpt lat="48.74781" lon="-3.31764">
        <ele>-11</ele>
        <time>2015-11-10T15:01:04Z</time>
      </trkpt>
      <trkpt lat="48.74778" lon="-3.3178">
        <ele>-11</ele>
        <time>2015-11-10T15:01:06Z</time>
      </trkpt>
      <trkpt lat="48.74775" lon="-3.31796">
        <ele>-10</ele>
        <time>2015-11-10T15:01:08Z</time>
      </trkpt>
      <trkpt lat="48.74772" lon="-3.31812">
        <ele>-10</ele>
        <time>2015-11-10T15:01:10Z</time>
      </trkpt>
      <trkpt lat="48.74767" lon="-3.31835">
        <ele>-10</ele>
        <time>2015-11-10T15:01:13Z</time>
      </trkpt>
      <trkpt lat="48.74764" lon="-3.3185">
        <ele>-10</ele>
        <time>2015-11-10T15:01:15Z</time>
      </trkpt>
      <trkpt lat="48.7476" lon="-3.31865">
        <ele>-10</ele>
        <time>2015-11-10T15:01:17Z</time>
      </trkpt>
      <trkpt lat="48.74757" lon="-3.3188">
        <ele>-10</ele>
        <time>2015-11-10T15:01:19Z</time>
      </trkpt>
      <trkpt lat="48.74751" lon="-3.31903">
        <ele>-9</ele>
        <time>2015-11-10T15:01:22Z</time>
      </trkpt>
      <trkpt lat="48.74747" lon="-3.31918">
        <ele>-9</ele>
        <time>2015-11-10T15:01:24Z</time>
      </trkpt>
      <trkpt lat="48.74744" lon="-3.31933">
        <ele>-9</ele>
        <time>2015-11-10T15:01:26Z</time>
      </trkpt>
      <trkpt lat="48.74741" lon="-3.31948">
        <ele>-9</ele>
        <time>2015-11-10T15:01:28Z</time>
      </trkpt>
      <trkpt lat="48.74738" lon="-3.31963">
        <ele>-9</ele>
        <time>2015-11-10T15:01:30Z</time>
      </trkpt>
      <trkpt lat="48.74733" lon="-3.31992">
        <ele>-8</ele>
        <time>2015-11-10T15:01:34Z</time>
      </trkpt>
      <trkpt lat="48.74732" lon="-3.32005">
        <ele>-8</ele>
        <time>2015-11-10T15:01:36Z</time>
      </trkpt>
      <trkpt lat="48.7473" lon="-3.32024">
        <ele>-8</ele>
        <time>2015-11-10T15:01:39Z</time>
      </trkpt>
      <trkpt lat="48.74728" lon="-3.32048">
        <ele>-8</ele>
        <time>2015-11-10T15:01:43Z</time>
      </trkpt>
      <trkpt lat="48.74726" lon="-3.32077">
        <ele>-8</ele>
        <time>2015-11-10T15:01:48Z</time>
      </trkpt>
      <trkpt lat="48.74725" lon="-3.32104">
        <ele>-7</ele>
        <time>2015-11-10T15:01:53Z</time>
      </trkpt>
      <trkpt lat="48.74724" lon="-3.32126">
        <ele>-7</ele>
        <time>2015-11-10T15:01:57Z</time>
      </trkpt>
      <trkpt lat="48.74721" lon="-3.32152">
        <ele>-7</ele>
        <time>2015-11-10T15:02:02Z</time>
      </trkpt>
      <trkpt lat="48.74718" lon="-3.32174">
        <ele>-7</ele>
        <time>2015-11-10T15:02:06Z</time>
      </trkpt>
      <trkpt lat="48.74716" lon="-3.3219">
        <ele>-6</ele>
        <time>2015-11-10T15:02:09Z</time>
      </trkpt>
      <trkpt lat="48.74713" lon="-3.32207">
        <ele>-6</ele>
        <time>2015-11-10T15:02:12Z</time>
      </trkpt>
      <trkpt lat="48.74711" lon="-3.32223">
        <ele>-6</ele>
        <time>2015-11-10T15:02:15Z</time>
      </trkpt>
      <trkpt lat="48.74708" lon="-3.32244">
        <ele>-7</ele>
        <time>2015-11-10T15:02:19Z</time>
      </trkpt>
      <trkpt lat="48.74703" lon="-3.3227">
        <ele>-7</ele>
        <time>2015-11-10T15:02:24Z</time>
      </trkpt>
      <trkpt lat="48.747" lon="-3.32286">
        <ele>-7</ele>
        <time>2015-11-10T15:02:27Z</time>
      </trkpt>
      <trkpt lat="48.74696" lon="-3.32302">
        <ele>-7</ele>
        <time>2015-11-10T15:02:30Z</time>
      </trkpt>
      <trkpt lat="48.74692" lon="-3.32318">
        <ele>-7</ele>
        <time>2015-11-10T15:02:33Z</time>
      </trkpt>
      <trkpt lat="48.74687" lon="-3.3234">
        <ele>-8</ele>
        <time>2015-11-10T15:02:37Z</time>
      </trkpt>
      <trkpt lat="48.74684" lon="-3.32356">
        <ele>-8</ele>
        <time>2015-11-10T15:02:40Z</time>
      </trkpt>
      <trkpt lat="48.74679" lon="-3.32377">
        <ele>-8</ele>
        <time>2015-11-10T15:02:44Z</time>
      </trkpt>
      <trkpt lat="48.74675" lon="-3.32398">
        <ele>-8</ele>
        <time>2015-11-10T15:02:48Z</time>
      </trkpt>
      <trkpt lat="48.74671" lon="-3.32414">
        <ele>-8</ele>
        <time>2015-11-10T15:02:51Z</time>
      </trkpt>
      <trkpt lat="48.74664" lon="-3.3244">
        <ele>-8</ele>
        <time>2015-11-10T15:02:56Z</time>
      </trkpt>
      <trkpt lat="48.7466" lon="-3.32456">
        <ele>-8</ele>
        <time>2015-11-10T15:02:59Z</time>
      </trkpt>
      <trkpt lat="48.74656" lon="-3.32472">
        <ele>-8</ele>
        <time>2015-11-10T15:03:02Z</time>
      </trkpt>
      <trkpt lat="48.74649" lon="-3.32498">
        <ele>-8</ele>
        <time>2015-11-10T15:03:07Z</time>
      </trkpt>
      <trkpt lat="48.74644" lon="-3.32514">
        <ele>-8</ele>
        <time>2015-11-10T15:03:10Z</time>
      </trkpt>
      <trkpt lat="48.74639" lon="-3.32535">
        <ele>-8</ele>
        <time>2015-11-10T15:03:14Z</time>
      </trkpt>
      <trkpt lat="48.74635" lon="-3.32551">
        <ele>-8</ele>
        <time>2015-11-10T15:03:17Z</time>
      </trkpt>
      <trkpt lat="48.74632" lon="-3.32567">
        <ele>-7</ele>
        <time>2015-11-10T15:03:20Z</time>
      </trkpt>
      <trkpt lat="48.74629" lon="-3.32583">
        <ele>-7</ele>
        <time>2015-11-10T15:03:23Z</time>
      </trkpt>
      <trkpt lat="48.74627" lon="-3.32605">
        <ele>-7</ele>
        <time>2015-11-10T15:03:27Z</time>
      </trkpt>
      <trkpt lat="48.74624" lon="-3.3263">
        <ele>-7</ele>
        <time>2015-11-10T15:03:31Z</time>
      </trkpt>
      <trkpt lat="48.74623" lon="-3.32656">
        <ele>-7</ele>
        <time>2015-11-10T15:03:35Z</time>
      </trkpt>
      <trkpt lat="48.74623" lon="-3.32671">
        <ele>-7</ele>
        <time>2015-11-10T15:03:37Z</time>
      </trkpt>
      <trkpt lat="48.74623" lon="-3.327">
        <ele>-7</ele>
        <time>2015-11-10T15:03:41Z</time>
      </trkpt>
      <trkpt lat="48.74623" lon="-3.32714">
        <ele>-6</ele>
        <time>2015-11-10T15:03:43Z</time>
      </trkpt>
      <trkpt lat="48.74624" lon="-3.32737">
        <ele>-6</ele>
        <time>2015-11-10T15:03:46Z</time>
      </trkpt>
      <trkpt lat="48.74626" lon="-3.3276">
        <ele>-6</ele>
        <time>2015-11-10T15:03:49Z</time>
      </trkpt>
      <trkpt lat="48.74628" lon="-3.32776">
        <ele>-6</ele>
        <time>2015-11-10T15:03:51Z</time>
      </trkpt>
      <trkpt lat="48.7463" lon="-3.32799">
        <ele>-6</ele>
        <time>2015-11-10T15:03:54Z</time>
      </trkpt>
      <trkpt lat="48.74633" lon="-3.32823">
        <ele>-6</ele>
        <time>2015-11-10T15:03:57Z</time>
      </trkpt>
      <trkpt lat="48.74636" lon="-3.32848">
        <ele>-6</ele>
        <time>2015-11-10T15:04:00Z</time>
      </trkpt>
      <trkpt lat="48.74639" lon="-3.32873">
        <ele>-6</ele>
        <time>2015-11-10T15:04:03Z</time>
      </trkpt>
      <trkpt lat="48.7464" lon="-3.3289">
        <ele>-5</ele>
        <time>2015-11-10T15:04:05Z</time>
      </trkpt>
      <trkpt lat="48.74642" lon="-3.32907">
        <ele>-5</ele>
        <time>2015-11-10T15:04:07Z</time>
      </trkpt>
      <trkpt lat="48.74643" lon="-3.32924">
        <ele>-5</ele>
        <time>2015-11-10T15:04:09Z</time>
      </trkpt>
      <trkpt lat="48.74644" lon="-3.3295">
        <ele>-5</ele>
        <time>2015-11-10T15:04:12Z</time>
      </trkpt>
      <trkpt lat="48.74645" lon="-3.32967">
        <ele>-5</ele>
        <time>2015-11-10T15:04:14Z</time>
      </trkpt>
      <trkpt lat="48.74646" lon="-3.32984">
        <ele>-5</ele>
        <time>2015-11-10T15:04:16Z</time>
      </trkpt>
      <trkpt lat="48.74647" lon="-3.33009">
        <ele>-5</ele>
        <time>2015-11-10T15:04:19Z</time>
      </trkpt>
      <trkpt lat="48.74648" lon="-3.33025">
        <ele>-5</ele>
        <time>2015-11-10T15:04:21Z</time>
      </trkpt>
      <trkpt lat="48.74653" lon="-3.33044">
        <ele>-6</ele>
        <time>2015-11-10T15:04:24Z</time>
      </trkpt>
      <trkpt lat="48.74654" lon="-3.33047">
        <ele>-6</ele>
        <time>2015-11-10T15:05:08Z</time>
      </trkpt>
      <trkpt lat="48.74648" lon="-3.33071">
        <ele>-7</ele>
        <time>2015-11-10T15:11:18Z</time>
      </trkpt>
      <trkpt lat="48.74649" lon="-3.33096">
        <ele>-7</ele>
        <time>2015-11-10T15:11:23Z</time>
      </trkpt>
      <trkpt lat="48.74651" lon="-3.33111">
        <ele>-8</ele>
        <time>2015-11-10T15:11:26Z</time>
      </trkpt>
      <trkpt lat="48.74654" lon="-3.33128">
        <ele>-8</ele>
        <time>2015-11-10T15:11:29Z</time>
      </trkpt>
      <trkpt lat="48.74656" lon="-3.33146">
        <ele>-8</ele>
        <time>2015-11-10T15:11:32Z</time>
      </trkpt>
      <trkpt lat="48.7466" lon="-3.33171">
        <ele>-8</ele>
        <time>2015-11-10T15:11:36Z</time>
      </trkpt>
      <trkpt lat="48.74663" lon="-3.332">
        <ele>-8</ele>
        <time>2015-11-10T15:11:40Z</time>
      </trkpt>
      <trkpt lat="48.74666" lon="-3.33224">
        <ele>-8</ele>
        <time>2015-11-10T15:11:43Z</time>
      </trkpt>
      <trkpt lat="48.74669" lon="-3.3324">
        <ele>-7</ele>
        <time>2015-11-10T15:11:45Z</time>
      </trkpt>
      <trkpt lat="48.74671" lon="-3.33257">
        <ele>-7</ele>
        <time>2015-11-10T15:11:47Z</time>
      </trkpt>
      <trkpt lat="48.74675" lon="-3.33281">
        <ele>-7</ele>
        <time>2015-11-10T15:11:50Z</time>
      </trkpt>
      <trkpt lat="48.74678" lon="-3.33297">
        <ele>-7</ele>
        <time>2015-11-10T15:11:52Z</time>
      </trkpt>
      <trkpt lat="48.74681" lon="-3.33322">
        <ele>-6</ele>
        <time>2015-11-10T15:11:55Z</time>
      </trkpt>
      <trkpt lat="48.74683" lon="-3.33339">
        <ele>-6</ele>
        <time>2015-11-10T15:11:57Z</time>
      </trkpt>
      <trkpt lat="48.74685" lon="-3.33355">
        <ele>-6</ele>
        <time>2015-11-10T15:11:59Z</time>
      </trkpt>
      <trkpt lat="48.74694" lon="-3.33404">
        <ele>-6</ele>
        <time>2015-11-10T15:12:05Z</time>
      </trkpt>
      <trkpt lat="48.74701" lon="-3.33438">
        <ele>-6</ele>
        <time>2015-11-10T15:12:09Z</time>
      </trkpt>
      <trkpt lat="48.74707" lon="-3.33462">
        <ele>-6</ele>
        <time>2015-11-10T15:12:12Z</time>
      </trkpt>
      <trkpt lat="48.74714" lon="-3.33509">
        <ele>-7</ele>
        <time>2015-11-10T15:12:18Z</time>
      </trkpt>
      <trkpt lat="48.74712" lon="-3.33567">
        <ele>-7</ele>
        <time>2015-11-10T15:12:24Z</time>
      </trkpt>
      <trkpt lat="48.74711" lon="-3.33594">
        <ele>-7</ele>
        <time>2015-11-10T15:12:26Z</time>
      </trkpt>
      <trkpt lat="48.74709" lon="-3.33624">
        <ele>-7</ele>
        <time>2015-11-10T15:12:28Z</time>
      </trkpt>
      <trkpt lat="48.74708" lon="-3.33654">
        <ele>-8</ele>
        <time>2015-11-10T15:12:30Z</time>
      </trkpt>
      <trkpt lat="48.74709" lon="-3.33682">
        <ele>-8</ele>
        <time>2015-11-10T15:12:32Z</time>
      </trkpt>
      <trkpt lat="48.74712" lon="-3.33709">
        <ele>-9</ele>
        <time>2015-11-10T15:12:34Z</time>
      </trkpt>
      <trkpt lat="48.74716" lon="-3.33735">
        <ele>-9</ele>
        <time>2015-11-10T15:12:36Z</time>
      </trkpt>
      <trkpt lat="48.74721" lon="-3.33758">
        <ele>-9</ele>
        <time>2015-11-10T15:12:38Z</time>
      </trkpt>
      <trkpt lat="48.74725" lon="-3.33788">
        <ele>-10</ele>
        <time>2015-11-10T15:12:41Z</time>
      </trkpt>
      <trkpt lat="48.74724" lon="-3.33815">
        <ele>-10</ele>
        <time>2015-11-10T15:12:44Z</time>
      </trkpt>
      <trkpt lat="48.74719" lon="-3.3384">
        <ele>-10</ele>
        <time>2015-11-10T15:12:47Z</time>
      </trkpt>
      <trkpt lat="48.74714" lon="-3.33862">
        <ele>-11</ele>
        <time>2015-11-10T15:12:51Z</time>
      </trkpt>
      <trkpt lat="48.74707" lon="-3.33883">
        <ele>-11</ele>
        <time>2015-11-10T15:12:57Z</time>
      </trkpt>
      <trkpt lat="48.74697" lon="-3.33907">
        <ele>-12</ele>
        <time>2015-11-10T15:13:03Z</time>
      </trkpt>
      <trkpt lat="48.74689" lon="-3.33929">
        <ele>-12</ele>
        <time>2015-11-10T15:13:08Z</time>
      </trkpt>
      <trkpt lat="48.74681" lon="-3.33953">
        <ele>-13</ele>
        <time>2015-11-10T15:13:13Z</time>
      </trkpt>
      <trkpt lat="48.74676" lon="-3.33967">
        <ele>-13</ele>
        <time>2015-11-10T15:13:16Z</time>
      </trkpt>
      <trkpt lat="48.74671" lon="-3.3398">
        <ele>-14</ele>
        <time>2015-11-10T15:13:19Z</time>
      </trkpt>
      <trkpt lat="48.74664" lon="-3.34003">
        <ele>-14</ele>
        <time>2015-11-10T15:13:24Z</time>
      </trkpt>
      <trkpt lat="48.74658" lon="-3.34024">
        <ele>-15</ele>
        <time>2015-11-10T15:13:29Z</time>
      </trkpt>
      <trkpt lat="48.74655" lon="-3.34047">
        <ele>-15</ele>
        <time>2015-11-10T15:13:34Z</time>
      </trkpt>
      <trkpt lat="48.74652" lon="-3.34072">
        <ele>-15</ele>
        <time>2015-11-10T15:13:39Z</time>
      </trkpt>
      <trkpt lat="48.74649" lon="-3.34086">
        <ele>-14</ele>
        <time>2015-11-10T15:13:42Z</time>
      </trkpt>
      <trkpt lat="48.74643" lon="-3.3411">
        <ele>-14</ele>
        <time>2015-11-10T15:13:47Z</time>
      </trkpt>
      <trkpt lat="48.74634" lon="-3.34131">
        <ele>-14</ele>
        <time>2015-11-10T15:13:52Z</time>
      </trkpt>
      <trkpt lat="48.74628" lon="-3.34142">
        <ele>-14</ele>
        <time>2015-11-10T15:13:55Z</time>
      </trkpt>
      <trkpt lat="48.74622" lon="-3.34151">
        <ele>-14</ele>
        <time>2015-11-10T15:13:58Z</time>
      </trkpt>
      <trkpt lat="48.74614" lon="-3.3416">
        <ele>-15</ele>
        <time>2015-11-10T15:14:01Z</time>
      </trkpt>
      <trkpt lat="48.74607" lon="-3.34168">
        <ele>-15</ele>
        <time>2015-11-10T15:14:04Z</time>
      </trkpt>
      <trkpt lat="48.74599" lon="-3.34175">
        <ele>-15</ele>
        <time>2015-11-10T15:14:07Z</time>
      </trkpt>
      <trkpt lat="48.74591" lon="-3.34183">
        <ele>-15</ele>
        <time>2015-11-10T15:14:10Z</time>
      </trkpt>
      <trkpt lat="48.74579" lon="-3.34197">
        <ele>-15</ele>
        <time>2015-11-10T15:14:15Z</time>
      </trkpt>
      <trkpt lat="48.7457" lon="-3.3421">
        <ele>-15</ele>
        <time>2015-11-10T15:14:19Z</time>
      </trkpt>
      <trkpt lat="48.74564" lon="-3.34221">
        <ele>-15</ele>
        <time>2015-11-10T15:14:22Z</time>
      </trkpt>
      <trkpt lat="48.74557" lon="-3.34237">
        <ele>-15</ele>
        <time>2015-11-10T15:14:26Z</time>
      </trkpt>
      <trkpt lat="48.74552" lon="-3.34248">
        <ele>-15</ele>
        <time>2015-11-10T15:14:29Z</time>
      </trkpt>
      <trkpt lat="48.74545" lon="-3.34263">
        <ele>-14</ele>
        <time>2015-11-10T15:14:33Z</time>
      </trkpt>
      <trkpt lat="48.74539" lon="-3.34278">
        <ele>-14</ele>
        <time>2015-11-10T15:14:37Z</time>
      </trkpt>
      <trkpt lat="48.74528" lon="-3.34299">
        <ele>-14</ele>
        <time>2015-11-10T15:14:43Z</time>
      </trkpt>
      <trkpt lat="48.74522" lon="-3.34314">
        <ele>-13</ele>
        <time>2015-11-10T15:14:47Z</time>
      </trkpt>
      <trkpt lat="48.74513" lon="-3.34338">
        <ele>-13</ele>
        <time>2015-11-10T15:14:53Z</time>
      </trkpt>
      <trkpt lat="48.74504" lon="-3.34361">
        <ele>-13</ele>
        <time>2015-11-10T15:14:59Z</time>
      </trkpt>
      <trkpt lat="48.7449" lon="-3.34392">
        <ele>-13</ele>
        <time>2015-11-10T15:15:07Z</time>
      </trkpt>
      <trkpt lat="48.7448" lon="-3.34413">
        <ele>-12</ele>
        <time>2015-11-10T15:15:12Z</time>
      </trkpt>
      <trkpt lat="48.74471" lon="-3.34434">
        <ele>-11</ele>
        <time>2015-11-10T15:15:17Z</time>
      </trkpt>
      <trkpt lat="48.74465" lon="-3.34447">
        <ele>-11</ele>
        <time>2015-11-10T15:15:20Z</time>
      </trkpt>
      <trkpt lat="48.74457" lon="-3.34469">
        <ele>-11</ele>
        <time>2015-11-10T15:15:25Z</time>
      </trkpt>
      <trkpt lat="48.74451" lon="-3.34486">
        <ele>-10</ele>
        <time>2015-11-10T15:15:29Z</time>
      </trkpt>
      <trkpt lat="48.74444" lon="-3.34507">
        <ele>-10</ele>
        <time>2015-11-10T15:15:34Z</time>
      </trkpt>
      <trkpt lat="48.74433" lon="-3.34532">
        <ele>-9</ele>
        <time>2015-11-10T15:15:39Z</time>
      </trkpt>
      <trkpt lat="48.74422" lon="-3.34553">
        <ele>-9</ele>
        <time>2015-11-10T15:15:43Z</time>
      </trkpt>
      <trkpt lat="48.7441" lon="-3.34573">
        <ele>-9</ele>
        <time>2015-11-10T15:15:47Z</time>
      </trkpt>
      <trkpt lat="48.74397" lon="-3.34592">
        <ele>-8</ele>
        <time>2015-11-10T15:15:51Z</time>
      </trkpt>
      <trkpt lat="48.7439" lon="-3.34601">
        <ele>-8</ele>
        <time>2015-11-10T15:15:53Z</time>
      </trkpt>
      <trkpt lat="48.74384" lon="-3.3461">
        <ele>-8</ele>
        <time>2015-11-10T15:15:55Z</time>
      </trkpt>
      <trkpt lat="48.74368" lon="-3.34635">
        <ele>-8</ele>
        <time>2015-11-10T15:16:00Z</time>
      </trkpt>
      <trkpt lat="48.74352" lon="-3.34667">
        <ele>-8</ele>
        <time>2015-11-10T15:16:05Z</time>
      </trkpt>
      <trkpt lat="48.74346" lon="-3.3468">
        <ele>-7</ele>
        <time>2015-11-10T15:16:07Z</time>
      </trkpt>
      <trkpt lat="48.74333" lon="-3.34699">
        <ele>-7</ele>
        <time>2015-11-10T15:16:10Z</time>
      </trkpt>
      <trkpt lat="48.74324" lon="-3.34709">
        <ele>-7</ele>
        <time>2015-11-10T15:16:12Z</time>
      </trkpt>
      <trkpt lat="48.74308" lon="-3.34722">
        <ele>-7</ele>
        <time>2015-11-10T15:16:15Z</time>
      </trkpt>
      <trkpt lat="48.74291" lon="-3.34735">
        <ele>-7</ele>
        <time>2015-11-10T15:16:18Z</time>
      </trkpt>
      <trkpt lat="48.74279" lon="-3.34745">
        <ele>-6</ele>
        <time>2015-11-10T15:16:20Z</time>
      </trkpt>
      <trkpt lat="48.74261" lon="-3.34761">
        <ele>-6</ele>
        <time>2015-11-10T15:16:23Z</time>
      </trkpt>
      <trkpt lat="48.74244" lon="-3.34779">
        <ele>-6</ele>
        <time>2015-11-10T15:16:26Z</time>
      </trkpt>
      <trkpt lat="48.74224" lon="-3.34806">
        <ele>-6</ele>
        <time>2015-11-10T15:16:30Z</time>
      </trkpt>
      <trkpt lat="48.74205" lon="-3.34832">
        <ele>-6</ele>
        <time>2015-11-10T15:16:34Z</time>
      </trkpt>
      <trkpt lat="48.74193" lon="-3.34856">
        <ele>-6</ele>
        <time>2015-11-10T15:16:37Z</time>
      </trkpt>
      <trkpt lat="48.74183" lon="-3.34882">
        <ele>-6</ele>
        <time>2015-11-10T15:16:40Z</time>
      </trkpt>
      <trkpt lat="48.74173" lon="-3.34909">
        <ele>-6</ele>
        <time>2015-11-10T15:16:43Z</time>
      </trkpt>
      <trkpt lat="48.74164" lon="-3.34936">
        <ele>-6</ele>
        <time>2015-11-10T15:16:46Z</time>
      </trkpt>
      <trkpt lat="48.7415" lon="-3.34969">
        <ele>-6</ele>
        <time>2015-11-10T15:16:50Z</time>
      </trkpt>
      <trkpt lat="48.74141" lon="-3.34989">
        <ele>-6</ele>
        <time>2015-11-10T15:16:53Z</time>
      </trkpt>
      <trkpt lat="48.74136" lon="-3.35">
        <ele>-6</ele>
        <time>2015-11-10T15:16:55Z</time>
      </trkpt>
      <trkpt lat="48.7413" lon="-3.35016">
        <ele>-6</ele>
        <time>2015-11-10T15:16:58Z</time>
      </trkpt>
      <trkpt lat="48.74123" lon="-3.35037">
        <ele>-5</ele>
        <time>2015-11-10T15:17:02Z</time>
      </trkpt>
      <trkpt lat="48.74114" lon="-3.35059">
        <ele>-5</ele>
        <time>2015-11-10T15:17:06Z</time>
      </trkpt>
      <trkpt lat="48.74105" lon="-3.35082">
        <ele>-5</ele>
        <time>2015-11-10T15:17:10Z</time>
      </trkpt>
      <trkpt lat="48.74095" lon="-3.35106">
        <ele>-5</ele>
        <time>2015-11-10T15:17:14Z</time>
      </trkpt>
      <trkpt lat="48.74086" lon="-3.35132">
        <ele>-5</ele>
        <time>2015-11-10T15:17:18Z</time>
      </trkpt>
      <trkpt lat="48.74076" lon="-3.3516">
        <ele>-5</ele>
        <time>2015-11-10T15:17:22Z</time>
      </trkpt>
      <trkpt lat="48.74072" lon="-3.35174">
        <ele>-5</ele>
        <time>2015-11-10T15:17:24Z</time>
      </trkpt>
      <trkpt lat="48.74065" lon="-3.35195">
        <ele>-5</ele>
        <time>2015-11-10T15:17:27Z</time>
      </trkpt>
      <trkpt lat="48.7406" lon="-3.35208">
        <ele>-4</ele>
        <time>2015-11-10T15:17:29Z</time>
      </trkpt>
      <trkpt lat="48.74055" lon="-3.35221">
        <ele>-4</ele>
        <time>2015-11-10T15:17:31Z</time>
      </trkpt>
      <trkpt lat="48.74048" lon="-3.35238">
        <ele>-4</ele>
        <time>2015-11-10T15:17:34Z</time>
      </trkpt>
      <trkpt lat="48.74041" lon="-3.35255">
        <ele>-4</ele>
        <time>2015-11-10T15:17:37Z</time>
      </trkpt>
      <trkpt lat="48.74033" lon="-3.35279">
        <ele>-4</ele>
        <time>2015-11-10T15:17:41Z</time>
      </trkpt>
      <trkpt lat="48.74029" lon="-3.35292">
        <ele>-4</ele>
        <time>2015-11-10T15:17:43Z</time>
      </trkpt>
      <trkpt lat="48.7402" lon="-3.35316">
        <ele>-4</ele>
        <time>2015-11-10T15:17:47Z</time>
      </trkpt>
      <trkpt lat="48.74016" lon="-3.35329">
        <ele>-4</ele>
        <time>2015-11-10T15:17:49Z</time>
      </trkpt>
      <trkpt lat="48.74012" lon="-3.35342">
        <ele>-4</ele>
        <time>2015-11-10T15:17:51Z</time>
      </trkpt>
      <trkpt lat="48.74007" lon="-3.35361">
        <ele>-4</ele>
        <time>2015-11-10T15:17:54Z</time>
      </trkpt>
      <trkpt lat="48.74001" lon="-3.35382">
        <ele>-4</ele>
        <time>2015-11-10T15:17:57Z</time>
      </trkpt>
      <trkpt lat="48.73997" lon="-3.35395">
        <ele>-4</ele>
        <time>2015-11-10T15:17:59Z</time>
      </trkpt>
      <trkpt lat="48.73993" lon="-3.35409">
        <ele>-4</ele>
        <time>2015-11-10T15:18:01Z</time>
      </trkpt>
      <trkpt lat="48.73989" lon="-3.35423">
        <ele>-4</ele>
        <time>2015-11-10T15:18:03Z</time>
      </trkpt>
      <trkpt lat="48.73982" lon="-3.35443">
        <ele>-4</ele>
        <time>2015-11-10T15:18:06Z</time>
      </trkpt>
      <trkpt lat="48.73979" lon="-3.35457">
        <ele>-4</ele>
        <time>2015-11-10T15:18:08Z</time>
      </trkpt>
      <trkpt lat="48.73973" lon="-3.35477">
        <ele>-3</ele>
        <time>2015-11-10T15:18:11Z</time>
      </trkpt>
      <trkpt lat="48.73965" lon="-3.35505">
        <ele>-3</ele>
        <time>2015-11-10T15:18:15Z</time>
      </trkpt>
      <trkpt lat="48.7396" lon="-3.35527">
        <ele>-3</ele>
        <time>2015-11-10T15:18:18Z</time>
      </trkpt>
      <trkpt lat="48.73956" lon="-3.35542">
        <ele>-3</ele>
        <time>2015-11-10T15:18:20Z</time>
      </trkpt>
      <trkpt lat="48.73953" lon="-3.35557">
        <ele>-3</ele>
        <time>2015-11-10T15:18:22Z</time>
      </trkpt>
      <trkpt lat="48.73949" lon="-3.35572">
        <ele>-3</ele>
        <time>2015-11-10T15:18:24Z</time>
      </trkpt>
      <trkpt lat="48.73945" lon="-3.35588">
        <ele>-3</ele>
        <time>2015-11-10T15:18:26Z</time>
      </trkpt>
      <trkpt lat="48.73941" lon="-3.35604">
        <ele>-2</ele>
        <time>2015-11-10T15:18:28Z</time>
      </trkpt>
      <trkpt lat="48.73936" lon="-3.35628">
        <ele>-2</ele>
        <time>2015-11-10T15:18:31Z</time>
      </trkpt>
      <trkpt lat="48.7393" lon="-3.35652">
        <ele>-2</ele>
        <time>2015-11-10T15:18:34Z</time>
      </trkpt>
      <trkpt lat="48.73924" lon="-3.35676">
        <ele>-2</ele>
        <time>2015-11-10T15:18:37Z</time>
      </trkpt>
      <trkpt lat="48.73918" lon="-3.357">
        <ele>-2</ele>
        <time>2015-11-10T15:18:40Z</time>
      </trkpt>
      <trkpt lat="48.73913" lon="-3.35724">
        <ele>-2</ele>
        <time>2015-11-10T15:18:43Z</time>
      </trkpt>
      <trkpt lat="48.73909" lon="-3.3574">
        <ele>-2</ele>
        <time>2015-11-10T15:18:45Z</time>
      </trkpt>
      <trkpt lat="48.73905" lon="-3.35755">
        <ele>-1</ele>
        <time>2015-11-10T15:18:47Z</time>
      </trkpt>
      <trkpt lat="48.739" lon="-3.3577">
        <ele>-1</ele>
        <time>2015-11-10T15:18:49Z</time>
      </trkpt>
      <trkpt lat="48.73893" lon="-3.35792">
        <ele>-1</ele>
        <time>2015-11-10T15:18:52Z</time>
      </trkpt>
      <trkpt lat="48.73883" lon="-3.35818">
        <ele>-1</ele>
        <time>2015-11-10T15:18:56Z</time>
      </trkpt>
      <trkpt lat="48.73873" lon="-3.35841">
        <ele>-1</ele>
        <time>2015-11-10T15:19:00Z</time>
      </trkpt>
      <trkpt lat="48.73863" lon="-3.35863">
        <ele>-1</ele>
        <time>2015-11-10T15:19:04Z</time>
      </trkpt>
      <trkpt lat="48.73854" lon="-3.35883">
        <ele>-1</ele>
        <time>2015-11-10T15:19:08Z</time>
      </trkpt>
      <trkpt lat="48.73846" lon="-3.35906">
        <ele>42.6</ele>
        <time>2015-11-10T15:19:12Z</time>
      </trkpt>
      <trkpt lat="48.73836" lon="-3.35936">
        <ele>43</ele>
        <time>2015-11-10T15:19:17Z</time>
      </trkpt>
      <trkpt lat="48.7383" lon="-3.35961">
        <ele>43</ele>
        <time>2015-11-10T15:19:21Z</time>
      </trkpt>
      <trkpt lat="48.73827" lon="-3.35974">
        <ele>43</ele>
        <time>2015-11-10T15:19:23Z</time>
      </trkpt>
      <trkpt lat="48.73822" lon="-3.36">
        <ele>43</ele>
        <time>2015-11-10T15:19:27Z</time>
      </trkpt>
      <trkpt lat="48.73814" lon="-3.36026">
        <ele>43</ele>
        <time>2015-11-10T15:19:31Z</time>
      </trkpt>
      <trkpt lat="48.7381" lon="-3.36039">
        <ele>43.1</ele>
        <time>2015-11-10T15:19:33Z</time>
      </trkpt>
      <trkpt lat="48.738" lon="-3.36064">
        <ele>43.1</ele>
        <time>2015-11-10T15:19:37Z</time>
      </trkpt>
      <trkpt lat="48.73789" lon="-3.36089">
        <ele>43.6</ele>
        <time>2015-11-10T15:19:41Z</time>
      </trkpt>
      <trkpt lat="48.73781" lon="-3.36107">
        <ele>43.9</ele>
        <time>2015-11-10T15:19:44Z</time>
      </trkpt>
      <trkpt lat="48.7377" lon="-3.36131">
        <ele>44</ele>
        <time>2015-11-10T15:19:48Z</time>
      </trkpt>
      <trkpt lat="48.73761" lon="-3.36156">
        <ele>44</ele>
        <time>2015-11-10T15:19:52Z</time>
      </trkpt>
      <trkpt lat="48.73758" lon="-3.36168">
        <ele>44</ele>
        <time>2015-11-10T15:19:54Z</time>
      </trkpt>
      <trkpt lat="48.73754" lon="-3.3618">
        <ele>44</ele>
        <time>2015-11-10T15:19:56Z</time>
      </trkpt>
      <trkpt lat="48.73751" lon="-3.36192">
        <ele>44</ele>
        <time>2015-11-10T15:19:58Z</time>
      </trkpt>
      <trkpt lat="48.73745" lon="-3.36218">
        <ele>44.9</ele>
        <time>2015-11-10T15:20:02Z</time>
      </trkpt>
      <trkpt lat="48.7374" lon="-3.36244">
        <ele>45</ele>
        <time>2015-11-10T15:20:06Z</time>
      </trkpt>
      <trkpt lat="48.73736" lon="-3.36269">
        <ele>45.3</ele>
        <time>2015-11-10T15:20:10Z</time>
      </trkpt>
      <trkpt lat="48.73732" lon="-3.36293">
        <ele>45.7</ele>
        <time>2015-11-10T15:20:14Z</time>
      </trkpt>
      <trkpt lat="48.73729" lon="-3.36311">
        <ele>45.7</ele>
        <time>2015-11-10T15:20:17Z</time>
      </trkpt>
      <trkpt lat="48.73727" lon="-3.36335">
        <ele>45.8</ele>
        <time>2015-11-10T15:20:21Z</time>
      </trkpt>
      <trkpt lat="48.73727" lon="-3.3636">
        <ele>45.8</ele>
        <time>2015-11-10T15:20:25Z</time>
      </trkpt>
      <trkpt lat="48.73727" lon="-3.36373">
        <ele>46.2</ele>
        <time>2015-11-10T15:20:27Z</time>
      </trkpt>
      <trkpt lat="48.73729" lon="-3.36386">
        <ele>46.7</ele>
        <time>2015-11-10T15:20:29Z</time>
      </trkpt>
      <trkpt lat="48.73731" lon="-3.36411">
        <ele>1</ele>
        <time>2015-11-10T15:20:33Z</time>
      </trkpt>
      <trkpt lat="48.73732" lon="-3.36423">
        <ele>1</ele>
        <time>2015-11-10T15:20:35Z</time>
      </trkpt>
      <trkpt lat="48.73735" lon="-3.36448">
        <ele>1</ele>
        <time>2015-11-10T15:20:39Z</time>
      </trkpt>
      <trkpt lat="48.73736" lon="-3.36483">
        <ele>1</ele>
        <time>2015-11-10T15:20:45Z</time>
      </trkpt>
      <trkpt lat="48.73734" lon="-3.36508">
        <ele>2</ele>
        <time>2015-11-10T15:20:49Z</time>
      </trkpt>
      <trkpt lat="48.7373" lon="-3.36532">
        <ele>2</ele>
        <time>2015-11-10T15:20:53Z</time>
      </trkpt>
      <trkpt lat="48.73725" lon="-3.36555">
        <ele>2</ele>
        <time>2015-11-10T15:20:57Z</time>
      </trkpt>
      <trkpt lat="48.73722" lon="-3.36567">
        <ele>2</ele>
        <time>2015-11-10T15:20:59Z</time>
      </trkpt>
      <trkpt lat="48.73719" lon="-3.36579">
        <ele>2</ele>
        <time>2015-11-10T15:21:01Z</time>
      </trkpt>
      <trkpt lat="48.73713" lon="-3.36604">
        <ele>3</ele>
        <time>2015-11-10T15:21:05Z</time>
      </trkpt>
      <trkpt lat="48.73709" lon="-3.3663">
        <ele>3</ele>
        <time>2015-11-10T15:21:09Z</time>
      </trkpt>
      <trkpt lat="48.73707" lon="-3.36655">
        <ele>3</ele>
        <time>2015-11-10T15:21:13Z</time>
      </trkpt>
      <trkpt lat="48.73707" lon="-3.3668">
        <ele>3</ele>
        <time>2015-11-10T15:21:17Z</time>
      </trkpt>
      <trkpt lat="48.73708" lon="-3.36709">
        <ele>3</ele>
        <time>2015-11-10T15:21:22Z</time>
      </trkpt>
      <trkpt lat="48.7371" lon="-3.36733">
        <ele>3</ele>
        <time>2015-11-10T15:21:26Z</time>
      </trkpt>
      <trkpt lat="48.73709" lon="-3.36762">
        <ele>3</ele>
        <time>2015-11-10T15:21:30Z</time>
      </trkpt>
      <trkpt lat="48.73708" lon="-3.36777">
        <ele>3</ele>
        <time>2015-11-10T15:21:32Z</time>
      </trkpt>
      <trkpt lat="48.73706" lon="-3.36793">
        <ele>3</ele>
        <time>2015-11-10T15:21:34Z</time>
      </trkpt>
      <trkpt lat="48.73704" lon="-3.36807">
        <ele>3</ele>
        <time>2015-11-10T15:21:36Z</time>
      </trkpt>
      <trkpt lat="48.73701" lon="-3.36821">
        <ele>3</ele>
        <time>2015-11-10T15:21:38Z</time>
      </trkpt>
      <trkpt lat="48.73694" lon="-3.36848">
        <ele>3</ele>
        <time>2015-11-10T15:21:42Z</time>
      </trkpt>
      <trkpt lat="48.73687" lon="-3.36874">
        <ele>3</ele>
        <time>2015-11-10T15:21:46Z</time>
      </trkpt>
      <trkpt lat="48.73681" lon="-3.36896">
        <ele>3</ele>
        <time>2015-11-10T15:21:50Z</time>
      </trkpt>
      <trkpt lat="48.73675" lon="-3.36919">
        <ele>3</ele>
        <time>2015-11-10T15:21:55Z</time>
      </trkpt>
      <trkpt lat="48.73669" lon="-3.36941">
        <ele>3</ele>
        <time>2015-11-10T15:22:00Z</time>
      </trkpt>
      <trkpt lat="48.73661" lon="-3.36966">
        <ele>3</ele>
        <time>2015-11-10T15:22:06Z</time>
      </trkpt>
      <trkpt lat="48.73654" lon="-3.36987">
        <ele>3</ele>
        <time>2015-11-10T15:22:11Z</time>
      </trkpt>
      <trkpt lat="48.73648" lon="-3.37009">
        <ele>3</ele>
        <time>2015-11-10T15:22:16Z</time>
      </trkpt>
      <trkpt lat="48.73643" lon="-3.37038">
        <ele>3</ele>
        <time>2015-11-10T15:22:23Z</time>
      </trkpt>
      <trkpt lat="48.73638" lon="-3.37064">
        <ele>3</ele>
        <time>2015-11-10T15:22:30Z</time>
      </trkpt>
      <trkpt lat="48.73632" lon="-3.37088">
        <ele>3</ele>
        <time>2015-11-10T15:22:36Z</time>
      </trkpt>
      <trkpt lat="48.73624" lon="-3.37126">
        <ele>3</ele>
        <time>2015-11-10T15:22:44Z</time>
      </trkpt>
      <trkpt lat="48.73619" lon="-3.37151">
        <ele>3</ele>
        <time>2015-11-10T15:22:49Z</time>
      </trkpt>
      <trkpt lat="48.73615" lon="-3.37174">
        <ele>3</ele>
        <time>2015-11-10T15:22:54Z</time>
      </trkpt>
      <trkpt lat="48.73609" lon="-3.37209">
        <ele>4</ele>
        <time>2015-11-10T15:23:02Z</time>
      </trkpt>
      <trkpt lat="48.73606" lon="-3.37234">
        <ele>4</ele>
        <time>2015-11-10T15:23:08Z</time>
      </trkpt>
      <trkpt lat="48.73603" lon="-3.3726">
        <ele>4</ele>
        <time>2015-11-10T15:23:14Z</time>
      </trkpt>
      <trkpt lat="48.73602" lon="-3.37285">
        <ele>5</ele>
        <time>2015-11-10T15:23:20Z</time>
      </trkpt>
      <trkpt lat="48.73601" lon="-3.37299">
        <ele>5</ele>
        <time>2015-11-10T15:23:23Z</time>
      </trkpt>
      <trkpt lat="48.736" lon="-3.37322">
        <ele>6</ele>
        <time>2015-11-10T15:23:28Z</time>
      </trkpt>
      <trkpt lat="48.73599" lon="-3.37341">
        <ele>7</ele>
        <time>2015-11-10T15:23:32Z</time>
      </trkpt>
      <trkpt lat="48.73598" lon="-3.37366">
        <ele>7</ele>
        <time>2015-11-10T15:23:38Z</time>
      </trkpt>
      <trkpt lat="48.73596" lon="-3.37395">
        <ele>8</ele>
        <time>2015-11-10T15:23:46Z</time>
      </trkpt>
      <trkpt lat="48.73594" lon="-3.3742">
        <ele>9</ele>
        <time>2015-11-10T15:23:53Z</time>
      </trkpt>
      <trkpt lat="48.73592" lon="-3.37438">
        <ele>10</ele>
        <time>2015-11-10T15:23:58Z</time>
      </trkpt>
      <trkpt lat="48.7359" lon="-3.37453">
        <ele>11</ele>
        <time>2015-11-10T15:24:02Z</time>
      </trkpt>
      <trkpt lat="48.73585" lon="-3.37476">
        <ele>11</ele>
        <time>2015-11-10T15:24:08Z</time>
      </trkpt>
      <trkpt lat="48.7358" lon="-3.37487">
        <ele>12</ele>
        <time>2015-11-10T15:24:11Z</time>
      </trkpt>
      <trkpt lat="48.73573" lon="-3.37498">
        <ele>13</ele>
        <time>2015-11-10T15:24:14Z</time>
      </trkpt>
      <trkpt lat="48.73561" lon="-3.37515">
        <ele>13</ele>
        <time>2015-11-10T15:24:19Z</time>
      </trkpt>
      <trkpt lat="48.73553" lon="-3.37524">
        <ele>14</ele>
        <time>2015-11-10T15:24:22Z</time>
      </trkpt>
      <trkpt lat="48.73544" lon="-3.37531">
        <ele>14</ele>
        <time>2015-11-10T15:24:25Z</time>
      </trkpt>
      <trkpt lat="48.73527" lon="-3.37544">
        <ele>14</ele>
        <time>2015-11-10T15:24:30Z</time>
      </trkpt>
      <trkpt lat="48.73512" lon="-3.37561">
        <ele>15</ele>
        <time>2015-11-10T15:24:35Z</time>
      </trkpt>
      <trkpt lat="48.73502" lon="-3.37578">
        <ele>15</ele>
        <time>2015-11-10T15:24:39Z</time>
      </trkpt>
      <trkpt lat="48.73492" lon="-3.37602">
        <ele>16</ele>
        <time>2015-11-10T15:24:44Z</time>
      </trkpt>
      <trkpt lat="48.73486" lon="-3.37622">
        <ele>16</ele>
        <time>2015-11-10T15:24:48Z</time>
      </trkpt>
      <trkpt lat="48.73483" lon="-3.37637">
        <ele>16</ele>
        <time>2015-11-10T15:24:51Z</time>
      </trkpt>
      <trkpt lat="48.73478" lon="-3.37664">
        <ele>16</ele>
        <time>2015-11-10T15:24:56Z</time>
      </trkpt>
      <trkpt lat="48.73476" lon="-3.37679">
        <ele>16</ele>
        <time>2015-11-10T15:24:59Z</time>
      </trkpt>
      <trkpt lat="48.73474" lon="-3.37694">
        <ele>16</ele>
        <time>2015-11-10T15:25:02Z</time>
      </trkpt>
      <trkpt lat="48.73469" lon="-3.37715">
        <ele>16</ele>
        <time>2015-11-10T15:25:06Z</time>
      </trkpt>
      <trkpt lat="48.73465" lon="-3.3773">
        <ele>17</ele>
        <time>2015-11-10T15:25:09Z</time>
      </trkpt>
      <trkpt lat="48.73459" lon="-3.37746">
        <ele>17</ele>
        <time>2015-11-10T15:25:12Z</time>
      </trkpt>
      <trkpt lat="48.73453" lon="-3.37761">
        <ele>17</ele>
        <time>2015-11-10T15:25:15Z</time>
      </trkpt>
      <trkpt lat="48.73444" lon="-3.3778">
        <ele>18</ele>
        <time>2015-11-10T15:25:19Z</time>
      </trkpt>
      <trkpt lat="48.73437" lon="-3.37794">
        <ele>18</ele>
        <time>2015-11-10T15:25:22Z</time>
      </trkpt>
      <trkpt lat="48.7343" lon="-3.37808">
        <ele>18</ele>
        <time>2015-11-10T15:25:25Z</time>
      </trkpt>
      <trkpt lat="48.73423" lon="-3.37822">
        <ele>18</ele>
        <time>2015-11-10T15:25:28Z</time>
      </trkpt>
      <trkpt lat="48.73411" lon="-3.37839">
        <ele>19</ele>
        <time>2015-11-10T15:25:32Z</time>
      </trkpt>
      <trkpt lat="48.73401" lon="-3.3785">
        <ele>19</ele>
        <time>2015-11-10T15:25:35Z</time>
      </trkpt>
      <trkpt lat="48.73385" lon="-3.37864">
        <ele>19</ele>
        <time>2015-11-10T15:25:39Z</time>
      </trkpt>
      <trkpt lat="48.73368" lon="-3.37877">
        <ele>19</ele>
        <time>2015-11-10T15:25:43Z</time>
      </trkpt>
      <trkpt lat="48.7336" lon="-3.37884">
        <ele>20</ele>
        <time>2015-11-10T15:25:45Z</time>
      </trkpt>
      <trkpt lat="48.73352" lon="-3.37891">
        <ele>20</ele>
        <time>2015-11-10T15:25:47Z</time>
      </trkpt>
      <trkpt lat="48.73344" lon="-3.37899">
        <ele>20</ele>
        <time>2015-11-10T15:25:49Z</time>
      </trkpt>
      <trkpt lat="48.73333" lon="-3.37909">
        <ele>20</ele>
        <time>2015-11-10T15:25:52Z</time>
      </trkpt>
      <trkpt lat="48.73326" lon="-3.37917">
        <ele>21</ele>
        <time>2015-11-10T15:25:54Z</time>
      </trkpt>
      <trkpt lat="48.73316" lon="-3.37928">
        <ele>21</ele>
        <time>2015-11-10T15:25:57Z</time>
      </trkpt>
      <trkpt lat="48.73309" lon="-3.37936">
        <ele>21</ele>
        <time>2015-11-10T15:25:59Z</time>
      </trkpt>
      <trkpt lat="48.73303" lon="-3.37944">
        <ele>21</ele>
        <time>2015-11-10T15:26:01Z</time>
      </trkpt>
      <trkpt lat="48.73295" lon="-3.37957">
        <ele>21</ele>
        <time>2015-11-10T15:26:04Z</time>
      </trkpt>
      <trkpt lat="48.73288" lon="-3.37969">
        <ele>21</ele>
        <time>2015-11-10T15:26:07Z</time>
      </trkpt>
      <trkpt lat="48.73281" lon="-3.37982">
        <ele>22</ele>
        <time>2015-11-10T15:26:10Z</time>
      </trkpt>
      <trkpt lat="48.7327" lon="-3.38002">
        <ele>22</ele>
        <time>2015-11-10T15:26:15Z</time>
      </trkpt>
      <trkpt lat="48.7326" lon="-3.38022">
        <ele>22</ele>
        <time>2015-11-10T15:26:20Z</time>
      </trkpt>
      <trkpt lat="48.73249" lon="-3.3804">
        <ele>23</ele>
        <time>2015-11-10T15:26:25Z</time>
      </trkpt>
      <trkpt lat="48.73234" lon="-3.38061">
        <ele>23</ele>
        <time>2015-11-10T15:26:31Z</time>
      </trkpt>
      <trkpt lat="48.7322" lon="-3.38081">
        <ele>22</ele>
        <time>2015-11-10T15:26:37Z</time>
      </trkpt>
      <trkpt lat="48.73208" lon="-3.38098">
        <ele>22</ele>
        <time>2015-11-10T15:26:42Z</time>
      </trkpt>
      <trkpt lat="48.73198" lon="-3.3811">
        <ele>22</ele>
        <time>2015-11-10T15:26:46Z</time>
      </trkpt>
      <trkpt lat="48.7319" lon="-3.38118">
        <ele>23</ele>
        <time>2015-11-10T15:26:49Z</time>
      </trkpt>
      <trkpt lat="48.73182" lon="-3.38126">
        <ele>23</ele>
        <time>2015-11-10T15:26:52Z</time>
      </trkpt>
      <trkpt lat="48.73169" lon="-3.3814">
        <ele>23</ele>
        <time>2015-11-10T15:26:57Z</time>
      </trkpt>
      <trkpt lat="48.73155" lon="-3.38155">
        <ele>23</ele>
        <time>2015-11-10T15:27:02Z</time>
      </trkpt>
      <trkpt lat="48.73145" lon="-3.38166">
        <ele>23</ele>
        <time>2015-11-10T15:27:06Z</time>
      </trkpt>
      <trkpt lat="48.73137" lon="-3.38175">
        <ele>23</ele>
        <time>2015-11-10T15:27:09Z</time>
      </trkpt>
      <trkpt lat="48.73124" lon="-3.38191">
        <ele>24</ele>
        <time>2015-11-10T15:27:14Z</time>
      </trkpt>
      <trkpt lat="48.73116" lon="-3.38201">
        <ele>24</ele>
        <time>2015-11-10T15:27:17Z</time>
      </trkpt>
      <trkpt lat="48.73109" lon="-3.3821">
        <ele>25</ele>
        <time>2015-11-10T15:27:20Z</time>
      </trkpt>
      <trkpt lat="48.73102" lon="-3.38221">
        <ele>25</ele>
        <time>2015-11-10T15:27:23Z</time>
      </trkpt>
      <trkpt lat="48.73096" lon="-3.38233">
        <ele>25</ele>
        <time>2015-11-10T15:27:26Z</time>
      </trkpt>
      <trkpt lat="48.73088" lon="-3.3825">
        <ele>26</ele>
        <time>2015-11-10T15:27:30Z</time>
      </trkpt>
      <trkpt lat="48.73083" lon="-3.38262">
        <ele>26</ele>
        <time>2015-11-10T15:27:33Z</time>
      </trkpt>
      <trkpt lat="48.73078" lon="-3.38274">
        <ele>27</ele>
        <time>2015-11-10T15:27:36Z</time>
      </trkpt>
      <trkpt lat="48.73071" lon="-3.38285">
        <ele>27</ele>
        <time>2015-11-10T15:27:39Z</time>
      </trkpt>
      <trkpt lat="48.73063" lon="-3.383">
        <ele>27</ele>
        <time>2015-11-10T15:27:43Z</time>
      </trkpt>
      <trkpt lat="48.73057" lon="-3.38311">
        <ele>27</ele>
        <time>2015-11-10T15:27:46Z</time>
      </trkpt>
      <trkpt lat="48.73046" lon="-3.38331">
        <ele>28</ele>
        <time>2015-11-10T15:27:51Z</time>
      </trkpt>
      <trkpt lat="48.73038" lon="-3.38343">
        <ele>28</ele>
        <time>2015-11-10T15:27:54Z</time>
      </trkpt>
      <trkpt lat="48.73033" lon="-3.38353">
        <ele>28</ele>
        <time>2015-11-10T15:27:56Z</time>
      </trkpt>
      <trkpt lat="48.73022" lon="-3.38372">
        <ele>29</ele>
        <time>2015-11-10T15:28:00Z</time>
      </trkpt>
      <trkpt lat="48.73016" lon="-3.38382">
        <ele>29</ele>
        <time>2015-11-10T15:28:02Z</time>
      </trkpt>
      <trkpt lat="48.73005" lon="-3.38401">
        <ele>29</ele>
        <time>2015-11-10T15:28:06Z</time>
      </trkpt>
      <trkpt lat="48.72993" lon="-3.38421">
        <ele>29</ele>
        <time>2015-11-10T15:28:10Z</time>
      </trkpt>
      <trkpt lat="48.72979" lon="-3.38438">
        <ele>29</ele>
        <time>2015-11-10T15:28:14Z</time>
      </trkpt>
      <trkpt lat="48.72961" lon="-3.3845">
        <ele>29</ele>
        <time>2015-11-10T15:28:18Z</time>
      </trkpt>
      <trkpt lat="48.72952" lon="-3.38456">
        <ele>29</ele>
        <time>2015-11-10T15:28:20Z</time>
      </trkpt>
      <trkpt lat="48.72943" lon="-3.38463">
        <ele>29</ele>
        <time>2015-11-10T15:28:22Z</time>
      </trkpt>
      <trkpt lat="48.72937" lon="-3.38474">
        <ele>29</ele>
        <time>2015-11-10T15:28:24Z</time>
      </trkpt>
      <trkpt lat="48.72931" lon="-3.38492">
        <ele>29</ele>
        <time>2015-11-10T15:28:27Z</time>
      </trkpt>
      <trkpt lat="48.72922" lon="-3.38517">
        <ele>29</ele>
        <time>2015-11-10T15:28:31Z</time>
      </trkpt>
      <trkpt lat="48.72914" lon="-3.38541">
        <ele>29</ele>
        <time>2015-11-10T15:28:35Z</time>
      </trkpt>
      <trkpt lat="48.72914" lon="-3.38562">
        <ele>29</ele>
        <time>2015-11-10T15:28:38Z</time>
      </trkpt>
      <trkpt lat="48.72917" lon="-3.38581">
        <ele>30</ele>
        <time>2015-11-10T15:28:41Z</time>
      </trkpt>
      <trkpt lat="48.72924" lon="-3.38608">
        <ele>30</ele>
        <time>2015-11-10T15:28:45Z</time>
      </trkpt>
      <trkpt lat="48.72925" lon="-3.38647">
        <ele>30</ele>
        <time>2015-11-10T15:28:50Z</time>
      </trkpt>
      <trkpt lat="48.72928" lon="-3.3867">
        <ele>30</ele>
        <time>2015-11-10T15:28:53Z</time>
      </trkpt>
      <trkpt lat="48.72928" lon="-3.38687">
        <ele>30</ele>
        <time>2015-11-10T15:28:55Z</time>
      </trkpt>
      <trkpt lat="48.72928" lon="-3.38704">
        <ele>30</ele>
        <time>2015-11-10T15:28:57Z</time>
      </trkpt>
      <trkpt lat="48.72923" lon="-3.38728">
        <ele>31</ele>
        <time>2015-11-10T15:29:00Z</time>
      </trkpt>
      <trkpt lat="48.72918" lon="-3.38743">
        <ele>31</ele>
        <time>2015-11-10T15:29:02Z</time>
      </trkpt>
      <trkpt lat="48.72913" lon="-3.38758">
        <ele>31</ele>
        <time>2015-11-10T15:29:04Z</time>
      </trkpt>
      <trkpt lat="48.72908" lon="-3.38772">
        <ele>31</ele>
        <time>2015-11-10T15:29:06Z</time>
      </trkpt>
      <trkpt lat="48.72903" lon="-3.38786">
        <ele>31</ele>
        <time>2015-11-10T15:29:08Z</time>
      </trkpt>
      <trkpt lat="48.72898" lon="-3.38799">
        <ele>31</ele>
        <time>2015-11-10T15:29:10Z</time>
      </trkpt>
      <trkpt lat="48.72893" lon="-3.38813">
        <ele>31</ele>
        <time>2015-11-10T15:29:12Z</time>
      </trkpt>
      <trkpt lat="48.72889" lon="-3.38827">
        <ele>31</ele>
        <time>2015-11-10T15:29:14Z</time>
      </trkpt>
      <trkpt lat="48.72884" lon="-3.38847">
        <ele>32</ele>
        <time>2015-11-10T15:29:17Z</time>
      </trkpt>
      <trkpt lat="48.72881" lon="-3.38861">
        <ele>32</ele>
        <time>2015-11-10T15:29:19Z</time>
      </trkpt>
      <trkpt lat="48.72879" lon="-3.38874">
        <ele>32</ele>
        <time>2015-11-10T15:29:21Z</time>
      </trkpt>
      <trkpt lat="48.72878" lon="-3.38888">
        <ele>32</ele>
        <time>2015-11-10T15:29:23Z</time>
      </trkpt>
      <trkpt lat="48.72876" lon="-3.38908">
        <ele>32</ele>
        <time>2015-11-10T15:29:26Z</time>
      </trkpt>
      <trkpt lat="48.72874" lon="-3.38921">
        <ele>32</ele>
        <time>2015-11-10T15:29:28Z</time>
      </trkpt>
      <trkpt lat="48.72873" lon="-3.38933">
        <ele>32</ele>
        <time>2015-11-10T15:29:30Z</time>
      </trkpt>
      <trkpt lat="48.72872" lon="-3.38946">
        <ele>33</ele>
        <time>2015-11-10T15:29:32Z</time>
      </trkpt>
      <trkpt lat="48.7287" lon="-3.38964">
        <ele>33</ele>
        <time>2015-11-10T15:29:35Z</time>
      </trkpt>
      <trkpt lat="48.72867" lon="-3.38981">
        <ele>33</ele>
        <time>2015-11-10T15:29:38Z</time>
      </trkpt>
      <trkpt lat="48.72865" lon="-3.38998">
        <ele>33</ele>
        <time>2015-11-10T15:29:41Z</time>
      </trkpt>
      <trkpt lat="48.72863" lon="-3.39016">
        <ele>34</ele>
        <time>2015-11-10T15:29:44Z</time>
      </trkpt>
      <trkpt lat="48.7286" lon="-3.3904">
        <ele>34</ele>
        <time>2015-11-10T15:29:48Z</time>
      </trkpt>
      <trkpt lat="48.72858" lon="-3.39057">
        <ele>34</ele>
        <time>2015-11-10T15:29:51Z</time>
      </trkpt>
      <trkpt lat="48.72856" lon="-3.39074">
        <ele>34</ele>
        <time>2015-11-10T15:29:54Z</time>
      </trkpt>
      <trkpt lat="48.72854" lon="-3.39091">
        <ele>35</ele>
        <time>2015-11-10T15:29:57Z</time>
      </trkpt>
      <trkpt lat="48.72852" lon="-3.39109">
        <ele>35</ele>
        <time>2015-11-10T15:30:00Z</time>
      </trkpt>
      <trkpt lat="48.7285" lon="-3.39126">
        <ele>35</ele>
        <time>2015-11-10T15:30:03Z</time>
      </trkpt>
      <trkpt lat="48.72848" lon="-3.39143">
        <ele>35</ele>
        <time>2015-11-10T15:30:06Z</time>
      </trkpt>
      <trkpt lat="48.72845" lon="-3.39172">
        <ele>35</ele>
        <time>2015-11-10T15:30:11Z</time>
      </trkpt>
      <trkpt lat="48.72843" lon="-3.39197">
        <ele>36</ele>
        <time>2015-11-10T15:30:15Z</time>
      </trkpt>
      <trkpt lat="48.72842" lon="-3.3921">
        <ele>36</ele>
        <time>2015-11-10T15:30:17Z</time>
      </trkpt>
      <trkpt lat="48.72841" lon="-3.39224">
        <ele>36</ele>
        <time>2015-11-10T15:30:19Z</time>
      </trkpt>
      <trkpt lat="48.7284" lon="-3.39237">
        <ele>36</ele>
        <time>2015-11-10T15:30:21Z</time>
      </trkpt>
      <trkpt lat="48.72839" lon="-3.3925">
        <ele>37</ele>
        <time>2015-11-10T15:30:23Z</time>
      </trkpt>
      <trkpt lat="48.72838" lon="-3.39264">
        <ele>37</ele>
        <time>2015-11-10T15:30:25Z</time>
      </trkpt>
      <trkpt lat="48.72839" lon="-3.39283">
        <ele>37</ele>
        <time>2015-11-10T15:30:28Z</time>
      </trkpt>
      <trkpt lat="48.7284" lon="-3.3931">
        <ele>37</ele>
        <time>2015-11-10T15:30:32Z</time>
      </trkpt>
      <trkpt lat="48.72841" lon="-3.39337">
        <ele>37</ele>
        <time>2015-11-10T15:30:36Z</time>
      </trkpt>
      <trkpt lat="48.72841" lon="-3.3935">
        <ele>37</ele>
        <time>2015-11-10T15:30:38Z</time>
      </trkpt>
      <trkpt lat="48.72841" lon="-3.39363">
        <ele>38</ele>
        <time>2015-11-10T15:30:40Z</time>
      </trkpt>
      <trkpt lat="48.72841" lon="-3.39391">
        <ele>38</ele>
        <time>2015-11-10T15:30:45Z</time>
      </trkpt>
      <trkpt lat="48.72841" lon="-3.39409">
        <ele>38</ele>
        <time>2015-11-10T15:30:48Z</time>
      </trkpt>
      <trkpt lat="48.7284" lon="-3.39428">
        <ele>38</ele>
        <time>2015-11-10T15:30:51Z</time>
      </trkpt>
      <trkpt lat="48.72839" lon="-3.39446">
        <ele>38</ele>
        <time>2015-11-10T15:30:54Z</time>
      </trkpt>
      <trkpt lat="48.72838" lon="-3.39459">
        <ele>38</ele>
        <time>2015-11-10T15:30:56Z</time>
      </trkpt>
      <trkpt lat="48.72836" lon="-3.39472">
        <ele>38</ele>
        <time>2015-11-10T15:30:58Z</time>
      </trkpt>
      <trkpt lat="48.72833" lon="-3.39497">
        <ele>38</ele>
        <time>2015-11-10T15:31:02Z</time>
      </trkpt>
      <trkpt lat="48.72833" lon="-3.3951">
        <ele>38</ele>
        <time>2015-11-10T15:31:04Z</time>
      </trkpt>
      <trkpt lat="48.72831" lon="-3.39528">
        <ele>39</ele>
        <time>2015-11-10T15:31:07Z</time>
      </trkpt>
      <trkpt lat="48.72831" lon="-3.39546">
        <ele>39</ele>
        <time>2015-11-10T15:31:10Z</time>
      </trkpt>
      <trkpt lat="48.72831" lon="-3.39564">
        <ele>39</ele>
        <time>2015-11-10T15:31:13Z</time>
      </trkpt>
      <trkpt lat="48.72831" lon="-3.39582">
        <ele>39</ele>
        <time>2015-11-10T15:31:16Z</time>
      </trkpt>
      <trkpt lat="48.72833" lon="-3.39606">
        <ele>39</ele>
        <time>2015-11-10T15:31:20Z</time>
      </trkpt>
      <trkpt lat="48.72835" lon="-3.39632">
        <ele>39</ele>
        <time>2015-11-10T15:31:24Z</time>
      </trkpt>
      <trkpt lat="48.7284" lon="-3.39658">
        <ele>40</ele>
        <time>2015-11-10T15:31:28Z</time>
      </trkpt>
      <trkpt lat="48.72843" lon="-3.39672">
        <ele>40</ele>
        <time>2015-11-10T15:31:30Z</time>
      </trkpt>
      <trkpt lat="48.7285" lon="-3.397">
        <ele>40</ele>
        <time>2015-11-10T15:31:34Z</time>
      </trkpt>
      <trkpt lat="48.72857" lon="-3.39722">
        <ele>40</ele>
        <time>2015-11-10T15:31:37Z</time>
      </trkpt>
      <trkpt lat="48.72862" lon="-3.39736">
        <ele>40</ele>
        <time>2015-11-10T15:31:39Z</time>
      </trkpt>
      <trkpt lat="48.72871" lon="-3.39755">
        <ele>40</ele>
        <time>2015-11-10T15:31:42Z</time>
      </trkpt>
      <trkpt lat="48.72877" lon="-3.39768">
        <ele>40</ele>
        <time>2015-11-10T15:31:44Z</time>
      </trkpt>
      <trkpt lat="48.72884" lon="-3.3978">
        <ele>40</ele>
        <time>2015-11-10T15:31:46Z</time>
      </trkpt>
      <trkpt lat="48.72895" lon="-3.39798">
        <ele>40</ele>
        <time>2015-11-10T15:31:49Z</time>
      </trkpt>
      <trkpt lat="48.72905" lon="-3.39817">
        <ele>40</ele>
        <time>2015-11-10T15:31:52Z</time>
      </trkpt>
      <trkpt lat="48.72912" lon="-3.3983">
        <ele>40</ele>
        <time>2015-11-10T15:31:54Z</time>
      </trkpt>
      <trkpt lat="48.72922" lon="-3.3985">
        <ele>40</ele>
        <time>2015-11-10T15:31:57Z</time>
      </trkpt>
      <trkpt lat="48.72931" lon="-3.39872">
        <ele>40</ele>
        <time>2015-11-10T15:32:00Z</time>
      </trkpt>
      <trkpt lat="48.72939" lon="-3.39894">
        <ele>40</ele>
        <time>2015-11-10T15:32:03Z</time>
      </trkpt>
      <trkpt lat="48.72946" lon="-3.39918">
        <ele>40</ele>
        <time>2015-11-10T15:32:06Z</time>
      </trkpt>
      <trkpt lat="48.72953" lon="-3.39941">
        <ele>40</ele>
        <time>2015-11-10T15:32:09Z</time>
      </trkpt>
      <trkpt lat="48.7296" lon="-3.39965">
        <ele>40</ele>
        <time>2015-11-10T15:32:12Z</time>
      </trkpt>
      <trkpt lat="48.72967" lon="-3.39988">
        <ele>40</ele>
        <time>2015-11-10T15:32:15Z</time>
      </trkpt>
      <trkpt lat="48.72973" lon="-3.40011">
        <ele>40</ele>
        <time>2015-11-10T15:32:18Z</time>
      </trkpt>
      <trkpt lat="48.72978" lon="-3.40034">
        <ele>40</ele>
        <time>2015-11-10T15:32:21Z</time>
      </trkpt>
      <trkpt lat="48.72982" lon="-3.40057">
        <ele>40</ele>
        <time>2015-11-10T15:32:24Z</time>
      </trkpt>
      <trkpt lat="48.72985" lon="-3.40082">
        <ele>40</ele>
        <time>2015-11-10T15:32:27Z</time>
      </trkpt>
      <trkpt lat="48.72988" lon="-3.40116">
        <ele>40</ele>
        <time>2015-11-10T15:32:31Z</time>
      </trkpt>
      <trkpt lat="48.72991" lon="-3.40134">
        <ele>40</ele>
        <time>2015-11-10T15:32:33Z</time>
      </trkpt>
      <trkpt lat="48.72994" lon="-3.40152">
        <ele>40</ele>
        <time>2015-11-10T15:32:35Z</time>
      </trkpt>
      <trkpt lat="48.72999" lon="-3.40169">
        <ele>40</ele>
        <time>2015-11-10T15:32:37Z</time>
      </trkpt>
      <trkpt lat="48.73004" lon="-3.40186">
        <ele>40</ele>
        <time>2015-11-10T15:32:39Z</time>
      </trkpt>
      <trkpt lat="48.73012" lon="-3.4021">
        <ele>40</ele>
        <time>2015-11-10T15:32:42Z</time>
      </trkpt>
      <trkpt lat="48.73017" lon="-3.40227">
        <ele>40</ele>
        <time>2015-11-10T15:32:44Z</time>
      </trkpt>
      <trkpt lat="48.73021" lon="-3.40244">
        <ele>40</ele>
        <time>2015-11-10T15:32:46Z</time>
      </trkpt>
      <trkpt lat="48.73026" lon="-3.40269">
        <ele>40</ele>
        <time>2015-11-10T15:32:49Z</time>
      </trkpt>
      <trkpt lat="48.73027" lon="-3.40297">
        <ele>40</ele>
        <time>2015-11-10T15:32:52Z</time>
      </trkpt>
      <trkpt lat="48.73028" lon="-3.40324">
        <ele>40</ele>
        <time>2015-11-10T15:32:55Z</time>
      </trkpt>
      <trkpt lat="48.7303" lon="-3.40351">
        <ele>40</ele>
        <time>2015-11-10T15:32:58Z</time>
      </trkpt>
      <trkpt lat="48.73034" lon="-3.40376">
        <ele>40</ele>
        <time>2015-11-10T15:33:01Z</time>
      </trkpt>
      <trkpt lat="48.7304" lon="-3.40398">
        <ele>40</ele>
        <time>2015-11-10T15:33:04Z</time>
      </trkpt>
      <trkpt lat="48.73047" lon="-3.40419">
        <ele>39</ele>
        <time>2015-11-10T15:33:07Z</time>
      </trkpt>
      <trkpt lat="48.73052" lon="-3.40433">
        <ele>39</ele>
        <time>2015-11-10T15:33:09Z</time>
      </trkpt>
      <trkpt lat="48.73057" lon="-3.40454">
        <ele>39</ele>
        <time>2015-11-10T15:33:12Z</time>
      </trkpt>
      <trkpt lat="48.73059" lon="-3.40469">
        <ele>39</ele>
        <time>2015-11-10T15:33:14Z</time>
      </trkpt>
      <trkpt lat="48.73061" lon="-3.40485">
        <ele>39</ele>
        <time>2015-11-10T15:33:16Z</time>
      </trkpt>
      <trkpt lat="48.73062" lon="-3.40501">
        <ele>39</ele>
        <time>2015-11-10T15:33:18Z</time>
      </trkpt>
      <trkpt lat="48.73062" lon="-3.40516">
        <ele>39</ele>
        <time>2015-11-10T15:33:20Z</time>
      </trkpt>
      <trkpt lat="48.73062" lon="-3.4054">
        <ele>39</ele>
        <time>2015-11-10T15:33:23Z</time>
      </trkpt>
      <trkpt lat="48.73064" lon="-3.40564">
        <ele>39</ele>
        <time>2015-11-10T15:33:26Z</time>
      </trkpt>
      <trkpt lat="48.73066" lon="-3.4058">
        <ele>39</ele>
        <time>2015-11-10T15:33:28Z</time>
      </trkpt>
      <trkpt lat="48.7307" lon="-3.40595">
        <ele>39</ele>
        <time>2015-11-10T15:33:30Z</time>
      </trkpt>
      <trkpt lat="48.73077" lon="-3.40618">
        <ele>39</ele>
        <time>2015-11-10T15:33:33Z</time>
      </trkpt>
      <trkpt lat="48.73087" lon="-3.40641">
        <ele>39</ele>
        <time>2015-11-10T15:33:36Z</time>
      </trkpt>
      <trkpt lat="48.73098" lon="-3.40663">
        <ele>39</ele>
        <time>2015-11-10T15:33:39Z</time>
      </trkpt>
      <trkpt lat="48.73109" lon="-3.40687">
        <ele>39</ele>
        <time>2015-11-10T15:33:42Z</time>
      </trkpt>
      <trkpt lat="48.73121" lon="-3.40713">
        <ele>39</ele>
        <time>2015-11-10T15:33:45Z</time>
      </trkpt>
      <trkpt lat="48.73131" lon="-3.40738">
        <ele>39</ele>
        <time>2015-11-10T15:33:48Z</time>
      </trkpt>
      <trkpt lat="48.73138" lon="-3.40767">
        <ele>39</ele>
        <time>2015-11-10T15:33:51Z</time>
      </trkpt>
      <trkpt lat="48.73144" lon="-3.40799">
        <ele>39</ele>
        <time>2015-11-10T15:33:54Z</time>
      </trkpt>
      <trkpt lat="48.73151" lon="-3.4083">
        <ele>39</ele>
        <time>2015-11-10T15:33:57Z</time>
      </trkpt>
      <trkpt lat="48.73156" lon="-3.4086">
        <ele>38</ele>
        <time>2015-11-10T15:34:00Z</time>
      </trkpt>
      <trkpt lat="48.7316" lon="-3.40879">
        <ele>38</ele>
        <time>2015-11-10T15:34:02Z</time>
      </trkpt>
      <trkpt lat="48.73164" lon="-3.40899">
        <ele>37</ele>
        <time>2015-11-10T15:34:04Z</time>
      </trkpt>
      <trkpt lat="48.73167" lon="-3.40917">
        <ele>37</ele>
        <time>2015-11-10T15:34:06Z</time>
      </trkpt>
      <trkpt lat="48.73171" lon="-3.40935">
        <ele>37</ele>
        <time>2015-11-10T15:34:08Z</time>
      </trkpt>
      <trkpt lat="48.73174" lon="-3.40952">
        <ele>37</ele>
        <time>2015-11-10T15:34:10Z</time>
      </trkpt>
      <trkpt lat="48.73179" lon="-3.40976">
        <ele>36</ele>
        <time>2015-11-10T15:34:13Z</time>
      </trkpt>
      <trkpt lat="48.73185" lon="-3.41009">
        <ele>36</ele>
        <time>2015-11-10T15:34:17Z</time>
      </trkpt>
      <trkpt lat="48.73188" lon="-3.41034">
        <ele>36</ele>
        <time>2015-11-10T15:34:20Z</time>
      </trkpt>
      <trkpt lat="48.73192" lon="-3.41059">
        <ele>35</ele>
        <time>2015-11-10T15:34:23Z</time>
      </trkpt>
      <trkpt lat="48.73196" lon="-3.41083">
        <ele>35</ele>
        <time>2015-11-10T15:34:26Z</time>
      </trkpt>
      <trkpt lat="48.73201" lon="-3.41108">
        <ele>35</ele>
        <time>2015-11-10T15:34:29Z</time>
      </trkpt>
      <trkpt lat="48.73203" lon="-3.41124">
        <ele>34</ele>
        <time>2015-11-10T15:34:31Z</time>
      </trkpt>
      <trkpt lat="48.73205" lon="-3.4114">
        <ele>34</ele>
        <time>2015-11-10T15:34:33Z</time>
      </trkpt>
      <trkpt lat="48.73207" lon="-3.41156">
        <ele>34</ele>
        <time>2015-11-10T15:34:35Z</time>
      </trkpt>
      <trkpt lat="48.73209" lon="-3.41173">
        <ele>33</ele>
        <time>2015-11-10T15:34:37Z</time>
      </trkpt>
      <trkpt lat="48.7321" lon="-3.41191">
        <ele>33</ele>
        <time>2015-11-10T15:34:39Z</time>
      </trkpt>
      <trkpt lat="48.73214" lon="-3.4123">
        <ele>33</ele>
        <time>2015-11-10T15:34:43Z</time>
      </trkpt>
      <trkpt lat="48.73217" lon="-3.41261">
        <ele>33</ele>
        <time>2015-11-10T15:34:46Z</time>
      </trkpt>
      <trkpt lat="48.73219" lon="-3.41293">
        <ele>33</ele>
        <time>2015-11-10T15:34:49Z</time>
      </trkpt>
      <trkpt lat="48.73221" lon="-3.41322">
        <ele>33</ele>
        <time>2015-11-10T15:34:52Z</time>
      </trkpt>
      <trkpt lat="48.73221" lon="-3.41349">
        <ele>33</ele>
        <time>2015-11-10T15:34:55Z</time>
      </trkpt>
      <trkpt lat="48.73221" lon="-3.41373">
        <ele>32</ele>
        <time>2015-11-10T15:34:58Z</time>
      </trkpt>
      <trkpt lat="48.73221" lon="-3.4139">
        <ele>32</ele>
        <time>2015-11-10T15:35:00Z</time>
      </trkpt>
      <trkpt lat="48.7322" lon="-3.41406">
        <ele>32</ele>
        <time>2015-11-10T15:35:02Z</time>
      </trkpt>
      <trkpt lat="48.73219" lon="-3.41422">
        <ele>32</ele>
        <time>2015-11-10T15:35:04Z</time>
      </trkpt>
      <trkpt lat="48.73218" lon="-3.41437">
        <ele>32</ele>
        <time>2015-11-10T15:35:06Z</time>
      </trkpt>
      <trkpt lat="48.73218" lon="-3.41458">
        <ele>32</ele>
        <time>2015-11-10T15:35:09Z</time>
      </trkpt>
      <trkpt lat="48.73217" lon="-3.41488">
        <ele>32</ele>
        <time>2015-11-10T15:35:13Z</time>
      </trkpt>
      <trkpt lat="48.73216" lon="-3.41513">
        <ele>32</ele>
        <time>2015-11-10T15:35:16Z</time>
      </trkpt>
      <trkpt lat="48.73215" lon="-3.41531">
        <ele>32</ele>
        <time>2015-11-10T15:35:18Z</time>
      </trkpt>
      <trkpt lat="48.73214" lon="-3.4156">
        <ele>31</ele>
        <time>2015-11-10T15:35:21Z</time>
      </trkpt>
      <trkpt lat="48.73214" lon="-3.41584">
        <ele>31</ele>
        <time>2015-11-10T15:35:23Z</time>
      </trkpt>
      <trkpt lat="48.73215" lon="-3.41608">
        <ele>31</ele>
        <time>2015-11-10T15:35:25Z</time>
      </trkpt>
      <trkpt lat="48.73217" lon="-3.41632">
        <ele>31</ele>
        <time>2015-11-10T15:35:27Z</time>
      </trkpt>
      <trkpt lat="48.73219" lon="-3.41654">
        <ele>31</ele>
        <time>2015-11-10T15:35:29Z</time>
      </trkpt>
      <trkpt lat="48.73227" lon="-3.41698">
        <ele>31</ele>
        <time>2015-11-10T15:35:33Z</time>
      </trkpt>
      <trkpt lat="48.73233" lon="-3.41719">
        <ele>30</ele>
        <time>2015-11-10T15:35:35Z</time>
      </trkpt>
      <trkpt lat="48.73238" lon="-3.4174">
        <ele>30</ele>
        <time>2015-11-10T15:35:37Z</time>
      </trkpt>
      <trkpt lat="48.73244" lon="-3.41773">
        <ele>29</ele>
        <time>2015-11-10T15:35:40Z</time>
      </trkpt>
      <trkpt lat="48.73248" lon="-3.41807">
        <ele>29</ele>
        <time>2015-11-10T15:35:43Z</time>
      </trkpt>
      <trkpt lat="48.73255" lon="-3.41828">
        <ele>29</ele>
        <time>2015-11-10T15:35:45Z</time>
      </trkpt>
      <trkpt lat="48.73262" lon="-3.41848">
        <ele>28</ele>
        <time>2015-11-10T15:35:47Z</time>
      </trkpt>
      <trkpt lat="48.7327" lon="-3.4187">
        <ele>28</ele>
        <time>2015-11-10T15:35:49Z</time>
      </trkpt>
      <trkpt lat="48.73278" lon="-3.41891">
        <ele>28</ele>
        <time>2015-11-10T15:35:51Z</time>
      </trkpt>
      <trkpt lat="48.73288" lon="-3.41913">
        <ele>27</ele>
        <time>2015-11-10T15:35:53Z</time>
      </trkpt>
      <trkpt lat="48.73299" lon="-3.41934">
        <ele>27</ele>
        <time>2015-11-10T15:35:55Z</time>
      </trkpt>
      <trkpt lat="48.73312" lon="-3.4195">
        <ele>27</ele>
        <time>2015-11-10T15:35:57Z</time>
      </trkpt>
      <trkpt lat="48.73326" lon="-3.41966">
        <ele>27</ele>
        <time>2015-11-10T15:35:59Z</time>
      </trkpt>
      <trkpt lat="48.7334" lon="-3.41983">
        <ele>26</ele>
        <time>2015-11-10T15:36:01Z</time>
      </trkpt>
      <trkpt lat="48.73353" lon="-3.42004">
        <ele>26</ele>
        <time>2015-11-10T15:36:03Z</time>
      </trkpt>
      <trkpt lat="48.7336" lon="-3.42028">
        <ele>26</ele>
        <time>2015-11-10T15:36:05Z</time>
      </trkpt>
      <trkpt lat="48.73364" lon="-3.42052">
        <ele>26</ele>
        <time>2015-11-10T15:36:07Z</time>
      </trkpt>
      <trkpt lat="48.73364" lon="-3.42076">
        <ele>25</ele>
        <time>2015-11-10T15:36:09Z</time>
      </trkpt>
      <trkpt lat="48.7336" lon="-3.42109">
        <ele>25</ele>
        <time>2015-11-10T15:36:12Z</time>
      </trkpt>
      <trkpt lat="48.73352" lon="-3.42145">
        <ele>24</ele>
        <time>2015-11-10T15:36:16Z</time>
      </trkpt>
      <trkpt lat="48.73348" lon="-3.42162">
        <ele>24</ele>
        <time>2015-11-10T15:36:18Z</time>
      </trkpt>
      <trkpt lat="48.73342" lon="-3.42194">
        <ele>24</ele>
        <time>2015-11-10T15:36:22Z</time>
      </trkpt>
      <trkpt lat="48.7334" lon="-3.42223">
        <ele>23</ele>
        <time>2015-11-10T15:36:26Z</time>
      </trkpt>
      <trkpt lat="48.73341" lon="-3.42258">
        <ele>23</ele>
        <time>2015-11-10T15:36:31Z</time>
      </trkpt>
      <trkpt lat="48.73342" lon="-3.42272">
        <ele>23</ele>
        <time>2015-11-10T15:36:33Z</time>
      </trkpt>
      <trkpt lat="48.73343" lon="-3.42299">
        <ele>22</ele>
        <time>2015-11-10T15:36:37Z</time>
      </trkpt>
      <trkpt lat="48.73345" lon="-3.42312">
        <ele>22</ele>
        <time>2015-11-10T15:36:39Z</time>
      </trkpt>
      <trkpt lat="48.73347" lon="-3.42327">
        <ele>21</ele>
        <time>2015-11-10T15:36:42Z</time>
      </trkpt>
      <trkpt lat="48.73352" lon="-3.42355">
        <ele>20</ele>
        <time>2015-11-10T15:36:48Z</time>
      </trkpt>
      <trkpt lat="48.73354" lon="-3.42383">
        <ele>20</ele>
        <time>2015-11-10T15:36:53Z</time>
      </trkpt>
      <trkpt lat="48.73354" lon="-3.42412">
        <ele>20</ele>
        <time>2015-11-10T15:36:57Z</time>
      </trkpt>
      <trkpt lat="48.73354" lon="-3.42437">
        <ele>20</ele>
        <time>2015-11-10T15:37:00Z</time>
      </trkpt>
      <trkpt lat="48.73354" lon="-3.42477">
        <ele>19</ele>
        <time>2015-11-10T15:37:04Z</time>
      </trkpt>
      <trkpt lat="48.73356" lon="-3.42516">
        <ele>19</ele>
        <time>2015-11-10T15:37:08Z</time>
      </trkpt>
      <trkpt lat="48.7336" lon="-3.42542">
        <ele>19</ele>
        <time>2015-11-10T15:37:11Z</time>
      </trkpt>
      <trkpt lat="48.73368" lon="-3.42603">
        <ele>19</ele>
        <time>2015-11-10T15:37:17Z</time>
      </trkpt>
      <trkpt lat="48.7337" lon="-3.42627">
        <ele>19</ele>
        <time>2015-11-10T15:37:19Z</time>
      </trkpt>
      <trkpt lat="48.73371" lon="-3.42652">
        <ele>19</ele>
        <time>2015-11-10T15:37:21Z</time>
      </trkpt>
      <trkpt lat="48.73375" lon="-3.42692">
        <ele>19</ele>
        <time>2015-11-10T15:37:25Z</time>
      </trkpt>
      <trkpt lat="48.7338" lon="-3.42727">
        <ele>19</ele>
        <time>2015-11-10T15:37:29Z</time>
      </trkpt>
      <trkpt lat="48.7338" lon="-3.42757">
        <ele>19</ele>
        <time>2015-11-10T15:37:32Z</time>
      </trkpt>
      <trkpt lat="48.73377" lon="-3.42797">
        <ele>19</ele>
        <time>2015-11-10T15:37:36Z</time>
      </trkpt>
      <trkpt lat="48.73376" lon="-3.42832">
        <ele>20</ele>
        <time>2015-11-10T15:37:40Z</time>
      </trkpt>
      <trkpt lat="48.73378" lon="-3.42863">
        <ele>20</ele>
        <time>2015-11-10T15:37:44Z</time>
      </trkpt>
      <trkpt lat="48.73382" lon="-3.42892">
        <ele>20</ele>
        <time>2015-11-10T15:37:48Z</time>
      </trkpt>
      <trkpt lat="48.73388" lon="-3.42919">
        <ele>21</ele>
        <time>2015-11-10T15:37:52Z</time>
      </trkpt>
      <trkpt lat="48.73393" lon="-3.42946">
        <ele>21</ele>
        <time>2015-11-10T15:37:56Z</time>
      </trkpt>
      <trkpt lat="48.73407" lon="-3.43018">
        <ele>21</ele>
        <time>2015-11-10T15:38:06Z</time>
      </trkpt>
      <trkpt lat="48.73409" lon="-3.43048">
        <ele>21</ele>
        <time>2015-11-10T15:38:10Z</time>
      </trkpt>
      <trkpt lat="48.73405" lon="-3.43084">
        <ele>22</ele>
        <time>2015-11-10T15:38:14Z</time>
      </trkpt>
      <trkpt lat="48.73402" lon="-3.43115">
        <ele>22</ele>
        <time>2015-11-10T15:38:17Z</time>
      </trkpt>
      <trkpt lat="48.73399" lon="-3.43178">
        <ele>22</ele>
        <time>2015-11-10T15:38:23Z</time>
      </trkpt>
      <trkpt lat="48.73399" lon="-3.43219">
        <ele>22</ele>
        <time>2015-11-10T15:38:27Z</time>
      </trkpt>
      <trkpt lat="48.734" lon="-3.4325">
        <ele>22</ele>
        <time>2015-11-10T15:38:30Z</time>
      </trkpt>
      <trkpt lat="48.73401" lon="-3.43279">
        <ele>22</ele>
        <time>2015-11-10T15:38:33Z</time>
      </trkpt>
      <trkpt lat="48.73406" lon="-3.43308">
        <ele>22</ele>
        <time>2015-11-10T15:38:37Z</time>
      </trkpt>
      <trkpt lat="48.73407" lon="-3.43336">
        <ele>22</ele>
        <time>2015-11-10T15:38:42Z</time>
      </trkpt>
      <trkpt lat="48.7341" lon="-3.43371">
        <ele>22</ele>
        <time>2015-11-10T15:38:46Z</time>
      </trkpt>
      <trkpt lat="48.73412" lon="-3.43399">
        <ele>22</ele>
        <time>2015-11-10T15:38:49Z</time>
      </trkpt>
      <trkpt lat="48.73413" lon="-3.43423">
        <ele>21</ele>
        <time>2015-11-10T15:38:53Z</time>
      </trkpt>
      <trkpt lat="48.73416" lon="-3.43448">
        <ele>21</ele>
        <time>2015-11-10T15:38:58Z</time>
      </trkpt>
      <trkpt lat="48.7342" lon="-3.43473">
        <ele>20</ele>
        <time>2015-11-10T15:39:03Z</time>
      </trkpt>
      <trkpt lat="48.73425" lon="-3.43501">
        <ele>19</ele>
        <time>2015-11-10T15:39:10Z</time>
      </trkpt>
      <trkpt lat="48.73428" lon="-3.43526">
        <ele>18</ele>
        <time>2015-11-10T15:39:15Z</time>
      </trkpt>
      <trkpt lat="48.73437" lon="-3.43553">
        <ele>17</ele>
        <time>2015-11-10T15:39:20Z</time>
      </trkpt>
      <trkpt lat="48.73446" lon="-3.43574">
        <ele>17</ele>
        <time>2015-11-10T15:39:23Z</time>
      </trkpt>
      <trkpt lat="48.73457" lon="-3.43595">
        <ele>16</ele>
        <time>2015-11-10T15:39:26Z</time>
      </trkpt>
      <trkpt lat="48.73471" lon="-3.43612">
        <ele>16</ele>
        <time>2015-11-10T15:39:29Z</time>
      </trkpt>
      <trkpt lat="48.73488" lon="-3.43617">
        <ele>15</ele>
        <time>2015-11-10T15:39:32Z</time>
      </trkpt>
      <trkpt lat="48.73507" lon="-3.43627">
        <ele>15</ele>
        <time>2015-11-10T15:39:36Z</time>
      </trkpt>
      <trkpt lat="48.73515" lon="-3.43637">
        <ele>13</ele>
        <time>2015-11-10T15:39:48Z</time>
      </trkpt>
      <trkpt lat="48.7353" lon="-3.43648">
        <ele>12</ele>
        <time>2015-11-10T15:39:57Z</time>
      </trkpt>
      <trkpt lat="48.73546" lon="-3.43665">
        <ele>12</ele>
        <time>2015-11-10T15:40:01Z</time>
      </trkpt>
      <trkpt lat="48.73555" lon="-3.43687">
        <ele>11</ele>
        <time>2015-11-10T15:40:04Z</time>
      </trkpt>
      <trkpt lat="48.73547" lon="-3.43718">
        <ele>11</ele>
        <time>2015-11-10T15:40:07Z</time>
      </trkpt>
      <trkpt lat="48.73527" lon="-3.43734">
        <ele>11</ele>
        <time>2015-11-10T15:40:10Z</time>
      </trkpt>
      <trkpt lat="48.73504" lon="-3.43752">
        <ele>10</ele>
        <time>2015-11-10T15:40:14Z</time>
      </trkpt>
      <trkpt lat="48.73493" lon="-3.43775">
        <ele>10</ele>
        <time>2015-11-10T15:40:17Z</time>
      </trkpt>
      <trkpt lat="48.73485" lon="-3.43792">
        <ele>10</ele>
        <time>2015-11-10T15:40:19Z</time>
      </trkpt>
      <trkpt lat="48.73471" lon="-3.43828">
        <ele>10</ele>
        <time>2015-11-10T15:40:23Z</time>
      </trkpt>
      <trkpt lat="48.73456" lon="-3.43867">
        <ele>9</ele>
        <time>2015-11-10T15:40:27Z</time>
      </trkpt>
      <trkpt lat="48.73446" lon="-3.439">
        <ele>9</ele>
        <time>2015-11-10T15:40:30Z</time>
      </trkpt>
      <trkpt lat="48.73441" lon="-3.43924">
        <ele>9</ele>
        <time>2015-11-10T15:40:32Z</time>
      </trkpt>
      <trkpt lat="48.73438" lon="-3.43949">
        <ele>8</ele>
        <time>2015-11-10T15:40:34Z</time>
      </trkpt>
      <trkpt lat="48.73435" lon="-3.43975">
        <ele>8</ele>
        <time>2015-11-10T15:40:36Z</time>
      </trkpt>
      <trkpt lat="48.73433" lon="-3.44">
        <ele>8</ele>
        <time>2015-11-10T15:40:38Z</time>
      </trkpt>
      <trkpt lat="48.73431" lon="-3.44026">
        <ele>8</ele>
        <time>2015-11-10T15:40:40Z</time>
      </trkpt>
      <trkpt lat="48.73428" lon="-3.44051">
        <ele>8</ele>
        <time>2015-11-10T15:40:42Z</time>
      </trkpt>
      <trkpt lat="48.73424" lon="-3.44063">
        <ele>8</ele>
        <time>2015-11-10T15:40:43Z</time>
      </trkpt>
      <trkpt lat="48.73411" lon="-3.44112">
        <ele>7</ele>
        <time>2015-11-10T15:40:47Z</time>
      </trkpt>
      <trkpt lat="48.73405" lon="-3.44137">
        <ele>7</ele>
        <time>2015-11-10T15:40:49Z</time>
      </trkpt>
      <trkpt lat="48.734" lon="-3.44162">
        <ele>7</ele>
        <time>2015-11-10T15:40:51Z</time>
      </trkpt>
      <trkpt lat="48.73395" lon="-3.44187">
        <ele>7</ele>
        <time>2015-11-10T15:40:53Z</time>
      </trkpt>
      <trkpt lat="48.73394" lon="-3.44213">
        <ele>7</ele>
        <time>2015-11-10T15:40:55Z</time>
      </trkpt>
      <trkpt lat="48.73394" lon="-3.44238">
        <ele>6</ele>
        <time>2015-11-10T15:40:57Z</time>
      </trkpt>
      <trkpt lat="48.73395" lon="-3.44262">
        <ele>6</ele>
        <time>2015-11-10T15:40:59Z</time>
      </trkpt>
      <trkpt lat="48.73396" lon="-3.44286">
        <ele>6</ele>
        <time>2015-11-10T15:41:01Z</time>
      </trkpt>
      <trkpt lat="48.73394" lon="-3.4431">
        <ele>6</ele>
        <time>2015-11-10T15:41:03Z</time>
      </trkpt>
      <trkpt lat="48.73395" lon="-3.44342">
        <ele>6</ele>
        <time>2015-11-10T15:41:06Z</time>
      </trkpt>
      <trkpt lat="48.73399" lon="-3.44369">
        <ele>5</ele>
        <time>2015-11-10T15:41:09Z</time>
      </trkpt>
      <trkpt lat="48.73406" lon="-3.44402">
        <ele>5</ele>
        <time>2015-11-10T15:41:13Z</time>
      </trkpt>
      <trkpt lat="48.73414" lon="-3.44426">
        <ele>4</ele>
        <time>2015-11-10T15:41:16Z</time>
      </trkpt>
      <trkpt lat="48.73436" lon="-3.44433">
        <ele>4</ele>
        <time>2015-11-10T15:41:20Z</time>
      </trkpt>
      <trkpt lat="48.73478" lon="-3.44422">
        <ele>4</ele>
        <time>2015-11-10T15:41:26Z</time>
      </trkpt>
      <trkpt lat="48.73493" lon="-3.44413">
        <ele>3</ele>
        <time>2015-11-10T15:41:28Z</time>
      </trkpt>
      <trkpt lat="48.73509" lon="-3.44405">
        <ele>3</ele>
        <time>2015-11-10T15:41:30Z</time>
      </trkpt>
      <trkpt lat="48.73525" lon="-3.444">
        <ele>3</ele>
        <time>2015-11-10T15:41:32Z</time>
      </trkpt>
      <trkpt lat="48.73543" lon="-3.44396">
        <ele>2</ele>
        <time>2015-11-10T15:41:34Z</time>
      </trkpt>
      <trkpt lat="48.73561" lon="-3.44394">
        <ele>2</ele>
        <time>2015-11-10T15:41:36Z</time>
      </trkpt>
      <trkpt lat="48.73578" lon="-3.44395">
        <ele>2</ele>
        <time>2015-11-10T15:41:38Z</time>
      </trkpt>
      <trkpt lat="48.73595" lon="-3.44398">
        <ele>1</ele>
        <time>2015-11-10T15:41:40Z</time>
      </trkpt>
      <trkpt lat="48.73613" lon="-3.44404">
        <ele>1</ele>
        <time>2015-11-10T15:41:42Z</time>
      </trkpt>
      <trkpt lat="48.73623" lon="-3.44408">
        <ele>1</ele>
        <time>2015-11-10T15:41:43Z</time>
      </trkpt>
      <trkpt lat="48.73641" lon="-3.44418">
        <ele>22.9</ele>
        <time>2015-11-10T15:41:45Z</time>
      </trkpt>
      <trkpt lat="48.73661" lon="-3.44431">
        <ele>22</ele>
        <time>2015-11-10T15:41:47Z</time>
      </trkpt>
      <trkpt lat="48.7368" lon="-3.44446">
        <ele>-1</ele>
        <time>2015-11-10T15:41:49Z</time>
      </trkpt>
      <trkpt lat="48.73714" lon="-3.44474">
        <ele>-1</ele>
        <time>2015-11-10T15:41:53Z</time>
      </trkpt>
      <trkpt lat="48.73731" lon="-3.44482">
        <ele>-2</ele>
        <time>2015-11-10T15:41:55Z</time>
      </trkpt>
      <trkpt lat="48.73747" lon="-3.44482">
        <ele>-2</ele>
        <time>2015-11-10T15:41:57Z</time>
      </trkpt>
      <trkpt lat="48.7376" lon="-3.44474">
        <ele>-3</ele>
        <time>2015-11-10T15:41:59Z</time>
      </trkpt>
      <trkpt lat="48.73781" lon="-3.44456">
        <ele>-4</ele>
        <time>2015-11-10T15:42:03Z</time>
      </trkpt>
      <trkpt lat="48.73814" lon="-3.44432">
        <ele>-5</ele>
        <time>2015-11-10T15:42:21Z</time>
      </trkpt>
      <trkpt lat="48.73843" lon="-3.44432">
        <ele>-7</ele>
        <time>2015-11-10T15:42:33Z</time>
      </trkpt>
      <trkpt lat="48.73858" lon="-3.44438">
        <ele>-8</ele>
        <time>2015-11-10T15:42:39Z</time>
      </trkpt>
      <trkpt lat="48.73876" lon="-3.44449">
        <ele>-9</ele>
        <time>2015-11-10T15:42:46Z</time>
      </trkpt>
      <trkpt lat="48.73892" lon="-3.44454">
        <ele>-10</ele>
        <time>2015-11-10T15:42:52Z</time>
      </trkpt>
      <trkpt lat="48.7391" lon="-3.44458">
        <ele>-11</ele>
        <time>2015-11-10T15:42:58Z</time>
      </trkpt>
      <trkpt lat="48.73921" lon="-3.44461">
        <ele>-12</ele>
        <time>2015-11-10T15:43:02Z</time>
      </trkpt>
      <trkpt lat="48.73934" lon="-3.44462">
        <ele>-12</ele>
        <time>2015-11-10T15:43:07Z</time>
      </trkpt>
      <trkpt lat="48.73947" lon="-3.44455">
        <ele>-13</ele>
        <time>2015-11-10T15:43:12Z</time>
      </trkpt>
      <trkpt lat="48.73964" lon="-3.44451">
        <ele>-13</ele>
        <time>2015-11-10T15:43:18Z</time>
      </trkpt>
      <trkpt lat="48.73979" lon="-3.44467">
        <ele>-14</ele>
        <time>2015-11-10T15:43:23Z</time>
      </trkpt>
      <trkpt lat="48.73993" lon="-3.44483">
        <ele>-14</ele>
        <time>2015-11-10T15:43:27Z</time>
      </trkpt>
      <trkpt lat="48.74011" lon="-3.4449">
        <ele>-15</ele>
        <time>2015-11-10T15:43:31Z</time>
      </trkpt>
      <trkpt lat="48.74023" lon="-3.44495">
        <ele>-15</ele>
        <time>2015-11-10T15:43:34Z</time>
      </trkpt>
      <trkpt lat="48.74031" lon="-3.44497">
        <ele>-15</ele>
        <time>2015-11-10T15:43:36Z</time>
      </trkpt>
      <trkpt lat="48.74043" lon="-3.445">
        <ele>-15</ele>
        <time>2015-11-10T15:43:39Z</time>
      </trkpt>
      <trkpt lat="48.74059" lon="-3.44504">
        <ele>-15</ele>
        <time>2015-11-10T15:43:43Z</time>
      </trkpt>
      <trkpt lat="48.74076" lon="-3.44512">
        <ele>-15</ele>
        <time>2015-11-10T15:43:48Z</time>
      </trkpt>
      <trkpt lat="48.74093" lon="-3.44519">
        <ele>-15</ele>
        <time>2015-11-10T15:43:53Z</time>
      </trkpt>
      <trkpt lat="48.74107" lon="-3.44526">
        <ele>-14</ele>
        <time>2015-11-10T15:43:57Z</time>
      </trkpt>
      <trkpt lat="48.74123" lon="-3.44536">
        <ele>-13</ele>
        <time>2015-11-10T15:44:02Z</time>
      </trkpt>
      <trkpt lat="48.74139" lon="-3.44543">
        <ele>-13</ele>
        <time>2015-11-10T15:44:07Z</time>
      </trkpt>
      <trkpt lat="48.74148" lon="-3.44547">
        <ele>-12</ele>
        <time>2015-11-10T15:44:10Z</time>
      </trkpt>
      <trkpt lat="48.74164" lon="-3.44554">
        <ele>-11</ele>
        <time>2015-11-10T15:44:15Z</time>
      </trkpt>
      <trkpt lat="48.74173" lon="-3.44558">
        <ele>-11</ele>
        <time>2015-11-10T15:44:18Z</time>
      </trkpt>
      <trkpt lat="48.74189" lon="-3.44565">
        <ele>-10</ele>
        <time>2015-11-10T15:44:23Z</time>
      </trkpt>
      <trkpt lat="48.74204" lon="-3.44572">
        <ele>-10</ele>
        <time>2015-11-10T15:44:28Z</time>
      </trkpt>
      <trkpt lat="48.74221" lon="-3.44581">
        <ele>-9</ele>
        <time>2015-11-10T15:44:34Z</time>
      </trkpt>
      <trkpt lat="48.74235" lon="-3.4459">
        <ele>-9</ele>
        <time>2015-11-10T15:44:39Z</time>
      </trkpt>
      <trkpt lat="48.74254" lon="-3.44601">
        <ele>-8</ele>
        <time>2015-11-10T15:44:45Z</time>
      </trkpt>
      <trkpt lat="48.74266" lon="-3.44622">
        <ele>-8</ele>
        <time>2015-11-10T15:44:50Z</time>
      </trkpt>
      <trkpt lat="48.7427" lon="-3.44647">
        <ele>-8</ele>
        <time>2015-11-10T15:44:55Z</time>
      </trkpt>
      <trkpt lat="48.74275" lon="-3.44672">
        <ele>-8</ele>
        <time>2015-11-10T15:45:00Z</time>
      </trkpt>
      <trkpt lat="48.74279" lon="-3.44695">
        <ele>-7</ele>
        <time>2015-11-10T15:45:05Z</time>
      </trkpt>
      <trkpt lat="48.7428" lon="-3.44721">
        <ele>-7</ele>
        <time>2015-11-10T15:45:11Z</time>
      </trkpt>
      <trkpt lat="48.74279" lon="-3.44751">
        <ele>-7</ele>
        <time>2015-11-10T15:45:18Z</time>
      </trkpt>
      <trkpt lat="48.74279" lon="-3.44775">
        <ele>-6</ele>
        <time>2015-11-10T15:45:24Z</time>
      </trkpt>
      <trkpt lat="48.74279" lon="-3.44798">
        <ele>-6</ele>
        <time>2015-11-10T15:45:31Z</time>
      </trkpt>
      <trkpt lat="48.7428" lon="-3.44823">
        <ele>-5</ele>
        <time>2015-11-10T15:45:39Z</time>
      </trkpt>
      <trkpt lat="48.74281" lon="-3.44849">
        <ele>-4</ele>
        <time>2015-11-10T15:45:46Z</time>
      </trkpt>
      <trkpt lat="48.74281" lon="-3.44872">
        <ele>-4</ele>
        <time>2015-11-10T15:45:52Z</time>
      </trkpt>
      <trkpt lat="48.74281" lon="-3.44898">
        <ele>-3</ele>
        <time>2015-11-10T15:45:58Z</time>
      </trkpt>
      <trkpt lat="48.7428" lon="-3.44924">
        <ele>-2</ele>
        <time>2015-11-10T15:46:04Z</time>
      </trkpt>
      <trkpt lat="48.7428" lon="-3.4495">
        <ele>-1</ele>
        <time>2015-11-10T15:46:10Z</time>
      </trkpt>
      <trkpt lat="48.74281" lon="-3.44973">
        <ele>55.3</ele>
        <time>2015-11-10T15:46:16Z</time>
      </trkpt>
      <trkpt lat="48.74281" lon="-3.44997">
        <ele>56.1</ele>
        <time>2015-11-10T15:46:22Z</time>
      </trkpt>
      <trkpt lat="48.7428" lon="-3.45021">
        <ele>1</ele>
        <time>2015-11-10T15:46:28Z</time>
      </trkpt>
      <trkpt lat="48.74279" lon="-3.45045">
        <ele>2</ele>
        <time>2015-11-10T15:46:35Z</time>
      </trkpt>
      <trkpt lat="48.7428" lon="-3.45069">
        <ele>3</ele>
        <time>2015-11-10T15:46:42Z</time>
      </trkpt>
      <trkpt lat="48.7428" lon="-3.45088">
        <ele>3</ele>
        <time>2015-11-10T15:46:47Z</time>
      </trkpt>
      <trkpt lat="48.74281" lon="-3.45101">
        <ele>3</ele>
        <time>2015-11-10T15:46:50Z</time>
      </trkpt>
      <trkpt lat="48.74285" lon="-3.4512">
        <ele>4</ele>
        <time>2015-11-10T15:46:55Z</time>
      </trkpt>
      <trkpt lat="48.74293" lon="-3.45143">
        <ele>5</ele>
        <time>2015-11-10T15:47:02Z</time>
      </trkpt>
      <trkpt lat="48.74298" lon="-3.45155">
        <ele>5</ele>
        <time>2015-11-10T15:47:06Z</time>
      </trkpt>
      <trkpt lat="48.74309" lon="-3.45172">
        <ele>6</ele>
        <time>2015-11-10T15:47:12Z</time>
      </trkpt>
      <trkpt lat="48.74315" lon="-3.45181">
        <ele>7</ele>
        <time>2015-11-10T15:47:15Z</time>
      </trkpt>
      <trkpt lat="48.74321" lon="-3.45191">
        <ele>7</ele>
        <time>2015-11-10T15:47:18Z</time>
      </trkpt>
      <trkpt lat="48.74335" lon="-3.45208">
        <ele>8</ele>
        <time>2015-11-10T15:47:24Z</time>
      </trkpt>
      <trkpt lat="48.74346" lon="-3.45215">
        <ele>9</ele>
        <time>2015-11-10T15:47:28Z</time>
      </trkpt>
      <trkpt lat="48.74359" lon="-3.45222">
        <ele>9</ele>
        <time>2015-11-10T15:47:33Z</time>
      </trkpt>
      <trkpt lat="48.74374" lon="-3.45228">
        <ele>10</ele>
        <time>2015-11-10T15:47:38Z</time>
      </trkpt>
      <trkpt lat="48.74388" lon="-3.45235">
        <ele>11</ele>
        <time>2015-11-10T15:47:43Z</time>
      </trkpt>
      <trkpt lat="48.74402" lon="-3.45251">
        <ele>12</ele>
        <time>2015-11-10T15:47:48Z</time>
      </trkpt>
      <trkpt lat="48.74408" lon="-3.45265">
        <ele>12</ele>
        <time>2015-11-10T15:47:51Z</time>
      </trkpt>
      <trkpt lat="48.74411" lon="-3.45291">
        <ele>13</ele>
        <time>2015-11-10T15:47:55Z</time>
      </trkpt>
      <trkpt lat="48.74411" lon="-3.4531">
        <ele>13</ele>
        <time>2015-11-10T15:47:57Z</time>
      </trkpt>
      <trkpt lat="48.74412" lon="-3.45331">
        <ele>13</ele>
        <time>2015-11-10T15:47:59Z</time>
      </trkpt>
      <trkpt lat="48.74414" lon="-3.45373">
        <ele>13</ele>
        <time>2015-11-10T15:48:03Z</time>
      </trkpt>
      <trkpt lat="48.74412" lon="-3.45417">
        <ele>13</ele>
        <time>2015-11-10T15:48:07Z</time>
      </trkpt>
      <trkpt lat="48.74398" lon="-3.45455">
        <ele>14</ele>
        <time>2015-11-10T15:48:11Z</time>
      </trkpt>
      <trkpt lat="48.74358" lon="-3.45501">
        <ele>59</ele>
        <time>2015-11-10T15:48:18Z</time>
      </trkpt>
      <trkpt lat="48.74277" lon="-3.45569">
        <ele>51.6</ele>
        <time>2015-11-10T15:48:28Z</time>
      </trkpt>
      <trkpt lat="48.74158" lon="-3.45592">
        <ele>12</ele>
        <time>2015-11-10T15:48:41Z</time>
      </trkpt>
      <trkpt lat="48.74139" lon="-3.45592">
        <ele>11</ele>
        <time>2015-11-10T15:48:43Z</time>
      </trkpt>
      <trkpt lat="48.741" lon="-3.45585">
        <ele>11</ele>
        <time>2015-11-10T15:48:47Z</time>
      </trkpt>
      <trkpt lat="48.74082" lon="-3.45575">
        <ele>10</ele>
        <time>2015-11-10T15:48:49Z</time>
      </trkpt>
      <trkpt lat="48.74063" lon="-3.4557">
        <ele>10</ele>
        <time>2015-11-10T15:48:51Z</time>
      </trkpt>
      <trkpt lat="48.74042" lon="-3.45574">
        <ele>9</ele>
        <time>2015-11-10T15:48:53Z</time>
      </trkpt>
      <trkpt lat="48.74021" lon="-3.45583">
        <ele>9</ele>
        <time>2015-11-10T15:48:55Z</time>
      </trkpt>
      <trkpt lat="48.74001" lon="-3.45595">
        <ele>8</ele>
        <time>2015-11-10T15:48:57Z</time>
      </trkpt>
      <trkpt lat="48.73984" lon="-3.45615">
        <ele>8</ele>
        <time>2015-11-10T15:48:59Z</time>
      </trkpt>
      <trkpt lat="48.73971" lon="-3.45636">
        <ele>8</ele>
        <time>2015-11-10T15:49:01Z</time>
      </trkpt>
      <trkpt lat="48.73963" lon="-3.45652">
        <ele>7</ele>
        <time>2015-11-10T15:49:03Z</time>
      </trkpt>
      <trkpt lat="48.73957" lon="-3.45665">
        <ele>6</ele>
        <time>2015-11-10T15:49:05Z</time>
      </trkpt>
      <trkpt lat="48.73951" lon="-3.45679">
        <ele>5</ele>
        <time>2015-11-10T15:49:09Z</time>
      </trkpt>
      <trkpt lat="48.73943" lon="-3.457">
        <ele>4</ele>
        <time>2015-11-10T15:49:16Z</time>
      </trkpt>
      <trkpt lat="48.73934" lon="-3.45721">
        <ele>2</ele>
        <time>2015-11-10T15:49:24Z</time>
      </trkpt>
      <trkpt lat="48.73927" lon="-3.45733">
        <ele>46.9</ele>
        <time>2015-11-10T15:49:28Z</time>
      </trkpt>
      <trkpt lat="48.73914" lon="-3.45754">
        <ele>-1</ele>
        <time>2015-11-10T15:49:35Z</time>
      </trkpt>
      <trkpt lat="48.73901" lon="-3.45768">
        <ele>-1</ele>
        <time>2015-11-10T15:49:40Z</time>
      </trkpt>
      <trkpt lat="48.73888" lon="-3.45778">
        <ele>-2</ele>
        <time>2015-11-10T15:49:44Z</time>
      </trkpt>
      <trkpt lat="48.73878" lon="-3.45784">
        <ele>-3</ele>
        <time>2015-11-10T15:49:47Z</time>
      </trkpt>
      <trkpt lat="48.73864" lon="-3.45796">
        <ele>-3</ele>
        <time>2015-11-10T15:49:51Z</time>
      </trkpt>
      <trkpt lat="48.73853" lon="-3.45806">
        <ele>-4</ele>
        <time>2015-11-10T15:49:54Z</time>
      </trkpt>
      <trkpt lat="48.73846" lon="-3.45813">
        <ele>-4</ele>
        <time>2015-11-10T15:49:56Z</time>
      </trkpt>
      <trkpt lat="48.73831" lon="-3.45829">
        <ele>-4</ele>
        <time>2015-11-10T15:50:00Z</time>
      </trkpt>
      <trkpt lat="48.73824" lon="-3.45838">
        <ele>-4</ele>
        <time>2015-11-10T15:50:02Z</time>
      </trkpt>
      <trkpt lat="48.73817" lon="-3.45849">
        <ele>-4</ele>
        <time>2015-11-10T15:50:04Z</time>
      </trkpt>
      <trkpt lat="48.73811" lon="-3.4586">
        <ele>-4</ele>
        <time>2015-11-10T15:50:06Z</time>
      </trkpt>
      <trkpt lat="48.73791" lon="-3.45891">
        <ele>-4</ele>
        <time>2015-11-10T15:50:12Z</time>
      </trkpt>
      <trkpt lat="48.73776" lon="-3.45907">
        <ele>-4</ele>
        <time>2015-11-10T15:50:16Z</time>
      </trkpt>
      <trkpt lat="48.73768" lon="-3.45915">
        <ele>-4</ele>
        <time>2015-11-10T15:50:18Z</time>
      </trkpt>
      <trkpt lat="48.73761" lon="-3.45923">
        <ele>-3</ele>
        <time>2015-11-10T15:50:20Z</time>
      </trkpt>
      <trkpt lat="48.73754" lon="-3.45932">
        <ele>-3</ele>
        <time>2015-11-10T15:50:22Z</time>
      </trkpt>
      <trkpt lat="48.7374" lon="-3.45948">
        <ele>-3</ele>
        <time>2015-11-10T15:50:26Z</time>
      </trkpt>
      <trkpt lat="48.73729" lon="-3.45965">
        <ele>-3</ele>
        <time>2015-11-10T15:50:30Z</time>
      </trkpt>
      <trkpt lat="48.73722" lon="-3.45988">
        <ele>-3</ele>
        <time>2015-11-10T15:50:34Z</time>
      </trkpt>
      <trkpt lat="48.73717" lon="-3.46012">
        <ele>-2</ele>
        <time>2015-11-10T15:50:38Z</time>
      </trkpt>
      <trkpt lat="48.73711" lon="-3.46043">
        <ele>-2</ele>
        <time>2015-11-10T15:50:43Z</time>
      </trkpt>
      <trkpt lat="48.73704" lon="-3.46068">
        <ele>-1</ele>
        <time>2015-11-10T15:50:47Z</time>
      </trkpt>
      <trkpt lat="48.73697" lon="-3.46093">
        <ele>-1</ele>
        <time>2015-11-10T15:50:51Z</time>
      </trkpt>
      <trkpt lat="48.73687" lon="-3.46117">
        <ele>-1</ele>
        <time>2015-11-10T15:50:55Z</time>
      </trkpt>
      <trkpt lat="48.73688" lon="-3.46144">
        <ele>52.4</ele>
        <time>2015-11-10T15:50:59Z</time>
      </trkpt>
      <trkpt lat="48.73704" lon="-3.46163">
        <ele>51.2</ele>
        <time>2015-11-10T15:51:03Z</time>
      </trkpt>
      <trkpt lat="48.7372" lon="-3.46175">
        <ele>51</ele>
        <time>2015-11-10T15:51:06Z</time>
      </trkpt>
      <trkpt lat="48.73737" lon="-3.46188">
        <ele>50.5</ele>
        <time>2015-11-10T15:51:10Z</time>
      </trkpt>
      <trkpt lat="48.73739" lon="-3.46214">
        <ele>50.4</ele>
        <time>2015-11-10T15:51:15Z</time>
      </trkpt>
      <trkpt lat="48.73726" lon="-3.46229">
        <ele>50.7</ele>
        <time>2015-11-10T15:51:18Z</time>
      </trkpt>
      <trkpt lat="48.73711" lon="-3.46244">
        <ele>50.6</ele>
        <time>2015-11-10T15:51:21Z</time>
      </trkpt>
      <trkpt lat="48.73696" lon="-3.46257">
        <ele>1</ele>
        <time>2015-11-10T15:51:24Z</time>
      </trkpt>
      <trkpt lat="48.73687" lon="-3.46266">
        <ele>50.7</ele>
        <time>2015-11-10T15:51:26Z</time>
      </trkpt>
      <trkpt lat="48.73668" lon="-3.46283">
        <ele>50.7</ele>
        <time>2015-11-10T15:51:30Z</time>
      </trkpt>
      <trkpt lat="48.73651" lon="-3.463">
        <ele>50.1</ele>
        <time>2015-11-10T15:51:34Z</time>
      </trkpt>
      <trkpt lat="48.73643" lon="-3.46313">
        <ele>49.7</ele>
        <time>2015-11-10T15:51:43Z</time>
      </trkpt>
    </trkseg>
  </trk>
</gpx>